Takano, Matsumi (2013): Radiosonde measurements from station Ishigakijima (2013-05) [dataset]. Japan Meteorological Agency, Tokyo, PANGAEA, https://doi.org/10.1594/PANGAEA.817181
Always quote citation above when using data! You can download the citation in several formats below.
Published: 2013-07-25 • DOI registered: 2013-08-22
Other version:
Takano, Matsumi (2013): BSRN Station-to-archive file for station Ishigakijima (2013-05). ftp://ftp.bsrn.awi.de/ish/ish0513.dat.gz
Project(s):
Coverage:
Latitude: 24.336700 * Longitude: 124.164400
Date/Time Start: 2013-05-01T00:00:00 * Date/Time End: 2013-05-31T23:59:00
Minimum ALTITUDE: 8 m * Maximum ALTITUDE: 33624 m
Event(s):
ISH (Ishigakijima) * Latitude: 24.336700 * Longitude: 124.164400 * Date/Time: 2010-04-01T00:00:00 * Elevation: 5.7 m * Station info: https://hdl.handle.net/10013/epic.44630.d026, update 2022: Ishigakijima.pdf * Location: Japan * Method/Device: Monitoring station (MONS) * Comment: BSRN station no: 7; Surface type: asphalt; Topography type: flat, rural; Horizon: doi:10.1594/PANGAEA.743878; Station scientist: SASAKI Shun (rrc-jma@met.kishou.go.jp)
Parameter(s):
| # | Name | Short Name | Unit | Principal Investigator | Method/Device | Comment |
|---|---|---|---|---|---|---|
| 1 | DATE/TIME | Date/Time | Geocode | |||
| 2 | ALTITUDE | Altitude | m | Geocode | ||
| 3 | Pressure, at given altitude | PPPP | hPa | Takano, Matsumi | Radiosonde, MEISEI, RS-06 | |
| 4 | Temperature, air | TTT | °C | Takano, Matsumi | Radiosonde, MEISEI, RS-06 | |
| 5 | Dew/frost point | TdTdTd | °C | Takano, Matsumi | Radiosonde, MEISEI, RS-06 | |
| 6 | Wind direction | dd | deg | Takano, Matsumi | Radiosonde, MEISEI, RS-06 | |
| 7 | Wind speed | ff | m/s | Takano, Matsumi | Radiosonde, MEISEI, RS-06 |
License:
Size:
24840 data points
Data
| 1 Date/Time | 2 Altitude [m] | 3 PPPP [hPa] | 4 TTT [°C] | 5 TdTdTd [°C] | 6 dd [deg] | 7 ff [m/s] |
|---|---|---|---|---|---|---|
| 2013-05-01T00:00 | 9984 | 284 | 269 | 28 | ||
| 2013-05-01T00:01 | 10291 | 271 | 265 | 30 | ||
| 2013-05-01T00:02 | 10567 | 261 | -40.0 | -42.2 | ||
| 2013-05-01T00:02 | 10577 | 260 | 267 | 32 | ||
| 2013-05-01T00:03 | 10876 | 249 | 268 | 31 | ||
| 2013-05-01T00:04 | 11165 | 239 | 263 | 30 | ||
| 2013-05-01T00:05 | 11444 | 229 | 253 | 28 | ||
| 2013-05-01T00:05 | 11534 | 226 | -48.1 | |||
| 2013-05-01T00:06 | 11699 | 220 | 251 | 28 | ||
| 2013-05-01T00:07 | 11977 | 211 | 251 | 31 | ||
| 2013-05-01T00:08 | 12278 | 201 | 261 | 36 | ||
| 2013-05-01T00:08 | 12332 | 200 | -54.5 | |||
| 2013-05-01T00:09 | 12576 | 192 | 263 | 39 | ||
| 2013-05-01T00:10 | 12882 | 183 | 265 | 41 | ||
| 2013-05-01T00:11 | 13143 | 176 | -61.3 | |||
| 2013-05-01T00:11 | 13186 | 174 | 265 | 43 | ||
| 2013-05-01T00:12 | 13465 | 167 | 263 | 43 | ||
| 2013-05-01T00:12 | 13506 | 166 | -62.0 | |||
| 2013-05-01T00:13 | 13692 | 161 | -63.1 | |||
| 2013-05-01T00:13 | 13723 | 160 | 264 | 41 | ||
| 2013-05-01T00:14 | 13974 | 153 | 272 | 39 | ||
| 2013-05-01T00:15 | 14172 | 149 | -64.1 | |||
| 2013-05-01T00:15 | 14247 | 147 | 274 | 33 | ||
| 2013-05-01T00:15 | 14364 | 144 | -64.6 | |||
| 2013-05-01T00:16 | 14536 | 140 | 264 | 30 | ||
| 2013-05-01T00:17 | 14798 | 134 | -65.9 | |||
| 2013-05-01T00:17 | 14812 | 134 | 260 | 28 | ||
| 2013-05-01T00:17 | 14903 | 132 | -65.4 | |||
| 2013-05-01T00:18 | 15076 | 128 | 265 | 26 | ||
| 2013-05-01T00:19 | 15244 | 125 | -67.3 | |||
| 2013-05-01T00:19 | 15341 | 123 | 263 | 24 | ||
| 2013-05-01T00:20 | 15571 | 118 | -69.0 | |||
| 2013-05-01T00:20 | 15617 | 117 | 263 | 24 | ||
| 2013-05-01T00:20 | 15730 | 115 | -69.3 | |||
| 2013-05-01T00:21 | 15898 | 112 | 262 | 22 | ||
| 2013-05-01T00:22 | 16201 | 106 | 252 | 23 | ||
| 2013-05-01T00:22 | 16245 | 105 | -73.5 | |||
| 2013-05-01T00:23 | 16488 | 101 | 252 | 22 | ||
| 2013-05-01T00:24 | 16645 | 98 | -75.8 | |||
| 2013-05-01T00:24 | 16758 | 96 | 261 | 19 | ||
| 2013-05-01T00:25 | 17028 | 92 | 271 | 14 | ||
| 2013-05-01T00:25 | 17066 | 91 | -75.9 | |||
| 2013-05-01T00:26 | 17195 | 89 | -74.6 | |||
| 2013-05-01T00:26 | 17293 | 88 | 284 | 10 | ||
| 2013-05-01T00:27 | 17551 | 84 | 288 | 9 | ||
| 2013-05-01T00:27 | 17557 | 84 | -74.6 | |||
| 2013-05-01T00:28 | 17832 | 80 | 258 | 9 | ||
| 2013-05-01T00:29 | 18000 | 78 | -77.3 | |||
| 2013-05-01T00:29 | 18134 | 76 | 232 | 12 | ||
| 2013-05-01T00:30 | 18390 | 73 | -76.6 | |||
| 2013-05-01T00:30 | 18406 | 72 | 264 | 11 | ||
| 2013-05-01T00:31 | 18674 | 69 | 301 | 9 | ||
| 2013-05-01T00:31 | 18733 | 68 | -76.7 | |||
| 2013-05-01T00:32 | 18948 | 66 | 265 | 4 | ||
| 2013-05-01T00:32 | 19028 | 65 | -74.3 | |||
| 2013-05-01T00:33 | 19220 | 63 | 264 | 5 | ||
| 2013-05-01T00:34 | 19480 | 60 | 272 | 2 | ||
| 2013-05-01T00:35 | 19641 | 59 | -67.5 | |||
| 2013-05-01T00:35 | 19765 | 57 | 215 | 3 | ||
| 2013-05-01T00:36 | 20044 | 55 | 260 | 5 | ||
| 2013-05-01T00:36 | 20177 | 54 | -68.7 | |||
| 2013-05-01T00:37 | 20324 | 52 | 325 | 3 | ||
| 2013-05-01T00:38 | 20487 | 51 | -67.7 | |||
| 2013-05-01T00:38 | 20607 | 50 | 312 | 4 | ||
| 2013-05-01T00:39 | 20905 | 48 | 11 | 3 | ||
| 2013-05-01T00:40 | 21208 | 45 | 84 | 5 | ||
| 2013-05-01T00:40 | 21331 | 44 | -63.4 | |||
| 2013-05-01T00:41 | 21500 | 43 | 55 | 4 | ||
| 2013-05-01T00:41 | 21645 | 42 | -62.0 | |||
| 2013-05-01T00:42 | 21794 | 41 | 98 | 8 | ||
| 2013-05-01T00:43 | 22120 | 39 | 94 | 10 | ||
| 2013-05-01T00:43 | 22200 | 39 | -59.6 | |||
| 2013-05-01T00:44 | 22432 | 37 | 121 | 13 | ||
| 2013-05-01T00:45 | 22743 | 35 | 126 | 12 | ||
| 2013-05-01T00:45 | 22797 | 35 | -59.2 | |||
| 2013-05-01T00:46 | 23053 | 34 | 116 | 8 | ||
| 2013-05-01T00:47 | 23360 | 32 | 114 | 4 | ||
| 2013-05-01T00:48 | 23704 | 30 | 112 | 3 | ||
| 2013-05-01T00:48 | 23724 | 30 | -57.5 | |||
| 2013-05-01T00:49 | 24024 | 29 | 132 | 7 | ||
| 2013-05-01T00:50 | 24362 | 27 | 130 | 7 | ||
| 2013-05-01T00:51 | 24696 | 26 | 198 | 3 | ||
| 2013-05-01T00:52 | 25049 | 25 | 222 | 7 | ||
| 2013-05-01T00:53 | 25424 | 23 | 183 | 13 | ||
| 2013-05-01T00:53 | 25451 | 23 | -55.6 | |||
| 2013-05-01T00:54 | 25764 | 22 | 203 | 1 | ||
| 2013-05-01T00:55 | 26095 | 21 | 253 | 1 | ||
| 2013-05-01T00:56 | 26413 | 20 | -52.4 | |||
| 2013-05-01T00:56 | 26446 | 20 | 186 | 2 | ||
| 2013-05-01T00:57 | 26578 | 19 | -52.7 | |||
| 2013-05-01T11:30 | 8 | 1011 | 19.5 | 12.0 | 20 | 3 |
| 2013-05-01T11:30 | 79 | 1002 | 19.0 | 9.8 | ||
| 2013-05-01T11:31 | 330 | 973 | 28 | 8 | ||
| 2013-05-01T11:31 | 486 | 956 | 15.8 | 9.2 | ||
| 2013-05-01T11:32 | 683 | 934 | 15 | 11 | ||
| 2013-05-01T11:32 | 807 | 920 | 12.9 | 8.2 | ||
| 2013-05-01T11:32 | 859 | 914 | 12.5 | 7.6 | ||
| 2013-05-01T11:33 | 916 | 908 | 12.1 | 5.9 | ||
| 2013-05-01T11:33 | 929 | 907 | 12.5 | 4.5 | ||
| 2013-05-01T11:33 | 994 | 900 | 12.4 | 2.0 | ||
| 2013-05-01T11:33 | 1064 | 892 | 19 | 9 | ||
| 2013-05-01T11:34 | 1246 | 873 | 10.3 | 2.6 | ||
| 2013-05-01T11:34 | 1351 | 862 | 10.6 | 6.9 | ||
| 2013-05-01T11:34 | 1373 | 860 | 11.2 | 10.1 | ||
| 2013-05-01T11:34 | 1418 | 855 | 12.0 | 11.7 | 1 | 4 |
| 2013-05-01T11:35 | 1787 | 818 | 10.9 | 10.3 | 340 | 6 |
| 2013-05-01T11:36 | 2151 | 784 | 314 | 10 | ||
| 2013-05-01T11:36 | 2268 | 773 | 10.0 | 10.0 | ||
| 2013-05-01T11:37 | 2489 | 752 | 294 | 8 | ||
| 2013-05-01T11:37 | 2569 | 745 | 8.1 | 8.1 | ||
| 2013-05-01T11:38 | 2814 | 723 | 7.2 | 7.2 | ||
| 2013-05-01T11:38 | 2856 | 720 | 268 | 10 | ||
| 2013-05-01T11:39 | 3037 | 704 | 6.7 | 6.7 | ||
| 2013-05-01T11:39 | 3209 | 689 | 268 | 14 | ||
| 2013-05-01T11:40 | 3565 | 660 | 283 | 14 | ||
| 2013-05-01T11:41 | 3899 | 633 | 288 | 15 | ||
| 2013-05-01T11:42 | 4083 | 619 | 0.7 | 0.7 | ||
| 2013-05-01T11:42 | 4230 | 608 | 299 | 13 | ||
| 2013-05-01T11:43 | 4588 | 581 | 300 | 15 | ||
| 2013-05-01T11:44 | 4804 | 566 | -3.7 | -4.1 | ||
| 2013-05-01T11:44 | 4938 | 556 | 295 | 16 | ||
| 2013-05-01T11:44 | 5019 | 550 | -5.0 | -5.8 | ||
| 2013-05-01T11:44 | 5097 | 545 | -4.9 | -5.9 | ||
| 2013-05-01T11:45 | 5228 | 536 | -5.8 | -7.9 | ||
| 2013-05-01T11:45 | 5265 | 534 | 279 | 16 | ||
| 2013-05-01T11:45 | 5281 | 532 | -6.3 | -10.2 | ||
| 2013-05-01T11:45 | 5301 | 531 | -6.5 | -13.2 | ||
| 2013-05-01T11:45 | 5317 | 530 | -6.7 | -12.2 | ||
| 2013-05-01T11:45 | 5338 | 529 | -6.9 | -11.3 | ||
| 2013-05-01T11:45 | 5363 | 527 | -7.1 | -13.3 | ||
| 2013-05-01T11:45 | 5391 | 525 | -7.4 | -19.6 | ||
| 2013-05-01T11:45 | 5410 | 524 | -7.5 | -20.0 | ||
| 2013-05-01T11:46 | 5420 | 523 | -7.6 | -20.1 | ||
| 2013-05-01T11:46 | 5463 | 520 | -8.0 | -24.2 | ||
| 2013-05-01T11:46 | 5482 | 519 | -8.2 | -27.2 | ||
| 2013-05-01T11:46 | 5493 | 518 | -8.3 | -22.4 | ||
| 2013-05-01T11:46 | 5509 | 517 | -8.5 | -26.0 | ||
| 2013-05-01T11:46 | 5541 | 515 | -8.8 | -27.7 | ||
| 2013-05-01T11:46 | 5551 | 514 | -8.9 | -29.0 | ||
| 2013-05-01T11:46 | 5568 | 513 | -9.0 | -24.2 | ||
| 2013-05-01T11:46 | 5583 | 512 | 272 | 17 | ||
| 2013-05-01T11:46 | 5589 | 512 | -9.2 | -25.6 | ||
| 2013-05-01T11:46 | 5598 | 511 | -9.3 | -22.6 | ||
| 2013-05-01T11:46 | 5615 | 510 | -9.5 | -26.4 | ||
| 2013-05-01T11:46 | 5630 | 509 | -9.6 | -23.6 | ||
| 2013-05-01T11:46 | 5640 | 508 | -9.5 | -23.5 | ||
| 2013-05-01T11:46 | 5662 | 507 | -9.5 | -25.5 | ||
| 2013-05-01T11:46 | 5671 | 506 | -9.5 | -23.5 | ||
| 2013-05-01T11:46 | 5695 | 505 | -9.9 | -23.5 | ||
| 2013-05-01T11:46 | 5708 | 504 | -9.9 | -23.9 | ||
| 2013-05-01T11:46 | 5721 | 503 | -10.0 | -20.5 | ||
| 2013-05-01T11:47 | 5747 | 501 | -9.7 | -23.3 | ||
| 2013-05-01T11:47 | 5786 | 499 | -9.9 | -24.2 | ||
| 2013-05-01T11:47 | 5799 | 498 | -9.9 | -21.9 | ||
| 2013-05-01T11:47 | 5819 | 497 | -9.9 | -22.2 | ||
| 2013-05-01T11:47 | 5831 | 496 | -10.0 | -21.6 | ||
| 2013-05-01T11:47 | 5849 | 495 | -9.9 | -22.8 | ||
| 2013-05-01T11:47 | 5861 | 494 | -9.8 | -24.1 | ||
| 2013-05-01T11:47 | 5884 | 493 | 273 | 20 | ||
| 2013-05-01T11:47 | 5889 | 492 | -9.9 | -22.8 | ||
| 2013-05-01T11:47 | 5909 | 491 | -9.9 | -21.0 | ||
| 2013-05-01T11:47 | 5921 | 490 | -9.9 | -20.4 | ||
| 2013-05-01T11:47 | 5935 | 489 | -10.0 | -21.6 | ||
| 2013-05-01T11:47 | 5971 | 487 | -10.2 | -24.1 | ||
| 2013-05-01T11:47 | 5990 | 486 | -10.2 | -23.4 | ||
| 2013-05-01T11:47 | 6002 | 485 | -10.2 | -21.8 | ||
| 2013-05-01T11:48 | 6033 | 483 | -10.2 | -21.5 | ||
| 2013-05-01T11:48 | 6045 | 482 | -10.2 | -22.1 | ||
| 2013-05-01T11:48 | 6065 | 481 | -10.2 | -22.1 | ||
| 2013-05-01T11:48 | 6085 | 480 | -10.5 | -25.1 | ||
| 2013-05-01T11:48 | 6129 | 477 | -10.5 | -25.9 | ||
| 2013-05-01T11:48 | 6145 | 476 | -10.6 | -28.7 | ||
| 2013-05-01T11:48 | 6174 | 474 | 273 | 21 | ||
| 2013-05-01T11:48 | 6189 | 473 | -10.5 | -23.4 | ||
| 2013-05-01T11:48 | 6256 | 469 | -11.0 | -20.6 | ||
| 2013-05-01T11:48 | 6321 | 465 | -11.1 | -21.0 | ||
| 2013-05-01T11:49 | 6343 | 464 | -10.9 | -17.8 | ||
| 2013-05-01T11:49 | 6384 | 462 | -11.1 | -18.6 | ||
| 2013-05-01T11:49 | 6431 | 459 | -11.1 | -19.3 | ||
| 2013-05-01T11:49 | 6486 | 455 | 276 | 21 | ||
| 2013-05-01T11:49 | 6491 | 455 | -11.5 | -18.7 | ||
| 2013-05-01T11:49 | 6547 | 452 | -11.9 | -19.6 | ||
| 2013-05-01T11:50 | 6739 | 441 | -13.3 | -22.7 | ||
| 2013-05-01T11:50 | 6815 | 436 | -13.8 | -23.2 | ||
| 2013-05-01T11:50 | 6820 | 436 | 276 | 19 | ||
| 2013-05-01T11:50 | 6854 | 434 | -14.0 | -22.9 | ||
| 2013-05-01T11:51 | 7009 | 425 | -15.1 | -23.9 | ||
| 2013-05-01T11:51 | 7151 | 417 | 275 | 21 | ||
| 2013-05-01T11:51 | 7172 | 416 | -16.2 | -22.6 | ||
| 2013-05-01T11:52 | 7483 | 399 | 273 | 22 | ||
| 2013-05-01T11:52 | 7511 | 398 | -18.6 | -25.6 | ||
| 2013-05-01T11:53 | 7766 | 384 | -20.2 | -27.3 | ||
| 2013-05-01T11:53 | 7814 | 382 | 270 | 19 | ||
| 2013-05-01T11:53 | 7876 | 379 | -20.9 | -30.2 | ||
| 2013-05-01T11:54 | 8000 | 372 | -21.9 | -31.6 | ||
| 2013-05-01T11:54 | 8125 | 366 | 274 | 23 | ||
| 2013-05-01T11:54 | 8171 | 364 | -23.1 | -32.7 | ||
| 2013-05-01T11:55 | 8482 | 349 | 274 | 26 | ||
| 2013-05-01T11:55 | 8537 | 346 | -25.4 | -39.7 | ||
| 2013-05-01T11:56 | 8829 | 332 | 271 | 29 | ||
| 2013-05-01T11:56 | 8840 | 332 | -27.7 | -42.5 | ||
| 2013-05-01T11:57 | 9002 | 324 | -28.5 | -44.5 | ||
| 2013-05-01T11:57 | 9165 | 317 | 260 | 32 | ||
| 2013-05-01T11:57 | 9232 | 314 | -29.9 | -42.9 | ||
| 2013-05-01T11:58 | 9358 | 309 | -30.0 | -40.0 | ||
| 2013-05-01T11:58 | 9502 | 302 | 258 | 34 | ||
| 2013-05-01T11:59 | 9821 | 289 | 256 | 35 | ||
| 2013-05-01T12:00 | 10139 | 276 | 257 | 36 | ||
| 2013-05-01T12:00 | 10148 | 276 | -37.4 | -42.2 | ||
| 2013-05-01T12:01 | 10485 | 262 | -40.0 | -44.4 | 267 | 37 |
| 2013-05-01T12:02 | 10825 | 250 | 273 | 39 | ||
| 2013-05-01T12:03 | 11122 | 239 | 276 | 41 | ||
| 2013-05-01T12:04 | 11404 | 229 | 275 | 42 | ||
| 2013-05-01T12:05 | 11630 | 221 | -48.3 | |||
| 2013-05-01T12:05 | 11693 | 219 | 273 | 44 | ||
| 2013-05-01T12:06 | 11964 | 210 | 273 | 45 | ||
| 2013-05-01T12:07 | 12263 | 201 | 275 | 46 | ||
| 2013-05-01T12:08 | 12544 | 192 | 274 | 48 | ||
| 2013-05-01T12:09 | 12813 | 184 | 273 | 47 | ||
| 2013-05-01T12:10 | 13015 | 178 | -59.2 | |||
| 2013-05-01T12:10 | 13078 | 177 | 272 | 45 | ||
| 2013-05-01T12:11 | 13375 | 168 | 269 | 44 | ||
| 2013-05-01T12:12 | 13602 | 162 | -63.0 | |||
| 2013-05-01T12:12 | 13690 | 160 | 267 | 42 | ||
| 2013-05-01T12:13 | 13991 | 152 | 263 | 40 | ||
| 2013-05-01T12:14 | 14305 | 145 | 255 | 40 | ||
| 2013-05-01T12:14 | 14439 | 141 | -68.9 | |||
| 2013-05-01T12:15 | 14637 | 137 | 259 | 37 | ||
| 2013-05-01T12:15 | 14739 | 134 | -67.8 | |||
| 2013-05-01T12:16 | 14975 | 129 | 263 | 32 | ||
| 2013-05-01T12:17 | 15254 | 123 | -70.4 | |||
| 2013-05-01T12:17 | 15297 | 122 | 258 | 31 | ||
| 2013-05-01T12:18 | 15605 | 116 | -71.7 | |||
| 2013-05-01T12:18 | 15666 | 115 | 261 | 27 | ||
| 2013-05-01T12:18 | 15692 | 115 | -70.8 | |||
| 2013-05-01T12:19 | 16025 | 108 | 262 | 29 | ||
| 2013-05-01T12:19 | 16145 | 106 | -74.5 | |||
| 2013-05-01T12:20 | 16380 | 102 | 271 | 30 | ||
| 2013-05-01T12:21 | 16660 | 97 | -74.7 | |||
| 2013-05-01T12:21 | 16763 | 95 | 272 | 24 | ||
| 2013-05-01T12:22 | 17131 | 89 | 262 | 20 | ||
| 2013-05-01T12:22 | 17222 | 88 | -77.4 | |||
| 2013-05-01T12:23 | 17509 | 84 | 271 | 19 | ||
| 2013-05-01T12:23 | 17530 | 83 | -76.9 | |||
| 2013-05-01T12:23 | 17692 | 81 | -74.3 | |||
| 2013-05-01T12:24 | 17889 | 78 | 279 | 14 | ||
| 2013-05-01T12:24 | 18055 | 76 | -74.3 | |||
| 2013-05-01T12:25 | 18281 | 73 | 303 | 11 | ||
| 2013-05-01T12:26 | 18659 | 69 | 247 | 8 | ||
| 2013-05-01T12:27 | 18893 | 66 | -73.6 | |||
| 2013-05-01T12:27 | 19019 | 65 | 298 | 5 | ||
| 2013-05-01T12:27 | 19083 | 64 | -70.7 | |||
| 2013-05-01T12:28 | 19339 | 61 | 252 | 4 | ||
| 2013-05-01T12:29 | 19670 | 58 | 317 | 1 | ||
| 2013-05-01T12:29 | 19743 | 57 | -68.3 | |||
| 2013-05-01T12:30 | 19936 | 55 | -64.8 | |||
| 2013-05-01T12:30 | 20025 | 55 | 157 | 4 | ||
| 2013-05-01T12:31 | 20336 | 52 | -63.2 | |||
| 2013-05-01T12:31 | 20360 | 52 | 138 | 7 | ||
| 2013-05-01T12:32 | 20677 | 49 | 184 | 9 | ||
| 2013-05-01T12:32 | 20816 | 48 | -63.1 | |||
| 2013-05-01T12:33 | 20998 | 47 | 209 | 7 | ||
| 2013-05-01T12:34 | 21270 | 45 | -60.8 | |||
| 2013-05-01T12:34 | 21326 | 44 | 165 | 7 | ||
| 2013-05-01T12:35 | 21659 | 42 | 193 | 8 | ||
| 2013-05-01T12:36 | 21809 | 41 | -60.3 | |||
| 2013-05-01T12:36 | 21979 | 40 | 270 | 7 | ||
| 2013-05-01T12:37 | 22317 | 38 | 299 | 7 | ||
| 2013-05-01T12:38 | 22659 | 36 | 310 | 7 | ||
| 2013-05-01T12:38 | 22747 | 35 | -59.0 | |||
| 2013-05-01T12:39 | 23002 | 34 | 360 | 7 | ||
| 2013-05-01T12:40 | 23326 | 32 | 41 | 4 | ||
| 2013-05-01T12:41 | 23669 | 30 | 62 | 5 | ||
| 2013-05-01T12:42 | 24011 | 29 | 84 | 5 | ||
| 2013-05-01T12:43 | 24374 | 27 | 87 | 2 | ||
| 2013-05-01T12:43 | 24445 | 27 | -56.0 | |||
| 2013-05-01T12:44 | 24711 | 26 | 102 | 4 | ||
| 2013-05-01T12:45 | 25068 | 24 | 108 | 4 | ||
| 2013-05-01T12:46 | 25419 | 23 | 130 | 3 | ||
| 2013-05-01T12:47 | 25793 | 22 | 150 | 5 | ||
| 2013-05-01T12:48 | 26066 | 21 | -51.3 | |||
| 2013-05-01T12:48 | 26192 | 21 | 116 | 4 | ||
| 2013-05-01T12:49 | 26550 | 19 | 150 | 5 | ||
| 2013-05-01T12:50 | 26930 | 18 | 154 | 3 | ||
| 2013-05-01T12:50 | 27111 | 18 | -50.6 | |||
| 2013-05-01T12:51 | 27297 | 17 | 167 | 5 | ||
| 2013-05-01T12:52 | 27725 | 16 | 249 | 3 | ||
| 2013-05-01T12:53 | 28014 | 16 | -49.7 | |||
| 2013-05-01T12:53 | 28142 | 15 | 185 | 1 | ||
| 2013-05-01T12:54 | 28588 | 14 | 182 | 6 | ||
| 2013-05-01T12:55 | 28823 | 14 | -48.7 | |||
| 2013-05-01T12:55 | 28969 | 13 | 160 | 5 | ||
| 2013-05-01T12:55 | 29069 | 13 | -46.6 | |||
| 2013-05-01T12:56 | 29379 | 13 | 192 | 4 | ||
| 2013-05-01T12:57 | 29762 | 12 | -43.3 | |||
| 2013-05-01T12:57 | 29819 | 12 | 202 | 7 | ||
| 2013-05-01T12:57 | 29876 | 12 | -44.4 | |||
| 2013-05-01T23:30 | 8 | 1012 | 21.4 | 14.6 | 40 | 3 |
| 2013-05-01T23:30 | 17 | 1011 | 20.7 | 13.7 | ||
| 2013-05-01T23:31 | 248 | 984 | 18.5 | 11.3 | ||
| 2013-05-01T23:31 | 296 | 979 | 18.0 | 12.0 | ||
| 2013-05-01T23:31 | 329 | 975 | 20 | 7 | ||
| 2013-05-01T23:31 | 383 | 969 | 17.2 | 11.2 | ||
| 2013-05-01T23:31 | 393 | 968 | 17.1 | 9.8 | ||
| 2013-05-01T23:32 | 635 | 940 | 19 | 7 | ||
| 2013-05-01T23:33 | 835 | 918 | 13.1 | 9.4 | ||
| 2013-05-01T23:33 | 954 | 906 | 16 | 9 | ||
| 2013-05-01T23:33 | 1031 | 897 | 11.2 | 6.7 | ||
| 2013-05-01T23:33 | 1048 | 895 | 11.3 | 5.4 | ||
| 2013-05-01T23:34 | 1119 | 888 | 10.8 | 3.8 | ||
| 2013-05-01T23:34 | 1146 | 885 | 11.0 | 1.0 | ||
| 2013-05-01T23:34 | 1162 | 883 | 11.6 | -4.5 | ||
| 2013-05-01T23:34 | 1224 | 877 | 11.5 | -8.9 | ||
| 2013-05-01T23:34 | 1286 | 870 | 21 | 10 | ||
| 2013-05-01T23:34 | 1442 | 854 | 10.6 | -10.3 | ||
| 2013-05-01T23:35 | 1601 | 838 | 11.3 | -17.1 | ||
| 2013-05-01T23:35 | 1628 | 835 | 346 | 3 | ||
| 2013-05-01T23:36 | 1780 | 820 | 11.4 | -20.4 | ||
| 2013-05-01T23:36 | 1811 | 817 | 12.4 | -26.3 | ||
| 2013-05-01T23:36 | 1835 | 815 | 13.1 | -35.4 | ||
| 2013-05-01T23:36 | 1914 | 807 | 295 | 5 | ||
| 2013-05-01T23:36 | 1948 | 804 | 12.7 | -20.8 | ||
| 2013-05-01T23:36 | 2004 | 798 | 12.2 | -7.3 | ||
| 2013-05-01T23:36 | 2058 | 793 | 11.8 | -1.7 | ||
| 2013-05-01T23:37 | 2074 | 792 | 11.6 | 1.5 | ||
| 2013-05-01T23:37 | 2089 | 790 | 11.5 | 6.2 | ||
| 2013-05-01T23:37 | 2111 | 788 | 11.3 | 6.4 | ||
| 2013-05-01T23:37 | 2234 | 777 | 269 | 7 | ||
| 2013-05-01T23:37 | 2367 | 764 | 9.6 | 8.0 | ||
| 2013-05-01T23:38 | 2460 | 756 | 9.1 | 6.4 | ||
| 2013-05-01T23:38 | 2557 | 747 | 296 | 10 | ||
| 2013-05-01T23:38 | 2606 | 743 | 8.5 | 6.3 | ||
| 2013-05-01T23:39 | 2753 | 730 | 7.6 | 6.4 | ||
| 2013-05-01T23:39 | 2822 | 724 | 7.9 | 5.4 | ||
| 2013-05-01T23:39 | 2853 | 721 | 298 | 8 | ||
| 2013-05-01T23:39 | 2929 | 714 | 8.4 | 4.0 | ||
| 2013-05-01T23:40 | 3152 | 695 | 7.2 | 2.5 | ||
| 2013-05-01T23:40 | 3167 | 694 | 290 | 11 | ||
| 2013-05-01T23:41 | 3377 | 677 | 6.0 | 1.9 | ||
| 2013-05-01T23:41 | 3477 | 668 | 5.5 | 1.4 | ||
| 2013-05-01T23:41 | 3494 | 667 | 285 | 15 | ||
| 2013-05-01T23:42 | 3818 | 641 | 4.8 | -0.2 | ||
| 2013-05-01T23:42 | 3828 | 640 | 271 | 16 | ||
| 2013-05-01T23:43 | 4020 | 625 | 3.3 | -2.2 | ||
| 2013-05-01T23:43 | 4153 | 615 | 275 | 15 | ||
| 2013-05-01T23:43 | 4305 | 604 | 0.7 | -3.0 | ||
| 2013-05-01T23:44 | 4332 | 602 | 0.5 | -3.2 | ||
| 2013-05-01T23:44 | 4342 | 601 | 0.4 | -3.2 | ||
| 2013-05-01T23:44 | 4475 | 591 | 269 | 14 | ||
| 2013-05-01T23:45 | 4801 | 567 | 269 | 13 | ||
| 2013-05-01T23:45 | 4836 | 565 | -4.0 | -5.7 | ||
| 2013-05-01T23:46 | 5130 | 544 | 261 | 14 | ||
| 2013-05-01T23:46 | 5174 | 541 | -6.7 | -7.2 | ||
| 2013-05-01T23:46 | 5219 | 538 | -6.8 | -7.7 | ||
| 2013-05-01T23:46 | 5241 | 536 | -6.3 | -8.9 | ||
| 2013-05-01T23:46 | 5276 | 534 | -5.2 | -9.5 | ||
| 2013-05-01T23:47 | 5478 | 520 | 264 | 20 | ||
| 2013-05-01T23:47 | 5495 | 519 | -6.1 | -14.6 | ||
| 2013-05-01T23:48 | 5684 | 507 | -7.5 | -16.6 | ||
| 2013-05-01T23:48 | 5828 | 498 | 268 | 20 | ||
| 2013-05-01T23:48 | 5851 | 496 | -8.9 | -17.9 | ||
| 2013-05-01T23:48 | 5917 | 492 | -9.2 | -19.0 | ||
| 2013-05-01T23:49 | 6017 | 486 | -9.8 | -18.0 | ||
| 2013-05-01T23:49 | 6057 | 483 | -10.1 | -18.1 | ||
| 2013-05-01T23:49 | 6079 | 482 | -10.3 | -15.3 | ||
| 2013-05-01T23:49 | 6130 | 478 | -10.7 | -15.8 | ||
| 2013-05-01T23:49 | 6175 | 476 | 271 | 18 | ||
| 2013-05-01T23:50 | 6442 | 459 | -13.1 | -16.9 | ||
| 2013-05-01T23:50 | 6515 | 455 | 270 | 18 | ||
| 2013-05-01T23:50 | 6654 | 447 | -14.1 | -20.2 | ||
| 2013-05-01T23:51 | 6798 | 438 | -14.4 | -19.4 | ||
| 2013-05-01T23:51 | 6841 | 436 | -14.5 | -20.4 | ||
| 2013-05-01T23:51 | 6846 | 436 | 268 | 21 | ||
| 2013-05-01T23:52 | 7031 | 425 | -15.9 | -19.3 | ||
| 2013-05-01T23:52 | 7152 | 418 | -17.0 | -20.5 | ||
| 2013-05-01T23:52 | 7179 | 417 | 266 | 21 | ||
| 2013-05-01T23:53 | 7424 | 403 | -18.8 | -22.7 | ||
| 2013-05-01T23:53 | 7534 | 397 | 263 | 20 | ||
| 2013-05-01T23:54 | 7855 | 381 | -21.4 | -24.2 | ||
| 2013-05-01T23:54 | 7906 | 378 | 260 | 19 | ||
| 2013-05-01T23:54 | 8035 | 371 | -22.5 | -25.4 | ||
| 2013-05-01T23:54 | 8085 | 369 | -22.8 | -25.9 | ||
| 2013-05-01T23:55 | 8280 | 359 | 261 | 23 | ||
| 2013-05-01T23:56 | 8508 | 348 | -25.1 | -28.5 | ||
| 2013-05-01T23:56 | 8668 | 340 | 259 | 29 | ||
| 2013-05-01T23:57 | 8892 | 330 | -27.9 | -30.3 | ||
| 2013-05-01T23:57 | 8931 | 328 | -28.2 | -30.3 | ||
| 2013-05-01T23:57 | 9052 | 323 | 262 | 32 | ||
| 2013-05-01T23:58 | 9434 | 306 | 261 | 34 | ||
| 2013-05-01T23:58 | 9449 | 305 | -31.9 | -34.2 | ||
| 2013-05-01T23:59 | 9731 | 293 | -33.8 | -36.1 | ||
| 2013-05-01T23:59 | 9817 | 290 | 265 | 35 | ||
| 2013-05-02T00:00 | 10037 | 281 | -36.3 | -39.5 | ||
| 2013-05-02T00:00 | 10194 | 274 | 262 | 37 | ||
| 2013-05-02T00:01 | 10457 | 264 | -40.0 | -43.2 | ||
| 2013-05-02T00:01 | 10598 | 259 | 258 | 36 | ||
| 2013-05-02T00:02 | 10993 | 244 | 255 | 41 | ||
| 2013-05-02T00:03 | 11363 | 231 | 260 | 45 | ||
| 2013-05-02T00:04 | 11721 | 219 | 258 | 45 | ||
| 2013-05-02T00:05 | 12084 | 207 | 257 | 46 | ||
| 2013-05-02T00:06 | 12325 | 199 | -54.7 | |||
| 2013-05-02T00:06 | 12471 | 195 | 261 | 45 | ||
| 2013-05-02T00:07 | 12832 | 184 | 265 | 47 | ||
| 2013-05-02T00:08 | 13174 | 174 | 266 | 47 | ||
| 2013-05-02T00:09 | 13508 | 165 | 265 | 44 | ||
| 2013-05-02T00:09 | 13670 | 160 | -65.5 | |||
| 2013-05-02T00:10 | 13847 | 156 | 263 | 39 | ||
| 2013-05-02T00:10 | 13897 | 155 | -65.7 | |||
| 2013-05-02T00:11 | 14105 | 149 | -66.3 | |||
| 2013-05-02T00:11 | 14215 | 147 | 265 | 35 | ||
| 2013-05-02T00:12 | 14434 | 141 | -66.8 | |||
| 2013-05-02T00:12 | 14642 | 137 | 262 | 34 | ||
| 2013-05-02T00:13 | 15022 | 128 | -69.3 | |||
| 2013-05-02T00:13 | 15116 | 126 | 267 | 29 | ||
| 2013-05-02T00:14 | 15361 | 121 | -71.1 | |||
| 2013-05-02T00:14 | 15524 | 118 | 270 | 32 | ||
| 2013-05-02T00:15 | 15873 | 111 | 281 | 33 | ||
| 2013-05-02T00:16 | 16146 | 106 | -75.3 | |||
| 2013-05-02T00:16 | 16223 | 105 | 283 | 30 | ||
| 2013-05-02T00:17 | 16559 | 99 | 275 | 29 | ||
| 2013-05-02T00:18 | 16773 | 95 | -76.4 | |||
| 2013-05-02T00:18 | 16890 | 93 | 289 | 29 | ||
| 2013-05-02T00:18 | 16965 | 92 | -74.4 | |||
| 2013-05-02T00:19 | 17271 | 87 | 290 | 18 | ||
| 2013-05-02T00:19 | 17305 | 87 | -73.2 | |||
| 2013-05-02T00:20 | 17672 | 81 | -75.4 | |||
| 2013-05-02T00:20 | 17736 | 81 | 291 | 17 | ||
| 2013-05-02T00:20 | 17883 | 79 | -73.4 | |||
| 2013-05-02T00:21 | 18126 | 75 | 305 | 12 | ||
| 2013-05-02T00:22 | 18492 | 71 | 287 | 8 | ||
| 2013-05-02T00:22 | 18657 | 69 | -76.2 | |||
| 2013-05-02T00:23 | 18820 | 67 | -72.9 | |||
| 2013-05-02T00:23 | 18829 | 67 | 273 | 8 | ||
| 2013-05-02T00:24 | 19145 | 63 | -72.7 | |||
| 2013-05-02T00:24 | 19173 | 63 | 278 | 11 | ||
| 2013-05-02T00:25 | 19403 | 61 | -70.7 | |||
| 2013-05-02T00:25 | 19532 | 59 | 282 | 6 | ||
| 2013-05-02T00:25 | 19593 | 59 | -67.2 | |||
| 2013-05-02T00:26 | 19889 | 56 | 290 | 6 | ||
| 2013-05-02T00:26 | 19900 | 56 | -66.2 | |||
| 2013-05-02T00:27 | 20133 | 54 | -65.2 | |||
| 2013-05-02T00:27 | 20248 | 53 | 300 | 7 | ||
| 2013-05-02T00:28 | 20436 | 51 | -65.6 | |||
| 2013-05-02T00:28 | 20593 | 50 | 312 | 10 | ||
| 2013-05-02T00:29 | 20793 | 48 | -64.3 | |||
| 2013-05-02T00:29 | 20935 | 47 | 347 | 7 | ||
| 2013-05-02T00:30 | 21312 | 44 | 110 | 2 | ||
| 2013-05-02T00:30 | 21482 | 43 | -62.0 | |||
| 2013-05-02T00:31 | 21672 | 42 | 55 | 4 | ||
| 2013-05-02T00:31 | 21808 | 41 | -60.1 | |||
| 2013-05-02T00:32 | 22058 | 39 | 73 | 7 | ||
| 2013-05-02T00:33 | 22420 | 37 | 127 | 10 | ||
| 2013-05-02T00:34 | 22680 | 36 | -57.9 | |||
| 2013-05-02T00:34 | 22806 | 35 | 148 | 7 | ||
| 2013-05-02T00:35 | 23123 | 33 | -56.2 | |||
| 2013-05-02T00:35 | 23181 | 33 | 162 | 7 | ||
| 2013-05-02T00:36 | 23561 | 31 | 200 | 7 | ||
| 2013-05-02T00:37 | 23944 | 29 | 191 | 5 | ||
| 2013-05-02T00:38 | 24329 | 27 | 156 | 5 | ||
| 2013-05-02T00:38 | 24423 | 27 | -53.8 | |||
| 2013-05-02T00:39 | 24715 | 26 | 165 | 6 | ||
| 2013-05-02T00:40 | 24969 | 25 | -54.2 | |||
| 2013-05-02T00:40 | 25126 | 24 | 133 | 5 | ||
| 2013-05-02T00:41 | 25538 | 23 | 107 | 7 | ||
| 2013-05-02T00:42 | 25920 | 21 | 132 | 8 | ||
| 2013-05-02T00:43 | 26168 | 21 | -50.5 | |||
| 2013-05-02T00:43 | 26328 | 20 | 137 | 9 | ||
| 2013-05-02T00:44 | 26594 | 19 | -48.7 | |||
| 2013-05-02T00:44 | 26732 | 19 | 148 | 9 | ||
| 2013-05-02T00:45 | 27017 | 18 | -48.1 | |||
| 2013-05-02T00:45 | 27164 | 18 | 176 | 13 | ||
| 2013-05-02T00:46 | 27548 | 17 | 162 | 8 | ||
| 2013-05-02T00:47 | 27955 | 16 | 169 | 8 | ||
| 2013-05-02T00:48 | 28344 | 15 | -47.5 | |||
| 2013-05-02T00:48 | 28389 | 15 | 182 | 10 | ||
| 2013-05-02T00:49 | 28713 | 14 | -45.2 | |||
| 2013-05-02T11:30 | 8 | 1012 | 20.4 | 12.9 | 20 | 2 |
| 2013-05-02T11:30 | 16 | 1011 | 19.8 | 11.8 | ||
| 2013-05-02T11:31 | 211 | 989 | 18.6 | 11.2 | ||
| 2013-05-02T11:31 | 300 | 979 | 39 | 4 | ||
| 2013-05-02T11:32 | 621 | 942 | 50 | 3 | ||
| 2013-05-02T11:33 | 925 | 909 | 12.0 | 8.8 | ||
| 2013-05-02T11:33 | 946 | 907 | 54 | 3 | ||
| 2013-05-02T11:33 | 1054 | 895 | 11.2 | 7.1 | ||
| 2013-05-02T11:33 | 1080 | 892 | 11.2 | 5.1 | ||
| 2013-05-02T11:34 | 1157 | 884 | 10.9 | 0.9 | ||
| 2013-05-02T11:34 | 1172 | 883 | 11.3 | -3.2 | ||
| 2013-05-02T11:34 | 1218 | 878 | 11.5 | -6.4 | ||
| 2013-05-02T11:34 | 1259 | 873 | 24 | 2 | ||
| 2013-05-02T11:34 | 1290 | 870 | 12.6 | -11.8 | ||
| 2013-05-02T11:35 | 1423 | 856 | 13.4 | -20.3 | ||
| 2013-05-02T11:35 | 1482 | 850 | 14.0 | -30.7 | ||
| 2013-05-02T11:35 | 1493 | 849 | 13.9 | -34.9 | ||
| 2013-05-02T11:35 | 1509 | 848 | 14.7 | -34.4 | ||
| 2013-05-02T11:35 | 1553 | 843 | 14.9 | -34.3 | ||
| 2013-05-02T11:35 | 1574 | 841 | 304 | 4 | ||
| 2013-05-02T11:35 | 1639 | 835 | 14.6 | -30.2 | ||
| 2013-05-02T11:35 | 1644 | 834 | 14.6 | -30.2 | ||
| 2013-05-02T11:36 | 1871 | 812 | 14.0 | -34.8 | ||
| 2013-05-02T11:36 | 1905 | 809 | 327 | 3 | ||
| 2013-05-02T11:36 | 2017 | 798 | 12.7 | -22.3 | ||
| 2013-05-02T11:36 | 2061 | 794 | 12.4 | -28.7 | ||
| 2013-05-02T11:37 | 2140 | 786 | 11.8 | -36.3 | ||
| 2013-05-02T11:37 | 2174 | 783 | 11.6 | -36.4 | ||
| 2013-05-02T11:37 | 2208 | 780 | 11.3 | -15.3 | ||
| 2013-05-02T11:37 | 2241 | 777 | 320 | 4 | ||
| 2013-05-02T11:37 | 2253 | 776 | 10.9 | -6.9 | ||
| 2013-05-02T11:37 | 2263 | 775 | 10.8 | -3.7 | ||
| 2013-05-02T11:37 | 2269 | 774 | 10.7 | -6.2 | ||
| 2013-05-02T11:37 | 2371 | 765 | 9.8 | 0.1 | ||
| 2013-05-02T11:38 | 2484 | 755 | 8.7 | 3.3 | ||
| 2013-05-02T11:38 | 2577 | 746 | 8.4 | 3.4 | ||
| 2013-05-02T11:38 | 2583 | 746 | 305 | 9 | ||
| 2013-05-02T11:38 | 2675 | 737 | 8.3 | 6.3 | ||
| 2013-05-02T11:39 | 2766 | 729 | 8.2 | 5.8 | ||
| 2013-05-02T11:39 | 2921 | 716 | 265 | 9 | ||
| 2013-05-02T11:39 | 3049 | 705 | 6.2 | 5.6 | ||
| 2013-05-02T11:40 | 3240 | 688 | 261 | 10 | ||
| 2013-05-02T11:40 | 3340 | 680 | 4.5 | 4.1 | ||
| 2013-05-02T11:41 | 3434 | 672 | 4.3 | 3.1 | ||
| 2013-05-02T11:41 | 3507 | 666 | 3.8 | 3.4 | ||
| 2013-05-02T11:41 | 3554 | 662 | 267 | 10 | ||
| 2013-05-02T11:41 | 3559 | 662 | 3.4 | 2.4 | ||
| 2013-05-02T11:41 | 3679 | 652 | 2.5 | 1.9 | ||
| 2013-05-02T11:42 | 3811 | 642 | 1.8 | 1.5 | ||
| 2013-05-02T11:42 | 3862 | 638 | 261 | 11 | ||
| 2013-05-02T11:42 | 3893 | 635 | 1.5 | 0.3 | ||
| 2013-05-02T11:42 | 3904 | 634 | 1.5 | 0.3 | ||
| 2013-05-02T11:43 | 4105 | 619 | 0.3 | -0.4 | ||
| 2013-05-02T11:43 | 4171 | 614 | 269 | 13 | ||
| 2013-05-02T11:43 | 4264 | 607 | -0.4 | -1.1 | ||
| 2013-05-02T11:44 | 4393 | 597 | -0.7 | -1.8 | ||
| 2013-05-02T11:44 | 4490 | 590 | 270 | 17 | ||
| 2013-05-02T11:45 | 4663 | 577 | -2.2 | -3.2 | ||
| 2013-05-02T11:45 | 4823 | 566 | 270 | 19 | ||
| 2013-05-02T11:46 | 5025 | 551 | -4.0 | -5.1 | ||
| 2013-05-02T11:46 | 5148 | 543 | 270 | 20 | ||
| 2013-05-02T11:46 | 5179 | 541 | -4.6 | -7.0 | ||
| 2013-05-02T11:46 | 5283 | 534 | -4.9 | -7.5 | ||
| 2013-05-02T11:47 | 5399 | 526 | -5.4 | -10.6 | ||
| 2013-05-02T11:47 | 5437 | 523 | -5.3 | -12.7 | ||
| 2013-05-02T11:47 | 5476 | 521 | 273 | 19 | ||
| 2013-05-02T11:47 | 5514 | 518 | -5.4 | -12.6 | ||
| 2013-05-02T11:47 | 5597 | 513 | -5.8 | -12.3 | ||
| 2013-05-02T11:48 | 5680 | 507 | -6.3 | -14.3 | ||
| 2013-05-02T11:48 | 5787 | 500 | 275 | 21 | ||
| 2013-05-02T11:49 | 5965 | 489 | -8.4 | -18.2 | ||
| 2013-05-02T11:49 | 6002 | 487 | -8.7 | -15.5 | ||
| 2013-05-02T11:49 | 6043 | 484 | -9.0 | -15.8 | ||
| 2013-05-02T11:49 | 6098 | 481 | 272 | 24 | ||
| 2013-05-02T11:49 | 6102 | 480 | -9.0 | -13.6 | ||
| 2013-05-02T11:49 | 6190 | 475 | -9.2 | -12.2 | ||
| 2013-05-02T11:50 | 6421 | 461 | 269 | 24 | ||
| 2013-05-02T11:51 | 6655 | 447 | -13.2 | -14.6 | ||
| 2013-05-02T11:51 | 6756 | 441 | 264 | 25 | ||
| 2013-05-02T11:51 | 6801 | 439 | -14.6 | -15.2 | ||
| 2013-05-02T11:51 | 6836 | 437 | -14.0 | -15.1 | ||
| 2013-05-02T11:51 | 6916 | 432 | -14.2 | -16.2 | ||
| 2013-05-02T11:52 | 7003 | 427 | -14.6 | -17.3 | ||
| 2013-05-02T11:52 | 7103 | 422 | 269 | 25 | ||
| 2013-05-02T11:52 | 7156 | 419 | -15.5 | -20.9 | ||
| 2013-05-02T11:52 | 7193 | 417 | -15.7 | -22.1 | ||
| 2013-05-02T11:52 | 7223 | 415 | -15.8 | -26.6 | ||
| 2013-05-02T11:53 | 7366 | 407 | -16.9 | -30.4 | ||
| 2013-05-02T11:53 | 7459 | 402 | 274 | 24 | ||
| 2013-05-02T11:54 | 7765 | 386 | -20.5 | -37.2 | ||
| 2013-05-02T11:54 | 7805 | 384 | 280 | 23 | ||
| 2013-05-02T11:54 | 7900 | 379 | -20.8 | -34.6 | ||
| 2013-05-02T11:55 | 8143 | 367 | -22.2 | -38.2 | ||
| 2013-05-02T11:55 | 8153 | 366 | 287 | 23 | ||
| 2013-05-02T11:56 | 8340 | 357 | -23.7 | -39.9 | ||
| 2013-05-02T11:56 | 8433 | 352 | -23.3 | -46.5 | ||
| 2013-05-02T11:56 | 8500 | 349 | 285 | 23 | ||
| 2013-05-02T11:57 | 8803 | 335 | -26.2 | -45.8 | ||
| 2013-05-02T11:57 | 8848 | 333 | 287 | 26 | ||
| 2013-05-02T11:58 | 9133 | 320 | -28.9 | -44.4 | ||
| 2013-05-02T11:58 | 9185 | 318 | 282 | 28 | ||
| 2013-05-02T11:59 | 9467 | 305 | -31.7 | -43.5 | ||
| 2013-05-02T11:59 | 9532 | 302 | 285 | 30 | ||
| 2013-05-02T12:00 | 9896 | 287 | 285 | 32 | ||
| 2013-05-02T12:00 | 10024 | 282 | -36.0 | -54.6 | ||
| 2013-05-02T12:01 | 10259 | 272 | 281 | 36 | ||
| 2013-05-02T12:01 | 10432 | 266 | -38.7 | -51.7 | ||
| 2013-05-02T12:02 | 10581 | 260 | -40.0 | -50.4 | ||
| 2013-05-02T12:02 | 10628 | 258 | 280 | 38 | ||
| 2013-05-02T12:03 | 11006 | 244 | 280 | 39 | ||
| 2013-05-02T12:04 | 11360 | 232 | 276 | 40 | ||
| 2013-05-02T12:04 | 11371 | 231 | -46.4 | |||
| 2013-05-02T12:05 | 11688 | 220 | -48.3 | |||
| 2013-05-02T12:05 | 11736 | 219 | 279 | 44 | ||
| 2013-05-02T12:06 | 12114 | 206 | 278 | 45 | ||
| 2013-05-02T12:07 | 12456 | 196 | 274 | 45 | ||
| 2013-05-02T12:08 | 12799 | 185 | 272 | 46 | ||
| 2013-05-02T12:09 | 13160 | 175 | 270 | 48 | ||
| 2013-05-02T12:10 | 13471 | 166 | -63.9 | |||
| 2013-05-02T12:10 | 13519 | 165 | 267 | 48 | ||
| 2013-05-02T12:11 | 13898 | 155 | 270 | 47 | ||
| 2013-05-02T12:12 | 14219 | 147 | -70.1 | |||
| 2013-05-02T12:12 | 14268 | 146 | 274 | 45 | ||
| 2013-05-02T12:12 | 14345 | 144 | -69.5 | |||
| 2013-05-02T12:12 | 14421 | 142 | -68.6 | |||
| 2013-05-02T12:13 | 14597 | 138 | -65.0 | |||
| 2013-05-02T12:13 | 14664 | 137 | 287 | 38 | ||
| 2013-05-02T12:14 | 15058 | 128 | 294 | 31 | ||
| 2013-05-02T12:15 | 15500 | 119 | 289 | 25 | ||
| 2013-05-02T12:16 | 15741 | 114 | -70.5 | |||
| 2013-05-02T12:16 | 15969 | 110 | 282 | 21 | ||
| 2013-05-02T12:16 | 16033 | 109 | -71.2 | |||
| 2013-05-02T12:17 | 16407 | 102 | 273 | 20 | ||
| 2013-05-02T12:18 | 16801 | 95 | 279 | 24 | ||
| 2013-05-02T12:19 | 17092 | 91 | -78.4 | |||
| 2013-05-02T12:19 | 17226 | 88 | 301 | 26 | ||
| 2013-05-02T12:20 | 17416 | 86 | -77.8 | |||
| 2013-05-02T12:20 | 17600 | 83 | 314 | 19 | ||
| 2013-05-02T12:20 | 17712 | 81 | -77.0 | |||
| 2013-05-02T12:21 | 17857 | 79 | -73.1 | |||
| 2013-05-02T12:21 | 18052 | 77 | 285 | 8 | ||
| 2013-05-02T12:22 | 18363 | 73 | -75.8 | |||
| 2013-05-02T12:22 | 18451 | 72 | 283 | 13 | ||
| 2013-05-02T12:23 | 18832 | 67 | 302 | 8 | ||
| 2013-05-02T12:23 | 18929 | 66 | -70.6 | |||
| 2013-05-02T12:24 | 19224 | 63 | 317 | 5 | ||
| 2013-05-02T12:24 | 19330 | 62 | -70.2 | |||
| 2013-05-02T12:25 | 19447 | 60 | -69.5 | |||
| 2013-05-02T12:25 | 19608 | 59 | 185 | 1 | ||
| 2013-05-02T12:25 | 19618 | 59 | -68.2 | |||
| 2013-05-02T12:25 | 19763 | 57 | -67.3 | |||
| 2013-05-02T12:26 | 19912 | 56 | -66.9 | |||
| 2013-05-02T12:26 | 19988 | 55 | 266 | 4 | ||
| 2013-05-02T12:26 | 20055 | 55 | -63.1 | |||
| 2013-05-02T12:27 | 20286 | 53 | -61.0 | |||
| 2013-05-02T12:27 | 20357 | 52 | 37 | 2 | ||
| 2013-05-02T12:28 | 20739 | 49 | 186 | 7 | ||
| 2013-05-02T12:29 | 21117 | 46 | -61.7 | |||
| 2013-05-02T12:29 | 21130 | 46 | 232 | 5 | ||
| 2013-05-02T12:30 | 21491 | 43 | 76 | 3 | ||
| 2013-05-02T12:31 | 21875 | 41 | 166 | 3 | ||
| 2013-05-02T12:31 | 21952 | 40 | -61.4 | |||
| 2013-05-02T12:32 | 22253 | 38 | 243 | 6 | ||
| 2013-05-02T12:32 | 22418 | 37 | -59.9 | |||
| 2013-05-02T12:33 | 22623 | 36 | 257 | 6 | ||
| 2013-05-02T12:33 | 22801 | 35 | -55.9 | |||
| 2013-05-02T12:34 | 23004 | 34 | 335 | 5 | ||
| 2013-05-02T12:35 | 23390 | 32 | 348 | 6 | ||
| 2013-05-02T12:36 | 23759 | 30 | 38 | 8 | ||
| 2013-05-02T12:36 | 23865 | 30 | -55.0 | |||
| 2013-05-02T12:37 | 24129 | 29 | 73 | 5 | ||
| 2013-05-02T12:38 | 24499 | 27 | 62 | 7 | ||
| 2013-05-02T12:39 | 24892 | 25 | 75 | 7 | ||
| 2013-05-02T12:40 | 25232 | 24 | -53.1 | |||
| 2013-05-02T12:40 | 25286 | 24 | 89 | 8 | ||
| 2013-05-02T12:41 | 25677 | 22 | -52.4 | 91 | 5 | |
| 2013-05-02T12:42 | 26096 | 21 | 69 | 3 | ||
| 2013-05-02T12:42 | 26221 | 21 | -49.9 | |||
| 2013-05-02T12:43 | 26480 | 20 | 112 | 5 | ||
| 2013-05-02T12:44 | 26889 | 19 | 59 | 3 | ||
| 2013-05-02T12:45 | 27177 | 18 | -49.7 | |||
| 2013-05-02T12:45 | 27288 | 18 | 146 | 6 | ||
| 2013-05-02T12:46 | 27714 | 16 | 118 | 5 | ||
| 2013-05-02T12:46 | 27754 | 16 | -48.2 | |||
| 2013-05-02T12:47 | 28128 | 15 | 85 | 4 | ||
| 2013-05-02T12:48 | 28525 | 15 | 172 | 2 | ||
| 2013-05-02T12:49 | 28899 | 14 | -48.0 | |||
| 2013-05-02T12:49 | 28947 | 14 | 66 | 5 | ||
| 2013-05-02T12:50 | 29399 | 13 | -47.5 | 128 | 5 | |
| 2013-05-02T12:50 | 29451 | 13 | -46.0 | |||
| 2013-05-02T23:30 | 8 | 1013 | 22.2 | 16.2 | 60 | 2 |
| 2013-05-02T23:30 | 38 | 1010 | 21.0 | 15.8 | ||
| 2013-05-02T23:31 | 176 | 994 | 19.9 | 14.5 | ||
| 2013-05-02T23:31 | 305 | 979 | 71 | 5 | ||
| 2013-05-02T23:32 | 676 | 937 | 74 | 6 | ||
| 2013-05-02T23:32 | 701 | 935 | 15.1 | 13.0 | ||
| 2013-05-02T23:32 | 839 | 920 | 13.8 | 12.2 | ||
| 2013-05-02T23:32 | 845 | 919 | 13.8 | 12.2 | ||
| 2013-05-02T23:33 | 965 | 906 | 12.7 | 11.1 | ||
| 2013-05-02T23:33 | 1010 | 901 | 12.9 | 9.7 | ||
| 2013-05-02T23:33 | 1028 | 899 | 75 | 8 | ||
| 2013-05-02T23:33 | 1149 | 886 | 12.1 | 8.6 | ||
| 2013-05-02T23:33 | 1165 | 885 | 12.3 | 7.0 | ||
| 2013-05-02T23:34 | 1283 | 872 | 11.3 | 5.8 | ||
| 2013-05-02T23:34 | 1300 | 871 | 11.2 | 5.5 | ||
| 2013-05-02T23:34 | 1337 | 867 | 11.3 | 2.6 | ||
| 2013-05-02T23:34 | 1353 | 865 | 86 | 4 | ||
| 2013-05-02T23:34 | 1364 | 864 | 11.7 | -0.1 | ||
| 2013-05-02T23:34 | 1392 | 861 | 12.4 | -6.1 | ||
| 2013-05-02T23:34 | 1449 | 855 | 13.2 | -11.3 | ||
| 2013-05-02T23:35 | 1551 | 845 | 12.9 | -15.9 | ||
| 2013-05-02T23:35 | 1598 | 840 | 14.0 | -27.6 | ||
| 2013-05-02T23:35 | 1678 | 832 | 13.7 | -18.7 | ||
| 2013-05-02T23:35 | 1695 | 830 | 271 | 2 | ||
| 2013-05-02T23:35 | 1816 | 819 | 13.0 | -28.3 | ||
| 2013-05-02T23:35 | 1861 | 814 | 12.7 | -16.0 | ||
| 2013-05-02T23:36 | 1873 | 813 | 12.6 | -22.4 | ||
| 2013-05-02T23:36 | 1889 | 811 | 12.4 | -18.4 | ||
| 2013-05-02T23:36 | 1918 | 809 | 12.3 | -19.7 | ||
| 2013-05-02T23:36 | 1982 | 802 | 12.2 | -0.3 | ||
| 2013-05-02T23:36 | 2005 | 800 | 12.2 | 6.5 | ||
| 2013-05-02T23:36 | 2041 | 797 | 244 | 5 | ||
| 2013-05-02T23:36 | 2082 | 793 | 12.3 | 5.0 | ||
| 2013-05-02T23:37 | 2385 | 765 | 255 | 5 | ||
| 2013-05-02T23:37 | 2447 | 759 | 8.8 | 6.1 | ||
| 2013-05-02T23:38 | 2615 | 744 | 7.5 | 6.3 | ||
| 2013-05-02T23:38 | 2724 | 734 | 259 | 7 | ||
| 2013-05-02T23:38 | 2736 | 733 | 7.3 | 7.3 | ||
| 2013-05-02T23:39 | 2992 | 711 | 7.1 | 6.2 | ||
| 2013-05-02T23:39 | 3067 | 704 | 263 | 10 | ||
| 2013-05-02T23:39 | 3225 | 691 | 6.5 | 5.3 | ||
| 2013-05-02T23:40 | 3409 | 675 | 269 | 13 | ||
| 2013-05-02T23:41 | 3755 | 647 | 271 | 13 | ||
| 2013-05-02T23:41 | 3801 | 644 | 3.3 | 0.7 | ||
| 2013-05-02T23:42 | 4114 | 619 | 279 | 14 | ||
| 2013-05-02T23:42 | 4223 | 611 | 0.4 | -1.8 | ||
| 2013-05-02T23:43 | 4376 | 599 | -0.3 | -2.4 | ||
| 2013-05-02T23:43 | 4443 | 594 | -0.8 | -3.7 | ||
| 2013-05-02T23:43 | 4479 | 592 | 273 | 14 | ||
| 2013-05-02T23:43 | 4491 | 591 | -1.1 | -3.9 | ||
| 2013-05-02T23:43 | 4552 | 586 | -1.4 | -3.9 | ||
| 2013-05-02T23:44 | 4801 | 568 | -2.7 | -4.3 | ||
| 2013-05-02T23:44 | 4843 | 565 | 269 | 13 | ||
| 2013-05-02T23:44 | 4867 | 564 | -2.2 | -5.3 | ||
| 2013-05-02T23:44 | 5017 | 553 | -3.3 | -7.1 | ||
| 2013-05-02T23:45 | 5209 | 540 | 265 | 15 | ||
| 2013-05-02T23:45 | 5284 | 535 | -5.0 | -7.4 | ||
| 2013-05-02T23:46 | 5512 | 519 | -6.4 | -7.5 | ||
| 2013-05-02T23:46 | 5572 | 515 | 250 | 18 | ||
| 2013-05-02T23:46 | 5703 | 507 | -7.6 | -8.5 | ||
| 2013-05-02T23:47 | 5869 | 496 | -8.3 | -11.8 | ||
| 2013-05-02T23:47 | 5929 | 492 | 248 | 21 | ||
| 2013-05-02T23:48 | 6148 | 479 | -10.6 | -13.7 | ||
| 2013-05-02T23:48 | 6295 | 469 | 248 | 19 | ||
| 2013-05-02T23:49 | 6612 | 450 | -14.6 | -15.2 | ||
| 2013-05-02T23:49 | 6661 | 447 | 252 | 16 | ||
| 2013-05-02T23:49 | 6685 | 446 | -14.2 | -15.9 | ||
| 2013-05-02T23:49 | 6727 | 444 | -14.4 | -17.7 | ||
| 2013-05-02T23:49 | 6756 | 442 | -14.4 | -20.5 | ||
| 2013-05-02T23:49 | 6805 | 439 | -14.0 | -25.0 | ||
| 2013-05-02T23:50 | 6860 | 436 | -14.0 | -28.6 | ||
| 2013-05-02T23:50 | 6999 | 428 | -14.8 | -29.3 | ||
| 2013-05-02T23:50 | 7022 | 427 | 258 | 20 | ||
| 2013-05-02T23:50 | 7123 | 421 | -15.5 | -29.2 | ||
| 2013-05-02T23:51 | 7214 | 416 | -15.8 | -29.4 | ||
| 2013-05-02T23:51 | 7255 | 414 | -15.1 | -33.1 | ||
| 2013-05-02T23:51 | 7382 | 407 | 252 | 21 | ||
| 2013-05-02T23:51 | 7395 | 406 | -15.9 | -37.3 | ||
| 2013-05-02T23:52 | 7742 | 388 | 255 | 19 | ||
| 2013-05-02T23:53 | 8079 | 370 | -21.3 | -38.8 | ||
| 2013-05-02T23:53 | 8117 | 369 | 258 | 23 | ||
| 2013-05-02T23:53 | 8220 | 363 | -22.1 | -33.7 | ||
| 2013-05-02T23:54 | 8499 | 350 | 264 | 21 | ||
| 2013-05-02T23:54 | 8618 | 344 | -25.6 | -35.8 | ||
| 2013-05-02T23:55 | 8688 | 341 | -25.8 | -35.0 | ||
| 2013-05-02T23:55 | 8806 | 335 | -26.6 | -39.7 | ||
| 2013-05-02T23:55 | 8884 | 332 | 262 | 21 | ||
| 2013-05-02T23:55 | 9070 | 323 | -28.8 | -42.0 | ||
| 2013-05-02T23:56 | 9274 | 314 | 264 | 22 | ||
| 2013-05-02T23:56 | 9468 | 306 | -31.8 | -41.2 | ||
| 2013-05-02T23:57 | 9648 | 298 | -32.7 | -38.2 | ||
| 2013-05-02T23:57 | 9676 | 297 | 268 | 27 | ||
| 2013-05-02T23:57 | 9856 | 289 | -34.1 | -43.3 | ||
| 2013-05-02T23:58 | 10101 | 279 | 271 | 28 | ||
| 2013-05-02T23:58 | 10292 | 272 | -37.6 | -44.0 | ||
| 2013-05-02T23:59 | 10526 | 263 | 267 | 28 | ||
| 2013-05-02T23:59 | 10610 | 259 | -40.0 | -48.5 | ||
| 2013-05-03T00:00 | 10959 | 246 | 267 | 30 | ||
| 2013-05-03T00:01 | 11391 | 231 | 264 | 32 | ||
| 2013-05-03T00:02 | 11794 | 217 | 264 | 34 | ||
| 2013-05-03T00:03 | 12191 | 204 | 262 | 36 | ||
| 2013-05-03T00:03 | 12337 | 200 | -54.5 | |||
| 2013-05-03T00:04 | 12607 | 191 | 262 | 38 | ||
| 2013-05-03T00:05 | 12994 | 180 | 267 | 39 | ||
| 2013-05-03T00:06 | 13382 | 169 | 269 | 36 | ||
| 2013-05-03T00:07 | 13800 | 158 | 267 | 34 | ||
| 2013-05-03T00:08 | 14218 | 147 | 269 | 35 | ||
| 2013-05-03T00:08 | 14267 | 146 | -69.9 | |||
| 2013-05-03T00:09 | 14572 | 139 | -70.1 | |||
| 2013-05-03T00:09 | 14628 | 138 | 283 | 34 | ||
| 2013-05-03T00:09 | 14697 | 136 | -69.7 | |||
| 2013-05-03T00:09 | 14803 | 134 | -69.3 | |||
| 2013-05-03T00:10 | 14994 | 129 | -69.8 | |||
| 2013-05-03T00:10 | 15087 | 127 | 296 | 31 | ||
| 2013-05-03T00:11 | 15369 | 121 | -70.0 | |||
| 2013-05-03T00:11 | 15548 | 118 | 281 | 22 | ||
| 2013-05-03T00:12 | 15841 | 112 | -72.0 | |||
| 2013-05-03T00:12 | 15936 | 110 | 280 | 24 | ||
| 2013-05-03T00:13 | 16333 | 103 | -72.3 | |||
| 2013-05-03T00:13 | 16431 | 101 | 285 | 22 | ||
| 2013-05-03T00:13 | 16636 | 98 | -74.4 | |||
| 2013-05-03T00:14 | 16965 | 93 | 292 | 18 | ||
| 2013-05-03T00:15 | 17311 | 87 | -76.9 | |||
| 2013-05-03T00:15 | 17438 | 85 | 278 | 16 | ||
| 2013-05-03T00:15 | 17590 | 83 | -75.3 | |||
| 2013-05-03T00:16 | 17898 | 79 | 291 | 14 | ||
| 2013-05-03T00:16 | 18001 | 77 | -76.2 | |||
| 2013-05-03T00:17 | 18330 | 73 | -76.6 | 280 | 15 | |
| 2013-05-03T00:18 | 18773 | 68 | 309 | 16 | ||
| 2013-05-03T00:18 | 18807 | 67 | -76.0 | |||
| 2013-05-03T00:19 | 19072 | 64 | -74.5 | |||
| 2013-05-03T00:19 | 19164 | 63 | -72.5 | |||
| 2013-05-03T00:19 | 19220 | 63 | 326 | 9 | ||
| 2013-05-03T00:20 | 19411 | 61 | -70.8 | |||
| 2013-05-03T00:20 | 19510 | 60 | -69.9 | |||
| 2013-05-03T00:20 | 19520 | 60 | 292 | 4 | ||
| 2013-05-03T00:20 | 19540 | 59 | -70.0 | |||
| 2013-05-03T11:30 | 8 | 1014 | 19.2 | 18.0 | 130 | 4 |
| 2013-05-03T11:30 | 20 | 1013 | 18.6 | 17.1 | ||
| 2013-05-03T11:31 | 225 | 989 | 17.8 | 16.8 | ||
| 2013-05-03T11:31 | 305 | 980 | 126 | 4 | ||
| 2013-05-03T11:31 | 434 | 965 | 16.8 | 16.3 | ||
| 2013-05-03T11:32 | 549 | 952 | 16.3 | 16.0 | ||
| 2013-05-03T11:32 | 643 | 942 | 118 | 4 | ||
| 2013-05-03T11:32 | 763 | 929 | 15.1 | 13.8 | ||
| 2013-05-03T11:33 | 965 | 907 | 130 | 3 | ||
| 2013-05-03T11:33 | 1056 | 897 | 13.6 | 13.6 | ||
| 2013-05-03T11:34 | 1299 | 872 | 227 | 2 | ||
| 2013-05-03T11:35 | 1550 | 846 | 12.2 | 12.2 | ||
| 2013-05-03T11:35 | 1655 | 836 | 204 | 2 | ||
| 2013-05-03T11:35 | 1811 | 820 | 12.5 | 12.5 | ||
| 2013-05-03T11:36 | 1978 | 804 | 243 | 4 | ||
| 2013-05-03T11:36 | 2124 | 790 | 11.2 | 11.2 | ||
| 2013-05-03T11:37 | 2157 | 787 | 10.9 | 10.9 | ||
| 2013-05-03T11:37 | 2239 | 779 | 10.7 | 10.7 | ||
| 2013-05-03T11:37 | 2305 | 773 | 267 | 7 | ||
| 2013-05-03T11:38 | 2554 | 751 | 9.4 | 9.4 | ||
| 2013-05-03T11:38 | 2611 | 745 | 8.9 | 8.9 | ||
| 2013-05-03T11:38 | 2617 | 745 | 266 | 7 | ||
| 2013-05-03T11:39 | 2870 | 722 | 7.7 | 7.7 | ||
| 2013-05-03T11:39 | 2929 | 717 | 279 | 6 | ||
| 2013-05-03T11:39 | 3074 | 705 | 6.5 | 6.5 | ||
| 2013-05-03T11:40 | 3144 | 699 | 5.9 | 5.9 | ||
| 2013-05-03T11:40 | 3254 | 690 | 297 | 5 | ||
| 2013-05-03T11:40 | 3329 | 683 | 5.2 | 5.2 | ||
| 2013-05-03T11:41 | 3527 | 667 | 3.8 | 3.4 | ||
| 2013-05-03T11:41 | 3569 | 663 | 318 | 7 | ||
| 2013-05-03T11:42 | 3865 | 640 | 277 | 6 | ||
| 2013-05-03T11:43 | 4042 | 626 | 1.7 | 1.7 | ||
| 2013-05-03T11:43 | 4168 | 616 | 261 | 9 | ||
| 2013-05-03T11:44 | 4481 | 593 | 257 | 11 | ||
| 2013-05-03T11:45 | 4808 | 569 | 252 | 9 | ||
| 2013-05-03T11:45 | 4841 | 566 | -2.4 | -2.8 | ||
| 2013-05-03T11:46 | 5122 | 547 | 248 | 11 | ||
| 2013-05-03T11:47 | 5375 | 529 | -5.9 | -6.4 | ||
| 2013-05-03T11:47 | 5431 | 526 | 248 | 10 | ||
| 2013-05-03T11:48 | 5719 | 507 | 245 | 9 | ||
| 2013-05-03T11:48 | 5865 | 497 | -8.5 | -9.0 | ||
| 2013-05-03T11:49 | 6019 | 487 | 249 | 11 | ||
| 2013-05-03T11:49 | 6068 | 484 | -9.7 | -10.2 | ||
| 2013-05-03T11:49 | 6153 | 479 | -10.5 | -11.4 | ||
| 2013-05-03T11:50 | 6168 | 478 | -10.7 | -13.2 | ||
| 2013-05-03T11:50 | 6206 | 476 | -11.0 | -14.6 | ||
| 2013-05-03T11:50 | 6226 | 475 | -11.2 | -12.5 | ||
| 2013-05-03T11:50 | 6279 | 471 | -10.9 | -11.4 | ||
| 2013-05-03T11:50 | 6308 | 469 | 260 | 13 | ||
| 2013-05-03T11:50 | 6312 | 469 | -11.2 | -12.5 | ||
| 2013-05-03T11:50 | 6350 | 467 | -11.5 | -14.7 | ||
| 2013-05-03T11:50 | 6365 | 466 | -11.6 | -15.1 | ||
| 2013-05-03T11:50 | 6399 | 464 | -11.9 | -15.8 | ||
| 2013-05-03T11:50 | 6417 | 463 | -12.1 | -15.6 | ||
| 2013-05-03T11:51 | 6461 | 460 | -12.4 | -16.9 | ||
| 2013-05-03T11:51 | 6502 | 458 | -12.8 | -16.8 | ||
| 2013-05-03T11:51 | 6517 | 457 | -13.0 | -17.5 | ||
| 2013-05-03T11:51 | 6567 | 454 | -13.4 | -18.4 | ||
| 2013-05-03T11:51 | 6586 | 453 | -13.6 | -19.7 | ||
| 2013-05-03T11:51 | 6589 | 453 | 259 | 15 | ||
| 2013-05-03T11:51 | 6604 | 452 | -13.7 | -18.9 | ||
| 2013-05-03T11:51 | 6618 | 451 | -13.9 | -21.4 | ||
| 2013-05-03T11:51 | 6634 | 450 | -14.0 | -20.3 | ||
| 2013-05-03T11:51 | 6657 | 449 | -14.2 | -20.9 | ||
| 2013-05-03T11:51 | 6670 | 448 | -14.3 | -21.8 | ||
| 2013-05-03T11:51 | 6679 | 447 | -14.3 | -21.4 | ||
| 2013-05-03T11:51 | 6695 | 446 | -14.3 | -21.6 | ||
| 2013-05-03T11:52 | 6732 | 444 | -14.5 | -22.9 | ||
| 2013-05-03T11:52 | 6747 | 443 | -14.6 | -21.9 | ||
| 2013-05-03T11:52 | 6764 | 442 | -14.6 | -23.0 | ||
| 2013-05-03T11:52 | 6790 | 441 | -14.7 | -22.6 | ||
| 2013-05-03T11:52 | 6826 | 439 | -15.0 | -24.3 | ||
| 2013-05-03T11:52 | 6854 | 437 | 260 | 18 | ||
| 2013-05-03T11:52 | 6895 | 435 | -15.1 | -22.8 | ||
| 2013-05-03T11:52 | 6900 | 434 | -15.1 | -21.7 | ||
| 2013-05-03T11:52 | 6919 | 433 | -15.1 | -23.0 | ||
| 2013-05-03T11:52 | 6953 | 431 | -15.1 | -23.0 | ||
| 2013-05-03T11:52 | 6991 | 429 | -15.2 | -22.9 | ||
| 2013-05-03T11:53 | 7030 | 427 | -15.3 | -20.9 | ||
| 2013-05-03T11:53 | 7069 | 425 | -15.3 | -20.0 | ||
| 2013-05-03T11:53 | 7140 | 421 | 265 | 17 | ||
| 2013-05-03T11:53 | 7184 | 418 | -15.8 | -19.7 | ||
| 2013-05-03T11:53 | 7209 | 417 | -16.0 | -21.8 | ||
| 2013-05-03T11:54 | 7336 | 410 | -17.1 | -24.0 | ||
| 2013-05-03T11:54 | 7366 | 408 | -17.3 | -23.2 | ||
| 2013-05-03T11:54 | 7386 | 407 | -17.4 | -22.8 | ||
| 2013-05-03T11:54 | 7432 | 405 | 260 | 20 | ||
| 2013-05-03T11:54 | 7447 | 404 | -18.0 | -27.1 | ||
| 2013-05-03T11:54 | 7502 | 401 | -18.5 | -31.2 | ||
| 2013-05-03T11:54 | 7523 | 400 | -18.7 | -31.3 | ||
| 2013-05-03T11:54 | 7541 | 399 | -18.9 | -34.9 | ||
| 2013-05-03T11:54 | 7564 | 398 | -19.0 | -34.6 | ||
| 2013-05-03T11:55 | 7647 | 393 | -19.5 | -36.3 | ||
| 2013-05-03T11:55 | 7706 | 390 | -19.5 | -30.8 | ||
| 2013-05-03T11:55 | 7742 | 388 | 255 | 20 | ||
| 2013-05-03T11:55 | 7809 | 385 | -20.5 | -32.0 | ||
| 2013-05-03T11:56 | 7908 | 380 | -21.0 | -34.0 | ||
| 2013-05-03T11:56 | 7947 | 378 | -21.2 | -33.9 | ||
| 2013-05-03T11:56 | 8045 | 373 | 259 | 21 | ||
| 2013-05-03T11:57 | 8305 | 360 | -23.4 | -36.2 | ||
| 2013-05-03T11:57 | 8352 | 357 | 263 | 22 | ||
| 2013-05-03T11:57 | 8385 | 356 | -23.8 | -36.9 | ||
| 2013-05-03T11:57 | 8449 | 353 | -24.1 | -34.7 | ||
| 2013-05-03T11:57 | 8492 | 351 | -24.3 | -31.4 | ||
| 2013-05-03T11:58 | 8549 | 348 | -24.8 | -34.8 | ||
| 2013-05-03T11:58 | 8595 | 346 | -25.0 | -32.0 | ||
| 2013-05-03T11:58 | 8641 | 343 | 264 | 23 | ||
| 2013-05-03T11:58 | 8696 | 341 | -25.6 | -31.4 | ||
| 2013-05-03T11:59 | 8913 | 331 | 262 | 24 | ||
| 2013-05-03T11:59 | 8931 | 330 | -27.2 | -27.9 | ||
| 2013-05-03T11:59 | 8995 | 327 | -27.8 | -28.7 | ||
| 2013-05-03T11:59 | 9026 | 326 | -27.9 | -29.8 | ||
| 2013-05-03T12:00 | 9134 | 321 | -28.5 | -30.4 | ||
| 2013-05-03T12:00 | 9168 | 319 | 264 | 26 | ||
| 2013-05-03T12:01 | 9415 | 308 | 264 | 27 | ||
| 2013-05-03T12:01 | 9430 | 308 | -30.7 | -33.2 | ||
| 2013-05-03T12:02 | 9664 | 298 | 267 | 28 | ||
| 2013-05-03T12:02 | 9680 | 297 | -32.8 | -34.3 | ||
| 2013-05-03T12:03 | 9920 | 287 | -34.3 | -36.8 | 264 | 27 |
| 2013-05-03T12:04 | 10127 | 279 | -35.7 | -39.6 | ||
| 2013-05-03T12:04 | 10177 | 277 | 267 | 27 | ||
| 2013-05-03T12:05 | 10437 | 266 | 266 | 28 | ||
| 2013-05-03T12:06 | 10670 | 258 | -40.0 | -44.8 | ||
| 2013-05-03T12:06 | 10675 | 257 | -40.0 | -45.0 | ||
| 2013-05-03T12:06 | 10710 | 256 | 260 | 27 | ||
| 2013-05-03T12:07 | 10963 | 247 | 259 | 30 | ||
| 2013-05-03T12:08 | 11208 | 238 | 259 | 32 | ||
| 2013-05-03T12:09 | 11445 | 230 | 257 | 32 | ||
| 2013-05-03T12:10 | 11680 | 222 | 254 | 31 | ||
| 2013-05-03T12:11 | 11894 | 214 | -49.8 | |||
| 2013-05-03T12:11 | 11931 | 213 | 249 | 31 | ||
| 2013-05-03T12:12 | 12173 | 205 | 250 | 30 | ||
| 2013-05-03T12:13 | 12419 | 198 | 252 | 30 | ||
| 2013-05-03T12:14 | 12669 | 190 | 255 | 31 | ||
| 2013-05-03T12:15 | 12919 | 183 | 255 | 31 | ||
| 2013-05-03T12:16 | 13131 | 177 | -60.7 | |||
| 2013-05-03T12:16 | 13173 | 175 | 254 | 32 | ||
| 2013-05-03T12:17 | 13414 | 169 | 256 | 32 | ||
| 2013-05-03T12:18 | 13656 | 162 | 257 | 32 | ||
| 2013-05-03T12:18 | 13766 | 159 | -64.5 | |||
| 2013-05-03T12:19 | 13902 | 156 | 262 | 32 | ||
| 2013-05-03T12:20 | 14064 | 152 | -65.5 | |||
| 2013-05-03T12:20 | 14165 | 149 | 267 | 34 | ||
| 2013-05-03T12:21 | 14408 | 143 | -68.0 | |||
| 2013-05-03T12:21 | 14421 | 143 | 270 | 34 | ||
| 2013-05-03T12:22 | 14661 | 137 | 274 | 33 | ||
| 2013-05-03T12:22 | 14666 | 137 | -67.3 | |||
| 2013-05-03T12:23 | 14907 | 132 | 271 | 31 | ||
| 2013-05-03T12:24 | 15161 | 126 | 272 | 29 | ||
| 2013-05-03T12:24 | 15260 | 124 | -71.0 | |||
| 2013-05-03T12:25 | 15414 | 121 | 268 | 28 | ||
| 2013-05-03T12:26 | 15537 | 119 | -71.7 | |||
| 2013-05-03T12:26 | 15653 | 116 | 269 | 27 | ||
| 2013-05-03T12:26 | 15684 | 116 | -69.8 | |||
| 2013-05-03T12:27 | 15920 | 111 | 282 | 25 | ||
| 2013-05-03T12:28 | 16152 | 107 | -71.5 | |||
| 2013-05-03T12:28 | 16191 | 106 | 280 | 22 | ||
| 2013-05-03T12:29 | 16479 | 101 | 267 | 22 | ||
| 2013-05-03T12:29 | 16572 | 100 | -74.8 | |||
| 2013-05-03T12:30 | 16714 | 97 | 277 | 23 | ||
| 2013-05-03T12:31 | 16938 | 93 | 285 | 20 | ||
| 2013-05-03T12:31 | 16988 | 93 | -76.2 | |||
| 2013-05-03T12:32 | 17197 | 89 | 304 | 18 | ||
| 2013-05-03T12:33 | 17426 | 86 | 291 | 17 | ||
| 2013-05-03T12:34 | 17636 | 83 | 287 | 21 | ||
| 2013-05-03T12:35 | 17789 | 81 | -79.4 | |||
| 2013-05-03T12:35 | 17839 | 80 | 302 | 23 | ||
| 2013-05-03T12:36 | 18013 | 77 | 308 | 20 | ||
| 2013-05-03T12:36 | 18020 | 77 | -77.5 | |||
| 2013-05-03T12:37 | 18178 | 75 | 303 | 15 | ||
| 2013-05-03T12:38 | 18271 | 74 | -76.6 | |||
| 2013-05-03T12:38 | 18302 | 74 | 304 | 14 | ||
| 2013-05-03T12:39 | 18373 | 73 | -73.8 | |||
| 2013-05-03T12:39 | 18430 | 72 | 318 | 11 | ||
| 2013-05-03T12:40 | 18561 | 70 | -72.4 | 343 | 8 | |
| 2013-05-03T12:41 | 18680 | 69 | 20 | 4 | ||
| 2013-05-03T12:42 | 18758 | 68 | -69.7 | |||
| 2013-05-03T12:42 | 18784 | 68 | 95 | 4 | ||
| 2013-05-03T12:44 | 18873 | 67 | 122 | 4 | ||
| 2013-05-03T12:45 | 18953 | 66 | 137 | 5 | ||
| 2013-05-03T12:45 | 18989 | 66 | 147 | 5 | ||
| 2013-05-03T12:45 | 18998 | 65 | -71.1 | |||
| 2013-05-03T23:30 | 8 | 1015 | 21.6 | 18.6 | 80 | 5 |
| 2013-05-03T23:30 | 17 | 1014 | 21.1 | 18.5 | ||
| 2013-05-03T23:31 | 287 | 983 | 19.0 | 16.8 | ||
| 2013-05-03T23:31 | 307 | 981 | 53 | 9 | ||
| 2013-05-03T23:32 | 571 | 951 | 16.6 | 16.6 | ||
| 2013-05-03T23:32 | 663 | 941 | 82 | 6 | ||
| 2013-05-03T23:33 | 961 | 908 | 79 | 4 | ||
| 2013-05-03T23:33 | 1055 | 898 | 14.9 | 14.9 | ||
| 2013-05-03T23:34 | 1215 | 882 | 14.5 | 14.5 | ||
| 2013-05-03T23:34 | 1262 | 877 | 170 | 1 | ||
| 2013-05-03T23:35 | 1571 | 845 | 226 | 2 | ||
| 2013-05-03T23:35 | 1711 | 831 | 12.3 | 12.3 | ||
| 2013-05-03T23:36 | 1896 | 813 | 257 | 9 | ||
| 2013-05-03T23:36 | 2019 | 801 | 11.8 | 11.8 | ||
| 2013-05-03T23:37 | 2248 | 780 | 256 | 9 | ||
| 2013-05-03T23:37 | 2308 | 774 | 10.6 | 10.6 | ||
| 2013-05-03T23:38 | 2483 | 758 | 9.2 | 8.1 | ||
| 2013-05-03T23:38 | 2599 | 748 | 285 | 6 | ||
| 2013-05-03T23:38 | 2655 | 743 | 8.2 | 7.1 | ||
| 2013-05-03T23:39 | 2942 | 717 | 7.0 | 6.3 | ||
| 2013-05-03T23:39 | 2948 | 717 | 292 | 5 | ||
| 2013-05-03T23:40 | 3141 | 700 | 5.8 | 5.1 | ||
| 2013-05-03T23:40 | 3258 | 690 | 5.1 | 3.1 | ||
| 2013-05-03T23:40 | 3285 | 688 | 298 | 8 | ||
| 2013-05-03T23:41 | 3629 | 659 | 296 | 7 | ||
| 2013-05-03T23:41 | 3673 | 656 | 2.7 | 1.8 | ||
| 2013-05-03T23:42 | 3860 | 641 | 1.6 | 1.0 | ||
| 2013-05-03T23:42 | 3954 | 633 | 300 | 8 | ||
| 2013-05-03T23:42 | 4052 | 626 | 0.4 | -0.7 | ||
| 2013-05-03T23:42 | 4088 | 623 | 0.2 | -0.8 | ||
| 2013-05-03T23:43 | 4119 | 621 | 0.1 | -0.6 | ||
| 2013-05-03T23:43 | 4130 | 620 | 0.1 | -0.6 | ||
| 2013-05-03T23:43 | 4182 | 616 | -0.1 | -0.8 | ||
| 2013-05-03T23:43 | 4217 | 613 | 0.0 | -0.3 | ||
| 2013-05-03T23:43 | 4264 | 609 | 308 | 9 | ||
| 2013-05-03T23:43 | 4289 | 608 | -0.5 | -2.2 | ||
| 2013-05-03T23:43 | 4341 | 604 | -1.0 | -5.0 | ||
| 2013-05-03T23:43 | 4403 | 599 | -1.0 | -5.2 | ||
| 2013-05-03T23:44 | 4514 | 591 | -1.5 | -5.5 | ||
| 2013-05-03T23:44 | 4531 | 589 | -1.6 | -4.6 | ||
| 2013-05-03T23:44 | 4569 | 587 | -1.7 | -5.0 | ||
| 2013-05-03T23:44 | 4574 | 586 | -1.7 | -5.4 | ||
| 2013-05-03T23:44 | 4579 | 586 | 294 | 11 | ||
| 2013-05-03T23:44 | 4697 | 577 | -2.1 | -5.3 | ||
| 2013-05-03T23:45 | 4843 | 567 | -3.0 | -6.1 | ||
| 2013-05-03T23:45 | 4912 | 562 | -3.3 | -5.9 | ||
| 2013-05-03T23:45 | 4915 | 562 | 305 | 15 | ||
| 2013-05-03T23:45 | 5031 | 553 | -4.1 | -9.1 | ||
| 2013-05-03T23:46 | 5107 | 548 | -4.3 | -9.0 | ||
| 2013-05-03T23:46 | 5231 | 540 | -5.2 | -9.5 | ||
| 2013-05-03T23:46 | 5257 | 538 | 308 | 15 | ||
| 2013-05-03T23:47 | 5429 | 526 | -6.1 | -9.5 | ||
| 2013-05-03T23:47 | 5605 | 514 | 306 | 17 | ||
| 2013-05-03T23:47 | 5673 | 510 | -7.7 | -9.3 | ||
| 2013-05-03T23:47 | 5754 | 505 | -7.5 | -10.4 | ||
| 2013-05-03T23:48 | 5840 | 499 | -7.8 | -11.8 | ||
| 2013-05-03T23:48 | 5950 | 492 | 292 | 17 | ||
| 2013-05-03T23:48 | 6097 | 483 | -9.4 | -12.1 | ||
| 2013-05-03T23:49 | 6221 | 475 | -10.2 | -13.5 | ||
| 2013-05-03T23:49 | 6289 | 471 | 285 | 17 | ||
| 2013-05-03T23:49 | 6412 | 464 | -11.5 | -14.4 | ||
| 2013-05-03T23:50 | 6640 | 450 | 294 | 18 | ||
| 2013-05-03T23:50 | 6793 | 441 | -14.6 | -16.0 | ||
| 2013-05-03T23:51 | 6910 | 434 | -15.0 | -16.5 | ||
| 2013-05-03T23:51 | 6976 | 430 | 280 | 17 | ||
| 2013-05-03T23:51 | 7101 | 423 | -16.4 | -17.8 | ||
| 2013-05-03T23:52 | 7237 | 416 | -16.5 | -19.0 | ||
| 2013-05-03T23:52 | 7323 | 411 | 267 | 20 | ||
| 2013-05-03T23:52 | 7346 | 410 | -16.6 | -19.8 | ||
| 2013-05-03T23:52 | 7379 | 408 | -16.5 | -19.9 | ||
| 2013-05-03T23:52 | 7418 | 406 | -16.4 | -22.9 | ||
| 2013-05-03T23:53 | 7571 | 398 | -17.2 | -25.6 | ||
| 2013-05-03T23:53 | 7654 | 393 | 268 | 23 | ||
| 2013-05-03T23:53 | 7743 | 389 | -18.7 | -27.2 | ||
| 2013-05-03T23:54 | 7986 | 376 | 267 | 23 | ||
| 2013-05-03T23:54 | 7991 | 376 | -20.2 | -29.3 | ||
| 2013-05-03T23:55 | 8185 | 366 | -21.8 | -30.3 | ||
| 2013-05-03T23:55 | 8225 | 364 | -22.1 | -29.7 | ||
| 2013-05-03T23:55 | 8329 | 359 | 266 | 25 | ||
| 2013-05-03T23:55 | 8357 | 358 | -23.0 | -31.4 | ||
| 2013-05-03T23:55 | 8410 | 355 | -23.5 | -31.9 | ||
| 2013-05-03T23:56 | 8566 | 348 | -24.7 | -32.6 | ||
| 2013-05-03T23:56 | 8661 | 343 | 263 | 22 | ||
| 2013-05-03T23:56 | 8729 | 340 | -25.7 | -33.1 | ||
| 2013-05-03T23:57 | 8838 | 335 | -26.4 | -34.8 | ||
| 2013-05-03T23:57 | 8856 | 334 | -26.4 | -34.8 | ||
| 2013-05-03T23:57 | 9004 | 327 | 267 | 24 | ||
| 2013-05-03T23:57 | 9097 | 323 | -28.4 | -36.4 | ||
| 2013-05-03T23:58 | 9213 | 318 | -29.4 | -35.2 | ||
| 2013-05-03T23:58 | 9360 | 311 | -30.6 | -36.5 | 264 | 24 |
| 2013-05-03T23:58 | 9466 | 307 | -31.4 | -38.8 | ||
| 2013-05-03T23:59 | 9600 | 301 | -32.5 | -40.7 | ||
| 2013-05-03T23:59 | 9624 | 300 | -32.5 | -40.4 | ||
| 2013-05-03T23:59 | 9714 | 296 | 263 | 24 | ||
| 2013-05-03T23:59 | 9848 | 290 | -34.1 | -40.9 | ||
| 2013-05-04T00:00 | 10043 | 282 | -35.4 | -45.5 | ||
| 2013-05-04T00:00 | 10092 | 280 | 260 | 25 | ||
| 2013-05-04T00:01 | 10321 | 271 | -37.0 | -48.6 | ||
| 2013-05-04T00:01 | 10467 | 266 | 258 | 24 | ||
| 2013-05-04T00:01 | 10650 | 259 | -40.0 | -48.0 | ||
| 2013-05-04T00:02 | 10856 | 251 | 266 | 26 | ||
| 2013-05-04T00:03 | 11217 | 238 | 264 | 26 | ||
| 2013-05-04T00:04 | 11588 | 225 | 272 | 24 | ||
| 2013-05-04T00:05 | 11976 | 212 | 273 | 28 | ||
| 2013-05-04T00:06 | 12346 | 200 | 272 | 30 | ||
| 2013-05-04T00:06 | 12366 | 200 | -53.7 | |||
| 2013-05-04T00:07 | 12731 | 189 | 266 | 28 | ||
| 2013-05-04T00:08 | 13099 | 178 | 266 | 30 | ||
| 2013-05-04T00:09 | 13476 | 167 | 269 | 30 | ||
| 2013-05-04T00:09 | 13523 | 166 | -63.5 | |||
| 2013-05-04T00:10 | 13807 | 159 | -64.1 | |||
| 2013-05-04T00:10 | 13857 | 157 | 262 | 29 | ||
| 2013-05-04T00:10 | 14018 | 153 | -64.8 | |||
| 2013-05-04T00:11 | 14286 | 147 | 269 | 29 | ||
| 2013-05-04T00:11 | 14328 | 146 | -65.4 | |||
| 2013-05-04T00:12 | 14555 | 140 | -64.2 | |||
| 2013-05-04T00:12 | 14709 | 137 | 281 | 26 | ||
| 2013-05-04T00:12 | 14852 | 134 | -66.7 | |||
| 2013-05-04T00:13 | 15124 | 128 | 284 | 25 | ||
| 2013-05-04T00:14 | 15568 | 118 | 276 | 22 | ||
| 2013-05-04T00:14 | 15589 | 118 | -71.9 | |||
| 2013-05-04T00:15 | 15927 | 111 | -73.3 | |||
| 2013-05-04T00:15 | 16049 | 109 | 284 | 23 | ||
| 2013-05-04T00:15 | 16113 | 108 | -73.4 | |||
| 2013-05-04T00:16 | 16498 | 101 | 293 | 22 | ||
| 2013-05-04T00:16 | 16539 | 100 | -74.5 | |||
| 2013-05-04T00:17 | 16751 | 97 | -75.8 | |||
| 2013-05-04T00:17 | 16933 | 94 | 276 | 18 | ||
| 2013-05-04T00:17 | 17070 | 92 | -76.2 | |||
| 2013-05-04T00:18 | 17394 | 87 | -76.6 | |||
| 2013-05-04T00:18 | 17434 | 86 | 273 | 16 | ||
| 2013-05-04T00:18 | 17645 | 83 | -76.6 | |||
| 2013-05-04T00:19 | 17880 | 80 | 307 | 12 | ||
| 2013-05-04T00:20 | 17962 | 78 | -73.8 | |||
| 2013-05-04T11:30 | 8 | 1016 | 23.4 | 20.2 | 100 | 7 |
| 2013-05-04T11:30 | 18 | 1015 | 23.0 | 20.5 | ||
| 2013-05-04T11:31 | 322 | 980 | 98 | 8 | ||
| 2013-05-04T11:31 | 362 | 976 | 20.0 | 17.6 | ||
| 2013-05-04T11:32 | 652 | 943 | 97 | 9 | ||
| 2013-05-04T11:32 | 719 | 936 | 17.1 | 16.3 | ||
| 2013-05-04T11:33 | 990 | 907 | 88 | 8 | ||
| 2013-05-04T11:34 | 1235 | 881 | 14.6 | 14.6 | ||
| 2013-05-04T11:34 | 1333 | 871 | 14.6 | 14.6 | 78 | 4 |
| 2013-05-04T11:35 | 1687 | 835 | 356 | 1 | ||
| 2013-05-04T11:35 | 1710 | 833 | 13.1 | 13.1 | ||
| 2013-05-04T11:36 | 2040 | 801 | 250 | 5 | ||
| 2013-05-04T11:36 | 2070 | 798 | 11.9 | 11.4 | ||
| 2013-05-04T11:37 | 2401 | 767 | 235 | 7 | ||
| 2013-05-04T11:37 | 2498 | 758 | 10.2 | 9.6 | ||
| 2013-05-04T11:38 | 2758 | 735 | 221 | 7 | ||
| 2013-05-04T11:38 | 2824 | 729 | 8.6 | 8.5 | ||
| 2013-05-04T11:39 | 3138 | 702 | 236 | 8 | ||
| 2013-05-04T11:39 | 3158 | 700 | 6.4 | 6.4 | ||
| 2013-05-04T11:39 | 3295 | 689 | 5.3 | 4.4 | ||
| 2013-05-04T11:40 | 3483 | 673 | 4.9 | 2.9 | ||
| 2013-05-04T11:40 | 3512 | 671 | 255 | 10 | ||
| 2013-05-04T11:40 | 3543 | 668 | 5.2 | 2.0 | ||
| 2013-05-04T11:40 | 3657 | 659 | 5.2 | 1.9 | ||
| 2013-05-04T11:41 | 3835 | 645 | 254 | 11 | ||
| 2013-05-04T11:41 | 3840 | 644 | 4.5 | 2.2 | ||
| 2013-05-04T11:42 | 4064 | 627 | 2.8 | 1.3 | ||
| 2013-05-04T11:42 | 4075 | 626 | 2.7 | 1.2 | ||
| 2013-05-04T11:42 | 4114 | 623 | 2.4 | 1.2 | ||
| 2013-05-04T11:42 | 4120 | 622 | 2.3 | 1.1 | ||
| 2013-05-04T11:42 | 4164 | 619 | 269 | 10 | ||
| 2013-05-04T11:43 | 4350 | 605 | 0.5 | 0.2 | ||
| 2013-05-04T11:43 | 4508 | 593 | -0.3 | -0.7 | 262 | 10 |
| 2013-05-04T11:43 | 4639 | 584 | -0.5 | -2.1 | ||
| 2013-05-04T11:43 | 4667 | 581 | -0.6 | -3.0 | ||
| 2013-05-04T11:44 | 4685 | 580 | -0.6 | -3.3 | ||
| 2013-05-04T11:44 | 4862 | 567 | 264 | 10 | ||
| 2013-05-04T11:44 | 4914 | 564 | -2.4 | -3.5 | ||
| 2013-05-04T11:45 | 5211 | 543 | 268 | 9 | ||
| 2013-05-04T11:46 | 5405 | 530 | -6.5 | -7.0 | ||
| 2013-05-04T11:46 | 5464 | 526 | -6.9 | -8.4 | ||
| 2013-05-04T11:46 | 5525 | 522 | -6.4 | -8.8 | ||
| 2013-05-04T11:46 | 5548 | 520 | 267 | 11 | ||
| 2013-05-04T11:46 | 5704 | 510 | -6.8 | -9.0 | ||
| 2013-05-04T11:47 | 5760 | 506 | -6.6 | -10.8 | ||
| 2013-05-04T11:47 | 5886 | 498 | 265 | 13 | ||
| 2013-05-04T11:48 | 6118 | 483 | -9.2 | -10.3 | ||
| 2013-05-04T11:48 | 6236 | 476 | 273 | 15 | ||
| 2013-05-04T11:48 | 6280 | 473 | -9.6 | -12.7 | ||
| 2013-05-04T11:49 | 6498 | 460 | -11.1 | -14.0 | ||
| 2013-05-04T11:49 | 6563 | 456 | 272 | 14 | ||
| 2013-05-04T11:49 | 6646 | 451 | -11.8 | -16.0 | ||
| 2013-05-04T11:50 | 6757 | 445 | -12.6 | -15.8 | ||
| 2013-05-04T11:50 | 6854 | 439 | -13.2 | -16.2 | ||
| 2013-05-04T11:50 | 6901 | 437 | 269 | 13 | ||
| 2013-05-04T11:50 | 6918 | 436 | -13.4 | -18.2 | ||
| 2013-05-04T11:50 | 7036 | 429 | -13.9 | -18.5 | ||
| 2013-05-04T11:51 | 7152 | 422 | -14.1 | -22.7 | ||
| 2013-05-04T11:51 | 7260 | 416 | 275 | 17 | ||
| 2013-05-04T11:51 | 7315 | 413 | -15.4 | -21.0 | ||
| 2013-05-04T11:52 | 7526 | 402 | -16.5 | -22.3 | ||
| 2013-05-04T11:52 | 7624 | 397 | 280 | 16 | ||
| 2013-05-04T11:52 | 7716 | 392 | -17.8 | -24.3 | ||
| 2013-05-04T11:53 | 7913 | 382 | -19.4 | -26.2 | ||
| 2013-05-04T11:53 | 8001 | 377 | 274 | 19 | ||
| 2013-05-04T11:53 | 8051 | 375 | -19.8 | -30.5 | ||
| 2013-05-04T11:54 | 8222 | 366 | -21.2 | -26.9 | ||
| 2013-05-04T11:54 | 8383 | 358 | 283 | 20 | ||
| 2013-05-04T11:54 | 8497 | 353 | -22.9 | -30.9 | ||
| 2013-05-04T11:55 | 8605 | 348 | -23.8 | -33.1 | ||
| 2013-05-04T11:55 | 8749 | 341 | 283 | 23 | ||
| 2013-05-04T11:55 | 8766 | 340 | -25.1 | -31.7 | ||
| 2013-05-04T11:56 | 9015 | 328 | -26.9 | -33.2 | ||
| 2013-05-04T11:56 | 9108 | 324 | 274 | 22 | ||
| 2013-05-04T11:57 | 9483 | 308 | 271 | 23 | ||
| 2013-05-04T11:57 | 9532 | 306 | -30.9 | -36.5 | ||
| 2013-05-04T11:58 | 9715 | 298 | -32.0 | -41.4 | ||
| 2013-05-04T11:58 | 9849 | 292 | 271 | 23 | ||
| 2013-05-04T11:59 | 10214 | 277 | 270 | 24 | ||
| 2013-05-04T12:00 | 10404 | 270 | -38.1 | -45.1 | ||
| 2013-05-04T12:00 | 10585 | 263 | 265 | 25 | ||
| 2013-05-04T12:00 | 10732 | 257 | -40.0 | -50.7 | ||
| 2013-05-04T12:01 | 10931 | 250 | 263 | 28 | ||
| 2013-05-04T12:02 | 11287 | 237 | 259 | 30 | ||
| 2013-05-04T12:03 | 11668 | 224 | 258 | 30 | ||
| 2013-05-04T12:03 | 11691 | 223 | -48.6 | |||
| 2013-05-04T12:04 | 12062 | 211 | 263 | 31 | ||
| 2013-05-04T12:05 | 12462 | 198 | 268 | 28 | ||
| 2013-05-04T12:05 | 12570 | 195 | -55.8 | |||
| 2013-05-04T12:06 | 12823 | 187 | -56.4 | |||
| 2013-05-04T12:06 | 12830 | 187 | 275 | 25 | ||
| 2013-05-04T12:07 | 13023 | 181 | -56.7 | |||
| 2013-05-04T12:07 | 13193 | 176 | 282 | 26 | ||
| 2013-05-04T12:08 | 13607 | 165 | 279 | 23 | ||
| 2013-05-04T12:09 | 13975 | 155 | -64.3 | |||
| 2013-05-04T12:09 | 14030 | 154 | 280 | 22 | ||
| 2013-05-04T12:10 | 14248 | 149 | -66.0 | |||
| 2013-05-04T12:10 | 14401 | 145 | 284 | 21 | ||
| 2013-05-04T12:10 | 14502 | 143 | -66.0 | |||
| 2013-05-04T12:11 | 14833 | 135 | 287 | 22 | ||
| 2013-05-04T12:11 | 14900 | 133 | -68.7 | |||
| 2013-05-04T12:12 | 15259 | 126 | 299 | 23 | ||
| 2013-05-04T12:13 | 15547 | 120 | -72.7 | |||
| 2013-05-04T12:13 | 15716 | 116 | 296 | 22 | ||
| 2013-05-04T12:13 | 15823 | 114 | -72.9 | |||
| 2013-05-04T12:14 | 16175 | 107 | 289 | 19 | ||
| 2013-05-04T12:15 | 16310 | 105 | -77.7 | |||
| 2013-05-05T00:32 | 8 | 1017 | 23.2 | 20.0 | 100 | 7 |
| 2013-05-05T00:32 | 15 | 1016 | 23.1 | 20.4 | ||
| 2013-05-05T00:33 | 132 | 1003 | 22.2 | 18.4 | ||
| 2013-05-05T00:33 | 189 | 996 | 21.7 | 18.3 | ||
| 2013-05-05T00:33 | 284 | 986 | 89 | 9 | ||
| 2013-05-05T00:34 | 551 | 955 | 18.5 | 17.2 | ||
| 2013-05-05T00:34 | 633 | 946 | 95 | 10 | ||
| 2013-05-05T00:35 | 792 | 929 | 16.7 | 16.4 | ||
| 2013-05-05T00:35 | 942 | 913 | 102 | 10 | ||
| 2013-05-05T00:36 | 1242 | 881 | 107 | 7 | ||
| 2013-05-05T00:36 | 1296 | 876 | 14.8 | 14.8 | ||
| 2013-05-05T00:37 | 1552 | 850 | 127 | 4 | ||
| 2013-05-05T00:37 | 1656 | 839 | 13.6 | 13.4 | ||
| 2013-05-05T00:38 | 1878 | 817 | 220 | 3 | ||
| 2013-05-05T00:38 | 1938 | 812 | 12.5 | 12.2 | ||
| 2013-05-05T00:39 | 2211 | 786 | 247 | 6 | ||
| 2013-05-05T00:39 | 2319 | 776 | 10.8 | 10.2 | ||
| 2013-05-05T00:40 | 2551 | 754 | 247 | 6 | ||
| 2013-05-05T00:40 | 2644 | 746 | 9.5 | 8.1 | ||
| 2013-05-05T00:41 | 2738 | 738 | 8.8 | 6.8 | ||
| 2013-05-05T00:41 | 2865 | 726 | 8.5 | 6.5 | ||
| 2013-05-05T00:41 | 2907 | 723 | 259 | 6 | ||
| 2013-05-05T00:42 | 3283 | 690 | 262 | 4 | ||
| 2013-05-05T00:43 | 3484 | 674 | 5.0 | 3.3 | ||
| 2013-05-05T00:43 | 3644 | 661 | 262 | 4 | ||
| 2013-05-05T00:44 | 3999 | 632 | 286 | 5 | ||
| 2013-05-05T00:44 | 4022 | 631 | 2.1 | 2.0 | ||
| 2013-05-05T00:44 | 4056 | 628 | 1.6 | 1.0 | ||
| 2013-05-05T00:45 | 4176 | 619 | 1.3 | 1.2 | ||
| 2013-05-05T00:45 | 4190 | 618 | 1.1 | 1.0 | ||
| 2013-05-05T00:45 | 4207 | 616 | 1.1 | 1.0 | ||
| 2013-05-05T00:45 | 4347 | 606 | 257 | 5 | ||
| 2013-05-05T00:45 | 4417 | 600 | -0.1 | -1.2 | ||
| 2013-05-05T00:46 | 4560 | 590 | -1.0 | -3.0 | ||
| 2013-05-05T00:46 | 4705 | 579 | 255 | 7 | ||
| 2013-05-05T00:46 | 4733 | 577 | -1.9 | -3.9 | ||
| 2013-05-05T00:47 | 4899 | 565 | -3.0 | -6.8 | ||
| 2013-05-05T00:47 | 5076 | 553 | -4.0 | -7.4 | 280 | 11 |
| 2013-05-05T00:47 | 5200 | 544 | -4.3 | -7.1 | ||
| 2013-05-05T00:48 | 5272 | 539 | -4.9 | -8.3 | ||
| 2013-05-05T00:48 | 5326 | 535 | -5.3 | -8.0 | ||
| 2013-05-05T00:48 | 5344 | 534 | -5.5 | -9.2 | ||
| 2013-05-05T00:48 | 5357 | 533 | -5.5 | -8.7 | ||
| 2013-05-05T00:48 | 5381 | 532 | -5.7 | -9.8 | ||
| 2013-05-05T00:48 | 5436 | 528 | -6.3 | -10.3 | ||
| 2013-05-05T00:48 | 5442 | 528 | 285 | 12 | ||
| 2013-05-05T00:48 | 5491 | 524 | -6.6 | -10.8 | ||
| 2013-05-05T00:49 | 5630 | 515 | -7.0 | -9.2 | ||
| 2013-05-05T00:49 | 5749 | 507 | -7.7 | -11.2 | ||
| 2013-05-05T00:49 | 5804 | 504 | 284 | 12 | ||
| 2013-05-05T00:49 | 5842 | 501 | -7.9 | -11.9 | ||
| 2013-05-05T00:50 | 6016 | 490 | -8.8 | -12.9 | ||
| 2013-05-05T00:50 | 6078 | 486 | -9.2 | -13.0 | ||
| 2013-05-05T00:50 | 6176 | 480 | 282 | 16 | ||
| 2013-05-05T00:51 | 6466 | 462 | -11.3 | -15.7 | ||
| 2013-05-05T00:51 | 6531 | 458 | 266 | 14 | ||
| 2013-05-05T00:51 | 6578 | 456 | -11.8 | -16.3 | ||
| 2013-05-05T00:51 | 6649 | 451 | -12.2 | -17.4 | ||
| 2013-05-05T00:52 | 6820 | 441 | -13.0 | -18.6 | ||
| 2013-05-05T00:52 | 6891 | 437 | 268 | 16 | ||
| 2013-05-05T00:53 | 7163 | 422 | -14.9 | -19.8 | ||
| 2013-05-05T00:53 | 7240 | 418 | 270 | 13 | ||
| 2013-05-05T00:53 | 7409 | 408 | -16.9 | -20.9 | ||
| 2013-05-05T00:54 | 7551 | 401 | -18.0 | -21.8 | ||
| 2013-05-05T00:54 | 7594 | 398 | 268 | 15 | ||
| 2013-05-05T00:54 | 7687 | 394 | -18.6 | -22.6 | ||
| 2013-05-05T00:54 | 7738 | 391 | -18.8 | -23.1 | ||
| 2013-05-05T00:55 | 7805 | 387 | -18.8 | -25.6 | ||
| 2013-05-05T00:55 | 7896 | 383 | -19.3 | -24.2 | ||
| 2013-05-05T00:55 | 7958 | 379 | 261 | 18 | ||
| 2013-05-05T00:56 | 8144 | 370 | -21.2 | -25.5 | ||
| 2013-05-05T00:56 | 8299 | 362 | 256 | 17 | ||
| 2013-05-05T00:56 | 8323 | 361 | -22.6 | -26.7 | ||
| 2013-05-05T00:56 | 8378 | 358 | -22.8 | -27.2 | ||
| 2013-05-05T00:57 | 8598 | 348 | -24.4 | -33.0 | ||
| 2013-05-05T00:57 | 8644 | 346 | 277 | 17 | ||
| 2013-05-05T00:58 | 8831 | 337 | -26.4 | -38.5 | ||
| 2013-05-05T00:58 | 8958 | 331 | -27.5 | -36.5 | ||
| 2013-05-05T00:58 | 8978 | 330 | 272 | 17 | ||
| 2013-05-05T00:58 | 9008 | 329 | -27.9 | -35.3 | ||
| 2013-05-05T00:58 | 9103 | 324 | -28.7 | -34.2 | ||
| 2013-05-05T00:59 | 9236 | 318 | -29.8 | -34.8 | ||
| 2013-05-05T00:59 | 9331 | 314 | 263 | 18 | ||
| 2013-05-05T00:59 | 9415 | 310 | -31.1 | -34.1 | ||
| 2013-05-05T01:00 | 9581 | 303 | -32.3 | -36.4 | ||
| 2013-05-05T01:00 | 9696 | 298 | 268 | 19 | ||
| 2013-05-05T01:00 | 9752 | 296 | -33.7 | -37.7 | ||
| 2013-05-05T01:01 | 10014 | 285 | -36.0 | -41.1 | ||
| 2013-05-05T01:01 | 10065 | 283 | 268 | 22 | ||
| 2013-05-05T01:02 | 10438 | 268 | 275 | 25 | ||
| 2013-05-05T01:02 | 10567 | 263 | -40.0 | -43.6 | ||
| 2013-05-05T01:03 | 10833 | 253 | 273 | 26 | ||
| 2013-05-05T01:04 | 11225 | 239 | 280 | 24 | ||
| 2013-05-05T01:05 | 11614 | 225 | 281 | 22 | ||
| 2013-05-05T01:06 | 12023 | 211 | 272 | 21 | ||
| 2013-05-05T01:06 | 12054 | 210 | -51.1 | |||
| 2013-05-05T01:07 | 12375 | 200 | 265 | 21 | ||
| 2013-05-05T01:08 | 12697 | 190 | -55.3 | |||
| 2013-05-05T01:08 | 12747 | 189 | 261 | 21 | ||
| 2013-05-05T01:09 | 13150 | 177 | 269 | 25 | ||
| 2013-05-05T01:09 | 13240 | 175 | -57.2 | |||
| 2013-05-05T01:10 | 13538 | 167 | 266 | 24 | ||
| 2013-05-05T01:11 | 13908 | 157 | 273 | 25 | ||
| 2013-05-05T01:11 | 13958 | 156 | -62.3 | |||
| 2013-05-05T01:12 | 14311 | 147 | 266 | 25 | ||
| 2013-05-05T01:12 | 14432 | 144 | -65.5 | |||
| 2013-05-05T01:13 | 14672 | 139 | 271 | 26 | ||
| 2013-05-05T01:14 | 15056 | 130 | 283 | 26 | ||
| 2013-05-05T01:15 | 15323 | 124 | -70.8 | |||
| 2013-05-05T01:15 | 15501 | 121 | 295 | 23 | ||
| 2013-05-05T01:15 | 15669 | 117 | -73.6 | |||
| 2013-05-05T01:16 | 15820 | 114 | 282 | 19 | ||
| 2013-05-05T01:16 | 15826 | 114 | -73.5 | |||
| 2013-05-05T12:50 | 8 | 1016 | 23.9 | 19.0 | 90 | 7 |
| 2013-05-05T12:50 | 16 | 1015 | 23.8 | 21.5 | ||
| 2013-05-05T12:51 | 231 | 991 | 21.5 | 19.1 | ||
| 2013-05-05T12:51 | 297 | 983 | 88 | 11 | ||
| 2013-05-05T12:52 | 602 | 949 | 97 | 11 | ||
| 2013-05-05T12:52 | 640 | 945 | 17.9 | 17.7 | ||
| 2013-05-05T12:53 | 763 | 931 | 17.5 | 16.5 | ||
| 2013-05-05T12:53 | 816 | 926 | 17.5 | 16.0 | ||
| 2013-05-05T12:53 | 852 | 922 | 17.5 | 16.0 | ||
| 2013-05-05T12:53 | 891 | 918 | 18.2 | 13.5 | ||
| 2013-05-05T12:53 | 907 | 916 | 84 | 6 | ||
| 2013-05-05T12:53 | 951 | 911 | 17.9 | 14.8 | ||
| 2013-05-05T12:53 | 995 | 907 | 18.1 | 13.4 | ||
| 2013-05-05T12:53 | 1028 | 903 | 17.9 | 15.3 | ||
| 2013-05-05T12:54 | 1125 | 893 | 17.2 | 15.5 | ||
| 2013-05-05T12:54 | 1245 | 881 | 35 | 4 | ||
| 2013-05-05T12:55 | 1421 | 863 | 15.0 | 15.0 | ||
| 2013-05-05T12:55 | 1531 | 851 | 15.6 | 15.6 | ||
| 2013-05-05T12:55 | 1568 | 848 | 298 | 1 | ||
| 2013-05-05T12:55 | 1661 | 839 | 15.6 | 14.5 | ||
| 2013-05-05T12:56 | 1786 | 826 | 14.9 | 13.9 | ||
| 2013-05-05T12:56 | 1896 | 816 | 312 | 1 | ||
| 2013-05-05T12:57 | 2233 | 784 | 12.2 | 11.9 | 345 | 3 |
| 2013-05-05T12:57 | 2315 | 776 | 12.4 | 11.5 | ||
| 2013-05-05T12:58 | 2444 | 764 | 11.6 | 11.0 | ||
| 2013-05-05T12:58 | 2567 | 753 | 33 | 3 | ||
| 2013-05-05T12:59 | 2750 | 737 | 10.2 | 9.3 | ||
| 2013-05-05T12:59 | 2902 | 724 | 17 | 3 | ||
| 2013-05-05T12:59 | 2994 | 716 | 8.4 | 8.4 | ||
| 2013-05-05T13:00 | 3224 | 696 | 327 | 3 | ||
| 2013-05-05T13:00 | 3285 | 691 | 7.6 | 6.4 | ||
| 2013-05-05T13:01 | 3442 | 678 | 6.5 | 5.8 | ||
| 2013-05-05T13:01 | 3559 | 668 | 299 | 4 | ||
| 2013-05-05T13:02 | 3844 | 645 | 3.7 | 3.7 | ||
| 2013-05-05T13:02 | 3882 | 642 | 276 | 7 | ||
| 2013-05-05T13:03 | 4108 | 625 | 2.0 | 2.0 | ||
| 2013-05-05T13:03 | 4165 | 620 | 1.7 | 1.7 | ||
| 2013-05-05T13:03 | 4216 | 616 | 294 | 7 | ||
| 2013-05-05T13:03 | 4279 | 612 | 1.3 | 1.3 | ||
| 2013-05-05T13:03 | 4290 | 611 | 1.3 | 1.3 | ||
| 2013-05-05T13:03 | 4297 | 610 | 1.2 | 1.2 | ||
| 2013-05-05T13:04 | 4562 | 590 | 285 | 6 | ||
| 2013-05-05T13:04 | 4709 | 580 | -0.3 | -1.0 | ||
| 2013-05-05T13:05 | 4895 | 566 | -1.4 | -2.7 | ||
| 2013-05-05T13:05 | 4901 | 566 | 264 | 8 | ||
| 2013-05-05T13:05 | 4928 | 564 | -1.5 | -2.8 | ||
| 2013-05-05T13:06 | 5100 | 552 | -2.6 | -3.0 | ||
| 2013-05-05T13:06 | 5260 | 541 | 241 | 10 | ||
| 2013-05-05T13:06 | 5411 | 531 | -4.4 | -4.9 | ||
| 2013-05-05T13:07 | 5632 | 516 | 258 | 10 | ||
| 2013-05-05T13:07 | 5775 | 507 | -6.7 | -7.2 | ||
| 2013-05-05T13:08 | 5986 | 493 | 257 | 11 | ||
| 2013-05-05T13:09 | 6223 | 478 | -9.5 | -10.0 | ||
| 2013-05-05T13:09 | 6345 | 471 | 267 | 11 | ||
| 2013-05-05T13:10 | 6653 | 452 | -12.4 | -13.0 | ||
| 2013-05-05T13:10 | 6687 | 450 | 272 | 12 | ||
| 2013-05-05T13:11 | 7034 | 430 | -14.9 | -15.5 | ||
| 2013-05-05T13:11 | 7039 | 430 | 264 | 13 | ||
| 2013-05-05T13:12 | 7277 | 417 | -16.9 | -17.5 | ||
| 2013-05-05T13:12 | 7390 | 410 | 277 | 15 | ||
| 2013-05-05T13:12 | 7461 | 407 | -16.6 | -17.2 | ||
| 2013-05-05T13:13 | 7620 | 398 | -18.0 | -18.6 | ||
| 2013-05-05T13:13 | 7728 | 392 | 263 | 17 | ||
| 2013-05-05T13:13 | 7762 | 391 | -18.7 | -19.3 | ||
| 2013-05-05T13:14 | 7924 | 382 | -19.2 | -19.8 | ||
| 2013-05-05T13:14 | 7992 | 379 | -19.5 | -22.2 | ||
| 2013-05-05T13:14 | 8065 | 375 | 268 | 17 | ||
| 2013-05-05T13:14 | 8071 | 375 | -20.2 | -23.9 | ||
| 2013-05-05T13:15 | 8237 | 366 | -21.3 | -25.2 | ||
| 2013-05-05T13:15 | 8299 | 363 | -21.7 | -27.4 | ||
| 2013-05-05T13:15 | 8405 | 358 | 272 | 16 | ||
| 2013-05-05T13:15 | 8440 | 356 | -22.8 | -26.9 | ||
| 2013-05-05T13:15 | 8475 | 355 | -22.9 | -26.7 | ||
| 2013-05-05T13:15 | 8527 | 352 | -23.1 | -31.1 | ||
| 2013-05-05T13:16 | 8682 | 345 | -23.9 | -33.2 | ||
| 2013-05-05T13:16 | 8754 | 341 | 280 | 16 | ||
| 2013-05-05T13:16 | 8933 | 333 | -25.9 | -36.0 | ||
| 2013-05-05T13:17 | 8990 | 330 | -26.1 | -33.3 | ||
| 2013-05-05T13:17 | 9091 | 326 | -26.7 | -37.9 | ||
| 2013-05-05T13:17 | 9129 | 324 | 275 | 17 | ||
| 2013-05-05T13:18 | 9510 | 307 | 273 | 18 | ||
| 2013-05-05T13:18 | 9608 | 303 | -31.0 | -40.4 | ||
| 2013-05-05T13:19 | 9881 | 292 | 268 | 16 | ||
| 2013-05-05T13:20 | 10184 | 279 | -36.2 | -43.1 | ||
| 2013-05-05T13:20 | 10244 | 277 | 258 | 18 | ||
| 2013-05-05T13:20 | 10398 | 271 | -38.1 | -44.7 | ||
| 2013-05-05T13:21 | 10601 | 263 | 253 | 16 | ||
| 2013-05-05T13:21 | 10629 | 262 | -40.0 | -45.0 | ||
| 2013-05-05T13:22 | 10966 | 249 | 259 | 18 | ||
| 2013-05-05T13:23 | 11320 | 236 | 267 | 19 | ||
| 2013-05-05T13:24 | 11673 | 224 | 267 | 23 | ||
| 2013-05-05T13:25 | 11908 | 216 | -51.0 | |||
| 2013-05-05T13:25 | 12005 | 213 | 264 | 23 | ||
| 2013-05-05T13:26 | 12334 | 202 | 265 | 24 | ||
| 2013-05-05T13:26 | 12469 | 198 | -55.2 | |||
| 2013-05-05T13:27 | 12672 | 192 | 263 | 25 | ||
| 2013-05-05T13:27 | 12806 | 188 | -55.7 | |||
| 2013-05-05T13:28 | 13005 | 182 | 266 | 26 | ||
| 2013-05-05T13:29 | 13199 | 177 | -58.0 | |||
| 2013-05-05T13:29 | 13369 | 172 | 273 | 26 | ||
| 2013-05-05T13:29 | 13387 | 171 | -58.2 | |||
| 2013-05-05T13:30 | 13763 | 161 | 280 | 26 | ||
| 2013-05-05T13:30 | 13903 | 158 | -61.7 | |||
| 2013-05-05T13:31 | 14224 | 150 | 280 | 24 | ||
| 2013-05-05T13:32 | 14714 | 138 | 275 | 22 | ||
| 2013-05-05T13:32 | 14732 | 138 | -67.2 | |||
| 2013-05-05T13:33 | 15017 | 131 | 262 | 21 | ||
| 2013-05-05T13:33 | 15021 | 131 | -70.0 | |||
| 2013-05-05T23:30 | 8 | 1015 | 24.3 | 18.9 | 90 | 5 |
| 2013-05-05T23:31 | 184 | 995 | 21.8 | 17.4 | ||
| 2013-05-05T23:31 | 337 | 977 | 103 | 6 | ||
| 2013-05-05T23:32 | 712 | 936 | 17.0 | 15.7 | ||
| 2013-05-05T23:32 | 717 | 935 | 114 | 6 | ||
| 2013-05-05T23:32 | 843 | 922 | 16.3 | 14.1 | ||
| 2013-05-05T23:33 | 952 | 910 | 17.2 | 8.6 | ||
| 2013-05-05T23:33 | 980 | 907 | 17.5 | 4.8 | ||
| 2013-05-05T23:33 | 997 | 905 | 18.4 | -5.6 | ||
| 2013-05-05T23:33 | 1048 | 900 | 18.9 | -12.2 | ||
| 2013-05-05T23:33 | 1059 | 899 | 115 | 4 | ||
| 2013-05-05T23:33 | 1098 | 894 | 18.5 | -4.9 | ||
| 2013-05-05T23:33 | 1165 | 887 | 18.0 | 4.9 | ||
| 2013-05-05T23:33 | 1187 | 885 | 17.9 | 9.5 | ||
| 2013-05-05T23:33 | 1197 | 884 | 17.8 | 9.2 | ||
| 2013-05-05T23:34 | 1321 | 871 | 17.0 | 9.9 | ||
| 2013-05-05T23:34 | 1365 | 867 | 17.0 | 11.9 | ||
| 2013-05-05T23:34 | 1387 | 865 | 80 | 3 | ||
| 2013-05-05T23:35 | 1559 | 847 | 15.9 | 12.5 | ||
| 2013-05-05T23:35 | 1738 | 830 | 58 | 3 | ||
| 2013-05-05T23:35 | 1898 | 814 | 13.9 | 11.2 | ||
| 2013-05-05T23:36 | 2093 | 796 | 0 | 0 | ||
| 2013-05-05T23:36 | 2099 | 795 | 12.7 | 11.1 | ||
| 2013-05-05T23:37 | 2319 | 775 | 12.0 | 9.9 | ||
| 2013-05-05T23:37 | 2438 | 764 | 210 | 2 | ||
| 2013-05-05T23:38 | 2768 | 734 | 284 | 1 | ||
| 2013-05-05T23:38 | 2830 | 729 | 9.4 | 7.5 | ||
| 2013-05-05T23:39 | 3123 | 703 | 7.6 | 5.2 | 338 | 3 |
| 2013-05-05T23:40 | 3334 | 686 | 6.3 | 4.3 | ||
| 2013-05-05T23:40 | 3485 | 673 | 329 | 3 | ||
| 2013-05-05T23:40 | 3508 | 671 | 5.1 | 4.1 | ||
| 2013-05-05T23:41 | 3844 | 644 | 262 | 2 | ||
| 2013-05-05T23:42 | 4040 | 629 | 2.0 | 1.9 | ||
| 2013-05-05T23:42 | 4100 | 624 | 2.4 | 1.5 | ||
| 2013-05-05T23:42 | 4197 | 617 | 1.6 | 0.7 | ||
| 2013-05-05T23:42 | 4202 | 616 | 0 | 0 | ||
| 2013-05-05T23:42 | 4295 | 609 | 1.1 | 0.4 | ||
| 2013-05-05T23:42 | 4308 | 608 | 0.9 | 0.2 | ||
| 2013-05-05T23:43 | 4549 | 590 | -0.5 | -1.5 | ||
| 2013-05-05T23:43 | 4560 | 589 | 334 | 3 | ||
| 2013-05-05T23:44 | 4751 | 575 | -0.9 | -3.3 | ||
| 2013-05-05T23:44 | 4922 | 563 | 313 | 5 | ||
| 2013-05-05T23:45 | 5160 | 547 | -3.4 | -4.8 | ||
| 2013-05-05T23:45 | 5290 | 538 | 284 | 6 | ||
| 2013-05-05T23:46 | 5592 | 517 | -5.9 | -6.4 | ||
| 2013-05-05T23:46 | 5667 | 513 | 248 | 7 | ||
| 2013-05-05T23:46 | 5784 | 505 | -7.4 | -8.6 | ||
| 2013-05-05T23:47 | 6017 | 490 | -9.2 | -9.7 | ||
| 2013-05-05T23:47 | 6036 | 489 | 261 | 8 | ||
| 2013-05-05T23:48 | 6427 | 465 | 290 | 8 | ||
| 2013-05-05T23:49 | 6628 | 453 | -13.0 | -13.6 | ||
| 2013-05-05T23:49 | 6798 | 443 | 285 | 10 | ||
| 2013-05-05T23:50 | 6997 | 431 | -14.8 | -15.4 | ||
| 2013-05-05T23:50 | 7185 | 421 | 299 | 13 | ||
| 2013-05-05T23:51 | 7554 | 400 | 296 | 15 | ||
| 2013-05-05T23:51 | 7578 | 399 | -19.0 | -20.9 | ||
| 2013-05-05T23:52 | 7835 | 385 | -20.7 | -22.8 | ||
| 2013-05-05T23:52 | 7937 | 380 | 280 | 13 | ||
| 2013-05-05T23:52 | 8010 | 376 | -22.0 | -26.2 | ||
| 2013-05-05T23:53 | 8312 | 361 | -24.1 | -27.0 | ||
| 2013-05-05T23:53 | 8324 | 361 | 279 | 15 | ||
| 2013-05-05T23:54 | 8657 | 344 | -26.4 | -29.1 | ||
| 2013-05-05T23:54 | 8685 | 343 | -26.6 | -29.8 | ||
| 2013-05-05T23:54 | 8712 | 342 | 268 | 16 | ||
| 2013-05-05T23:54 | 8725 | 341 | -26.8 | -30.6 | ||
| 2013-05-05T23:55 | 9087 | 324 | -29.7 | -34.0 | ||
| 2013-05-05T23:55 | 9100 | 324 | 266 | 19 | ||
| 2013-05-05T23:56 | 9339 | 313 | -31.4 | -38.6 | ||
| 2013-05-05T23:56 | 9462 | 308 | 265 | 19 | ||
| 2013-05-05T23:56 | 9515 | 305 | -32.5 | -40.4 | ||
| 2013-05-05T23:57 | 9715 | 297 | -33.8 | -42.3 | ||
| 2013-05-05T23:57 | 9827 | 292 | 270 | 18 | ||
| 2013-05-05T23:58 | 10030 | 284 | -36.2 | -43.9 | ||
| 2013-05-05T23:58 | 10195 | 277 | 273 | 17 | ||
| 2013-05-05T23:58 | 10359 | 271 | -38.5 | -45.6 | ||
| 2013-05-05T23:59 | 10559 | 263 | -40.0 | -47.8 | 264 | 17 |
| 2013-05-06T00:00 | 10930 | 249 | 267 | 20 | ||
| 2013-05-06T00:01 | 11282 | 236 | -45.7 | |||
| 2013-05-06T00:01 | 11299 | 235 | 267 | 20 | ||
| 2013-05-06T00:02 | 11560 | 226 | -47.3 | |||
| 2013-05-06T00:02 | 11669 | 223 | 256 | 17 | ||
| 2013-05-06T00:03 | 11952 | 213 | -50.3 | |||
| 2013-05-06T00:03 | 12057 | 210 | 265 | 19 | ||
| 2013-05-06T00:04 | 12460 | 197 | 272 | 23 | ||
| 2013-05-06T00:05 | 12881 | 185 | 280 | 23 | ||
| 2013-05-06T00:06 | 13142 | 177 | -59.0 | |||
| 2013-05-06T00:06 | 13282 | 173 | 288 | 24 | ||
| 2013-05-06T00:06 | 13358 | 171 | -59.3 | |||
| 2013-05-06T00:07 | 13551 | 166 | -60.1 | |||
| 2013-05-06T00:07 | 13680 | 162 | 282 | 21 | ||
| 2013-05-06T00:08 | 14112 | 151 | -64.1 | |||
| 2013-05-06T00:08 | 14120 | 151 | 291 | 19 | ||
| 2013-05-06T00:09 | 14532 | 141 | -66.6 | |||
| 2013-05-06T00:09 | 14575 | 140 | 281 | 18 | ||
| 2013-05-06T00:09 | 14776 | 136 | -68.1 | |||
| 2013-05-06T00:10 | 15033 | 130 | 274 | 17 | ||
| 2013-05-06T00:10 | 15206 | 126 | -69.2 | |||
| 2013-05-06T00:11 | 15554 | 119 | 281 | 18 | ||
| 2013-05-06T00:12 | 15870 | 113 | -75.6 | |||
| 2013-05-06T12:58 | 8 | 1015 | 24.2 | 18.8 | 90 | 5 |
| 2013-05-06T12:58 | 26 | 1012 | 23.6 | 18.9 | ||
| 2013-05-06T12:58 | 118 | 1002 | 22.9 | 17.6 | ||
| 2013-05-06T12:59 | 327 | 978 | 91 | 9 | ||
| 2013-05-06T12:59 | 430 | 966 | 19.9 | 16.0 | ||
| 2013-05-06T12:59 | 490 | 960 | 19.4 | 15.5 | ||
| 2013-05-06T13:00 | 688 | 938 | 98 | 7 | ||
| 2013-05-06T13:00 | 757 | 930 | 17.8 | 11.1 | ||
| 2013-05-06T13:01 | 859 | 919 | 17.7 | 7.2 | ||
| 2013-05-06T13:01 | 902 | 915 | 17.5 | 5.1 | ||
| 2013-05-06T13:01 | 946 | 910 | 17.3 | 4.6 | ||
| 2013-05-06T13:01 | 990 | 905 | 17.4 | 0.5 | ||
| 2013-05-06T13:01 | 1012 | 903 | 17.3 | 1.3 | ||
| 2013-05-06T13:01 | 1022 | 902 | 84 | 4 | ||
| 2013-05-06T13:01 | 1066 | 897 | 17.2 | 1.2 | ||
| 2013-05-06T13:01 | 1105 | 893 | 17.1 | 3.8 | ||
| 2013-05-06T13:01 | 1161 | 887 | 16.6 | 4.0 | ||
| 2013-05-06T13:02 | 1190 | 884 | 16.3 | 5.9 | ||
| 2013-05-06T13:02 | 1207 | 883 | 16.2 | 7.7 | ||
| 2013-05-06T13:02 | 1213 | 882 | 16.1 | 6.5 | ||
| 2013-05-06T13:02 | 1275 | 876 | 15.5 | 8.5 | ||
| 2013-05-06T13:02 | 1344 | 869 | 15.2 | 10.8 | ||
| 2013-05-06T13:02 | 1362 | 867 | 2 | 3 | ||
| 2013-05-06T13:02 | 1523 | 850 | 15.4 | 12.2 | ||
| 2013-05-06T13:03 | 1709 | 832 | 332 | 1 | ||
| 2013-05-06T13:03 | 1856 | 818 | 14.4 | 11.4 | ||
| 2013-05-06T13:04 | 2035 | 801 | 13.4 | 11.5 | ||
| 2013-05-06T13:04 | 2040 | 800 | 222 | 1 | ||
| 2013-05-06T13:04 | 2186 | 786 | 12.9 | 10.3 | ||
| 2013-05-06T13:05 | 2375 | 769 | 249 | 3 | ||
| 2013-05-06T13:05 | 2511 | 757 | 11.6 | 9.0 | ||
| 2013-05-06T13:06 | 2674 | 742 | 11.3 | 7.8 | ||
| 2013-05-06T13:06 | 2714 | 738 | 218 | 4 | ||
| 2013-05-06T13:07 | 3055 | 709 | 227 | 5 | ||
| 2013-05-06T13:07 | 3174 | 699 | 7.6 | 5.4 | ||
| 2013-05-06T13:08 | 3409 | 679 | 245 | 6 | ||
| 2013-05-06T13:08 | 3442 | 676 | 5.6 | 5.5 | ||
| 2013-05-06T13:09 | 3717 | 654 | 3.6 | 3.3 | ||
| 2013-05-06T13:09 | 3738 | 652 | 276 | 6 | ||
| 2013-05-06T13:09 | 3766 | 650 | 3.9 | 2.6 | ||
| 2013-05-06T13:09 | 3853 | 643 | 4.7 | 2.6 | ||
| 2013-05-06T13:10 | 4067 | 626 | 290 | 7 | ||
| 2013-05-06T13:10 | 4173 | 618 | 3.0 | 0.2 | ||
| 2013-05-06T13:11 | 4344 | 605 | 1.7 | -0.4 | ||
| 2013-05-06T13:11 | 4407 | 601 | 1.5 | -0.3 | ||
| 2013-05-06T13:11 | 4412 | 600 | 276 | 7 | ||
| 2013-05-06T13:11 | 4562 | 589 | 0.6 | -1.6 | ||
| 2013-05-06T13:12 | 4696 | 579 | -0.5 | -2.6 | ||
| 2013-05-06T13:12 | 4712 | 578 | -0.6 | -2.5 | ||
| 2013-05-06T13:12 | 4747 | 576 | 271 | 10 | ||
| 2013-05-06T13:12 | 4753 | 575 | -0.7 | -2.6 | ||
| 2013-05-06T13:12 | 4853 | 568 | -1.4 | -3.8 | ||
| 2013-05-06T13:12 | 4874 | 567 | -1.4 | -4.2 | ||
| 2013-05-06T13:13 | 4925 | 563 | -1.7 | -4.0 | ||
| 2013-05-06T13:13 | 5082 | 552 | 262 | 8 | ||
| 2013-05-06T13:13 | 5222 | 542 | -3.9 | -5.4 | ||
| 2013-05-06T13:14 | 5328 | 535 | -4.2 | -5.9 | ||
| 2013-05-06T13:14 | 5415 | 529 | 255 | 8 | ||
| 2013-05-06T13:14 | 5444 | 527 | -5.1 | -6.8 | ||
| 2013-05-06T13:15 | 5759 | 507 | 261 | 11 | ||
| 2013-05-06T13:15 | 5771 | 506 | -7.1 | -8.2 | ||
| 2013-05-06T13:16 | 6082 | 486 | -9.6 | -10.1 | ||
| 2013-05-06T13:16 | 6100 | 485 | 263 | 11 | ||
| 2013-05-06T13:17 | 6437 | 464 | 266 | 10 | ||
| 2013-05-06T13:18 | 6725 | 447 | -12.7 | -14.4 | ||
| 2013-05-06T13:18 | 6800 | 443 | 273 | 13 | ||
| 2013-05-06T13:18 | 6812 | 442 | -13.2 | -15.8 | ||
| 2013-05-06T13:18 | 6850 | 440 | -12.9 | -16.9 | ||
| 2013-05-06T13:18 | 6882 | 438 | -12.9 | -15.6 | ||
| 2013-05-06T13:19 | 7019 | 430 | -13.8 | -17.9 | ||
| 2013-05-06T13:19 | 7172 | 421 | 271 | 12 | ||
| 2013-05-06T13:19 | 7220 | 419 | -15.4 | -19.3 | ||
| 2013-05-06T13:19 | 7296 | 415 | -15.5 | -19.7 | ||
| 2013-05-06T13:19 | 7346 | 412 | -15.5 | -21.1 | ||
| 2013-05-06T13:20 | 7542 | 401 | 265 | 16 | ||
| 2013-05-06T13:21 | 7906 | 382 | 273 | 18 | ||
| 2013-05-06T13:21 | 8031 | 376 | -21.2 | -24.0 | ||
| 2013-05-06T13:22 | 8282 | 363 | 274 | 19 | ||
| 2013-05-06T13:22 | 8359 | 359 | -23.6 | -27.2 | ||
| 2013-05-06T13:23 | 8614 | 347 | -25.7 | -29.0 | ||
| 2013-05-06T13:23 | 8675 | 344 | 274 | 20 | ||
| 2013-05-06T13:23 | 8760 | 340 | -26.4 | -32.0 | ||
| 2013-05-06T13:24 | 8916 | 333 | -27.1 | -31.2 | ||
| 2013-05-06T13:24 | 9069 | 326 | 277 | 23 | ||
| 2013-05-06T13:25 | 9471 | 308 | 278 | 23 | ||
| 2013-05-06T13:25 | 9552 | 304 | -32.6 | -36.1 | ||
| 2013-05-06T13:26 | 9829 | 293 | -34.9 | -39.5 | ||
| 2013-05-06T13:26 | 9870 | 291 | 272 | 25 | ||
| 2013-05-06T13:27 | 10251 | 275 | -38.3 | -41.5 | ||
| 2013-05-06T13:27 | 10279 | 274 | 264 | 25 | ||
| 2013-05-06T13:27 | 10482 | 266 | -40.0 | -44.2 | ||
| 2013-05-06T13:28 | 10690 | 258 | 274 | 23 | ||
| 2013-05-06T13:29 | 10889 | 251 | -43.3 | |||
| 2013-05-06T13:29 | 11079 | 244 | 283 | 23 | ||
| 2013-05-06T13:30 | 11474 | 230 | 283 | 26 | ||
| 2013-05-06T13:30 | 11479 | 229 | -46.7 | |||
| 2013-05-06T13:31 | 11864 | 216 | 286 | 25 | ||
| 2013-05-06T13:32 | 12261 | 204 | 287 | 23 | ||
| 2013-05-06T13:33 | 12625 | 192 | 285 | 25 | ||
| 2013-05-06T13:33 | 12632 | 192 | -54.4 | |||
| 2013-05-06T13:34 | 13030 | 181 | 286 | 26 | ||
| 2013-05-06T13:35 | 13317 | 173 | -56.5 | |||
| 2013-05-06T13:35 | 13454 | 169 | 299 | 26 | ||
| 2013-05-06T13:36 | 13881 | 158 | 297 | 21 | ||
| 2013-05-06T13:37 | 14187 | 150 | -62.4 | |||
| 2013-05-06T13:37 | 14315 | 147 | 275 | 15 | ||
| 2013-05-06T13:38 | 14780 | 136 | 277 | 19 | ||
| 2013-05-06T13:38 | 14887 | 134 | -67.6 | |||
| 2013-05-06T13:39 | 15083 | 130 | -67.9 | |||
| 2013-05-06T13:39 | 15309 | 125 | 283 | 19 | ||
| 2013-05-06T13:40 | 15606 | 119 | -71.7 | |||
| 2013-05-06T13:40 | 15751 | 116 | 302 | 20 | ||
| 2013-05-06T13:40 | 15787 | 115 | -73.0 | |||
| 2013-05-07T01:03 | 8 | 1015 | 26.1 | 20.0 | 80 | 6 |
| 2013-05-07T01:03 | 12 | 1014 | 24.4 | 21.1 | ||
| 2013-05-07T01:03 | 86 | 1006 | 23.7 | 19.2 | ||
| 2013-05-07T01:04 | 382 | 972 | 92 | 7 | ||
| 2013-05-07T01:05 | 620 | 946 | 18.6 | 17.1 | ||
| 2013-05-07T01:05 | 639 | 943 | 18.4 | 16.6 | ||
| 2013-05-07T01:05 | 784 | 928 | 115 | 6 | ||
| 2013-05-07T01:05 | 790 | 927 | 17.4 | 15.9 | ||
| 2013-05-07T01:06 | 992 | 905 | 16.2 | 14.2 | ||
| 2013-05-07T01:06 | 1101 | 894 | 15.6 | 14.3 | ||
| 2013-05-07T01:06 | 1135 | 890 | 112 | 4 | ||
| 2013-05-07T01:06 | 1183 | 885 | 15.4 | 14.4 | ||
| 2013-05-07T01:06 | 1212 | 882 | 16.8 | 10.4 | ||
| 2013-05-07T01:06 | 1308 | 872 | 16.8 | 6.6 | ||
| 2013-05-07T01:07 | 1319 | 871 | 17.2 | 4.2 | ||
| 2013-05-07T01:07 | 1331 | 870 | 17.5 | 9.9 | ||
| 2013-05-07T01:07 | 1422 | 861 | 17.0 | 10.6 | ||
| 2013-05-07T01:07 | 1452 | 858 | 16.9 | 13.0 | ||
| 2013-05-07T01:07 | 1494 | 854 | 27 | 1 | ||
| 2013-05-07T01:08 | 1854 | 818 | 3 | 2 | ||
| 2013-05-07T01:08 | 1989 | 805 | 13.7 | 11.7 | ||
| 2013-05-07T01:09 | 2154 | 790 | 13.2 | 10.9 | ||
| 2013-05-07T01:09 | 2223 | 783 | 358 | 6 | ||
| 2013-05-07T01:09 | 2241 | 782 | 12.6 | 10.3 | ||
| 2013-05-07T01:10 | 2539 | 754 | 10.8 | 8.2 | ||
| 2013-05-07T01:10 | 2580 | 751 | 332 | 7 | ||
| 2013-05-07T01:11 | 2848 | 727 | 8.5 | 7.3 | ||
| 2013-05-07T01:11 | 2943 | 719 | 353 | 5 | ||
| 2013-05-07T01:11 | 3079 | 707 | 7.1 | 6.8 | ||
| 2013-05-07T01:12 | 3175 | 699 | 7.5 | 5.8 | ||
| 2013-05-07T01:12 | 3302 | 688 | 288 | 4 | ||
| 2013-05-07T01:13 | 3567 | 666 | 4.7 | 4.6 | ||
| 2013-05-07T01:13 | 3645 | 660 | 4.5 | 4.1 | ||
| 2013-05-07T01:13 | 3682 | 657 | 285 | 8 | ||
| 2013-05-07T01:13 | 3846 | 644 | 3.0 | 2.7 | ||
| 2013-05-07T01:14 | 3954 | 635 | 3.6 | 1.6 | ||
| 2013-05-07T01:14 | 4032 | 629 | 269 | 10 | ||
| 2013-05-07T01:14 | 4124 | 622 | 2.8 | -0.8 | ||
| 2013-05-07T01:14 | 4176 | 618 | 2.5 | -2.2 | ||
| 2013-05-07T01:15 | 4326 | 607 | 1.4 | -3.1 | ||
| 2013-05-07T01:15 | 4379 | 603 | 277 | 10 | ||
| 2013-05-07T01:15 | 4386 | 602 | 1.2 | -6.2 | ||
| 2013-05-07T01:15 | 4445 | 598 | 1.2 | -10.6 | ||
| 2013-05-07T01:16 | 4574 | 588 | 0.9 | -8.9 | ||
| 2013-05-07T01:16 | 4616 | 585 | 0.8 | -10.7 | ||
| 2013-05-07T01:16 | 4648 | 583 | 0.9 | -13.6 | ||
| 2013-05-07T01:16 | 4669 | 581 | 0.8 | -15.7 | ||
| 2013-05-07T01:16 | 4692 | 580 | 0.6 | -16.3 | ||
| 2013-05-07T01:16 | 4705 | 579 | 0.5 | -16.8 | ||
| 2013-05-07T01:16 | 4736 | 577 | 287 | 10 | ||
| 2013-05-07T01:16 | 4806 | 571 | 0.0 | -19.8 | ||
| 2013-05-07T01:16 | 4880 | 566 | -0.4 | -18.5 | ||
| 2013-05-07T01:17 | 4914 | 564 | -0.5 | -13.8 | ||
| 2013-05-07T01:17 | 4989 | 559 | -1.1 | -15.3 | ||
| 2013-05-07T01:17 | 5079 | 552 | 293 | 11 | ||
| 2013-05-07T01:17 | 5095 | 551 | -2.1 | -12.2 | ||
| 2013-05-07T01:17 | 5204 | 544 | -3.2 | -11.9 | ||
| 2013-05-07T01:17 | 5215 | 543 | -3.3 | -11.5 | ||
| 2013-05-07T01:18 | 5274 | 539 | -3.8 | -11.8 | ||
| 2013-05-07T01:18 | 5303 | 537 | -4.1 | -13.0 | ||
| 2013-05-07T01:18 | 5337 | 535 | -4.3 | -15.3 | ||
| 2013-05-07T01:18 | 5368 | 532 | -4.4 | -9.2 | ||
| 2013-05-07T01:18 | 5427 | 528 | 283 | 13 | ||
| 2013-05-07T01:18 | 5499 | 524 | -5.0 | -9.6 | ||
| 2013-05-07T01:19 | 5743 | 508 | -6.6 | -12.7 | ||
| 2013-05-07T01:19 | 5792 | 504 | 286 | 12 | ||
| 2013-05-07T01:19 | 5871 | 499 | -7.4 | -15.3 | ||
| 2013-05-07T01:20 | 6158 | 481 | -9.4 | -16.1 | 284 | 11 |
| 2013-05-07T01:21 | 6520 | 459 | 290 | 11 | ||
| 2013-05-07T01:21 | 6561 | 457 | -12.5 | -16.8 | ||
| 2013-05-07T01:21 | 6623 | 453 | -12.7 | -16.7 | ||
| 2013-05-07T01:22 | 6768 | 444 | -13.1 | -22.3 | ||
| 2013-05-07T01:22 | 6868 | 439 | -13.4 | -23.1 | ||
| 2013-05-07T01:22 | 6887 | 438 | 290 | 15 | ||
| 2013-05-07T01:22 | 6962 | 433 | -14.0 | -25.3 | ||
| 2013-05-07T01:23 | 7112 | 425 | -15.2 | -24.0 | ||
| 2013-05-07T01:23 | 7250 | 417 | 292 | 16 | ||
| 2013-05-07T01:23 | 7297 | 414 | -16.6 | -24.8 | ||
| 2013-05-07T01:24 | 7462 | 405 | -17.1 | -26.0 | ||
| 2013-05-07T01:24 | 7615 | 397 | -18.3 | -26.0 | ||
| 2013-05-07T01:24 | 7621 | 397 | 287 | 18 | ||
| 2013-05-07T01:25 | 7829 | 386 | -20.2 | -24.6 | ||
| 2013-05-07T01:25 | 7947 | 380 | -21.0 | -25.3 | ||
| 2013-05-07T01:25 | 8027 | 376 | 288 | 19 | ||
| 2013-05-07T01:25 | 8063 | 374 | -21.3 | -29.4 | ||
| 2013-05-07T01:26 | 8384 | 358 | -23.1 | -34.6 | ||
| 2013-05-07T01:26 | 8433 | 356 | 279 | 20 | ||
| 2013-05-07T01:26 | 8543 | 350 | -24.1 | -35.8 | ||
| 2013-05-07T01:27 | 8841 | 336 | 284 | 19 | ||
| 2013-05-07T01:27 | 8923 | 332 | -27.2 | -35.8 | ||
| 2013-05-07T01:27 | 9019 | 328 | -28.1 | -34.7 | ||
| 2013-05-07T01:28 | 9249 | 318 | 284 | 19 | ||
| 2013-05-07T01:28 | 9270 | 317 | -30.3 | -36.1 | ||
| 2013-05-07T01:29 | 9660 | 300 | 291 | 20 | ||
| 2013-05-07T01:29 | 9830 | 292 | -34.8 | -41.2 | ||
| 2013-05-07T01:30 | 10064 | 283 | 295 | 27 | ||
| 2013-05-07T01:31 | 10406 | 269 | -40.0 | -46.3 | ||
| 2013-05-07T01:31 | 10485 | 266 | 294 | 30 | ||
| 2013-05-07T01:32 | 10897 | 250 | 290 | 31 | ||
| 2013-05-07T01:33 | 11298 | 236 | 293 | 30 | ||
| 2013-05-07T01:33 | 11318 | 235 | -46.5 | |||
| 2013-05-07T01:34 | 11691 | 222 | 290 | 33 | ||
| 2013-05-07T01:35 | 11915 | 215 | -50.8 | |||
| 2013-05-07T01:35 | 12074 | 209 | 288 | 32 | ||
| 2013-05-07T01:36 | 12423 | 198 | 286 | 29 | ||
| 2013-05-07T01:36 | 12459 | 197 | -53.6 | |||
| 2013-05-07T01:37 | 12664 | 191 | -54.0 | |||
| 2013-05-07T01:37 | 12776 | 188 | 277 | 26 | ||
| 2013-05-07T01:38 | 13128 | 178 | 273 | 24 | ||
| 2013-05-07T01:39 | 13316 | 172 | -57.6 | |||
| 2013-05-07T01:39 | 13482 | 168 | 272 | 25 | ||
| 2013-05-07T01:40 | 13835 | 159 | 268 | 23 | ||
| 2013-05-07T01:41 | 14021 | 154 | -61.8 | |||
| 2013-05-07T01:41 | 14187 | 150 | 264 | 25 | ||
| 2013-05-07T01:42 | 14579 | 141 | 273 | 26 | ||
| 2013-05-07T01:43 | 14811 | 135 | -67.7 | |||
| 2013-05-07T01:43 | 15028 | 131 | 289 | 22 | ||
| 2013-05-07T01:44 | 15487 | 121 | 300 | 20 | ||
| 2013-05-07T01:44 | 15546 | 120 | -71.5 | |||
| 2013-05-07T01:45 | 15896 | 113 | 304 | 16 | ||
| 2013-05-07T01:46 | 16179 | 107 | -72.5 | |||
| 2013-05-07T01:46 | 16273 | 106 | 322 | 12 | ||
| 2013-05-07T01:47 | 16730 | 98 | -75.8 | |||
| 2013-05-07T01:47 | 16748 | 97 | 275 | 7 | ||
| 2013-05-07T01:48 | 17201 | 90 | -79.0 | |||
| 2013-05-07T01:48 | 17245 | 89 | 286 | 13 | ||
| 2013-05-07T01:49 | 17609 | 84 | -77.0 | |||
| 2013-05-07T01:49 | 17713 | 82 | 325 | 11 | ||
| 2013-05-07T01:49 | 17769 | 82 | -75.4 | |||
| 2013-05-07T01:50 | 17950 | 79 | -73.6 | |||
| 2013-05-07T11:30 | 8 | 1013 | 23.9 | 19.6 | 80 | 7 |
| 2013-05-07T11:30 | 19 | 1012 | 23.3 | 19.7 | ||
| 2013-05-07T11:31 | 325 | 977 | 84 | 9 | ||
| 2013-05-07T11:32 | 560 | 951 | 18.6 | 17.3 | ||
| 2013-05-07T11:32 | 685 | 937 | 91 | 9 | ||
| 2013-05-07T11:32 | 794 | 925 | 16.8 | 15.0 | ||
| 2013-05-07T11:33 | 865 | 918 | 16.8 | 12.5 | ||
| 2013-05-07T11:33 | 906 | 913 | 16.9 | 10.7 | ||
| 2013-05-07T11:33 | 1038 | 899 | 73 | 6 | ||
| 2013-05-07T11:33 | 1043 | 899 | 16.4 | 12.4 | ||
| 2013-05-07T11:33 | 1113 | 891 | 16.5 | 10.4 | ||
| 2013-05-07T11:33 | 1164 | 886 | 16.9 | 5.2 | ||
| 2013-05-07T11:33 | 1193 | 883 | 17.5 | 0.6 | ||
| 2013-05-07T11:34 | 1342 | 868 | 17.1 | 2.3 | ||
| 2013-05-07T11:34 | 1382 | 864 | 34 | 5 | ||
| 2013-05-07T11:34 | 1462 | 856 | 16.3 | 4.4 | ||
| 2013-05-07T11:35 | 1553 | 846 | 15.6 | 9.3 | ||
| 2013-05-07T11:35 | 1633 | 839 | 15.3 | 12.8 | ||
| 2013-05-07T11:35 | 1727 | 829 | 27 | 3 | ||
| 2013-05-07T11:35 | 1744 | 828 | 15.3 | 12.6 | ||
| 2013-05-07T11:36 | 1984 | 805 | 14.2 | 10.6 | ||
| 2013-05-07T11:36 | 2075 | 796 | 331 | 4 | ||
| 2013-05-07T11:36 | 2114 | 792 | 14.2 | 10.0 | ||
| 2013-05-07T11:37 | 2405 | 765 | 12.4 | 8.7 | ||
| 2013-05-07T11:37 | 2412 | 765 | 337 | 5 | ||
| 2013-05-07T11:38 | 2599 | 748 | 11.5 | 8.0 | ||
| 2013-05-07T11:38 | 2764 | 733 | 309 | 4 | ||
| 2013-05-07T11:38 | 2857 | 725 | 9.5 | 7.8 | ||
| 2013-05-07T11:39 | 3085 | 706 | 7.9 | 6.7 | ||
| 2013-05-07T11:39 | 3114 | 703 | 295 | 3 | ||
| 2013-05-07T11:39 | 3279 | 689 | 6.9 | 5.2 | ||
| 2013-05-07T11:40 | 3474 | 673 | 310 | 7 | ||
| 2013-05-07T11:40 | 3554 | 666 | 5.2 | 2.4 | ||
| 2013-05-07T11:41 | 3686 | 656 | 4.3 | 3.6 | ||
| 2013-05-07T11:41 | 3737 | 652 | 4.9 | 0.5 | ||
| 2013-05-07T11:41 | 3823 | 645 | 4.4 | 1.3 | 306 | 9 |
| 2013-05-07T11:41 | 3941 | 636 | 3.8 | 0.7 | ||
| 2013-05-07T11:42 | 4008 | 630 | 3.5 | 0.5 | ||
| 2013-05-07T11:42 | 4047 | 627 | 3.2 | 0.4 | ||
| 2013-05-07T11:42 | 4080 | 625 | 3.1 | -0.4 | ||
| 2013-05-07T11:42 | 4160 | 619 | 299 | 8 | ||
| 2013-05-07T11:42 | 4170 | 618 | 2.6 | -0.8 | ||
| 2013-05-07T11:43 | 4456 | 596 | 0.9 | -2.5 | ||
| 2013-05-07T11:43 | 4502 | 593 | 292 | 8 | ||
| 2013-05-07T11:43 | 4605 | 585 | -0.1 | -3.5 | ||
| 2013-05-07T11:43 | 4638 | 583 | -0.3 | -3.8 | ||
| 2013-05-07T11:44 | 4672 | 581 | -0.6 | -3.6 | ||
| 2013-05-07T11:44 | 4705 | 578 | -0.6 | -4.5 | ||
| 2013-05-07T11:44 | 4716 | 577 | -0.7 | -4.6 | ||
| 2013-05-07T11:44 | 4840 | 568 | 297 | 8 | ||
| 2013-05-07T11:44 | 4925 | 562 | -1.8 | -6.0 | ||
| 2013-05-07T11:45 | 5012 | 556 | -2.2 | -6.9 | ||
| 2013-05-07T11:45 | 5076 | 552 | -1.9 | -7.6 | ||
| 2013-05-07T11:45 | 5152 | 547 | -1.9 | -10.7 | ||
| 2013-05-07T11:45 | 5187 | 544 | 297 | 9 | ||
| 2013-05-07T11:46 | 5368 | 532 | -3.1 | -12.8 | ||
| 2013-05-07T11:46 | 5530 | 521 | -3.9 | -13.1 | ||
| 2013-05-07T11:46 | 5535 | 521 | 298 | 10 | ||
| 2013-05-07T11:46 | 5632 | 514 | -4.6 | -15.0 | ||
| 2013-05-07T11:47 | 5886 | 498 | 292 | 10 | ||
| 2013-05-07T11:47 | 6002 | 491 | -6.8 | -17.6 | ||
| 2013-05-07T11:48 | 6095 | 485 | -7.5 | -18.8 | ||
| 2013-05-07T11:48 | 6127 | 483 | -7.7 | -19.9 | ||
| 2013-05-07T11:48 | 6138 | 482 | -7.8 | -16.7 | ||
| 2013-05-07T11:48 | 6175 | 480 | -8.0 | -17.3 | ||
| 2013-05-07T11:48 | 6239 | 476 | -8.6 | -16.2 | ||
| 2013-05-07T11:48 | 6257 | 475 | 292 | 11 | ||
| 2013-05-07T11:48 | 6361 | 469 | -9.7 | -15.8 | ||
| 2013-05-07T11:48 | 6416 | 465 | -10.2 | -15.0 | ||
| 2013-05-07T11:49 | 6549 | 457 | -11.3 | -16.4 | ||
| 2013-05-07T11:49 | 6620 | 453 | 290 | 12 | ||
| 2013-05-07T11:49 | 6637 | 452 | -11.9 | -17.9 | ||
| 2013-05-07T11:49 | 6680 | 450 | -12.0 | -20.8 | ||
| 2013-05-07T11:49 | 6710 | 448 | -12.1 | -24.8 | ||
| 2013-05-07T11:49 | 6748 | 446 | -12.3 | -25.0 | ||
| 2013-05-07T11:49 | 6781 | 444 | -12.4 | -21.9 | ||
| 2013-05-07T11:50 | 6812 | 442 | -12.7 | -19.7 | ||
| 2013-05-07T11:50 | 6831 | 441 | -12.7 | -19.1 | ||
| 2013-05-07T11:50 | 6850 | 440 | -12.8 | -18.9 | ||
| 2013-05-07T11:50 | 6893 | 437 | -13.1 | -18.3 | ||
| 2013-05-07T11:50 | 6958 | 433 | -13.5 | -20.2 | ||
| 2013-05-07T11:50 | 6995 | 431 | 285 | 13 | ||
| 2013-05-07T11:50 | 7002 | 431 | -13.8 | -22.7 | ||
| 2013-05-07T11:50 | 7108 | 425 | -14.6 | -23.9 | ||
| 2013-05-07T11:50 | 7151 | 423 | -15.0 | -25.1 | ||
| 2013-05-07T11:51 | 7234 | 418 | -15.6 | -20.3 | ||
| 2013-05-07T11:51 | 7367 | 411 | -16.8 | -19.6 | ||
| 2013-05-07T11:51 | 7374 | 410 | 284 | 16 | ||
| 2013-05-07T11:51 | 7451 | 406 | -16.8 | -21.8 | ||
| 2013-05-07T11:51 | 7503 | 403 | -17.0 | -22.2 | ||
| 2013-05-07T11:52 | 7682 | 394 | -18.0 | -24.5 | ||
| 2013-05-07T11:52 | 7758 | 390 | 274 | 15 | ||
| 2013-05-07T11:52 | 7769 | 389 | -18.7 | -26.6 | ||
| 2013-05-07T11:52 | 7827 | 386 | -18.9 | -29.4 | ||
| 2013-05-07T11:52 | 7930 | 381 | -19.3 | -29.8 | ||
| 2013-05-07T11:53 | 7981 | 378 | -19.8 | -29.2 | ||
| 2013-05-07T11:53 | 8050 | 375 | -20.4 | -27.9 | ||
| 2013-05-07T11:53 | 8084 | 373 | -20.8 | -27.5 | ||
| 2013-05-07T11:53 | 8137 | 370 | -21.3 | -26.0 | 270 | 14 |
| 2013-05-07T11:53 | 8181 | 368 | -21.6 | -25.6 | ||
| 2013-05-07T11:53 | 8237 | 365 | -22.1 | -27.6 | ||
| 2013-05-07T11:53 | 8288 | 363 | -22.5 | -27.6 | ||
| 2013-05-07T11:54 | 8351 | 360 | -23.1 | -25.7 | ||
| 2013-05-07T11:54 | 8519 | 352 | -23.5 | -25.6 | 268 | 15 |
| 2013-05-07T11:55 | 8843 | 336 | -26.1 | -28.4 | ||
| 2013-05-07T11:55 | 8916 | 333 | 278 | 14 | ||
| 2013-05-07T11:56 | 9156 | 322 | -28.6 | -31.4 | ||
| 2013-05-07T11:56 | 9304 | 315 | 277 | 16 | ||
| 2013-05-07T11:57 | 9549 | 305 | -31.9 | -34.1 | ||
| 2013-05-07T11:57 | 9684 | 299 | 276 | 17 | ||
| 2013-05-07T11:58 | 9942 | 288 | -35.5 | -38.2 | ||
| 2013-05-07T11:58 | 10081 | 282 | 285 | 17 | ||
| 2013-05-07T11:59 | 10469 | 267 | 284 | 19 | ||
| 2013-05-07T11:59 | 10477 | 267 | -40.0 | -43.5 | ||
| 2013-05-07T12:00 | 10851 | 252 | 273 | 19 | ||
| 2013-05-07T12:01 | 11239 | 238 | 272 | 22 | ||
| 2013-05-07T12:02 | 11623 | 225 | 273 | 24 | ||
| 2013-05-07T12:03 | 11990 | 212 | 280 | 27 | ||
| 2013-05-07T12:04 | 12365 | 200 | -56.0 | 284 | 29 | |
| 2013-05-07T12:05 | 12767 | 188 | 291 | 29 | ||
| 2013-05-07T12:05 | 12866 | 185 | -57.6 | |||
| 2013-05-07T12:06 | 13169 | 176 | -58.0 | |||
| 2013-05-07T12:06 | 13183 | 176 | 270 | 26 | ||
| 2013-05-07T12:07 | 13660 | 163 | 273 | 27 | ||
| 2013-05-07T12:08 | 13965 | 155 | -62.1 | |||
| 2013-05-07T12:08 | 14171 | 150 | 282 | 23 | ||
| 2013-05-07T12:09 | 14588 | 140 | -65.5 | |||
| 2013-05-07T12:09 | 14658 | 139 | 289 | 19 | ||
| 2013-05-07T12:10 | 15070 | 129 | -66.5 | |||
| 2013-05-07T12:10 | 15117 | 128 | 287 | 18 | ||
| 2013-05-07T12:11 | 15259 | 125 | -68.0 | |||
| 2013-05-07T23:30 | 8 | 1015 | 24.7 | 19.1 | 90 | 6 |
| 2013-05-07T23:30 | 14 | 1014 | 23.2 | 19.8 | ||
| 2013-05-07T23:31 | 202 | 992 | 21.4 | 17.2 | ||
| 2013-05-07T23:31 | 216 | 991 | 21.3 | 17.1 | ||
| 2013-05-07T23:31 | 287 | 983 | 20.7 | 17.1 | ||
| 2013-05-07T23:31 | 344 | 976 | 88 | 10 | ||
| 2013-05-07T23:32 | 714 | 935 | 99 | 9 | ||
| 2013-05-07T23:32 | 802 | 925 | 16.6 | 16.3 | ||
| 2013-05-07T23:32 | 860 | 919 | 16.1 | 14.5 | ||
| 2013-05-07T23:33 | 935 | 911 | 15.5 | 14.0 | ||
| 2013-05-07T23:33 | 1025 | 902 | 14.8 | 12.5 | ||
| 2013-05-07T23:33 | 1038 | 900 | 15.9 | 5.5 | ||
| 2013-05-07T23:33 | 1051 | 899 | 114 | 8 | ||
| 2013-05-07T23:33 | 1057 | 898 | 16.9 | 3.9 | ||
| 2013-05-07T23:33 | 1078 | 896 | 17.5 | -1.7 | ||
| 2013-05-07T23:33 | 1194 | 884 | 17.5 | -1.2 | ||
| 2013-05-07T23:34 | 1338 | 869 | 17.0 | -1.2 | ||
| 2013-05-07T23:34 | 1371 | 866 | 119 | 7 | ||
| 2013-05-07T23:34 | 1425 | 860 | 16.5 | -3.6 | ||
| 2013-05-07T23:35 | 1545 | 848 | 15.9 | -4.6 | ||
| 2013-05-07T23:35 | 1583 | 844 | 15.6 | 3.1 | ||
| 2013-05-07T23:35 | 1695 | 833 | 130 | 2 | ||
| 2013-05-07T23:35 | 1794 | 824 | 13.9 | 10.7 | ||
| 2013-05-07T23:35 | 1824 | 821 | 14.3 | 11.3 | ||
| 2013-05-07T23:36 | 1935 | 810 | 15.0 | 9.6 | ||
| 2013-05-07T23:36 | 2011 | 803 | 13 | 2 | ||
| 2013-05-07T23:37 | 2179 | 787 | 13.1 | 9.9 | ||
| 2013-05-07T23:37 | 2346 | 771 | 330 | 1 | ||
| 2013-05-07T23:37 | 2439 | 763 | 11.5 | 9.1 | ||
| 2013-05-07T23:38 | 2672 | 742 | 291 | 2 | ||
| 2013-05-07T23:38 | 2784 | 732 | 10.1 | 6.6 | ||
| 2013-05-07T23:39 | 2854 | 726 | 9.8 | 6.1 | ||
| 2013-05-07T23:39 | 2990 | 714 | 318 | 4 | ||
| 2013-05-07T23:39 | 2995 | 714 | 8.9 | 6.2 | ||
| 2013-05-07T23:40 | 3265 | 691 | 7.5 | 5.1 | ||
| 2013-05-07T23:40 | 3317 | 687 | 300 | 2 | ||
| 2013-05-07T23:40 | 3398 | 680 | 6.9 | 4.0 | ||
| 2013-05-07T23:40 | 3476 | 673 | 6.8 | 3.8 | ||
| 2013-05-07T23:41 | 3649 | 659 | 284 | 4 | ||
| 2013-05-07T23:41 | 3702 | 655 | 5.4 | 2.7 | ||
| 2013-05-07T23:42 | 3862 | 642 | 4.5 | 0.6 | ||
| 2013-05-07T23:42 | 3972 | 634 | 300 | 4 | ||
| 2013-05-07T23:42 | 4069 | 626 | 3.4 | -3.2 | ||
| 2013-05-07T23:43 | 4214 | 615 | 2.5 | -6.1 | ||
| 2013-05-07T23:43 | 4236 | 613 | 2.4 | -5.3 | ||
| 2013-05-07T23:43 | 4252 | 612 | 2.3 | -6.8 | ||
| 2013-05-07T23:43 | 4296 | 609 | 283 | 6 | ||
| 2013-05-07T23:43 | 4306 | 608 | 2.0 | -4.3 | ||
| 2013-05-07T23:43 | 4362 | 604 | 1.7 | -11.4 | ||
| 2013-05-07T23:43 | 4420 | 600 | 2.1 | -11.8 | ||
| 2013-05-07T23:43 | 4453 | 597 | 1.9 | -10.9 | ||
| 2013-05-07T23:44 | 4464 | 596 | 1.8 | -10.4 | ||
| 2013-05-07T23:44 | 4553 | 590 | 1.2 | -9.7 | ||
| 2013-05-07T23:44 | 4631 | 584 | 293 | 8 | ||
| 2013-05-07T23:44 | 4687 | 580 | 0.8 | -10.1 | ||
| 2013-05-07T23:44 | 4793 | 572 | -0.1 | -8.3 | ||
| 2013-05-07T23:45 | 4967 | 560 | 282 | 8 | ||
| 2013-05-07T23:45 | 5042 | 555 | -1.9 | -8.9 | ||
| 2013-05-07T23:46 | 5226 | 542 | -3.1 | -10.4 | ||
| 2013-05-07T23:46 | 5285 | 538 | 288 | 6 | ||
| 2013-05-07T23:47 | 5484 | 525 | -5.2 | -10.9 | ||
| 2013-05-07T23:47 | 5614 | 516 | 292 | 9 | ||
| 2013-05-07T23:47 | 5734 | 508 | -7.1 | -12.4 | ||
| 2013-05-07T23:48 | 5792 | 504 | -7.6 | -10.1 | ||
| 2013-05-07T23:48 | 5941 | 495 | 297 | 10 | ||
| 2013-05-07T23:49 | 6181 | 480 | -10.8 | -12.0 | ||
| 2013-05-07T23:49 | 6276 | 474 | 289 | 11 | ||
| 2013-05-07T23:49 | 6359 | 469 | -11.6 | -12.2 | ||
| 2013-05-07T23:50 | 6460 | 463 | -11.6 | -15.3 | ||
| 2013-05-07T23:50 | 6626 | 453 | 291 | 12 | ||
| 2013-05-07T23:50 | 6720 | 447 | -12.8 | -18.4 | ||
| 2013-05-07T23:50 | 6787 | 443 | -13.1 | -17.6 | ||
| 2013-05-07T23:51 | 6957 | 433 | -14.3 | -17.0 | 287 | 14 |
| 2013-05-07T23:51 | 7088 | 426 | -15.0 | -17.8 | ||
| 2013-05-07T23:52 | 7159 | 422 | -15.2 | -18.5 | ||
| 2013-05-07T23:52 | 7195 | 420 | -15.1 | -20.8 | ||
| 2013-05-07T23:52 | 7309 | 414 | 276 | 16 | ||
| 2013-05-07T23:53 | 7659 | 395 | 273 | 16 | ||
| 2013-05-07T23:53 | 7822 | 386 | -20.7 | -23.7 | ||
| 2013-05-07T23:54 | 7998 | 377 | 281 | 15 | ||
| 2013-05-07T23:54 | 8163 | 369 | -23.8 | -25.1 | ||
| 2013-05-07T23:55 | 8187 | 368 | -22.0 | -24.8 | ||
| 2013-05-07T23:55 | 8245 | 365 | -22.1 | -28.1 | ||
| 2013-05-07T23:55 | 8347 | 360 | -22.5 | -29.9 | ||
| 2013-05-07T23:55 | 8353 | 359 | 285 | 17 | ||
| 2013-05-07T23:56 | 8702 | 343 | 283 | 19 | ||
| 2013-05-07T23:57 | 8929 | 332 | -27.5 | -32.9 | ||
| 2013-05-07T23:57 | 9056 | 326 | 285 | 19 | ||
| 2013-05-07T23:58 | 9438 | 309 | 284 | 20 | ||
| 2013-05-07T23:59 | 9816 | 293 | 280 | 18 | ||
| 2013-05-07T23:59 | 9835 | 292 | -35.7 | -38.4 | ||
| 2013-05-08T00:00 | 10177 | 278 | 282 | 16 | ||
| 2013-05-08T00:00 | 10277 | 274 | -38.7 | -42.3 | ||
| 2013-05-08T00:01 | 10478 | 266 | -40.0 | -47.2 | ||
| 2013-05-08T00:01 | 10524 | 264 | 288 | 17 | ||
| 2013-05-08T00:02 | 10882 | 251 | 286 | 18 | ||
| 2013-05-08T00:03 | 11233 | 238 | 293 | 17 | ||
| 2013-05-08T00:04 | 11607 | 225 | 297 | 20 | ||
| 2013-05-08T00:05 | 11961 | 213 | 295 | 26 | ||
| 2013-05-08T00:05 | 12003 | 211 | -52.7 | |||
| 2013-05-08T00:06 | 12314 | 201 | -54.6 | |||
| 2013-05-08T00:06 | 12320 | 201 | 298 | 27 | ||
| 2013-05-08T00:07 | 12511 | 195 | -55.1 | |||
| 2013-05-08T00:07 | 12676 | 190 | 297 | 23 | ||
| 2013-05-08T00:08 | 13017 | 180 | 290 | 23 | ||
| 2013-05-08T00:09 | 13371 | 170 | 286 | 25 | ||
| 2013-05-08T00:09 | 13459 | 168 | -60.9 | |||
| 2013-05-08T00:10 | 13674 | 162 | -61.1 | |||
| 2013-05-08T00:10 | 13720 | 161 | 297 | 23 | ||
| 2013-05-08T00:11 | 14043 | 153 | 302 | 18 | ||
| 2013-05-08T00:11 | 14156 | 150 | -63.5 | |||
| 2013-05-08T00:12 | 14385 | 145 | 291 | 15 | ||
| 2013-05-08T00:13 | 14718 | 137 | 287 | 17 | ||
| 2013-05-08T00:14 | 15030 | 130 | -67.4 | |||
| 2013-05-08T00:14 | 15095 | 129 | 287 | 18 | ||
| 2013-05-08T00:15 | 15439 | 121 | 294 | 20 | ||
| 2013-05-08T00:15 | 15488 | 120 | -70.5 | |||
| 2013-05-08T00:16 | 15770 | 115 | 310 | 23 | ||
| 2013-05-08T00:16 | 15921 | 112 | -71.8 | |||
| 2013-05-08T00:17 | 16130 | 108 | 305 | 17 | ||
| 2013-05-08T00:17 | 16235 | 106 | -72.0 | |||
| 2013-05-08T00:18 | 16415 | 103 | -73.4 | |||
| 2013-05-08T00:18 | 16484 | 102 | 299 | 19 | ||
| 2013-05-08T00:19 | 16820 | 96 | 310 | 16 | ||
| 2013-05-08T00:19 | 16875 | 95 | -73.8 | |||
| 2013-05-08T00:20 | 17170 | 90 | 314 | 17 | ||
| 2013-05-08T00:20 | 17260 | 89 | -75.6 | |||
| 2013-05-08T00:21 | 17533 | 85 | 319 | 11 | ||
| 2013-05-08T00:22 | 17884 | 80 | 322 | 12 | ||
| 2013-05-08T00:22 | 17942 | 79 | -75.6 | |||
| 2013-05-08T00:23 | 18196 | 76 | -75.3 | |||
| 2013-05-08T00:23 | 18234 | 75 | 293 | 11 | ||
| 2013-05-08T00:24 | 18511 | 72 | -74.8 | |||
| 2013-05-08T00:24 | 18576 | 71 | 335 | 12 | ||
| 2013-05-08T00:25 | 18923 | 67 | 356 | 14 | ||
| 2013-05-08T00:26 | 19137 | 64 | -72.9 | |||
| 2013-05-08T00:26 | 19275 | 63 | 9 | 12 | ||
| 2013-05-08T00:27 | 19585 | 60 | -70.0 | |||
| 2013-05-08T00:27 | 19625 | 59 | 43 | 11 | ||
| 2013-05-08T00:28 | 19841 | 57 | -67.5 | |||
| 2013-05-08T00:28 | 19969 | 56 | 80 | 5 | ||
| 2013-05-08T00:28 | 20055 | 55 | -66.8 | |||
| 2013-05-08T00:29 | 20313 | 53 | 46 | 2 | ||
| 2013-05-08T00:30 | 20549 | 51 | -63.8 | |||
| 2013-05-08T00:30 | 20671 | 50 | 32 | 6 | ||
| 2013-05-08T00:31 | 20973 | 48 | -62.7 | |||
| 2013-05-08T00:31 | 21038 | 47 | 61 | 6 | ||
| 2013-05-08T00:32 | 21403 | 44 | 80 | 6 | ||
| 2013-05-08T00:33 | 21763 | 42 | -61.8 | 115 | 5 | |
| 2013-05-08T00:34 | 22114 | 40 | 82 | 5 | ||
| 2013-05-08T00:35 | 22486 | 37 | 78 | 9 | ||
| 2013-05-08T00:35 | 22537 | 37 | -60.4 | |||
| 2013-05-08T00:36 | 22867 | 35 | 101 | 9 | ||
| 2013-05-08T00:37 | 23236 | 33 | 74 | 8 | ||
| 2013-05-08T00:37 | 23255 | 33 | -58.1 | |||
| 2013-05-08T00:38 | 23629 | 31 | 62 | 9 | ||
| 2013-05-08T00:38 | 23690 | 31 | -59.1 | |||
| 2013-05-08T00:39 | 24026 | 29 | 92 | 9 | ||
| 2013-05-08T00:40 | 24429 | 27 | 99 | 9 | ||
| 2013-05-08T00:41 | 24788 | 26 | -55.7 | |||
| 2013-05-08T00:41 | 24813 | 26 | 118 | 10 | ||
| 2013-05-08T00:42 | 25223 | 24 | 88 | 7 | ||
| 2013-05-08T00:43 | 25606 | 23 | 71 | 11 | ||
| 2013-05-08T00:43 | 25720 | 22 | -53.7 | |||
| 2013-05-08T00:44 | 26015 | 21 | 67 | 16 | ||
| 2013-05-08T00:45 | 26323 | 20 | -54.1 | |||
| 2013-05-08T00:45 | 26419 | 20 | 81 | 13 | ||
| 2013-05-08T00:46 | 26818 | 19 | 83 | 12 | ||
| 2013-05-08T00:47 | 27248 | 18 | 104 | 8 | ||
| 2013-05-08T00:47 | 27398 | 17 | -48.9 | |||
| 2013-05-08T00:48 | 27671 | 17 | 150 | 2 | ||
| 2013-05-08T00:49 | 28125 | 15 | 100 | 10 | ||
| 2013-05-08T00:50 | 28568 | 14 | 79 | 7 | ||
| 2013-05-08T00:50 | 28708 | 14 | -47.1 | |||
| 2013-05-08T00:51 | 28996 | 14 | 43 | 10 | ||
| 2013-05-08T00:52 | 29454 | 13 | 89 | 6 | ||
| 2013-05-08T00:53 | 29779 | 12 | -45.2 | |||
| 2013-05-08T00:53 | 29948 | 12 | 51 | 4 | ||
| 2013-05-08T00:54 | 30300 | 11 | -44.6 | |||
| 2013-05-08T00:54 | 30422 | 11 | 83 | 21 | ||
| 2013-05-08T00:55 | 30867 | 10 | 125 | 15 | ||
| 2013-05-08T00:55 | 30933 | 10 | -43.6 | |||
| 2013-05-08T00:56 | 31345 | 10 | 104 | 10 | ||
| 2013-05-08T00:57 | 31783 | 9 | 95 | 6 | ||
| 2013-05-08T00:57 | 32014 | 9 | -43.6 | |||
| 2013-05-08T00:58 | 32253 | 8 | 85 | 11 | ||
| 2013-05-08T00:59 | 32764 | 8 | 54 | 15 | ||
| 2013-05-08T00:59 | 32853 | 8 | -38.7 | |||
| 2013-05-08T01:00 | 33226 | 7 | 56 | 12 | ||
| 2013-05-08T01:01 | 33421 | 7 | -35.5 | |||
| 2013-05-08T01:01 | 33624 | 7 | -34.5 | 94 | 1 | |
| 2013-05-08T11:30 | 8 | 1013 | 24.7 | 19.8 | 110 | 5 |
| 2013-05-08T11:31 | 308 | 979 | 134 | 6 | ||
| 2013-05-08T11:32 | 657 | 940 | 125 | 9 | ||
| 2013-05-08T11:32 | 713 | 934 | 17.6 | 17.4 | ||
| 2013-05-08T11:33 | 829 | 922 | 16.9 | 16.9 | ||
| 2013-05-08T11:33 | 972 | 906 | 15.6 | 14.1 | ||
| 2013-05-08T11:33 | 1015 | 902 | 137 | 2 | ||
| 2013-05-08T11:33 | 1034 | 900 | 16.7 | 13.8 | ||
| 2013-05-08T11:33 | 1058 | 897 | 17.6 | 15.9 | ||
| 2013-05-08T11:33 | 1155 | 887 | 17.4 | 13.3 | ||
| 2013-05-08T11:34 | 1242 | 878 | 17.7 | 9.3 | ||
| 2013-05-08T11:34 | 1267 | 876 | 17.9 | 11.2 | ||
| 2013-05-08T11:34 | 1317 | 870 | 18.2 | 10.3 | ||
| 2013-05-08T11:34 | 1356 | 867 | 18.4 | 13.1 | ||
| 2013-05-08T11:34 | 1375 | 865 | 138 | 3 | ||
| 2013-05-08T11:34 | 1520 | 850 | 18.0 | 12.2 | ||
| 2013-05-08T11:35 | 1716 | 831 | 184 | 1 | ||
| 2013-05-08T11:35 | 1794 | 823 | 17.3 | 10.4 | ||
| 2013-05-08T11:36 | 1968 | 807 | 15.9 | 11.1 | ||
| 2013-05-08T11:36 | 2074 | 797 | 250 | 1 | ||
| 2013-05-08T11:36 | 2172 | 788 | 14.7 | 9.7 | ||
| 2013-05-08T11:37 | 2426 | 764 | 278 | 2 | ||
| 2013-05-08T11:37 | 2457 | 761 | 12.5 | 10.2 | ||
| 2013-05-08T11:37 | 2559 | 752 | 12.8 | 9.3 | ||
| 2013-05-08T11:38 | 2699 | 740 | 12.0 | 8.5 | ||
| 2013-05-08T11:38 | 2775 | 733 | 283 | 3 | ||
| 2013-05-08T11:38 | 2890 | 723 | 10.5 | 7.4 | ||
| 2013-05-08T11:38 | 2953 | 718 | 10.0 | 7.6 | ||
| 2013-05-08T11:39 | 3145 | 701 | 272 | 4 | ||
| 2013-05-08T11:39 | 3170 | 699 | 8.6 | 7.2 | ||
| 2013-05-08T11:40 | 3347 | 684 | 7.6 | 5.6 | ||
| 2013-05-08T11:40 | 3415 | 679 | 7.6 | 3.3 | ||
| 2013-05-08T11:40 | 3493 | 672 | 296 | 4 | ||
| 2013-05-08T11:41 | 3789 | 649 | 5.4 | 1.3 | ||
| 2013-05-08T11:41 | 3851 | 644 | 299 | 4 | ||
| 2013-05-08T11:42 | 4114 | 623 | 2.7 | 1.8 | ||
| 2013-05-08T11:42 | 4207 | 616 | 295 | 8 | ||
| 2013-05-08T11:42 | 4278 | 611 | 1.6 | 1.6 | ||
| 2013-05-08T11:42 | 4294 | 610 | 1.5 | 1.5 | ||
| 2013-05-08T11:42 | 4306 | 609 | 1.4 | 1.4 | ||
| 2013-05-08T11:43 | 4563 | 590 | 313 | 10 | ||
| 2013-05-08T11:43 | 4615 | 586 | 0.2 | -0.8 | ||
| 2013-05-08T11:44 | 4821 | 571 | -1.4 | -2.4 | ||
| 2013-05-08T11:44 | 4908 | 565 | 300 | 10 | ||
| 2013-05-08T11:44 | 4965 | 561 | -1.6 | -3.6 | ||
| 2013-05-08T11:45 | 5137 | 549 | -2.4 | -5.7 | ||
| 2013-05-08T11:45 | 5258 | 540 | 293 | 9 | ||
| 2013-05-08T11:46 | 5472 | 526 | -4.6 | -6.9 | ||
| 2013-05-08T11:46 | 5545 | 521 | -4.8 | -7.6 | ||
| 2013-05-08T11:46 | 5616 | 516 | 290 | 9 | ||
| 2013-05-08T11:47 | 5891 | 499 | -7.1 | -9.2 | ||
| 2013-05-08T11:47 | 5945 | 495 | -6.9 | -9.1 | ||
| 2013-05-08T11:47 | 5978 | 493 | 263 | 11 | ||
| 2013-05-08T11:47 | 6125 | 484 | -7.9 | -11.1 | ||
| 2013-05-08T11:48 | 6303 | 473 | -8.8 | -13.3 | ||
| 2013-05-08T11:48 | 6331 | 471 | 269 | 10 | ||
| 2013-05-08T11:48 | 6421 | 466 | -9.5 | -15.2 | ||
| 2013-05-08T11:49 | 6573 | 457 | -10.3 | -16.0 | ||
| 2013-05-08T11:49 | 6603 | 455 | -10.5 | -14.7 | ||
| 2013-05-08T11:49 | 6685 | 450 | 267 | 12 | ||
| 2013-05-08T11:49 | 6745 | 447 | -11.5 | -18.5 | ||
| 2013-05-08T11:49 | 6791 | 444 | -11.7 | -16.2 | ||
| 2013-05-08T11:50 | 6958 | 434 | -13.0 | -16.8 | ||
| 2013-05-08T11:50 | 7053 | 429 | 267 | 11 | ||
| 2013-05-08T11:50 | 7161 | 423 | -14.5 | -18.3 | ||
| 2013-05-08T11:51 | 7280 | 416 | -15.2 | -20.1 | ||
| 2013-05-08T11:51 | 7307 | 415 | -15.1 | -21.3 | ||
| 2013-05-08T11:51 | 7314 | 414 | -15.2 | -24.5 | ||
| 2013-05-08T11:51 | 7398 | 410 | 268 | 14 | ||
| 2013-05-08T11:51 | 7406 | 409 | -15.8 | -26.3 | ||
| 2013-05-08T11:52 | 7583 | 400 | -17.2 | -26.3 | ||
| 2013-05-08T11:52 | 7652 | 396 | -17.7 | -23.4 | ||
| 2013-05-08T11:52 | 7743 | 391 | 268 | 16 | ||
| 2013-05-08T11:52 | 7749 | 391 | -17.8 | -32.3 | ||
| 2013-05-08T11:52 | 7820 | 387 | -18.3 | -29.2 | ||
| 2013-05-08T11:52 | 7894 | 384 | -18.7 | -34.3 | ||
| 2013-05-08T11:53 | 8080 | 374 | -20.5 | -27.2 | ||
| 2013-05-08T11:53 | 8126 | 372 | 267 | 17 | ||
| 2013-05-08T11:53 | 8140 | 371 | -21.0 | -28.5 | ||
| 2013-05-08T11:53 | 8177 | 369 | -21.3 | -32.2 | ||
| 2013-05-08T11:53 | 8260 | 365 | -22.0 | -32.8 | ||
| 2013-05-08T11:54 | 8341 | 361 | -22.6 | -32.8 | ||
| 2013-05-08T11:54 | 8484 | 354 | 270 | 18 | ||
| 2013-05-08T11:54 | 8544 | 351 | -24.0 | -30.7 | ||
| 2013-05-08T11:54 | 8638 | 347 | -24.6 | -28.0 | ||
| 2013-05-08T11:55 | 8704 | 344 | -24.8 | -28.2 | ||
| 2013-05-08T11:55 | 8784 | 340 | -25.2 | -29.9 | ||
| 2013-05-08T11:55 | 8835 | 337 | 272 | 16 | ||
| 2013-05-08T11:55 | 8994 | 330 | -26.4 | -32.0 | ||
| 2013-05-08T11:56 | 9189 | 321 | -27.7 | -34.9 | ||
| 2013-05-08T11:56 | 9211 | 320 | 279 | 18 | ||
| 2013-05-08T11:57 | 9572 | 304 | 281 | 18 | ||
| 2013-05-08T11:57 | 9692 | 299 | -32.3 | -38.0 | ||
| 2013-05-08T11:58 | 9962 | 288 | 285 | 23 | ||
| 2013-05-08T11:58 | 10057 | 284 | -35.5 | -39.3 | ||
| 2013-05-08T11:59 | 10343 | 273 | 286 | 24 | ||
| 2013-05-08T11:59 | 10524 | 266 | -39.6 | -43.3 | ||
| 2013-05-08T12:00 | 10591 | 263 | -40.0 | -44.2 | ||
| 2013-05-08T12:00 | 10730 | 258 | 281 | 24 | ||
| 2013-05-08T12:01 | 11112 | 243 | 279 | 27 | ||
| 2013-05-08T12:02 | 11485 | 230 | 287 | 28 | ||
| 2013-05-08T12:03 | 11854 | 218 | 287 | 27 | ||
| 2013-05-08T12:04 | 12217 | 206 | 293 | 29 | ||
| 2013-05-08T12:05 | 12583 | 194 | -57.7 | 290 | 30 | |
| 2013-05-08T12:06 | 12951 | 183 | -58.2 | |||
| 2013-05-08T12:06 | 12961 | 183 | 293 | 30 | ||
| 2013-05-08T12:07 | 13352 | 172 | 296 | 30 | ||
| 2013-05-08T12:07 | 13485 | 168 | -58.1 | |||
| 2013-05-08T12:08 | 13684 | 163 | -56.6 | |||
| 2013-05-08T12:08 | 13766 | 161 | 286 | 28 | ||
| 2013-05-08T12:09 | 14164 | 151 | 281 | 25 | ||
| 2013-05-08T12:09 | 14239 | 149 | -61.0 | |||
| 2013-05-08T12:10 | 14553 | 142 | 284 | 24 | ||
| 2013-05-08T12:10 | 14658 | 139 | -63.8 | |||
| 2013-05-08T12:11 | 15036 | 131 | 299 | 19 | ||
| 2013-05-08T12:12 | 15517 | 121 | 299 | 20 | ||
| 2013-05-08T12:12 | 15715 | 117 | -72.0 | |||
| 2013-05-08T12:13 | 15992 | 112 | 304 | 20 | ||
| 2013-05-08T12:14 | 16331 | 105 | -75.4 | |||
| 2013-05-08T12:14 | 16353 | 105 | 311 | 17 | ||
| 2013-05-08T12:15 | 16618 | 100 | -75.7 | |||
| 2013-05-08T12:15 | 16788 | 97 | 329 | 9 | ||
| 2013-05-08T12:15 | 16853 | 96 | -76.7 | |||
| 2013-05-08T12:16 | 17218 | 90 | 351 | 8 | ||
| 2013-05-08T12:17 | 17555 | 85 | -75.3 | |||
| 2013-05-08T12:17 | 17569 | 85 | 350 | 13 | ||
| 2013-05-08T12:18 | 17876 | 81 | 353 | 11 | ||
| 2013-05-08T12:18 | 17905 | 80 | -76.4 | |||
| 2013-05-08T12:19 | 18109 | 77 | -76.6 | |||
| 2013-05-08T12:19 | 18169 | 77 | 345 | 11 | ||
| 2013-05-08T12:19 | 18268 | 75 | -75.4 | |||
| 2013-05-08T12:20 | 18440 | 73 | 4 | 11 | ||
| 2013-05-08T12:20 | 18472 | 73 | -75.1 | |||
| 2013-05-08T12:21 | 18676 | 70 | -73.0 | |||
| 2013-05-08T12:21 | 18718 | 70 | 33 | 11 | ||
| 2013-05-08T12:22 | 18968 | 67 | 16 | 6 | ||
| 2013-05-08T12:22 | 19031 | 66 | -71.5 | |||
| 2013-05-08T12:23 | 19213 | 64 | 36 | 4 | ||
| 2013-05-08T12:23 | 19241 | 64 | -70.3 | |||
| 2013-05-08T12:24 | 19440 | 62 | 315 | 1 | ||
| 2013-05-08T12:25 | 19647 | 60 | 38 | 2 | ||
| 2013-05-08T12:26 | 19862 | 57 | 283 | 1 | ||
| 2013-05-08T12:26 | 19872 | 57 | -68.7 | |||
| 2013-05-08T12:27 | 20042 | 56 | -68.4 | |||
| 2013-05-08T12:27 | 20064 | 56 | 305 | 1 | ||
| 2013-05-08T12:28 | 20228 | 54 | 319 | 4 | ||
| 2013-05-08T12:29 | 20341 | 53 | -66.3 | |||
| 2013-05-08T12:29 | 20352 | 53 | 282 | 2 | ||
| 2013-05-08T12:30 | 20480 | 52 | 47 | 2 | ||
| 2013-05-08T12:31 | 20575 | 51 | 39 | 5 | ||
| 2013-05-08T12:31 | 20599 | 51 | -64.7 | |||
| 2013-05-08T23:30 | 8 | 1013 | 25.2 | 22.3 | 130 | 5 |
| 2013-05-08T23:30 | 16 | 1012 | 24.3 | 23.3 | ||
| 2013-05-08T23:30 | 99 | 1003 | 23.5 | 20.8 | ||
| 2013-05-08T23:31 | 306 | 979 | 136 | 6 | ||
| 2013-05-08T23:31 | 419 | 967 | 20.6 | 19.8 | ||
| 2013-05-08T23:32 | 610 | 946 | 19.5 | 18.2 | ||
| 2013-05-08T23:32 | 652 | 941 | 147 | 5 | ||
| 2013-05-08T23:32 | 677 | 938 | 19.5 | 17.1 | ||
| 2013-05-08T23:33 | 1013 | 902 | 173 | 5 | ||
| 2013-05-08T23:33 | 1036 | 900 | 16.8 | 16.3 | ||
| 2013-05-08T23:34 | 1343 | 868 | 203 | 7 | ||
| 2013-05-08T23:34 | 1365 | 866 | 15.6 | 15.1 | ||
| 2013-05-08T23:35 | 1594 | 843 | 14.3 | 14.3 | ||
| 2013-05-08T23:35 | 1674 | 835 | 13.6 | 10.8 | ||
| 2013-05-08T23:35 | 1680 | 834 | 185 | 7 | ||
| 2013-05-08T23:35 | 1713 | 831 | 13.3 | 10.5 | ||
| 2013-05-08T23:35 | 1788 | 824 | 14.6 | 11.0 | ||
| 2013-05-08T23:36 | 1851 | 818 | 15.6 | 11.4 | ||
| 2013-05-08T23:36 | 1943 | 809 | 15.6 | 10.6 | ||
| 2013-05-08T23:36 | 2026 | 801 | 165 | 5 | ||
| 2013-05-08T23:37 | 2253 | 780 | 14.3 | 8.5 | ||
| 2013-05-08T23:37 | 2376 | 769 | 187 | 4 | ||
| 2013-05-08T23:38 | 2541 | 754 | 12.9 | 6.9 | ||
| 2013-05-08T23:38 | 2713 | 738 | 227 | 3 | ||
| 2013-05-08T23:39 | 2900 | 722 | 10.8 | 4.9 | ||
| 2013-05-08T23:39 | 3050 | 709 | 9.9 | 4.1 | 246 | 4 |
| 2013-05-08T23:39 | 3179 | 698 | 9.3 | 2.4 | ||
| 2013-05-08T23:39 | 3191 | 697 | 9.2 | 2.5 | ||
| 2013-05-08T23:39 | 3208 | 696 | 9.1 | 6.4 | ||
| 2013-05-08T23:40 | 3235 | 694 | 8.9 | 6.3 | ||
| 2013-05-08T23:40 | 3391 | 681 | 260 | 5 | ||
| 2013-05-08T23:40 | 3443 | 676 | 7.8 | 4.7 | ||
| 2013-05-08T23:41 | 3739 | 653 | 272 | 5 | ||
| 2013-05-08T23:41 | 3744 | 652 | 5.6 | 3.3 | ||
| 2013-05-08T23:42 | 4017 | 631 | 3.8 | 1.5 | ||
| 2013-05-08T23:42 | 4086 | 625 | 267 | 6 | ||
| 2013-05-08T23:42 | 4228 | 615 | 2.3 | 0.0 | ||
| 2013-05-08T23:43 | 4307 | 609 | 2.0 | -1.8 | ||
| 2013-05-08T23:43 | 4337 | 606 | 1.9 | -1.4 | ||
| 2013-05-08T23:43 | 4414 | 601 | 1.5 | -2.8 | ||
| 2013-05-08T23:43 | 4431 | 599 | 270 | 7 | ||
| 2013-05-08T23:43 | 4472 | 596 | 1.1 | -3.0 | ||
| 2013-05-08T23:43 | 4517 | 593 | 0.8 | -2.8 | ||
| 2013-05-08T23:44 | 4710 | 579 | -0.8 | -4.5 | ||
| 2013-05-08T23:44 | 4715 | 578 | -0.9 | -4.6 | ||
| 2013-05-08T23:44 | 4794 | 573 | 270 | 10 | ||
| 2013-05-08T23:44 | 4916 | 564 | -2.7 | -4.7 | ||
| 2013-05-08T23:45 | 5097 | 551 | -3.6 | -5.8 | ||
| 2013-05-08T23:45 | 5155 | 547 | 266 | 11 | ||
| 2013-05-08T23:45 | 5316 | 536 | -5.0 | -6.7 | ||
| 2013-05-08T23:46 | 5510 | 523 | 268 | 12 | ||
| 2013-05-08T23:46 | 5585 | 518 | -6.2 | -7.1 | ||
| 2013-05-08T23:47 | 5883 | 499 | 272 | 11 | ||
| 2013-05-08T23:48 | 6254 | 475 | 282 | 9 | ||
| 2013-05-08T23:49 | 6581 | 456 | -11.2 | -12.0 | ||
| 2013-05-08T23:49 | 6623 | 453 | 274 | 11 | ||
| 2013-05-08T23:50 | 6989 | 432 | 269 | 12 | ||
| 2013-05-08T23:51 | 7387 | 410 | 269 | 12 | ||
| 2013-05-08T23:51 | 7435 | 407 | -16.4 | -17.5 | ||
| 2013-05-08T23:52 | 7595 | 399 | -17.5 | -19.0 | ||
| 2013-05-08T23:52 | 7758 | 390 | -18.8 | -20.6 | ||
| 2013-05-08T23:52 | 7812 | 387 | 267 | 14 | ||
| 2013-05-08T23:52 | 7885 | 384 | -19.6 | -20.8 | ||
| 2013-05-08T23:52 | 7947 | 380 | -20.1 | -21.4 | ||
| 2013-05-08T23:53 | 8079 | 374 | -20.9 | -22.1 | ||
| 2013-05-08T23:53 | 8218 | 367 | -22.0 | -22.8 | ||
| 2013-05-08T23:53 | 8272 | 364 | 273 | 14 | ||
| 2013-05-08T23:53 | 8295 | 363 | -22.7 | -23.8 | ||
| 2013-05-08T23:53 | 8311 | 362 | -22.7 | -23.6 | ||
| 2013-05-08T23:53 | 8489 | 353 | -23.8 | -24.7 | ||
| 2013-05-08T23:54 | 8574 | 349 | -24.6 | -25.6 | ||
| 2013-05-08T23:54 | 8704 | 343 | 268 | 14 | ||
| 2013-05-08T23:54 | 8824 | 337 | -26.0 | -27.9 | ||
| 2013-05-08T23:55 | 9101 | 325 | 260 | 16 | ||
| 2013-05-08T23:55 | 9134 | 323 | -28.4 | -32.0 | ||
| 2013-05-08T23:56 | 9487 | 308 | 261 | 15 | ||
| 2013-05-08T23:56 | 9533 | 306 | -31.3 | -35.0 | ||
| 2013-05-08T23:57 | 9868 | 291 | -34.0 | -38.2 | ||
| 2013-05-08T23:57 | 9897 | 290 | 266 | 14 | ||
| 2013-05-08T23:58 | 10301 | 274 | 264 | 15 | ||
| 2013-05-08T23:59 | 10569 | 263 | -40.0 | -43.9 | ||
| 2013-05-08T23:59 | 10705 | 258 | 272 | 14 | ||
| 2013-05-09T00:00 | 11087 | 244 | 272 | 17 | ||
| 2013-05-09T00:01 | 11474 | 230 | 277 | 20 | ||
| 2013-05-09T00:02 | 11859 | 217 | 280 | 23 | ||
| 2013-05-09T00:03 | 12111 | 209 | -52.9 | |||
| 2013-05-09T00:03 | 12220 | 205 | 282 | 28 | ||
| 2013-05-09T00:04 | 12495 | 197 | -54.5 | |||
| 2013-05-09T00:04 | 12560 | 195 | 286 | 31 | ||
| 2013-05-09T00:05 | 12886 | 185 | 287 | 30 | ||
| 2013-05-09T00:05 | 12966 | 183 | -56.4 | |||
| 2013-05-09T00:06 | 13117 | 178 | -56.5 | |||
| 2013-05-09T00:06 | 13221 | 175 | 291 | 30 | ||
| 2013-05-09T00:07 | 13557 | 166 | 295 | 32 | ||
| 2013-05-09T00:08 | 13889 | 158 | 299 | 30 | ||
| 2013-05-09T00:08 | 13973 | 156 | -60.4 | |||
| 2013-05-09T00:09 | 14234 | 149 | 299 | 24 | ||
| 2013-05-09T00:10 | 14608 | 140 | 281 | 21 | ||
| 2013-05-09T00:11 | 14974 | 132 | 293 | 20 | ||
| 2013-05-09T00:12 | 15345 | 124 | 306 | 18 | ||
| 2013-05-09T00:12 | 15511 | 121 | -69.4 | |||
| 2013-05-09T00:13 | 15681 | 118 | 292 | 17 | ||
| 2013-05-09T00:14 | 15860 | 114 | -70.9 | |||
| 2013-05-09T00:14 | 16023 | 111 | 303 | 19 | ||
| 2013-05-09T00:15 | 16388 | 104 | -73.8 | |||
| 2013-05-09T00:15 | 16416 | 104 | 318 | 17 | ||
| 2013-05-09T00:16 | 16906 | 95 | 320 | 17 | ||
| 2013-05-09T00:16 | 17046 | 93 | -77.0 | |||
| 2013-05-09T00:17 | 17356 | 88 | 356 | 14 | ||
| 2013-05-09T00:18 | 17461 | 87 | -78.4 | |||
| 2013-05-09T11:30 | 8 | 1011 | 25.2 | 23.3 | 130 | 5 |
| 2013-05-09T11:30 | 18 | 1010 | 24.6 | 23.4 | ||
| 2013-05-09T11:31 | 148 | 995 | 23.7 | 21.8 | ||
| 2013-05-09T11:31 | 338 | 974 | 140 | 10 | ||
| 2013-05-09T11:31 | 450 | 962 | 21.5 | 20.5 | ||
| 2013-05-09T11:31 | 493 | 957 | 22.0 | 19.9 | ||
| 2013-05-09T11:32 | 666 | 938 | 21.2 | 19.1 | ||
| 2013-05-09T11:32 | 693 | 935 | 160 | 8 | ||
| 2013-05-09T11:33 | 917 | 911 | 19.5 | 18.8 | ||
| 2013-05-09T11:33 | 1015 | 901 | 172 | 7 | ||
| 2013-05-09T11:34 | 1363 | 865 | 182 | 6 | ||
| 2013-05-09T11:34 | 1369 | 865 | 16.8 | 16.5 | ||
| 2013-05-09T11:34 | 1493 | 852 | 16.1 | 15.5 | ||
| 2013-05-09T11:35 | 1724 | 829 | 14.8 | 14.6 | 218 | 7 |
| 2013-05-09T11:35 | 1779 | 824 | 14.5 | 11.5 | ||
| 2013-05-09T11:35 | 1797 | 822 | 14.4 | 12.3 | ||
| 2013-05-09T11:35 | 1815 | 821 | 15.1 | 13.0 | ||
| 2013-05-09T11:35 | 1896 | 813 | 15.9 | 13.6 | ||
| 2013-05-09T11:36 | 2074 | 796 | 257 | 7 | ||
| 2013-05-09T11:36 | 2144 | 789 | 14.5 | 11.8 | ||
| 2013-05-09T11:36 | 2245 | 780 | 14.4 | 9.6 | ||
| 2013-05-09T11:37 | 2281 | 777 | 14.3 | 10.3 | ||
| 2013-05-09T11:37 | 2321 | 773 | 14.5 | 6.8 | ||
| 2013-05-09T11:37 | 2428 | 763 | 251 | 8 | ||
| 2013-05-09T11:37 | 2433 | 763 | 14.2 | 5.6 | ||
| 2013-05-09T11:37 | 2534 | 754 | 13.8 | 4.9 | ||
| 2013-05-09T11:38 | 2634 | 745 | 13.4 | 2.0 | ||
| 2013-05-09T11:38 | 2782 | 732 | 12.7 | 1.7 | 261 | 8 |
| 2013-05-09T11:39 | 2983 | 715 | 11.3 | 3.1 | ||
| 2013-05-09T11:39 | 3101 | 705 | 10.8 | 1.1 | ||
| 2013-05-09T11:39 | 3138 | 701 | 10.5 | 1.3 | ||
| 2013-05-09T11:39 | 3144 | 701 | 254 | 8 | ||
| 2013-05-09T11:39 | 3156 | 700 | 10.3 | 1.9 | ||
| 2013-05-09T11:39 | 3248 | 692 | 9.6 | 1.3 | ||
| 2013-05-09T11:40 | 3328 | 686 | 8.9 | 1.6 | ||
| 2013-05-09T11:40 | 3400 | 680 | 8.4 | 1.1 | ||
| 2013-05-09T11:40 | 3446 | 676 | 8.6 | 0.1 | ||
| 2013-05-09T11:40 | 3505 | 671 | 253 | 10 | ||
| 2013-05-09T11:40 | 3569 | 666 | 7.7 | 0.0 | ||
| 2013-05-09T11:41 | 3721 | 654 | 6.7 | -0.3 | ||
| 2013-05-09T11:41 | 3849 | 644 | 244 | 12 | ||
| 2013-05-09T11:41 | 3937 | 637 | 5.6 | -4.0 | ||
| 2013-05-09T11:42 | 4054 | 628 | 4.5 | -1.9 | ||
| 2013-05-09T11:42 | 4132 | 622 | 4.0 | -3.3 | ||
| 2013-05-09T11:42 | 4169 | 619 | 248 | 12 | ||
| 2013-05-09T11:42 | 4227 | 614 | 3.4 | -4.8 | ||
| 2013-05-09T11:42 | 4323 | 607 | 2.8 | -4.6 | ||
| 2013-05-09T11:43 | 4336 | 606 | 2.8 | -4.4 | ||
| 2013-05-09T11:43 | 4369 | 604 | 2.6 | -5.3 | ||
| 2013-05-09T11:43 | 4391 | 602 | 2.5 | -5.6 | ||
| 2013-05-09T11:43 | 4495 | 594 | 250 | 14 | ||
| 2013-05-09T11:43 | 4635 | 584 | 0.4 | -8.3 | ||
| 2013-05-09T11:43 | 4657 | 583 | 0.2 | -3.4 | ||
| 2013-05-09T11:44 | 4831 | 570 | 257 | 15 | ||
| 2013-05-09T11:44 | 4837 | 570 | -0.8 | -2.8 | ||
| 2013-05-09T11:45 | 5181 | 546 | 253 | 15 | ||
| 2013-05-09T11:45 | 5269 | 540 | -3.9 | -5.7 | ||
| 2013-05-09T11:46 | 5489 | 525 | -5.1 | -6.6 | ||
| 2013-05-09T11:46 | 5506 | 524 | 257 | 17 | ||
| 2013-05-09T11:47 | 5719 | 510 | -6.2 | -8.3 | ||
| 2013-05-09T11:47 | 5858 | 501 | 260 | 19 | ||
| 2013-05-09T11:47 | 5936 | 496 | -7.3 | -10.8 | ||
| 2013-05-09T11:48 | 6122 | 484 | -8.1 | -10.9 | ||
| 2013-05-09T11:48 | 6219 | 478 | 256 | 18 | ||
| 2013-05-09T11:48 | 6288 | 474 | -8.9 | -12.0 | ||
| 2013-05-09T11:49 | 6411 | 466 | -9.7 | -12.2 | ||
| 2013-05-09T11:49 | 6593 | 455 | 253 | 17 | ||
| 2013-05-09T11:49 | 6619 | 454 | -11.3 | -14.2 | ||
| 2013-05-09T11:49 | 6723 | 448 | -12.0 | -15.5 | ||
| 2013-05-09T11:50 | 6951 | 434 | -13.5 | -14.8 | ||
| 2013-05-09T11:50 | 6983 | 433 | 260 | 14 | ||
| 2013-05-09T11:51 | 7175 | 422 | -14.5 | -16.5 | ||
| 2013-05-09T11:51 | 7360 | 412 | 261 | 13 | ||
| 2013-05-09T11:52 | 7543 | 402 | -17.5 | -18.4 | ||
| 2013-05-09T11:52 | 7609 | 398 | -17.9 | -19.3 | ||
| 2013-05-09T11:52 | 7715 | 393 | 264 | 16 | ||
| 2013-05-09T11:52 | 7825 | 387 | -19.5 | -20.3 | ||
| 2013-05-09T11:53 | 8063 | 375 | -20.7 | -22.6 | ||
| 2013-05-09T11:53 | 8069 | 374 | 261 | 18 | ||
| 2013-05-09T11:54 | 8425 | 357 | -23.4 | -25.2 | ||
| 2013-05-09T11:54 | 8437 | 356 | 273 | 17 | ||
| 2013-05-09T11:55 | 8658 | 345 | -25.4 | -27.1 | ||
| 2013-05-09T11:55 | 8810 | 338 | 275 | 15 | ||
| 2013-05-09T11:55 | 8864 | 336 | -27.3 | -28.0 | ||
| 2013-05-09T11:56 | 9068 | 326 | -28.4 | -29.6 | ||
| 2013-05-09T11:56 | 9163 | 322 | 271 | 15 | ||
| 2013-05-09T11:56 | 9270 | 317 | -30.0 | -31.3 | ||
| 2013-05-09T11:57 | 9424 | 310 | -31.0 | -32.1 | ||
| 2013-05-09T11:57 | 9520 | 306 | 270 | 18 | ||
| 2013-05-09T11:57 | 9539 | 305 | -31.8 | -34.9 | ||
| 2013-05-09T11:58 | 9878 | 291 | 273 | 19 | ||
| 2013-05-09T11:59 | 10243 | 276 | 280 | 23 | ||
| 2013-05-09T11:59 | 10323 | 273 | -38.2 | -40.7 | ||
| 2013-05-09T12:00 | 10551 | 264 | -39.7 | -42.7 | ||
| 2013-05-09T12:00 | 10590 | 263 | -40.0 | -43.4 | ||
| 2013-05-09T12:00 | 10613 | 262 | 292 | 24 | ||
| 2013-05-09T12:01 | 10959 | 249 | -42.6 | |||
| 2013-05-09T12:01 | 10989 | 248 | 290 | 28 | ||
| 2013-05-09T12:02 | 11357 | 234 | 284 | 30 | ||
| 2013-05-09T12:02 | 11365 | 234 | -44.9 | |||
| 2013-05-09T12:03 | 11745 | 221 | 281 | 31 | ||
| 2013-05-09T12:04 | 12032 | 212 | -49.0 | |||
| 2013-05-09T12:04 | 12126 | 209 | 279 | 30 | ||
| 2013-05-09T12:04 | 12258 | 204 | -49.4 | |||
| 2013-05-09T12:05 | 12479 | 198 | 281 | 33 | ||
| 2013-05-09T12:06 | 12836 | 187 | 290 | 32 | ||
| 2013-05-09T12:07 | 13193 | 177 | 295 | 31 | ||
| 2013-05-09T12:08 | 13368 | 172 | -56.1 | |||
| 2013-05-09T12:08 | 13540 | 168 | 293 | 27 | ||
| 2013-05-09T12:09 | 13910 | 158 | 292 | 23 | ||
| 2013-05-09T12:10 | 14229 | 150 | -62.0 | |||
| 2013-05-09T12:10 | 14283 | 149 | 291 | 19 | ||
| 2013-05-09T12:11 | 14709 | 139 | 290 | 18 | ||
| 2013-05-09T12:11 | 14815 | 136 | -66.5 | |||
| 2013-05-09T12:12 | 15063 | 131 | 291 | 16 | ||
| 2013-05-09T12:13 | 15278 | 126 | -68.8 | |||
| 2013-05-09T12:13 | 15451 | 123 | 292 | 17 | ||
| 2013-05-09T12:14 | 15907 | 114 | 298 | 15 | ||
| 2013-05-09T12:15 | 16357 | 105 | -74.7 | 325 | 14 | |
| 2013-05-09T12:16 | 16839 | 97 | 344 | 10 | ||
| 2013-05-09T12:16 | 16845 | 97 | -76.0 | |||
| 2013-05-09T12:17 | 17318 | 89 | 1 | 9 | ||
| 2013-05-09T12:18 | 17617 | 85 | -76.0 | |||
| 2013-05-09T12:18 | 17769 | 82 | 29 | 10 | ||
| 2013-05-09T12:19 | 18211 | 76 | 25 | 7 | ||
| 2013-05-09T12:20 | 18441 | 73 | -78.2 | |||
| 2013-05-09T12:20 | 18648 | 71 | 25 | 8 | ||
| 2013-05-09T12:20 | 18804 | 69 | -77.7 | |||
| 2013-05-09T12:21 | 18992 | 67 | 34 | 11 | ||
| 2013-05-09T12:21 | 19018 | 66 | -73.3 | |||
| 2013-05-09T23:31 | 8 | 1009 | 25.6 | 24.0 | 170 | 6 |
| 2013-05-09T23:31 | 17 | 1008 | 24.7 | 24.4 | ||
| 2013-05-09T23:32 | 225 | 985 | 23.4 | 22.7 | ||
| 2013-05-09T23:32 | 319 | 974 | 167 | 8 | ||
| 2013-05-09T23:33 | 606 | 943 | 21.1 | 20.3 | ||
| 2013-05-09T23:33 | 662 | 937 | 180 | 10 | ||
| 2013-05-09T23:33 | 778 | 924 | 20.5 | 19.5 | ||
| 2013-05-09T23:34 | 1009 | 900 | 191 | 7 | ||
| 2013-05-09T23:34 | 1026 | 898 | 19.9 | 17.5 | ||
| 2013-05-09T23:35 | 1267 | 873 | 18.2 | 17.2 | ||
| 2013-05-09T23:35 | 1327 | 867 | 17.8 | 16.8 | ||
| 2013-05-09T23:35 | 1344 | 866 | 192 | 6 | ||
| 2013-05-09T23:35 | 1471 | 853 | 16.9 | 16.7 | ||
| 2013-05-09T23:35 | 1476 | 852 | 16.9 | 16.7 | ||
| 2013-05-09T23:36 | 1676 | 833 | 223 | 6 | ||
| 2013-05-09T23:37 | 1860 | 815 | 14.8 | 14.3 | ||
| 2013-05-09T23:37 | 2007 | 801 | 205 | 6 | ||
| 2013-05-09T23:38 | 2176 | 785 | 13.6 | 12.7 | ||
| 2013-05-09T23:38 | 2203 | 783 | 13.9 | 11.1 | ||
| 2013-05-09T23:38 | 2248 | 778 | 14.0 | 9.0 | ||
| 2013-05-09T23:38 | 2339 | 770 | 237 | 10 | ||
| 2013-05-09T23:38 | 2367 | 768 | 13.8 | 7.8 | ||
| 2013-05-09T23:38 | 2412 | 763 | 13.5 | 9.2 | ||
| 2013-05-09T23:39 | 2590 | 748 | 12.7 | 8.2 | ||
| 2013-05-09T23:39 | 2618 | 745 | 12.7 | 6.5 | ||
| 2013-05-09T23:39 | 2680 | 740 | 244 | 11 | ||
| 2013-05-09T23:39 | 2737 | 735 | 12.6 | 3.0 | ||
| 2013-05-09T23:39 | 2833 | 726 | 11.9 | 2.9 | ||
| 2013-05-09T23:40 | 2932 | 718 | 11.0 | 2.3 | ||
| 2013-05-09T23:40 | 3013 | 711 | 249 | 10 | ||
| 2013-05-09T23:40 | 3056 | 707 | 9.8 | 4.0 | ||
| 2013-05-09T23:41 | 3183 | 696 | 8.6 | 3.2 | ||
| 2013-05-09T23:41 | 3194 | 695 | 8.6 | 3.6 | ||
| 2013-05-09T23:41 | 3309 | 686 | 7.8 | 4.0 | ||
| 2013-05-09T23:41 | 3357 | 682 | 244 | 10 | ||
| 2013-05-09T23:42 | 3636 | 659 | 5.1 | -1.1 | ||
| 2013-05-09T23:42 | 3719 | 652 | 245 | 12 | ||
| 2013-05-09T23:42 | 3725 | 652 | 4.2 | -1.6 | ||
| 2013-05-09T23:42 | 3749 | 650 | 4.0 | -0.4 | ||
| 2013-05-09T23:42 | 3773 | 648 | 3.8 | 1.8 | ||
| 2013-05-09T23:42 | 3866 | 641 | 3.0 | 1.8 | ||
| 2013-05-09T23:42 | 3879 | 640 | 2.8 | 1.8 | ||
| 2013-05-09T23:42 | 3890 | 639 | 2.7 | 2.0 | ||
| 2013-05-09T23:43 | 3897 | 638 | 2.8 | 2.2 | ||
| 2013-05-09T23:43 | 3913 | 637 | 2.7 | 2.4 | ||
| 2013-05-09T23:43 | 3931 | 636 | 2.7 | 2.4 | ||
| 2013-05-09T23:43 | 3955 | 634 | 2.7 | 2.6 | ||
| 2013-05-09T23:43 | 3967 | 633 | 2.6 | 2.5 | ||
| 2013-05-09T23:43 | 3985 | 631 | 2.6 | 2.5 | ||
| 2013-05-09T23:43 | 4070 | 625 | 248 | 11 | ||
| 2013-05-09T23:43 | 4203 | 615 | 1.0 | 1.0 | ||
| 2013-05-09T23:44 | 4364 | 602 | 0.2 | -0.8 | ||
| 2013-05-09T23:44 | 4408 | 599 | 0.0 | -2.5 | 240 | 13 |
| 2013-05-09T23:45 | 4577 | 587 | -1.2 | -2.9 | ||
| 2013-05-09T23:45 | 4622 | 583 | -1.6 | -2.3 | ||
| 2013-05-09T23:45 | 4735 | 575 | 244 | 17 | ||
| 2013-05-09T23:45 | 4772 | 572 | -2.3 | -2.7 | ||
| 2013-05-09T23:45 | 4883 | 564 | -2.5 | -5.8 | ||
| 2013-05-09T23:46 | 4935 | 561 | -2.6 | -6.4 | ||
| 2013-05-09T23:46 | 4973 | 558 | -2.6 | -9.1 | ||
| 2013-05-09T23:46 | 5062 | 552 | 254 | 19 | ||
| 2013-05-09T23:46 | 5073 | 551 | -3.2 | -9.0 | ||
| 2013-05-09T23:46 | 5196 | 543 | -4.0 | -8.5 | ||
| 2013-05-09T23:47 | 5331 | 533 | -4.1 | -11.1 | ||
| 2013-05-09T23:47 | 5426 | 527 | 254 | 18 | ||
| 2013-05-09T23:47 | 5446 | 526 | -4.4 | -13.5 | ||
| 2013-05-09T23:47 | 5472 | 524 | -4.4 | -14.6 | ||
| 2013-05-09T23:47 | 5523 | 521 | -4.8 | -12.2 | ||
| 2013-05-09T23:47 | 5588 | 516 | -5.4 | -10.8 | ||
| 2013-05-09T23:47 | 5608 | 515 | -5.5 | -10.7 | ||
| 2013-05-09T23:48 | 5641 | 513 | -5.5 | -14.8 | ||
| 2013-05-09T23:48 | 5740 | 506 | -6.1 | -12.8 | ||
| 2013-05-09T23:48 | 5819 | 501 | 260 | 16 | ||
| 2013-05-09T23:48 | 5923 | 495 | -7.3 | -12.9 | ||
| 2013-05-09T23:49 | 6120 | 482 | -9.2 | -13.3 | ||
| 2013-05-09T23:49 | 6184 | 478 | -9.7 | -11.5 | ||
| 2013-05-09T23:49 | 6190 | 478 | 263 | 16 | ||
| 2013-05-09T23:50 | 6453 | 462 | -11.7 | -12.2 | ||
| 2013-05-09T23:50 | 6548 | 456 | 266 | 19 | ||
| 2013-05-09T23:50 | 6646 | 450 | -12.7 | -13.3 | ||
| 2013-05-09T23:50 | 6716 | 446 | -12.7 | -13.3 | ||
| 2013-05-09T23:51 | 6855 | 438 | -13.6 | -14.9 | ||
| 2013-05-09T23:51 | 6895 | 436 | 274 | 20 | ||
| 2013-05-09T23:51 | 6966 | 432 | -13.8 | -16.7 | ||
| 2013-05-09T23:51 | 7049 | 427 | -13.9 | -19.1 | ||
| 2013-05-09T23:52 | 7133 | 422 | -14.2 | -17.2 | ||
| 2013-05-09T23:52 | 7223 | 417 | -14.7 | -19.5 | ||
| 2013-05-09T23:52 | 7252 | 416 | 270 | 19 | ||
| 2013-05-09T23:53 | 7518 | 401 | -16.6 | -26.5 | ||
| 2013-05-09T23:53 | 7599 | 397 | 256 | 19 | ||
| 2013-05-09T23:54 | 7952 | 379 | -20.1 | -27.4 | ||
| 2013-05-09T23:54 | 7964 | 378 | 262 | 19 | ||
| 2013-05-09T23:55 | 8190 | 367 | -22.3 | -28.7 | ||
| 2013-05-09T23:55 | 8224 | 365 | -22.3 | -28.3 | ||
| 2013-05-09T23:55 | 8354 | 359 | 260 | 21 | ||
| 2013-05-09T23:55 | 8378 | 357 | -23.5 | -28.7 | ||
| 2013-05-09T23:55 | 8465 | 353 | -24.0 | -28.6 | ||
| 2013-05-09T23:56 | 8631 | 345 | -25.1 | -30.8 | ||
| 2013-05-09T23:56 | 8750 | 340 | 269 | 22 | ||
| 2013-05-09T23:56 | 8808 | 337 | -26.4 | -29.9 | ||
| 2013-05-09T23:56 | 8924 | 332 | -27.3 | -30.5 | ||
| 2013-05-09T23:57 | 9124 | 322 | 272 | 21 | ||
| 2013-05-09T23:57 | 9203 | 319 | -28.8 | -31.2 | ||
| 2013-05-09T23:57 | 9282 | 315 | -28.5 | -30.6 | ||
| 2013-05-09T23:57 | 9304 | 314 | -28.1 | -30.0 | ||
| 2013-05-09T23:58 | 9484 | 307 | 273 | 25 | ||
| 2013-05-09T23:58 | 9543 | 304 | -29.6 | -32.3 | ||
| 2013-05-09T23:59 | 9793 | 294 | 272 | 25 | ||
| 2013-05-10T00:00 | 10109 | 281 | 276 | 25 | ||
| 2013-05-10T00:01 | 10463 | 267 | 277 | 25 | ||
| 2013-05-10T00:01 | 10635 | 260 | -38.1 | -41.7 | ||
| 2013-05-10T00:02 | 10836 | 253 | 276 | 27 | ||
| 2013-05-10T00:02 | 10863 | 252 | -40.0 | -43.8 | ||
| 2013-05-10T00:03 | 11251 | 238 | 279 | 28 | ||
| 2013-05-10T00:04 | 11645 | 224 | 285 | 29 | ||
| 2013-05-10T00:05 | 12017 | 212 | 288 | 26 | ||
| 2013-05-10T00:05 | 12088 | 210 | -50.1 | |||
| 2013-05-10T00:06 | 12348 | 201 | 293 | 29 | ||
| 2013-05-10T00:07 | 12684 | 191 | 287 | 32 | ||
| 2013-05-10T00:07 | 12758 | 189 | -53.9 | |||
| 2013-05-10T00:08 | 13021 | 181 | 274 | 32 | ||
| 2013-05-10T00:09 | 13376 | 171 | -57.9 | |||
| 2013-05-10T00:09 | 13394 | 171 | 268 | 34 | ||
| 2013-05-10T00:10 | 13773 | 161 | -59.7 | |||
| 2013-05-10T00:10 | 13816 | 160 | 277 | 32 | ||
| 2013-05-10T00:11 | 14188 | 151 | 277 | 30 | ||
| 2013-05-10T00:12 | 14485 | 143 | -64.3 | |||
| 2013-05-10T00:12 | 14644 | 140 | 278 | 23 | ||
| 2013-05-10T00:13 | 15065 | 130 | 294 | 14 | ||
| 2013-05-10T00:14 | 15448 | 122 | 285 | 15 | ||
| 2013-05-10T00:14 | 15516 | 121 | -71.1 | |||
| 2013-05-10T00:15 | 15786 | 115 | 283 | 15 | ||
| 2013-05-10T00:16 | 15982 | 112 | -73.6 | |||
| 2013-05-10T00:16 | 16109 | 109 | 281 | 11 | ||
| 2013-05-10T00:16 | 16173 | 108 | -73.2 | |||
| 2013-05-10T00:17 | 16365 | 105 | 281 | 11 | ||
| 2013-05-10T00:18 | 16650 | 100 | 295 | 13 | ||
| 2013-05-10T00:19 | 16870 | 96 | -76.2 | |||
| 2013-05-10T00:19 | 16985 | 94 | 305 | 12 | ||
| 2013-05-10T00:20 | 17337 | 88 | -78.3 | |||
| 2013-05-10T00:20 | 17376 | 88 | 325 | 10 | ||
| 2013-05-10T00:21 | 17642 | 84 | -78.7 | |||
| 2013-05-10T00:21 | 17842 | 81 | 357 | 9 | ||
| 2013-05-10T00:22 | 18263 | 75 | 51 | 5 | ||
| 2013-05-10T00:22 | 18414 | 73 | -81.8 | |||
| 2013-05-10T00:23 | 18634 | 70 | 49 | 10 | ||
| 2013-05-10T00:24 | 18815 | 68 | -78.9 | |||
| 2013-05-10T00:24 | 18994 | 66 | 67 | 13 | ||
| 2013-05-10T00:25 | 19226 | 63 | -74.8 | |||
| 2013-05-10T00:25 | 19328 | 62 | 72 | 9 | ||
| 2013-05-10T00:26 | 19618 | 59 | 60 | 9 | ||
| 2013-05-10T00:27 | 19822 | 57 | -70.1 | |||
| 2013-05-10T00:27 | 19969 | 56 | 50 | 4 | ||
| 2013-05-10T00:28 | 20346 | 52 | 19 | 7 | ||
| 2013-05-10T00:29 | 20640 | 50 | -66.9 | |||
| 2013-05-10T00:29 | 20701 | 49 | 29 | 10 | ||
| 2013-05-10T00:30 | 21017 | 47 | 55 | 8 | ||
| 2013-05-10T00:31 | 21298 | 45 | -61.9 | |||
| 2013-05-10T00:31 | 21340 | 45 | 43 | 7 | ||
| 2013-05-10T00:32 | 21697 | 42 | 92 | 6 | ||
| 2013-05-10T00:32 | 21771 | 42 | -62.0 | |||
| 2013-05-10T00:33 | 22092 | 39 | 114 | 5 | ||
| 2013-05-10T00:34 | 22284 | 38 | -61.4 | |||
| 2013-05-10T00:34 | 22449 | 37 | 87 | 8 | ||
| 2013-05-10T00:35 | 22831 | 35 | 81 | 10 | ||
| 2013-05-10T00:36 | 23089 | 34 | -56.1 | |||
| 2013-05-10T00:36 | 23242 | 33 | 106 | 8 | ||
| 2013-05-10T00:37 | 23661 | 31 | 105 | 9 | ||
| 2013-05-10T00:38 | 23849 | 30 | -57.5 | |||
| 2013-05-10T00:38 | 23999 | 29 | 115 | 7 | ||
| 2013-05-10T00:39 | 24335 | 28 | 114 | 9 | ||
| 2013-05-10T00:40 | 24715 | 26 | 117 | 5 | ||
| 2013-05-10T00:41 | 24992 | 25 | -54.4 | |||
| 2013-05-10T00:41 | 25148 | 24 | 153 | 2 | ||
| 2013-05-10T00:42 | 25584 | 23 | 96 | 3 | ||
| 2013-05-10T00:43 | 25992 | 21 | 71 | 6 | ||
| 2013-05-10T00:44 | 26175 | 21 | -54.4 | |||
| 2013-05-10T00:44 | 26206 | 21 | -53.5 | |||
| 2013-05-10T11:30 | 8 | 1006 | 25.5 | 24.8 | 170 | 6 |
| 2013-05-10T11:30 | 87 | 997 | 25.1 | 24.9 | ||
| 2013-05-10T11:31 | 198 | 984 | 25.1 | 24.1 | ||
| 2013-05-10T11:31 | 325 | 970 | 197 | 11 | ||
| 2013-05-10T11:31 | 371 | 965 | 25.0 | 21.9 | ||
| 2013-05-10T11:32 | 701 | 930 | 207 | 11 | ||
| 2013-05-10T11:32 | 729 | 927 | 22.2 | 21.0 | ||
| 2013-05-10T11:32 | 806 | 918 | 22.0 | 20.1 | ||
| 2013-05-10T11:32 | 851 | 914 | 21.6 | 20.2 | ||
| 2013-05-10T11:33 | 991 | 899 | 20.4 | 19.6 | ||
| 2013-05-10T11:33 | 1018 | 896 | 211 | 10 | ||
| 2013-05-10T11:34 | 1358 | 862 | 18.2 | 17.2 | ||
| 2013-05-10T11:34 | 1364 | 861 | 210 | 10 | ||
| 2013-05-10T11:35 | 1728 | 825 | 216 | 12 | ||
| 2013-05-10T11:35 | 1771 | 821 | 16.2 | 14.4 | ||
| 2013-05-10T11:35 | 1830 | 815 | 16.0 | 13.7 | ||
| 2013-05-10T11:36 | 2076 | 792 | 227 | 13 | ||
| 2013-05-10T11:36 | 2145 | 786 | 15.6 | 10.8 | ||
| 2013-05-10T11:37 | 2301 | 772 | 15.7 | 9.1 | ||
| 2013-05-10T11:37 | 2360 | 766 | 16.3 | 7.5 | ||
| 2013-05-10T11:37 | 2426 | 760 | 240 | 8 | ||
| 2013-05-10T11:37 | 2556 | 749 | 15.0 | 6.0 | ||
| 2013-05-10T11:38 | 2803 | 727 | 250 | 9 | ||
| 2013-05-10T11:38 | 2836 | 724 | 12.5 | 5.9 | ||
| 2013-05-10T11:39 | 3028 | 708 | 11.0 | 5.1 | ||
| 2013-05-10T11:39 | 3183 | 695 | 253 | 11 | ||
| 2013-05-10T11:39 | 3336 | 682 | 8.7 | 4.3 | ||
| 2013-05-10T11:40 | 3550 | 665 | 261 | 14 | ||
| 2013-05-10T11:40 | 3592 | 661 | 7.4 | 3.1 | ||
| 2013-05-10T11:41 | 3914 | 636 | 261 | 13 | ||
| 2013-05-10T11:41 | 4058 | 625 | 3.9 | 1.4 | ||
| 2013-05-10T11:42 | 4278 | 608 | 264 | 14 | ||
| 2013-05-10T11:42 | 4309 | 606 | 2.1 | 0.2 | ||
| 2013-05-10T11:42 | 4365 | 602 | 2.1 | -0.2 | ||
| 2013-05-10T11:43 | 4575 | 586 | 0.6 | -1.5 | ||
| 2013-05-10T11:43 | 4632 | 582 | 0.4 | -2.1 | ||
| 2013-05-10T11:43 | 4640 | 581 | 267 | 15 | ||
| 2013-05-10T11:43 | 4676 | 579 | 0.3 | -4.0 | ||
| 2013-05-10T11:43 | 4689 | 578 | 0.2 | -4.3 | ||
| 2013-05-10T11:43 | 4750 | 574 | -0.3 | -3.3 | ||
| 2013-05-10T11:44 | 4939 | 560 | -1.9 | -4.2 | ||
| 2013-05-10T11:44 | 5015 | 555 | 262 | 16 | ||
| 2013-05-10T11:44 | 5022 | 554 | -2.6 | -4.0 | ||
| 2013-05-10T11:44 | 5133 | 547 | -3.5 | -3.9 | ||
| 2013-05-10T11:45 | 5408 | 528 | 255 | 17 | ||
| 2013-05-10T11:46 | 5721 | 507 | -7.0 | -7.5 | ||
| 2013-05-10T11:46 | 5761 | 505 | 254 | 23 | ||
| 2013-05-10T11:46 | 5823 | 501 | -7.9 | -9.7 | ||
| 2013-05-10T11:46 | 5914 | 495 | -8.5 | -10.7 | ||
| 2013-05-10T11:47 | 6056 | 486 | -8.7 | -9.6 | ||
| 2013-05-10T11:47 | 6101 | 483 | 255 | 21 | ||
| 2013-05-10T11:47 | 6143 | 480 | -9.4 | -12.1 | ||
| 2013-05-10T11:48 | 6379 | 466 | -10.0 | -10.5 | ||
| 2013-05-10T11:48 | 6467 | 461 | 261 | 19 | ||
| 2013-05-10T11:48 | 6599 | 453 | -11.0 | -12.2 | ||
| 2013-05-10T11:49 | 6830 | 439 | -11.2 | -13.5 | ||
| 2013-05-10T11:49 | 6849 | 438 | 267 | 17 | ||
| 2013-05-10T11:49 | 7039 | 428 | -12.0 | -15.9 | ||
| 2013-05-10T11:50 | 7236 | 417 | 270 | 18 | ||
| 2013-05-10T11:50 | 7249 | 416 | -13.2 | -18.6 | ||
| 2013-05-10T11:50 | 7343 | 411 | -13.7 | -19.4 | ||
| 2013-05-10T11:50 | 7393 | 408 | -14.0 | -22.0 | ||
| 2013-05-10T11:51 | 7438 | 406 | -14.1 | -21.4 | ||
| 2013-05-10T11:51 | 7570 | 399 | -14.5 | -24.3 | ||
| 2013-05-10T11:51 | 7614 | 397 | 269 | 15 | ||
| 2013-05-10T11:51 | 7671 | 394 | -14.9 | -25.5 | ||
| 2013-05-10T11:51 | 7715 | 391 | -14.9 | -26.7 | ||
| 2013-05-10T11:52 | 7991 | 377 | 272 | 14 | ||
| 2013-05-10T11:52 | 8122 | 371 | -18.4 | -30.1 | ||
| 2013-05-10T11:53 | 8369 | 359 | 275 | 15 | ||
| 2013-05-10T11:53 | 8414 | 356 | -20.6 | -30.4 | ||
| 2013-05-10T11:54 | 8748 | 341 | 276 | 16 | ||
| 2013-05-10T11:54 | 8754 | 340 | -23.1 | -32.2 | ||
| 2013-05-10T11:54 | 8839 | 336 | -23.4 | -33.0 | ||
| 2013-05-10T11:55 | 9121 | 324 | 272 | 14 | ||
| 2013-05-10T11:55 | 9288 | 316 | -27.7 | -34.4 | ||
| 2013-05-10T11:56 | 9509 | 307 | 279 | 18 | ||
| 2013-05-10T11:56 | 9649 | 301 | -30.7 | -34.0 | ||
| 2013-05-10T11:57 | 9754 | 296 | -31.1 | -35.5 | ||
| 2013-05-10T11:57 | 9899 | 290 | 269 | 21 | ||
| 2013-05-10T11:57 | 10031 | 285 | -33.3 | -38.3 | ||
| 2013-05-10T11:58 | 10281 | 275 | 269 | 22 | ||
| 2013-05-10T11:59 | 10499 | 266 | -37.2 | -44.0 | ||
| 2013-05-10T11:59 | 10661 | 260 | 273 | 24 | ||
| 2013-05-10T11:59 | 10824 | 254 | -40.0 | -45.0 | ||
| 2013-05-10T12:00 | 11042 | 246 | 276 | 26 | ||
| 2013-05-10T12:01 | 11442 | 232 | 282 | 26 | ||
| 2013-05-10T12:02 | 11849 | 218 | 286 | 26 | ||
| 2013-05-10T12:03 | 12244 | 205 | 289 | 23 | ||
| 2013-05-10T12:03 | 12336 | 202 | -52.5 | |||
| 2013-05-10T12:04 | 12617 | 194 | 293 | 29 | ||
| 2013-05-10T12:04 | 12731 | 190 | -52.6 | |||
| 2013-05-10T12:05 | 12962 | 184 | 296 | 28 | ||
| 2013-05-10T12:06 | 13286 | 174 | -56.2 | |||
| 2013-05-10T12:06 | 13330 | 173 | 288 | 23 | ||
| 2013-05-10T12:07 | 13789 | 161 | 279 | 22 | ||
| 2013-05-10T12:08 | 14268 | 149 | 284 | 23 | ||
| 2013-05-10T12:08 | 14318 | 148 | -64.2 | |||
| 2013-05-10T12:09 | 14575 | 142 | -65.6 | |||
| 2013-05-10T12:09 | 14705 | 139 | 287 | 23 | ||
| 2013-05-10T12:10 | 15128 | 129 | 301 | 22 | ||
| 2013-05-10T12:10 | 15170 | 128 | -68.1 | |||
| 2013-05-10T12:11 | 15617 | 119 | 319 | 19 | ||
| 2013-05-10T12:12 | 15849 | 115 | -73.5 | |||
| 2013-05-10T23:30 | 8 | 1005 | 25.8 | 24.9 | 250 | 1 |
| 2013-05-10T23:30 | 17 | 1004 | 24.9 | 24.7 | ||
| 2013-05-10T23:31 | 240 | 979 | 23.7 | 23.2 | ||
| 2013-05-10T23:31 | 306 | 971 | 307 | 2 | ||
| 2013-05-10T23:32 | 548 | 945 | 22.6 | 21.6 | ||
| 2013-05-10T23:32 | 646 | 935 | 345 | 6 | ||
| 2013-05-10T23:32 | 656 | 933 | 21.9 | 20.9 | ||
| 2013-05-10T23:32 | 684 | 930 | 21.9 | 20.9 | ||
| 2013-05-10T23:33 | 965 | 901 | 20.2 | 19.4 | ||
| 2013-05-10T23:33 | 987 | 899 | 10 | 6 | ||
| 2013-05-10T23:34 | 1230 | 874 | 18.1 | 17.3 | ||
| 2013-05-10T23:34 | 1317 | 865 | 15 | 1 | ||
| 2013-05-10T23:34 | 1344 | 862 | 18.8 | 17.1 | ||
| 2013-05-10T23:35 | 1514 | 845 | 17.5 | 16.2 | ||
| 2013-05-10T23:35 | 1567 | 840 | 17.2 | 15.7 | ||
| 2013-05-10T23:35 | 1621 | 835 | 17.2 | 15.4 | ||
| 2013-05-10T23:35 | 1642 | 833 | 275 | 3 | ||
| 2013-05-10T23:36 | 1955 | 803 | 248 | 2 | ||
| 2013-05-10T23:37 | 2141 | 785 | 12.8 | 12.5 | ||
| 2013-05-10T23:37 | 2159 | 784 | 12.7 | 11.8 | ||
| 2013-05-10T23:37 | 2175 | 782 | 12.8 | 11.7 | ||
| 2013-05-10T23:37 | 2208 | 779 | 13.4 | 12.0 | ||
| 2013-05-10T23:37 | 2243 | 776 | 13.1 | 11.5 | ||
| 2013-05-10T23:37 | 2254 | 775 | 13.5 | 11.6 | ||
| 2013-05-10T23:37 | 2277 | 773 | 13.5 | 10.9 | ||
| 2013-05-10T23:37 | 2288 | 772 | 13.7 | 10.5 | 230 | 7 |
| 2013-05-10T23:37 | 2405 | 761 | 13.7 | 8.5 | ||
| 2013-05-10T23:38 | 2639 | 740 | 224 | 13 | ||
| 2013-05-10T23:39 | 2928 | 715 | 10.3 | 6.4 | ||
| 2013-05-10T23:39 | 2991 | 710 | 228 | 17 | ||
| 2013-05-10T23:39 | 3036 | 706 | 10.3 | 6.1 | ||
| 2013-05-10T23:40 | 3305 | 683 | 8.7 | 4.1 | ||
| 2013-05-10T23:40 | 3373 | 678 | 233 | 20 | ||
| 2013-05-10T23:41 | 3643 | 656 | 6.3 | 2.4 | ||
| 2013-05-10T23:41 | 3749 | 648 | 236 | 21 | ||
| 2013-05-10T23:41 | 3843 | 640 | 4.8 | 2.8 | ||
| 2013-05-10T23:42 | 3993 | 628 | 3.9 | 1.9 | ||
| 2013-05-10T23:42 | 4112 | 619 | 242 | 20 | ||
| 2013-05-10T23:43 | 4358 | 601 | 1.3 | -0.3 | ||
| 2013-05-10T23:43 | 4376 | 599 | 1.2 | -0.1 | ||
| 2013-05-10T23:43 | 4404 | 597 | 0.9 | -0.3 | ||
| 2013-05-10T23:43 | 4461 | 593 | 248 | 20 | ||
| 2013-05-10T23:43 | 4511 | 589 | 0.3 | 0.3 | ||
| 2013-05-10T23:44 | 4669 | 578 | -0.5 | -1.3 | ||
| 2013-05-10T23:44 | 4786 | 570 | 250 | 23 | ||
| 2013-05-10T23:44 | 4871 | 564 | -1.7 | -2.8 | ||
| 2013-05-10T23:45 | 5106 | 547 | 244 | 24 | ||
| 2013-05-10T23:45 | 5174 | 542 | -4.2 | -5.0 | ||
| 2013-05-10T23:45 | 5245 | 538 | -3.4 | -5.6 | ||
| 2013-05-10T23:46 | 5409 | 527 | 247 | 23 | ||
| 2013-05-10T23:46 | 5484 | 522 | -4.2 | -6.5 | ||
| 2013-05-10T23:47 | 5645 | 511 | -5.2 | -6.9 | ||
| 2013-05-10T23:47 | 5719 | 506 | 256 | 22 | ||
| 2013-05-10T23:48 | 5951 | 491 | -6.8 | -9.2 | ||
| 2013-05-10T23:48 | 6045 | 486 | 262 | 19 | ||
| 2013-05-10T23:49 | 6276 | 471 | -8.9 | -10.7 | ||
| 2013-05-10T23:49 | 6377 | 465 | -9.6 | -10.9 | ||
| 2013-05-10T23:49 | 6402 | 464 | 265 | 18 | ||
| 2013-05-10T23:49 | 6421 | 463 | -8.5 | -11.3 | ||
| 2013-05-10T23:50 | 6662 | 448 | -10.0 | -13.9 | ||
| 2013-05-10T23:50 | 6766 | 442 | 265 | 17 | ||
| 2013-05-10T23:50 | 6783 | 441 | -10.6 | -14.7 | ||
| 2013-05-10T23:50 | 6931 | 433 | -11.4 | -16.5 | ||
| 2013-05-10T23:51 | 7119 | 423 | -12.8 | -16.1 | 262 | 17 |
| 2013-05-10T23:51 | 7257 | 415 | -13.2 | -17.9 | ||
| 2013-05-10T23:52 | 7488 | 403 | -14.2 | -19.3 | 261 | 17 |
| 2013-05-10T23:53 | 7867 | 383 | 266 | 19 | ||
| 2013-05-10T23:53 | 7893 | 382 | -16.7 | -22.5 | ||
| 2013-05-10T23:54 | 8256 | 363 | 268 | 22 | ||
| 2013-05-10T23:54 | 8408 | 356 | -20.9 | -24.9 | ||
| 2013-05-10T23:55 | 8654 | 344 | 263 | 21 | ||
| 2013-05-10T23:55 | 8844 | 336 | -23.8 | -28.4 | ||
| 2013-05-10T23:56 | 9042 | 327 | 254 | 18 | ||
| 2013-05-10T23:56 | 9080 | 325 | -24.8 | -31.1 | ||
| 2013-05-10T23:57 | 9420 | 310 | -27.3 | -33.4 | ||
| 2013-05-10T23:57 | 9427 | 310 | 254 | 22 | ||
| 2013-05-10T23:58 | 9652 | 300 | -29.6 | -37.3 | ||
| 2013-05-10T23:58 | 9810 | 293 | 255 | 23 | ||
| 2013-05-10T23:59 | 10043 | 284 | -33.4 | -39.4 | ||
| 2013-05-10T23:59 | 10203 | 278 | 261 | 22 | ||
| 2013-05-10T23:59 | 10349 | 272 | -36.1 | -40.5 | ||
| 2013-05-11T00:00 | 10577 | 263 | 270 | 22 | ||
| 2013-05-11T00:01 | 10808 | 254 | -39.7 | -47.1 | ||
| 2013-05-11T00:01 | 10859 | 252 | -40.0 | -47.4 | ||
| 2013-05-11T00:01 | 10927 | 250 | 266 | 25 | ||
| 2013-05-11T00:02 | 11292 | 237 | 260 | 27 | ||
| 2013-05-11T00:02 | 11352 | 235 | -43.6 | |||
| 2013-05-11T00:03 | 11679 | 223 | 261 | 29 | ||
| 2013-05-11T00:04 | 12039 | 212 | 260 | 30 | ||
| 2013-05-11T00:05 | 12290 | 204 | -51.8 | |||
| 2013-05-11T00:05 | 12396 | 200 | 262 | 27 | ||
| 2013-05-11T00:06 | 12722 | 190 | 269 | 30 | ||
| 2013-05-11T00:06 | 12763 | 189 | -54.2 | |||
| 2013-05-11T00:07 | 13067 | 180 | 278 | 28 | ||
| 2013-05-11T00:08 | 13407 | 171 | 281 | 28 | ||
| 2013-05-11T00:09 | 13606 | 166 | -58.4 | |||
| 2013-05-11T00:09 | 13713 | 163 | 277 | 28 | ||
| 2013-05-11T00:10 | 14043 | 154 | 278 | 25 | ||
| 2013-05-11T00:11 | 14380 | 146 | 277 | 21 | ||
| 2013-05-11T00:11 | 14502 | 143 | -64.4 | |||
| 2013-05-11T00:12 | 14758 | 137 | 279 | 22 | ||
| 2013-05-11T00:13 | 15166 | 128 | 279 | 16 | ||
| 2013-05-11T00:14 | 15617 | 119 | 277 | 14 | ||
| 2013-05-11T00:15 | 16035 | 111 | -74.7 | |||
| 2013-05-11T00:15 | 16077 | 110 | 258 | 12 | ||
| 2013-05-11T00:16 | 16428 | 104 | -77.3 | |||
| 2013-05-11T00:16 | 16529 | 102 | 282 | 13 | ||
| 2013-05-11T00:16 | 16700 | 99 | -77.9 | |||
| 2013-05-11T00:17 | 16836 | 96 | -75.9 | |||
| 2013-05-11T00:17 | 16872 | 96 | 299 | 13 | ||
| 2013-05-11T00:17 | 16896 | 95 | -75.6 | |||
| 2013-05-11T11:31 | 8 | 1007 | 24.0 | 22.3 | 30 | 2 |
| 2013-05-11T11:32 | 133 | 993 | 23.1 | 20.6 | ||
| 2013-05-11T11:32 | 256 | 979 | 22.6 | 20.3 | ||
| 2013-05-11T11:32 | 312 | 973 | 23 | 4 | ||
| 2013-05-11T11:33 | 491 | 953 | 21.0 | 19.5 | ||
| 2013-05-11T11:33 | 575 | 944 | 20.9 | 19.0 | ||
| 2013-05-11T11:33 | 621 | 939 | 349 | 5 | ||
| 2013-05-11T11:33 | 724 | 928 | 19.9 | 18.6 | ||
| 2013-05-11T11:34 | 830 | 916 | 21.0 | 17.8 | ||
| 2013-05-11T11:34 | 953 | 903 | 310 | 3 | ||
| 2013-05-11T11:35 | 1261 | 872 | 18.0 | 15.8 | ||
| 2013-05-11T11:35 | 1300 | 868 | 324 | 5 | ||
| 2013-05-11T11:36 | 1542 | 844 | 16.4 | 14.6 | ||
| 2013-05-11T11:36 | 1577 | 840 | 16.7 | 14.5 | ||
| 2013-05-11T11:36 | 1646 | 833 | 322 | 5 | ||
| 2013-05-11T11:37 | 1885 | 810 | 15.0 | 12.9 | ||
| 2013-05-11T11:37 | 1987 | 801 | 0 | 0 | ||
| 2013-05-11T11:37 | 2054 | 794 | 14.5 | 13.5 | ||
| 2013-05-11T11:38 | 2315 | 770 | 246 | 3 | ||
| 2013-05-11T11:38 | 2444 | 758 | 12.3 | 11.2 | ||
| 2013-05-11T11:39 | 2640 | 741 | 254 | 4 | ||
| 2013-05-11T11:40 | 2986 | 711 | 245 | 8 | ||
| 2013-05-11T11:40 | 3035 | 707 | 8.9 | 8.9 | ||
| 2013-05-11T11:41 | 3341 | 681 | 258 | 10 | ||
| 2013-05-11T11:41 | 3363 | 679 | 7.3 | 7.0 | ||
| 2013-05-11T11:42 | 3555 | 664 | 6.5 | 5.8 | ||
| 2013-05-11T11:42 | 3700 | 652 | 271 | 13 | ||
| 2013-05-11T11:42 | 3822 | 642 | 4.5 | 4.2 | ||
| 2013-05-11T11:43 | 4048 | 625 | 263 | 15 | ||
| 2013-05-11T11:43 | 4060 | 624 | 3.5 | 3.5 | ||
| 2013-05-11T11:44 | 4387 | 599 | 1.9 | 1.9 | ||
| 2013-05-11T11:44 | 4411 | 597 | 261 | 15 | ||
| 2013-05-11T11:44 | 4474 | 593 | 2.0 | 1.3 | ||
| 2013-05-11T11:45 | 4649 | 580 | 1.2 | -1.9 | ||
| 2013-05-11T11:45 | 4788 | 570 | 263 | 17 | ||
| 2013-05-11T11:45 | 4861 | 565 | 0.4 | -1.8 | ||
| 2013-05-11T11:45 | 4928 | 560 | -0.3 | -3.2 | ||
| 2013-05-11T11:45 | 4965 | 558 | -0.6 | -3.5 | ||
| 2013-05-11T11:46 | 4977 | 557 | -0.7 | -3.6 | ||
| 2013-05-11T11:46 | 4988 | 556 | -0.7 | -3.4 | ||
| 2013-05-11T11:46 | 5007 | 555 | -0.7 | -3.4 | ||
| 2013-05-11T11:46 | 5148 | 545 | 257 | 15 | ||
| 2013-05-11T11:46 | 5154 | 545 | -1.6 | -3.5 | ||
| 2013-05-11T11:46 | 5249 | 538 | -2.1 | -3.8 | ||
| 2013-05-11T11:47 | 5514 | 521 | 253 | 16 | ||
| 2013-05-11T11:47 | 5687 | 509 | -5.7 | -6.2 | ||
| 2013-05-11T11:48 | 5880 | 497 | 267 | 16 | ||
| 2013-05-11T11:48 | 5964 | 492 | -6.7 | -7.2 | ||
| 2013-05-11T11:49 | 6240 | 474 | 263 | 14 | ||
| 2013-05-11T11:50 | 6594 | 453 | 267 | 14 | ||
| 2013-05-11T11:50 | 6748 | 444 | -10.8 | -11.3 | ||
| 2013-05-11T11:51 | 6955 | 433 | 257 | 17 | ||
| 2013-05-11T11:52 | 7222 | 418 | -13.3 | -13.9 | ||
| 2013-05-11T11:52 | 7341 | 411 | 244 | 19 | ||
| 2013-05-11T11:53 | 7697 | 392 | 244 | 20 | ||
| 2013-05-11T11:54 | 7980 | 378 | -18.5 | -19.1 | ||
| 2013-05-11T11:54 | 8045 | 374 | 250 | 23 | ||
| 2013-05-11T11:54 | 8063 | 374 | -19.3 | -22.3 | ||
| 2013-05-11T11:54 | 8175 | 368 | -20.4 | -26.5 | ||
| 2013-05-11T11:55 | 8339 | 360 | -21.9 | -28.9 | ||
| 2013-05-11T11:55 | 8419 | 356 | 255 | 28 | ||
| 2013-05-11T11:55 | 8453 | 354 | -22.9 | -29.7 | ||
| 2013-05-11T11:55 | 8496 | 352 | -23.3 | -30.8 | ||
| 2013-05-11T11:55 | 8594 | 348 | -24.2 | -35.9 | ||
| 2013-05-11T11:56 | 8729 | 341 | -25.5 | -38.4 | ||
| 2013-05-11T11:56 | 8768 | 339 | -25.2 | -34.9 | ||
| 2013-05-11T11:56 | 8794 | 338 | 249 | 29 | ||
| 2013-05-11T11:56 | 8852 | 335 | -25.3 | -31.5 | ||
| 2013-05-11T11:56 | 8888 | 334 | -25.5 | -31.7 | ||
| 2013-05-11T11:56 | 8936 | 332 | -25.6 | -33.4 | ||
| 2013-05-11T11:57 | 9153 | 322 | 247 | 31 | ||
| 2013-05-11T11:57 | 9185 | 320 | -27.1 | -32.7 | ||
| 2013-05-11T11:58 | 9390 | 311 | -27.7 | -36.5 | ||
| 2013-05-11T11:58 | 9504 | 306 | -28.2 | -37.9 | ||
| 2013-05-11T11:58 | 9527 | 305 | 249 | 32 | ||
| 2013-05-11T11:58 | 9700 | 298 | -29.2 | -40.7 | ||
| 2013-05-11T11:59 | 9891 | 290 | 248 | 32 | ||
| 2013-05-11T11:59 | 9958 | 288 | -31.0 | -41.2 | ||
| 2013-05-11T11:59 | 10052 | 284 | -31.5 | -42.2 | ||
| 2013-05-11T12:00 | 10254 | 276 | 249 | 32 | ||
| 2013-05-11T12:00 | 10419 | 269 | -34.2 | -45.5 | ||
| 2013-05-11T12:01 | 10619 | 262 | 252 | 32 | ||
| 2013-05-11T12:02 | 10984 | 248 | 255 | 31 | ||
| 2013-05-11T12:02 | 11081 | 245 | -39.7 | -56.5 | ||
| 2013-05-11T12:02 | 11126 | 243 | -40.0 | -55.7 | ||
| 2013-05-11T12:03 | 11353 | 235 | 257 | 29 | ||
| 2013-05-11T12:04 | 11709 | 223 | 263 | 29 | ||
| 2013-05-11T12:05 | 12029 | 213 | -47.5 | |||
| 2013-05-11T12:05 | 12082 | 211 | 267 | 30 | ||
| 2013-05-11T12:06 | 12440 | 200 | 273 | 28 | ||
| 2013-05-11T12:07 | 12821 | 188 | 272 | 27 | ||
| 2013-05-11T12:08 | 13199 | 177 | 272 | 28 | ||
| 2013-05-11T12:09 | 13596 | 167 | 278 | 27 | ||
| 2013-05-11T12:09 | 13615 | 166 | -59.0 | |||
| 2013-05-11T12:10 | 13849 | 160 | -59.7 | |||
| 2013-05-11T12:10 | 13983 | 157 | 278 | 24 | ||
| 2013-05-11T12:11 | 14431 | 146 | 268 | 22 | ||
| 2013-05-11T12:12 | 14777 | 138 | -68.3 | |||
| 2013-05-11T12:12 | 14852 | 136 | 262 | 21 | ||
| 2013-05-11T12:12 | 14922 | 134 | -69.0 | |||
| 2013-05-11T23:30 | 8 | 1008 | 26.4 | 22.3 | 50 | 3 |
| 2013-05-11T23:30 | 20 | 1007 | 24.2 | 21.9 | ||
| 2013-05-11T23:31 | 176 | 989 | 23.0 | 20.0 | ||
| 2013-05-11T23:31 | 324 | 972 | 40 | 6 | ||
| 2013-05-11T23:31 | 440 | 959 | 21.1 | 19.0 | ||
| 2013-05-11T23:32 | 549 | 948 | 20.7 | 18.3 | ||
| 2013-05-11T23:32 | 581 | 944 | 21.3 | 18.5 | ||
| 2013-05-11T23:32 | 701 | 931 | 25 | 2 | ||
| 2013-05-11T23:32 | 799 | 921 | 20.9 | 16.7 | ||
| 2013-05-11T23:33 | 1055 | 894 | 332 | 1 | ||
| 2013-05-11T23:33 | 1061 | 893 | 19.2 | 15.7 | ||
| 2013-05-11T23:34 | 1298 | 869 | 17.4 | 14.9 | ||
| 2013-05-11T23:34 | 1402 | 858 | 322 | 1 | ||
| 2013-05-11T23:34 | 1414 | 857 | 17.4 | 14.7 | ||
| 2013-05-11T23:35 | 1655 | 833 | 15.7 | 15.1 | ||
| 2013-05-11T23:35 | 1697 | 829 | 15.8 | 14.8 | ||
| 2013-05-11T23:35 | 1763 | 823 | 208 | 5 | ||
| 2013-05-11T23:35 | 1899 | 810 | 15.0 | 12.9 | ||
| 2013-05-11T23:36 | 2111 | 790 | 242 | 4 | ||
| 2013-05-11T23:36 | 2128 | 788 | 13.7 | 11.9 | ||
| 2013-05-11T23:36 | 2253 | 777 | 13.0 | 10.7 | ||
| 2013-05-11T23:37 | 2443 | 759 | 279 | 7 | ||
| 2013-05-11T23:37 | 2448 | 759 | 12.6 | 9.2 | ||
| 2013-05-11T23:38 | 2634 | 742 | 11.5 | 8.5 | ||
| 2013-05-11T23:38 | 2726 | 734 | 11.8 | 8.1 | ||
| 2013-05-11T23:38 | 2779 | 730 | 269 | 10 | ||
| 2013-05-11T23:38 | 2797 | 728 | 11.7 | 7.0 | ||
| 2013-05-11T23:39 | 3138 | 699 | 258 | 8 | ||
| 2013-05-11T23:39 | 3180 | 695 | 8.4 | 5.5 | ||
| 2013-05-11T23:39 | 3274 | 687 | 7.8 | 4.9 | ||
| 2013-05-11T23:40 | 3487 | 670 | 268 | 8 | ||
| 2013-05-11T23:41 | 3706 | 652 | 5.0 | 1.8 | ||
| 2013-05-11T23:41 | 3768 | 647 | 5.3 | 0.9 | ||
| 2013-05-11T23:41 | 3824 | 643 | 267 | 10 | ||
| 2013-05-11T23:41 | 3917 | 636 | 4.3 | -0.3 | ||
| 2013-05-11T23:42 | 3992 | 630 | 4.2 | -2.0 | ||
| 2013-05-11T23:42 | 4087 | 622 | 3.4 | -0.6 | ||
| 2013-05-11T23:42 | 4145 | 618 | 268 | 13 | ||
| 2013-05-11T23:42 | 4196 | 614 | 3.8 | -3.0 | ||
| 2013-05-11T23:43 | 4464 | 594 | 1.5 | -4.8 | ||
| 2013-05-11T23:43 | 4469 | 594 | 263 | 13 | ||
| 2013-05-11T23:43 | 4480 | 593 | 1.5 | -4.6 | ||
| 2013-05-11T23:43 | 4496 | 592 | 1.4 | -4.5 | ||
| 2013-05-11T23:43 | 4507 | 591 | 1.4 | -4.7 | ||
| 2013-05-11T23:43 | 4518 | 590 | 1.4 | -4.7 | ||
| 2013-05-11T23:43 | 4537 | 589 | 1.3 | -4.6 | ||
| 2013-05-11T23:44 | 4660 | 580 | 0.2 | -3.4 | ||
| 2013-05-11T23:44 | 4740 | 574 | 0.0 | -3.0 | ||
| 2013-05-11T23:44 | 4790 | 570 | 256 | 17 | ||
| 2013-05-11T23:44 | 4839 | 567 | -0.5 | -3.7 | ||
| 2013-05-11T23:45 | 5105 | 548 | 275 | 16 | ||
| 2013-05-11T23:46 | 5356 | 531 | -3.9 | -6.2 | ||
| 2013-05-11T23:46 | 5419 | 527 | 270 | 16 | ||
| 2013-05-11T23:47 | 5681 | 510 | -5.9 | -8.3 | ||
| 2013-05-11T23:47 | 5721 | 507 | 265 | 17 | ||
| 2013-05-11T23:47 | 5751 | 505 | -6.5 | -8.3 | ||
| 2013-05-11T23:47 | 5772 | 504 | -6.5 | -8.5 | ||
| 2013-05-11T23:48 | 5901 | 496 | -7.5 | -9.3 | ||
| 2013-05-11T23:48 | 5938 | 493 | -6.1 | -10.0 | ||
| 2013-05-11T23:48 | 6043 | 487 | 261 | 18 | ||
| 2013-05-11T23:48 | 6099 | 483 | -6.8 | -12.1 | ||
| 2013-05-11T23:49 | 6373 | 467 | 251 | 21 | ||
| 2013-05-11T23:49 | 6379 | 466 | -8.7 | -12.8 | ||
| 2013-05-11T23:50 | 6716 | 446 | 255 | 20 | ||
| 2013-05-11T23:50 | 6774 | 443 | -11.7 | -15.4 | ||
| 2013-05-11T23:51 | 6933 | 434 | -12.7 | -16.2 | ||
| 2013-05-11T23:51 | 7057 | 427 | 258 | 22 | ||
| 2013-05-11T23:52 | 7393 | 408 | 265 | 22 | ||
| 2013-05-11T23:52 | 7436 | 406 | -15.9 | -20.8 | ||
| 2013-05-11T23:53 | 7720 | 391 | 263 | 24 | ||
| 2013-05-11T23:54 | 7979 | 378 | -20.9 | -23.6 | ||
| 2013-05-11T23:54 | 8058 | 374 | 264 | 25 | ||
| 2013-05-11T23:54 | 8185 | 367 | -22.5 | -24.2 | ||
| 2013-05-11T23:55 | 8271 | 363 | -23.2 | -24.8 | ||
| 2013-05-11T23:55 | 8303 | 361 | -23.4 | -25.1 | ||
| 2013-05-11T23:55 | 8388 | 357 | 263 | 28 | ||
| 2013-05-11T23:55 | 8428 | 355 | -24.4 | -25.6 | ||
| 2013-05-11T23:55 | 8508 | 351 | -24.8 | -26.9 | ||
| 2013-05-11T23:56 | 8608 | 346 | -25.4 | -29.0 | ||
| 2013-05-11T23:56 | 8724 | 341 | -25.2 | -36.2 | ||
| 2013-05-11T23:56 | 8730 | 341 | 267 | 31 | ||
| 2013-05-11T23:56 | 8795 | 338 | -25.2 | -39.5 | ||
| 2013-05-11T23:56 | 8858 | 335 | -24.6 | -48.5 | ||
| 2013-05-11T23:57 | 9080 | 325 | 265 | 30 | ||
| 2013-05-11T23:57 | 9151 | 321 | -27.1 | -62.7 | ||
| 2013-05-11T23:58 | 9266 | 316 | -28.1 | -63.4 | ||
| 2013-05-11T23:58 | 9456 | 308 | 265 | 32 | ||
| 2013-05-11T23:58 | 9475 | 307 | -29.4 | -64.3 | ||
| 2013-05-11T23:58 | 9630 | 301 | -30.5 | -48.8 | ||
| 2013-05-11T23:59 | 9823 | 293 | -32.1 | -61.0 | ||
| 2013-05-11T23:59 | 9850 | 291 | 268 | 34 | ||
| 2013-05-11T23:59 | 9922 | 288 | -32.9 | -55.1 | ||
| 2013-05-11T23:59 | 10023 | 284 | -33.5 | -44.0 | ||
| 2013-05-12T00:00 | 10238 | 276 | 265 | 36 | ||
| 2013-05-12T00:00 | 10396 | 270 | -36.3 | -44.0 | ||
| 2013-05-12T00:01 | 10625 | 261 | 263 | 37 | ||
| 2013-05-12T00:01 | 10779 | 255 | -39.9 | -44.9 | ||
| 2013-05-12T00:01 | 10801 | 254 | -40.1 | |||
| 2013-05-12T00:02 | 11008 | 247 | 265 | 38 | ||
| 2013-05-12T00:02 | 11032 | 246 | -41.0 | |||
| 2013-05-12T00:03 | 11377 | 233 | 272 | 37 | ||
| 2013-05-12T00:04 | 11752 | 221 | 270 | 33 | ||
| 2013-05-12T00:05 | 11967 | 214 | -46.3 | |||
| 2013-05-12T00:05 | 12136 | 208 | 265 | 30 | ||
| 2013-05-12T00:06 | 12532 | 196 | 262 | 29 | ||
| 2013-05-12T00:06 | 12552 | 196 | -51.2 | |||
| 2013-05-12T00:07 | 12929 | 184 | 263 | 27 | ||
| 2013-05-12T00:08 | 13298 | 174 | 264 | 27 | ||
| 2013-05-12T00:08 | 13411 | 171 | -58.3 | |||
| 2013-05-12T00:09 | 13642 | 165 | 266 | 27 | ||
| 2013-05-12T00:10 | 14006 | 155 | 264 | 27 | ||
| 2013-05-12T00:11 | 14358 | 147 | -66.2 | |||
| 2013-05-12T00:11 | 14399 | 146 | 266 | 27 | ||
| 2013-05-12T00:12 | 14833 | 136 | 267 | 26 | ||
| 2013-05-12T00:12 | 15049 | 131 | -68.7 | |||
| 2013-05-12T00:13 | 15277 | 126 | 255 | 23 | ||
| 2013-05-12T00:14 | 15756 | 116 | 264 | 20 | ||
| 2013-05-12T00:14 | 15767 | 116 | -72.8 | |||
| 2013-05-12T00:14 | 15963 | 112 | -71.9 | |||
| 2013-05-12T00:15 | 16236 | 107 | 276 | 13 | ||
| 2013-05-12T00:15 | 16458 | 103 | -75.1 | |||
| 2013-05-12T00:16 | 16734 | 98 | -76.5 | |||
| 2013-05-12T00:16 | 16746 | 98 | 248 | 13 | ||
| 2013-05-12T00:16 | 16962 | 94 | -75.6 | |||
| 2013-05-12T00:17 | 17231 | 90 | 243 | 9 | ||
| 2013-05-12T00:18 | 17606 | 84 | -78.0 | |||
| 2013-05-12T00:18 | 17729 | 83 | 236 | 9 | ||
| 2013-05-12T00:19 | 18021 | 78 | -78.0 | |||
| 2013-05-12T00:19 | 18214 | 76 | 279 | 3 | ||
| 2013-05-12T00:20 | 18676 | 70 | 128 | 1 | ||
| 2013-05-12T00:21 | 18858 | 68 | -78.3 | |||
| 2013-05-12T11:30 | 8 | 1009 | 24.8 | 23.4 | 90 | 4 |
| 2013-05-12T11:30 | 35 | 1005 | 24.3 | 23.3 | ||
| 2013-05-12T11:30 | 117 | 996 | 23.8 | 22.2 | ||
| 2013-05-12T11:31 | 300 | 975 | 99 | 6 | ||
| 2013-05-12T11:31 | 374 | 967 | 21.8 | 21.0 | ||
| 2013-05-12T11:32 | 488 | 955 | 21.2 | 20.0 | ||
| 2013-05-12T11:32 | 618 | 940 | 20.1 | 19.6 | ||
| 2013-05-12T11:32 | 648 | 937 | 115 | 4 | ||
| 2013-05-12T11:32 | 694 | 932 | 19.8 | 19.5 | ||
| 2013-05-12T11:32 | 709 | 931 | 19.5 | 18.8 | ||
| 2013-05-12T11:33 | 807 | 920 | 18.9 | 17.4 | ||
| 2013-05-12T11:33 | 935 | 907 | 18.9 | 17.4 | ||
| 2013-05-12T11:33 | 964 | 904 | 144 | 4 | ||
| 2013-05-12T11:34 | 1256 | 873 | 17.5 | 17.5 | ||
| 2013-05-12T11:34 | 1308 | 868 | 200 | 6 | ||
| 2013-05-12T11:34 | 1432 | 856 | 16.4 | 15.8 | ||
| 2013-05-12T11:35 | 1654 | 834 | 16.2 | 15.2 | ||
| 2013-05-12T11:35 | 1681 | 831 | 241 | 9 | ||
| 2013-05-12T11:35 | 1862 | 814 | 15.2 | 13.7 | ||
| 2013-05-12T11:36 | 1972 | 803 | 15.5 | 11.7 | ||
| 2013-05-12T11:36 | 2055 | 795 | 243 | 9 | ||
| 2013-05-12T11:37 | 2362 | 767 | 13.8 | 9.8 | ||
| 2013-05-12T11:37 | 2388 | 765 | 247 | 9 | ||
| 2013-05-12T11:38 | 2711 | 736 | 239 | 10 | ||
| 2013-05-12T11:38 | 2776 | 730 | 11.0 | 7.7 | ||
| 2013-05-12T11:39 | 2894 | 720 | 10.3 | 7.5 | ||
| 2013-05-12T11:39 | 2899 | 719 | 10.2 | 7.4 | ||
| 2013-05-12T11:39 | 3037 | 708 | 233 | 15 | ||
| 2013-05-12T11:39 | 3081 | 704 | 8.7 | 7.0 | ||
| 2013-05-12T11:40 | 3355 | 681 | 6.7 | 4.4 | ||
| 2013-05-12T11:40 | 3372 | 680 | 227 | 15 | ||
| 2013-05-12T11:40 | 3404 | 677 | 6.6 | 4.4 | ||
| 2013-05-12T11:40 | 3489 | 670 | 6.3 | 3.8 | ||
| 2013-05-12T11:41 | 3688 | 654 | 227 | 14 | ||
| 2013-05-12T11:41 | 3724 | 651 | 4.7 | 3.2 | ||
| 2013-05-12T11:42 | 3865 | 640 | 3.6 | 2.4 | ||
| 2013-05-12T11:42 | 3992 | 630 | 229 | 14 | ||
| 2013-05-12T11:42 | 4098 | 622 | 2.5 | 1.8 | ||
| 2013-05-12T11:43 | 4301 | 606 | 235 | 16 | ||
| 2013-05-12T11:44 | 4483 | 593 | 0.0 | 0.0 | ||
| 2013-05-12T11:44 | 4618 | 583 | 235 | 13 | ||
| 2013-05-12T11:45 | 4801 | 570 | -1.2 | -1.6 | ||
| 2013-05-12T11:45 | 4866 | 565 | -1.8 | -2.2 | ||
| 2013-05-12T11:45 | 4887 | 564 | -1.9 | -2.3 | ||
| 2013-05-12T11:45 | 4904 | 562 | -1.6 | -2.0 | ||
| 2013-05-12T11:45 | 4942 | 560 | 241 | 12 | ||
| 2013-05-12T11:46 | 5273 | 537 | 257 | 10 | ||
| 2013-05-12T11:46 | 5328 | 533 | -3.0 | -3.4 | ||
| 2013-05-12T11:47 | 5604 | 515 | 258 | 9 | ||
| 2013-05-12T11:48 | 5888 | 497 | -6.0 | -6.5 | ||
| 2013-05-12T11:48 | 5945 | 493 | 259 | 10 | ||
| 2013-05-12T11:49 | 6291 | 472 | 258 | 13 | ||
| 2013-05-12T11:50 | 6646 | 451 | 247 | 15 | ||
| 2013-05-12T11:50 | 6768 | 443 | -10.6 | -11.1 | ||
| 2013-05-12T11:51 | 6998 | 430 | 245 | 17 | ||
| 2013-05-12T11:52 | 7359 | 410 | 256 | 15 | ||
| 2013-05-12T11:52 | 7427 | 407 | -14.7 | -15.6 | ||
| 2013-05-12T11:53 | 7722 | 391 | 267 | 17 | ||
| 2013-05-12T11:54 | 8083 | 373 | 267 | 19 | ||
| 2013-05-12T11:55 | 8427 | 356 | 268 | 21 | ||
| 2013-05-12T11:56 | 8786 | 339 | 261 | 25 | ||
| 2013-05-12T11:57 | 8971 | 330 | -24.9 | -25.6 | ||
| 2013-05-12T11:57 | 9108 | 324 | 254 | 27 | ||
| 2013-05-12T11:58 | 9432 | 310 | -28.3 | -29.5 | ||
| 2013-05-12T11:58 | 9451 | 309 | 252 | 25 | ||
| 2013-05-12T11:59 | 9829 | 293 | 249 | 28 | ||
| 2013-05-12T11:59 | 9879 | 291 | -32.3 | -33.7 | ||
| 2013-05-12T12:00 | 10202 | 278 | 246 | 32 | ||
| 2013-05-12T12:01 | 10555 | 264 | 251 | 31 | ||
| 2013-05-12T12:01 | 10615 | 262 | -38.3 | -40.8 | ||
| 2013-05-12T12:02 | 10803 | 255 | -40.0 | -43.5 | ||
| 2013-05-12T12:02 | 10919 | 251 | 252 | 35 | ||
| 2013-05-12T12:03 | 11282 | 237 | 252 | 36 | ||
| 2013-05-12T12:04 | 11530 | 229 | -45.3 | |||
| 2013-05-12T12:04 | 11656 | 225 | 248 | 35 | ||
| 2013-05-12T12:05 | 12041 | 212 | 252 | 37 | ||
| 2013-05-12T12:06 | 12443 | 199 | 259 | 37 | ||
| 2013-05-12T12:07 | 12845 | 187 | 259 | 37 | ||
| 2013-05-12T12:08 | 13236 | 176 | -58.7 | |||
| 2013-05-12T12:08 | 13279 | 175 | 257 | 37 | ||
| 2013-05-12T12:09 | 13706 | 163 | 259 | 34 | ||
| 2013-05-12T12:10 | 13995 | 156 | -60.2 | |||
| 2013-05-12T12:10 | 14141 | 152 | 270 | 29 | ||
| 2013-05-12T12:11 | 14489 | 144 | -62.1 | |||
| 2013-05-12T12:11 | 14597 | 141 | 277 | 27 | ||
| 2013-05-12T12:12 | 15078 | 131 | 275 | 22 | ||
| 2013-05-12T12:12 | 15180 | 128 | -67.2 | |||
| 2013-05-12T12:13 | 15580 | 120 | 261 | 15 | ||
| 2013-05-12T12:14 | 16054 | 111 | 250 | 17 | ||
| 2013-05-12T12:15 | 16344 | 105 | -76.0 | |||
| 2013-05-12T12:15 | 16510 | 102 | 257 | 17 | ||
| 2013-05-12T12:16 | 16840 | 97 | -77.4 | |||
| 2013-05-12T12:16 | 16972 | 95 | 259 | 18 | ||
| 2013-05-12T12:16 | 17002 | 94 | -76.7 | |||
| 2013-05-12T12:16 | 17151 | 92 | -75.6 | |||
| 2013-05-12T12:17 | 17434 | 87 | 274 | 12 | ||
| 2013-05-12T12:17 | 17507 | 86 | -77.9 | |||
| 2013-05-12T23:30 | 8 | 1009 | 23.6 | 22.6 | 190 | 2 |
| 2013-05-12T23:30 | 16 | 1008 | 23.1 | 23.1 | ||
| 2013-05-12T23:30 | 91 | 999 | 23.2 | 20.3 | ||
| 2013-05-12T23:31 | 209 | 986 | 23.0 | 18.8 | ||
| 2013-05-12T23:31 | 341 | 971 | 22.3 | 20.4 | ||
| 2013-05-12T23:31 | 369 | 968 | 188 | 5 | ||
| 2013-05-12T23:32 | 660 | 936 | 20.9 | 19.9 | ||
| 2013-05-12T23:32 | 776 | 924 | 220 | 7 | ||
| 2013-05-12T23:33 | 1054 | 894 | 19.0 | 18.2 | ||
| 2013-05-12T23:33 | 1196 | 880 | 228 | 12 | ||
| 2013-05-12T23:33 | 1268 | 872 | 18.2 | 17.4 | ||
| 2013-05-12T23:34 | 1613 | 838 | 222 | 14 | ||
| 2013-05-12T23:34 | 1637 | 836 | 15.8 | 15.3 | ||
| 2013-05-12T23:34 | 1763 | 823 | 15.0 | 14.7 | ||
| 2013-05-12T23:35 | 1894 | 811 | 14.4 | 14.1 | ||
| 2013-05-12T23:35 | 1962 | 804 | 231 | 13 | ||
| 2013-05-12T23:35 | 2030 | 798 | 13.4 | 13.4 | ||
| 2013-05-12T23:35 | 2065 | 795 | 14.0 | 13.8 | ||
| 2013-05-12T23:36 | 2337 | 769 | 239 | 13 | ||
| 2013-05-12T23:36 | 2538 | 751 | 11.0 | 11.0 | ||
| 2013-05-12T23:37 | 2773 | 730 | 246 | 12 | ||
| 2013-05-12T23:38 | 3116 | 701 | 8.2 | 8.2 | ||
| 2013-05-12T23:38 | 3186 | 695 | 253 | 9 | ||
| 2013-05-12T23:39 | 3519 | 667 | 5.8 | 5.4 | ||
| 2013-05-12T23:39 | 3581 | 662 | 274 | 9 | ||
| 2013-05-12T23:39 | 3602 | 661 | 5.3 | 3.8 | ||
| 2013-05-12T23:39 | 3684 | 654 | 4.7 | 3.0 | ||
| 2013-05-12T23:40 | 3821 | 643 | 4.2 | 1.7 | ||
| 2013-05-12T23:40 | 3969 | 632 | 273 | 8 | ||
| 2013-05-12T23:40 | 4033 | 627 | 3.4 | 1.9 | ||
| 2013-05-12T23:40 | 4046 | 626 | 3.3 | 1.8 | ||
| 2013-05-12T23:40 | 4059 | 625 | 3.3 | 2.0 | ||
| 2013-05-12T23:40 | 4099 | 622 | 3.0 | 2.0 | ||
| 2013-05-12T23:40 | 4106 | 621 | 2.9 | 1.9 | ||
| 2013-05-12T23:40 | 4140 | 618 | 2.8 | 2.1 | ||
| 2013-05-12T23:40 | 4154 | 617 | 2.7 | 2.1 | ||
| 2013-05-12T23:41 | 4368 | 601 | 274 | 12 | ||
| 2013-05-12T23:41 | 4549 | 588 | 0.0 | 0.0 | ||
| 2013-05-12T23:42 | 4759 | 573 | 266 | 13 | ||
| 2013-05-12T23:42 | 4873 | 565 | -2.1 | -2.5 | ||
| 2013-05-12T23:43 | 5008 | 555 | -2.1 | -3.1 | ||
| 2013-05-12T23:43 | 5138 | 546 | 253 | 15 | ||
| 2013-05-12T23:43 | 5202 | 542 | -3.7 | -4.2 | ||
| 2013-05-12T23:44 | 5379 | 530 | -4.7 | -5.2 | ||
| 2013-05-12T23:44 | 5482 | 523 | 251 | 17 | ||
| 2013-05-12T23:44 | 5535 | 519 | -5.1 | -5.9 | ||
| 2013-05-12T23:45 | 5687 | 509 | -6.3 | -6.8 | ||
| 2013-05-12T23:45 | 5727 | 507 | -5.9 | -6.8 | ||
| 2013-05-12T23:45 | 5768 | 504 | -5.5 | -7.5 | ||
| 2013-05-12T23:45 | 5823 | 501 | 247 | 18 | ||
| 2013-05-12T23:45 | 5867 | 498 | -5.9 | -10.0 | ||
| 2013-05-12T23:46 | 6037 | 487 | -6.9 | -12.2 | ||
| 2013-05-12T23:46 | 6160 | 479 | 251 | 18 | ||
| 2013-05-12T23:46 | 6182 | 478 | -8.0 | -13.1 | ||
| 2013-05-12T23:46 | 6213 | 476 | -8.2 | -11.7 | ||
| 2013-05-12T23:46 | 6272 | 473 | -8.3 | -12.6 | ||
| 2013-05-12T23:46 | 6306 | 470 | -8.6 | -11.1 | ||
| 2013-05-12T23:47 | 6401 | 465 | -9.0 | -13.3 | ||
| 2013-05-12T23:47 | 6428 | 463 | -9.0 | -14.6 | ||
| 2013-05-12T23:47 | 6483 | 460 | -9.5 | -13.3 | ||
| 2013-05-12T23:47 | 6500 | 459 | 252 | 15 | ||
| 2013-05-12T23:48 | 6680 | 448 | -11.0 | -12.9 | ||
| 2013-05-12T23:48 | 6737 | 445 | -11.0 | -13.0 | ||
| 2013-05-12T23:48 | 6859 | 438 | 274 | 12 | ||
| 2013-05-12T23:49 | 7081 | 425 | -14.0 | -14.8 | ||
| 2013-05-12T23:49 | 7211 | 418 | 286 | 12 | ||
| 2013-05-12T23:49 | 7260 | 415 | -15.1 | -15.8 | ||
| 2013-05-12T23:50 | 7397 | 408 | -16.2 | -16.8 | ||
| 2013-05-12T23:50 | 7455 | 405 | -15.2 | -16.7 | ||
| 2013-05-12T23:50 | 7555 | 400 | 272 | 14 | ||
| 2013-05-12T23:51 | 7789 | 387 | -18.0 | -19.8 | ||
| 2013-05-12T23:51 | 7898 | 382 | 269 | 15 | ||
| 2013-05-12T23:52 | 8135 | 370 | -20.9 | -21.5 | ||
| 2013-05-12T23:52 | 8282 | 362 | 274 | 13 | ||
| 2013-05-12T23:52 | 8413 | 356 | -22.7 | -23.8 | ||
| 2013-05-12T23:53 | 8486 | 352 | -22.9 | -24.5 | ||
| 2013-05-12T23:53 | 8643 | 345 | 244 | 15 | ||
| 2013-05-12T23:53 | 8788 | 338 | -24.7 | -26.5 | ||
| 2013-05-12T23:54 | 8982 | 329 | -25.8 | -27.0 | ||
| 2013-05-12T23:54 | 9004 | 328 | 226 | 18 | ||
| 2013-05-12T23:54 | 9077 | 325 | -25.9 | -28.2 | ||
| 2013-05-12T23:54 | 9122 | 323 | -26.4 | -30.4 | ||
| 2013-05-12T23:55 | 9212 | 319 | -27.1 | -32.0 | ||
| 2013-05-12T23:55 | 9355 | 313 | -28.2 | -33.4 | ||
| 2013-05-12T23:55 | 9369 | 312 | 239 | 18 | ||
| 2013-05-12T23:56 | 9711 | 297 | -31.1 | -38.3 | ||
| 2013-05-12T23:56 | 9740 | 296 | 251 | 23 | ||
| 2013-05-12T23:57 | 10075 | 282 | 258 | 27 | ||
| 2013-05-12T23:57 | 10130 | 280 | -34.5 | -45.5 | ||
| 2013-05-12T23:58 | 10437 | 268 | 256 | 30 | ||
| 2013-05-12T23:58 | 10486 | 266 | -37.3 | -55.7 | ||
| 2013-05-12T23:59 | 10805 | 254 | 256 | 30 | ||
| 2013-05-12T23:59 | 10830 | 253 | -40.0 | -56.8 | ||
| 2013-05-13T00:00 | 11176 | 241 | 253 | 32 | ||
| 2013-05-13T00:01 | 11569 | 227 | 251 | 35 | ||
| 2013-05-13T00:01 | 11575 | 227 | -45.6 | |||
| 2013-05-13T00:02 | 11938 | 215 | 240 | 36 | ||
| 2013-05-13T00:02 | 12119 | 209 | -49.2 | |||
| 2013-05-13T00:03 | 12322 | 202 | 245 | 37 | ||
| 2013-05-13T00:04 | 12677 | 192 | 249 | 38 | ||
| 2013-05-13T00:04 | 12765 | 189 | -53.9 | |||
| 2013-05-13T00:05 | 13031 | 181 | 257 | 34 | ||
| 2013-05-13T00:06 | 13372 | 172 | 263 | 34 | ||
| 2013-05-13T00:07 | 13672 | 164 | -59.4 | |||
| 2013-05-13T00:07 | 13699 | 163 | 267 | 34 | ||
| 2013-05-13T00:08 | 14023 | 155 | 275 | 34 | ||
| 2013-05-13T00:09 | 14354 | 147 | 274 | 33 | ||
| 2013-05-13T00:10 | 14686 | 139 | 274 | 33 | ||
| 2013-05-13T00:10 | 14839 | 135 | -68.1 | |||
| 2013-05-13T00:11 | 15023 | 131 | 280 | 29 | ||
| 2013-05-13T00:12 | 15208 | 127 | -69.0 | |||
| 2013-05-13T00:12 | 15408 | 123 | 285 | 27 | ||
| 2013-05-13T00:12 | 15471 | 122 | -70.3 | |||
| 2013-05-13T00:13 | 15726 | 117 | -69.9 | |||
| 2013-05-13T00:13 | 15767 | 116 | 294 | 25 | ||
| 2013-05-13T00:14 | 16135 | 109 | 298 | 20 | ||
| 2013-05-13T00:15 | 16483 | 103 | 291 | 17 | ||
| 2013-05-13T00:15 | 16597 | 101 | -75.3 | |||
| 2013-05-13T00:16 | 16784 | 97 | -76.2 | |||
| 2013-05-13T00:16 | 16832 | 97 | 289 | 19 | ||
| 2013-05-13T00:17 | 17026 | 93 | -75.7 | |||
| 2013-05-13T00:17 | 17176 | 91 | 294 | 16 | ||
| 2013-05-13T00:17 | 17344 | 88 | -76.2 | |||
| 2013-05-13T00:18 | 17630 | 84 | -76.9 | |||
| 2013-05-13T00:18 | 17637 | 84 | 287 | 12 | ||
| 2013-05-13T00:18 | 17804 | 82 | -76.2 | |||
| 2013-05-13T00:19 | 18020 | 79 | 278 | 9 | ||
| 2013-05-13T00:19 | 18042 | 78 | -76.7 | |||
| 2013-05-13T11:30 | 8 | 1008 | 24.2 | 23.5 | 70 | 3 |
| 2013-05-13T11:30 | 19 | 1007 | 24.0 | 23.8 | ||
| 2013-05-13T11:31 | 131 | 994 | 23.5 | 22.7 | ||
| 2013-05-13T11:31 | 303 | 975 | 104 | 5 | ||
| 2013-05-13T11:31 | 386 | 965 | 22.8 | 21.1 | ||
| 2013-05-13T11:32 | 582 | 944 | 21.3 | 20.6 | ||
| 2013-05-13T11:32 | 602 | 942 | 21.7 | 20.9 | ||
| 2013-05-13T11:32 | 622 | 940 | 151 | 6 | ||
| 2013-05-13T11:32 | 685 | 933 | 21.4 | 20.0 | ||
| 2013-05-13T11:32 | 711 | 930 | 21.9 | 18.7 | ||
| 2013-05-13T11:33 | 935 | 906 | 159 | 10 | ||
| 2013-05-13T11:33 | 1000 | 900 | 20.8 | 16.6 | ||
| 2013-05-13T11:34 | 1238 | 875 | 19.1 | 15.0 | 160 | 10 |
| 2013-05-13T11:34 | 1307 | 868 | 18.8 | 14.5 | ||
| 2013-05-13T11:34 | 1372 | 862 | 18.4 | 14.1 | ||
| 2013-05-13T11:35 | 1569 | 842 | 16.9 | 14.0 | 161 | 8 |
| 2013-05-13T11:35 | 1685 | 831 | 17.3 | 13.2 | ||
| 2013-05-13T11:36 | 1873 | 813 | 16.7 | 12.0 | ||
| 2013-05-13T11:36 | 1907 | 810 | 145 | 8 | ||
| 2013-05-13T11:36 | 1928 | 808 | 17.0 | 11.5 | ||
| 2013-05-13T11:36 | 2000 | 801 | 16.7 | 10.3 | ||
| 2013-05-13T11:37 | 2243 | 778 | 146 | 5 | ||
| 2013-05-13T11:37 | 2311 | 772 | 14.0 | 9.6 | ||
| 2013-05-13T11:38 | 2436 | 761 | 13.1 | 11.3 | ||
| 2013-05-13T11:38 | 2563 | 749 | 12.6 | 10.8 | ||
| 2013-05-13T11:38 | 2574 | 748 | 283 | 2 | ||
| 2013-05-13T11:39 | 2920 | 718 | 318 | 2 | ||
| 2013-05-13T11:39 | 3028 | 709 | 8.4 | 7.8 | ||
| 2013-05-13T11:40 | 3095 | 703 | 8.5 | 7.0 | ||
| 2013-05-13T11:40 | 3212 | 693 | 8.5 | 5.8 | ||
| 2013-05-13T11:40 | 3232 | 691 | 27 | 3 | ||
| 2013-05-13T11:41 | 3406 | 677 | 7.4 | 5.5 | ||
| 2013-05-13T11:41 | 3493 | 670 | 7.4 | 3.8 | ||
| 2013-05-13T11:41 | 3539 | 666 | 7.2 | 4.7 | ||
| 2013-05-13T11:41 | 3550 | 665 | 36 | 3 | ||
| 2013-05-13T11:41 | 3641 | 658 | 6.7 | 4.0 | ||
| 2013-05-13T11:42 | 3895 | 638 | 345 | 3 | ||
| 2013-05-13T11:42 | 3924 | 636 | 4.3 | 3.1 | ||
| 2013-05-13T11:43 | 4123 | 620 | 3.4 | 1.8 | ||
| 2013-05-13T11:43 | 4238 | 612 | 2.7 | -0.2 | 304 | 5 |
| 2013-05-13T11:44 | 4459 | 595 | 1.6 | -1.3 | ||
| 2013-05-13T11:44 | 4528 | 590 | 1.4 | -2.2 | ||
| 2013-05-13T11:44 | 4587 | 586 | 283 | 8 | ||
| 2013-05-13T11:44 | 4616 | 584 | 0.9 | -2.3 | ||
| 2013-05-13T11:44 | 4638 | 582 | 0.8 | -2.8 | ||
| 2013-05-13T11:44 | 4652 | 581 | 0.8 | -2.9 | ||
| 2013-05-13T11:45 | 4867 | 566 | -0.9 | -4.8 | ||
| 2013-05-13T11:45 | 4922 | 562 | 279 | 7 | ||
| 2013-05-13T11:45 | 5001 | 556 | -1.2 | -6.5 | ||
| 2013-05-13T11:46 | 5203 | 542 | -2.7 | -6.0 | ||
| 2013-05-13T11:46 | 5240 | 540 | 261 | 9 | ||
| 2013-05-13T11:47 | 5543 | 519 | -5.1 | -8.8 | ||
| 2013-05-13T11:47 | 5566 | 518 | 272 | 11 | ||
| 2013-05-13T11:47 | 5658 | 512 | -5.1 | -9.9 | ||
| 2013-05-13T11:48 | 5821 | 501 | -5.9 | -13.9 | ||
| 2013-05-13T11:48 | 5876 | 498 | 288 | 12 | ||
| 2013-05-13T11:48 | 5902 | 496 | -6.4 | -16.1 | ||
| 2013-05-13T11:48 | 6002 | 490 | -7.1 | -15.3 | ||
| 2013-05-13T11:49 | 6035 | 488 | -7.4 | -10.6 | ||
| 2013-05-13T11:49 | 6112 | 483 | -7.5 | -12.2 | ||
| 2013-05-13T11:49 | 6156 | 480 | -7.5 | -18.2 | ||
| 2013-05-13T11:49 | 6201 | 478 | 282 | 10 | ||
| 2013-05-13T11:49 | 6241 | 475 | -8.0 | -24.2 | ||
| 2013-05-13T11:49 | 6336 | 469 | -8.4 | -24.5 | ||
| 2013-05-13T11:50 | 6386 | 466 | -8.6 | -27.6 | ||
| 2013-05-13T11:50 | 6473 | 461 | -9.3 | -20.7 | ||
| 2013-05-13T11:50 | 6544 | 457 | 270 | 11 | ||
| 2013-05-13T11:50 | 6647 | 451 | -10.3 | -16.4 | ||
| 2013-05-13T11:51 | 6828 | 440 | -11.3 | -18.6 | ||
| 2013-05-13T11:51 | 6896 | 436 | 274 | 13 | ||
| 2013-05-13T11:51 | 6935 | 434 | -12.0 | -19.9 | ||
| 2013-05-13T11:52 | 7162 | 422 | -13.3 | -24.3 | ||
| 2013-05-13T11:52 | 7244 | 417 | 280 | 13 | ||
| 2013-05-13T11:52 | 7249 | 417 | -14.0 | -20.3 | ||
| 2013-05-13T11:52 | 7405 | 408 | -15.0 | -23.3 | ||
| 2013-05-13T11:53 | 7577 | 399 | -16.1 | -21.0 | ||
| 2013-05-13T11:53 | 7609 | 397 | 268 | 16 | ||
| 2013-05-13T11:53 | 7739 | 391 | -16.4 | -25.3 | ||
| 2013-05-13T11:54 | 7902 | 382 | -17.5 | -28.7 | ||
| 2013-05-13T11:54 | 7983 | 378 | 260 | 20 | ||
| 2013-05-13T11:55 | 8205 | 367 | -19.7 | -32.2 | ||
| 2013-05-13T11:55 | 8352 | 360 | 254 | 20 | ||
| 2013-05-13T11:55 | 8449 | 355 | -21.7 | -34.0 | ||
| 2013-05-13T11:56 | 8555 | 350 | -22.5 | -38.0 | ||
| 2013-05-13T11:56 | 8714 | 342 | 263 | 21 | ||
| 2013-05-13T11:57 | 9071 | 326 | 265 | 23 | ||
| 2013-05-13T11:57 | 9205 | 320 | -28.5 | -39.5 | ||
| 2013-05-13T11:58 | 9434 | 310 | 258 | 24 | ||
| 2013-05-13T11:59 | 9637 | 301 | -32.7 | -39.4 | ||
| 2013-05-13T11:59 | 9783 | 295 | 261 | 24 | ||
| 2013-05-13T11:59 | 9877 | 291 | -34.4 | -44.3 | ||
| 2013-05-13T12:00 | 10126 | 281 | 263 | 24 | ||
| 2013-05-13T12:00 | 10295 | 274 | -37.3 | -46.9 | ||
| 2013-05-13T12:01 | 10325 | 273 | -37.5 | -45.9 | ||
| 2013-05-13T12:01 | 10346 | 272 | -37.4 | -45.4 | ||
| 2013-05-13T12:01 | 10487 | 266 | -36.0 | -50.1 | ||
| 2013-05-13T12:01 | 10492 | 266 | 261 | 30 | ||
| 2013-05-13T12:02 | 10776 | 256 | -37.7 | -60.9 | ||
| 2013-05-13T12:02 | 10876 | 252 | 253 | 26 | ||
| 2013-05-13T12:03 | 11134 | 243 | -40.0 | -65.3 | ||
| 2013-05-13T12:03 | 11253 | 238 | 261 | 24 | ||
| 2013-05-13T12:04 | 11626 | 226 | 259 | 25 | ||
| 2013-05-13T12:05 | 11991 | 214 | 255 | 26 | ||
| 2013-05-13T12:06 | 12382 | 201 | 256 | 29 | ||
| 2013-05-13T12:07 | 12757 | 190 | 264 | 29 | ||
| 2013-05-13T12:07 | 12771 | 190 | -52.8 | |||
| 2013-05-13T12:08 | 13172 | 178 | 268 | 33 | ||
| 2013-05-13T12:09 | 13571 | 167 | 272 | 35 | ||
| 2013-05-13T12:10 | 14045 | 155 | 278 | 32 | ||
| 2013-05-13T12:10 | 14129 | 153 | -63.8 | |||
| 2013-05-13T12:11 | 14525 | 143 | 286 | 31 | ||
| 2013-05-13T12:12 | 14976 | 133 | 297 | 30 | ||
| 2013-05-13T12:12 | 15048 | 131 | -68.6 | |||
| 2013-05-13T12:13 | 15324 | 125 | 308 | 26 | ||
| 2013-05-13T12:13 | 15334 | 125 | -68.1 | |||
| 2013-05-13T12:13 | 15479 | 122 | -67.4 | |||
| 2013-05-13T12:14 | 15822 | 115 | 303 | 15 | ||
| 2013-05-13T12:15 | 16307 | 106 | 248 | 13 | ||
| 2013-05-13T12:15 | 16324 | 106 | -73.3 | |||
| 2013-05-13T12:16 | 16699 | 99 | -75.0 | |||
| 2013-05-13T12:16 | 16717 | 99 | 262 | 14 | ||
| 2013-05-13T12:17 | 17159 | 92 | 288 | 12 | ||
| 2013-05-13T12:17 | 17330 | 89 | -77.5 | |||
| 2013-05-13T12:18 | 17434 | 87 | -78.4 | |||
| 2013-05-13T23:30 | 8 | 1007 | 26.0 | 25.1 | 110 | 4 |
| 2013-05-13T23:30 | 13 | 1007 | 25.9 | 25.0 | ||
| 2013-05-13T23:30 | 25 | 1005 | 25.4 | 25.1 | ||
| 2013-05-13T23:31 | 347 | 969 | 127 | 5 | ||
| 2013-05-13T23:31 | 365 | 967 | 23.3 | 22.6 | ||
| 2013-05-13T23:32 | 547 | 948 | 22.7 | 22.4 | ||
| 2013-05-13T23:32 | 699 | 931 | 152 | 4 | ||
| 2013-05-13T23:32 | 739 | 927 | 21.3 | 21.0 | ||
| 2013-05-13T23:33 | 907 | 909 | 21.1 | 20.9 | ||
| 2013-05-13T23:33 | 1104 | 889 | 157 | 6 | ||
| 2013-05-13T23:33 | 1111 | 888 | 19.9 | 19.7 | ||
| 2013-05-13T23:33 | 1202 | 879 | 19.5 | 19.5 | ||
| 2013-05-13T23:34 | 1393 | 860 | 18.6 | 18.4 | ||
| 2013-05-13T23:34 | 1413 | 858 | 18.4 | 17.2 | ||
| 2013-05-13T23:34 | 1419 | 857 | 18.4 | 17.9 | ||
| 2013-05-13T23:34 | 1432 | 856 | 18.3 | 16.6 | ||
| 2013-05-13T23:34 | 1509 | 848 | 165 | 6 | ||
| 2013-05-13T23:35 | 1842 | 816 | 14.6 | 13.3 | ||
| 2013-05-13T23:35 | 1861 | 814 | 14.7 | 13.4 | ||
| 2013-05-13T23:35 | 1872 | 813 | 183 | 5 | ||
| 2013-05-13T23:36 | 2101 | 791 | 13.6 | 12.7 | ||
| 2013-05-13T23:36 | 2166 | 785 | 13.5 | 13.2 | ||
| 2013-05-13T23:36 | 2238 | 778 | 207 | 4 | ||
| 2013-05-13T23:36 | 2287 | 774 | 12.4 | 11.0 | ||
| 2013-05-13T23:36 | 2387 | 765 | 12.2 | 10.8 | ||
| 2013-05-13T23:36 | 2418 | 762 | 12.0 | 9.4 | ||
| 2013-05-13T23:37 | 2442 | 760 | 11.8 | 8.8 | ||
| 2013-05-13T23:37 | 2549 | 750 | 10.9 | 8.0 | ||
| 2013-05-13T23:37 | 2610 | 745 | 10.7 | 7.6 | 209 | 6 |
| 2013-05-13T23:37 | 2705 | 736 | 10.0 | 6.5 | ||
| 2013-05-13T23:38 | 2847 | 724 | 9.4 | 5.9 | ||
| 2013-05-13T23:38 | 2858 | 723 | 9.3 | 5.8 | ||
| 2013-05-13T23:38 | 2886 | 720 | 8.9 | 5.1 | ||
| 2013-05-13T23:38 | 2919 | 717 | 8.8 | 4.8 | ||
| 2013-05-13T23:38 | 2939 | 716 | 8.7 | 3.7 | ||
| 2013-05-13T23:38 | 2951 | 715 | 196 | 7 | ||
| 2013-05-13T23:38 | 2972 | 713 | 8.4 | 3.8 | ||
| 2013-05-13T23:38 | 3062 | 705 | 7.9 | 3.0 | ||
| 2013-05-13T23:38 | 3078 | 704 | 7.9 | 3.4 | ||
| 2013-05-13T23:39 | 3110 | 701 | 7.5 | 2.2 | ||
| 2013-05-13T23:39 | 3137 | 699 | 7.7 | 3.6 | ||
| 2013-05-13T23:39 | 3276 | 687 | 6.9 | 2.2 | 196 | 5 |
| 2013-05-13T23:39 | 3293 | 686 | 6.8 | 2.3 | ||
| 2013-05-13T23:39 | 3305 | 685 | 6.8 | 1.9 | ||
| 2013-05-13T23:39 | 3323 | 683 | 6.8 | 2.5 | ||
| 2013-05-13T23:40 | 3452 | 673 | 6.2 | 1.7 | ||
| 2013-05-13T23:40 | 3495 | 669 | 5.9 | 0.8 | ||
| 2013-05-13T23:40 | 3510 | 668 | 5.8 | 0.4 | ||
| 2013-05-13T23:40 | 3595 | 661 | 5.5 | -0.3 | ||
| 2013-05-13T23:40 | 3607 | 660 | 5.4 | 0.4 | ||
| 2013-05-13T23:40 | 3623 | 659 | 237 | 5 | ||
| 2013-05-13T23:40 | 3672 | 655 | 5.2 | -0.2 | ||
| 2013-05-13T23:40 | 3705 | 652 | 5.0 | -0.4 | ||
| 2013-05-13T23:40 | 3716 | 651 | 5.0 | 0.0 | ||
| 2013-05-13T23:40 | 3739 | 649 | 5.0 | 0.0 | ||
| 2013-05-13T23:41 | 3810 | 644 | 4.7 | 0.5 | ||
| 2013-05-13T23:41 | 3912 | 636 | 4.2 | -1.8 | ||
| 2013-05-13T23:41 | 3958 | 632 | 244 | 4 | ||
| 2013-05-13T23:41 | 4038 | 626 | 4.0 | -1.0 | ||
| 2013-05-13T23:41 | 4111 | 620 | 3.9 | -0.9 | ||
| 2013-05-13T23:42 | 4152 | 617 | 3.6 | -1.0 | ||
| 2013-05-13T23:42 | 4173 | 616 | 3.5 | -1.3 | ||
| 2013-05-13T23:42 | 4201 | 614 | 3.5 | -0.9 | ||
| 2013-05-13T23:42 | 4222 | 612 | 3.4 | -3.6 | ||
| 2013-05-13T23:42 | 4290 | 607 | 3.3 | -2.4 | 246 | 3 |
| 2013-05-13T23:42 | 4321 | 605 | 3.4 | -3.0 | ||
| 2013-05-13T23:42 | 4388 | 600 | 3.0 | -0.5 | ||
| 2013-05-13T23:43 | 4447 | 595 | 2.5 | -1.1 | ||
| 2013-05-13T23:43 | 4530 | 589 | 1.9 | -3.2 | ||
| 2013-05-13T23:43 | 4562 | 587 | 1.7 | -1.5 | ||
| 2013-05-13T23:43 | 4603 | 584 | 250 | 7 | ||
| 2013-05-13T23:43 | 4618 | 583 | 1.5 | -5.9 | ||
| 2013-05-13T23:43 | 4655 | 580 | 1.3 | -4.0 | ||
| 2013-05-13T23:43 | 4665 | 579 | 1.2 | -4.1 | ||
| 2013-05-13T23:44 | 4767 | 572 | 0.6 | -4.8 | ||
| 2013-05-13T23:44 | 4817 | 569 | 0.2 | -5.0 | ||
| 2013-05-13T23:44 | 4860 | 565 | -0.1 | -4.7 | ||
| 2013-05-13T23:44 | 4928 | 561 | 252 | 6 | ||
| 2013-05-13T23:44 | 4987 | 557 | -0.7 | -7.3 | ||
| 2013-05-13T23:44 | 5033 | 553 | -1.0 | -6.5 | ||
| 2013-05-13T23:44 | 5051 | 552 | -1.1 | -5.9 | ||
| 2013-05-13T23:45 | 5128 | 547 | -1.3 | -10.4 | ||
| 2013-05-13T23:45 | 5278 | 537 | 268 | 8 | ||
| 2013-05-13T23:45 | 5395 | 529 | -3.1 | -9.6 | ||
| 2013-05-13T23:46 | 5625 | 514 | 271 | 8 | ||
| 2013-05-13T23:46 | 5638 | 513 | -5.4 | -10.6 | ||
| 2013-05-13T23:46 | 5764 | 505 | -6.6 | -11.2 | ||
| 2013-05-13T23:47 | 5969 | 491 | 258 | 9 | ||
| 2013-05-13T23:47 | 6009 | 489 | -8.4 | -13.3 | ||
| 2013-05-13T23:47 | 6061 | 486 | -8.2 | -18.3 | ||
| 2013-05-13T23:48 | 6216 | 476 | -8.4 | -23.7 | ||
| 2013-05-13T23:48 | 6295 | 471 | -8.9 | -22.3 | ||
| 2013-05-13T23:48 | 6333 | 469 | 269 | 8 | ||
| 2013-05-13T23:48 | 6381 | 466 | -9.6 | -21.9 | ||
| 2013-05-13T23:48 | 6455 | 462 | -10.0 | -26.3 | ||
| 2013-05-13T23:49 | 6683 | 448 | 258 | 12 | ||
| 2013-05-13T23:49 | 6754 | 444 | -11.7 | -28.2 | ||
| 2013-05-13T23:50 | 6939 | 433 | -12.6 | -23.1 | ||
| 2013-05-13T23:50 | 7042 | 428 | 249 | 11 | ||
| 2013-05-13T23:50 | 7131 | 423 | -13.5 | -26.0 | ||
| 2013-05-13T23:51 | 7333 | 411 | -14.8 | -23.6 | ||
| 2013-05-13T23:51 | 7396 | 408 | 259 | 11 | ||
| 2013-05-13T23:52 | 7596 | 397 | -17.2 | -23.9 | ||
| 2013-05-13T23:52 | 7750 | 389 | 249 | 12 | ||
| 2013-05-13T23:52 | 7779 | 388 | -18.7 | -25.5 | ||
| 2013-05-13T23:52 | 7885 | 382 | -19.6 | -27.4 | ||
| 2013-05-13T23:53 | 7994 | 377 | -20.3 | -28.0 | ||
| 2013-05-13T23:53 | 8095 | 372 | 245 | 14 | ||
| 2013-05-13T23:53 | 8173 | 368 | -21.7 | -31.2 | ||
| 2013-05-13T23:54 | 8453 | 354 | 257 | 15 | ||
| 2013-05-13T23:55 | 8676 | 343 | -26.2 | -31.7 | ||
| 2013-05-13T23:55 | 8812 | 337 | 262 | 16 | ||
| 2013-05-13T23:55 | 8953 | 330 | -27.6 | -36.4 | ||
| 2013-05-13T23:56 | 9162 | 321 | 267 | 18 | ||
| 2013-05-13T23:57 | 9504 | 306 | 275 | 16 | ||
| 2013-05-13T23:58 | 9742 | 295 | -34.8 | -39.5 | ||
| 2013-05-13T23:58 | 9880 | 290 | 280 | 19 | ||
| 2013-05-13T23:59 | 10239 | 275 | 286 | 24 | ||
| 2013-05-13T23:59 | 10279 | 273 | -39.5 | -43.4 | ||
| 2013-05-14T00:00 | 10456 | 266 | -39.8 | -45.4 | ||
| 2013-05-14T00:00 | 10570 | 262 | 281 | 32 | ||
| 2013-05-14T00:00 | 10639 | 259 | -37.6 | -50.1 | ||
| 2013-05-14T00:01 | 10920 | 249 | 274 | 35 | ||
| 2013-05-14T00:02 | 11119 | 242 | -40.0 | -62.7 | ||
| 2013-05-14T00:02 | 11258 | 237 | 276 | 33 | ||
| 2013-05-14T00:03 | 11622 | 225 | 271 | 30 | ||
| 2013-05-14T00:03 | 11715 | 221 | -43.9 | |||
| 2013-05-14T00:04 | 11986 | 213 | 264 | 30 | ||
| 2013-05-14T00:05 | 12353 | 201 | 264 | 29 | ||
| 2013-05-14T00:06 | 12732 | 190 | 268 | 29 | ||
| 2013-05-14T00:07 | 13108 | 179 | 275 | 30 | ||
| 2013-05-14T00:07 | 13258 | 175 | -57.3 | |||
| 2013-05-14T00:08 | 13456 | 169 | 274 | 30 | ||
| 2013-05-14T00:09 | 13716 | 162 | -60.5 | |||
| 2013-05-14T00:09 | 13816 | 160 | 285 | 31 | ||
| 2013-05-14T00:10 | 14206 | 150 | 293 | 31 | ||
| 2013-05-14T00:11 | 14552 | 142 | 292 | 30 | ||
| 2013-05-14T00:11 | 14690 | 139 | -67.9 | |||
| 2013-05-14T00:12 | 14884 | 134 | 299 | 30 | ||
| 2013-05-14T00:13 | 15098 | 129 | -67.9 | |||
| 2013-05-14T00:13 | 15206 | 127 | 300 | 23 | ||
| 2013-05-14T00:13 | 15306 | 125 | -67.3 | |||
| 2013-05-14T00:14 | 15577 | 120 | 287 | 19 | ||
| 2013-05-14T00:14 | 15739 | 116 | -68.8 | |||
| 2013-05-14T00:15 | 15948 | 112 | 289 | 18 | ||
| 2013-05-14T00:16 | 16322 | 105 | -73.3 | |||
| 2013-05-14T00:16 | 16423 | 104 | 293 | 15 | ||
| 2013-05-14T00:17 | 16911 | 95 | 297 | 20 | ||
| 2013-05-14T00:18 | 17174 | 91 | -79.3 | |||
| 2013-05-14T00:18 | 17345 | 88 | 326 | 19 | ||
| 2013-05-14T00:18 | 17522 | 86 | -79.5 | |||
| 2013-05-14T00:19 | 17678 | 83 | -76.1 | |||
| 2013-05-14T00:19 | 17776 | 82 | 345 | 10 | ||
| 2013-05-14T00:20 | 18139 | 77 | -76.4 | |||
| 2013-05-14T00:20 | 18162 | 77 | 349 | 9 | ||
| 2013-05-14T00:21 | 18417 | 73 | -74.4 | |||
| 2013-05-14T00:21 | 18537 | 72 | 20 | 8 | ||
| 2013-05-14T00:22 | 18897 | 67 | 38 | 6 | ||
| 2013-05-14T00:22 | 19020 | 66 | -74.1 | |||
| 2013-05-14T00:23 | 19145 | 65 | -71.9 | |||
| 2013-05-14T00:23 | 19228 | 64 | -70.3 | |||
| 2013-05-14T00:23 | 19247 | 64 | 333 | 2 | ||
| 2013-05-14T00:24 | 19603 | 60 | -70.6 | |||
| 2013-05-14T00:24 | 19623 | 60 | 284 | 3 | ||
| 2013-05-14T00:25 | 19888 | 57 | -69.2 | |||
| 2013-05-14T00:25 | 19973 | 56 | 19 | 6 | ||
| 2013-05-14T00:26 | 20293 | 53 | -65.5 | |||
| 2013-05-14T00:26 | 20316 | 53 | 79 | 7 | ||
| 2013-05-14T00:27 | 20670 | 50 | 118 | 7 | ||
| 2013-05-14T00:28 | 21019 | 47 | -65.1 | |||
| 2013-05-14T00:28 | 21032 | 47 | 154 | 2 | ||
| 2013-05-14T00:29 | 21392 | 45 | 57 | 5 | ||
| 2013-05-14T00:30 | 21675 | 43 | -62.7 | |||
| 2013-05-14T00:30 | 21748 | 42 | 42 | 8 | ||
| 2013-05-14T00:31 | 22126 | 40 | 95 | 11 | ||
| 2013-05-14T00:32 | 22497 | 37 | 76 | 10 | ||
| 2013-05-14T00:33 | 22785 | 36 | -61.9 | |||
| 2013-05-14T00:33 | 22908 | 35 | 79 | 14 | ||
| 2013-05-14T00:34 | 23295 | 33 | -60.7 | 89 | 12 | |
| 2013-05-14T00:35 | 23670 | 31 | 88 | 11 | ||
| 2013-05-14T00:35 | 23794 | 30 | -56.4 | |||
| 2013-05-14T00:36 | 24052 | 29 | 92 | 12 | ||
| 2013-05-14T00:37 | 24254 | 28 | -54.3 | |||
| 2013-05-14T00:37 | 24439 | 27 | 96 | 12 | ||
| 2013-05-14T00:38 | 24852 | 26 | 112 | 7 | ||
| 2013-05-14T00:39 | 25267 | 24 | 102 | 6 | ||
| 2013-05-14T00:40 | 25654 | 23 | 74 | 8 | ||
| 2013-05-14T00:40 | 25770 | 22 | -52.6 | |||
| 2013-05-14T00:41 | 26037 | 21 | 59 | 6 | ||
| 2013-05-14T00:42 | 26444 | 20 | 71 | 8 | ||
| 2013-05-14T00:43 | 26843 | 19 | 62 | 8 | ||
| 2013-05-14T00:44 | 27270 | 18 | 50 | 12 | ||
| 2013-05-14T00:45 | 27570 | 17 | -52.4 | |||
| 2013-05-14T00:45 | 27687 | 17 | 76 | 8 | ||
| 2013-05-14T00:45 | 27846 | 16 | -50.6 | |||
| 2013-05-14T00:46 | 28136 | 15 | 127 | 7 | ||
| 2013-05-14T00:47 | 28308 | 15 | -49.4 | |||
| 2013-05-14T11:30 | 8 | 1007 | 26.3 | 24.7 | 150 | 4 |
| 2013-05-14T11:30 | 20 | 1006 | 25.8 | 25.5 | ||
| 2013-05-14T11:31 | 312 | 973 | 23.5 | 22.8 | ||
| 2013-05-14T11:31 | 330 | 971 | 166 | 7 | ||
| 2013-05-14T11:32 | 515 | 951 | 22.5 | 21.8 | ||
| 2013-05-14T11:32 | 674 | 933 | 179 | 6 | ||
| 2013-05-14T11:32 | 697 | 931 | 21.5 | 20.8 | ||
| 2013-05-14T11:33 | 854 | 914 | 20.2 | 19.4 | ||
| 2013-05-14T11:33 | 899 | 910 | 20.8 | 19.6 | ||
| 2013-05-14T11:33 | 1011 | 898 | 186 | 5 | ||
| 2013-05-14T11:33 | 1122 | 886 | 19.4 | 18.2 | ||
| 2013-05-14T11:34 | 1350 | 863 | 18.5 | 16.8 | 180 | 4 |
| 2013-05-14T11:35 | 1590 | 840 | 16.6 | 16.1 | ||
| 2013-05-14T11:35 | 1687 | 830 | 186 | 4 | ||
| 2013-05-14T11:36 | 1891 | 810 | 15.3 | 15.0 | ||
| 2013-05-14T11:36 | 2000 | 800 | 223 | 3 | ||
| 2013-05-14T11:36 | 2100 | 791 | 14.2 | 14.0 | ||
| 2013-05-14T11:37 | 2264 | 776 | 13.1 | 12.9 | ||
| 2013-05-14T11:37 | 2297 | 773 | 14.0 | 12.7 | ||
| 2013-05-14T11:37 | 2326 | 770 | 239 | 4 | ||
| 2013-05-14T11:37 | 2365 | 766 | 13.5 | 11.7 | ||
| 2013-05-14T11:38 | 2651 | 741 | 251 | 4 | ||
| 2013-05-14T11:38 | 2688 | 738 | 11.9 | 8.2 | ||
| 2013-05-14T11:39 | 2901 | 719 | 10.7 | 8.3 | ||
| 2013-05-14T11:39 | 2963 | 714 | 11.0 | 7.1 | ||
| 2013-05-14T11:39 | 2975 | 713 | 263 | 5 | ||
| 2013-05-14T11:39 | 3080 | 704 | 10.5 | 5.5 | ||
| 2013-05-14T11:40 | 3197 | 694 | 9.8 | 3.8 | ||
| 2013-05-14T11:40 | 3305 | 685 | 245 | 7 | ||
| 2013-05-14T11:41 | 3538 | 666 | 8.0 | 0.9 | ||
| 2013-05-14T11:41 | 3612 | 660 | 7.6 | -0.6 | ||
| 2013-05-14T11:41 | 3641 | 658 | 237 | 6 | ||
| 2013-05-14T11:41 | 3789 | 646 | 6.0 | -0.1 | ||
| 2013-05-14T11:42 | 3857 | 641 | 5.4 | 1.3 | ||
| 2013-05-14T11:42 | 3881 | 639 | 5.2 | 1.3 | ||
| 2013-05-14T11:42 | 3984 | 631 | 235 | 6 | ||
| 2013-05-14T11:42 | 4040 | 626 | 4.2 | 1.4 | ||
| 2013-05-14T11:42 | 4065 | 625 | 4.3 | 1.3 | ||
| 2013-05-14T11:43 | 4224 | 612 | 3.9 | -3.8 | ||
| 2013-05-14T11:43 | 4265 | 609 | 4.0 | -8.1 | ||
| 2013-05-14T11:43 | 4313 | 606 | 3.8 | -7.3 | ||
| 2013-05-14T11:43 | 4347 | 603 | 241 | 8 | ||
| 2013-05-14T11:43 | 4363 | 602 | 3.7 | -8.7 | ||
| 2013-05-14T11:44 | 4515 | 591 | 2.5 | -5.4 | ||
| 2013-05-14T11:44 | 4558 | 588 | 2.1 | -2.0 | ||
| 2013-05-14T11:44 | 4627 | 583 | 1.6 | -3.9 | ||
| 2013-05-14T11:44 | 4649 | 581 | 1.4 | -4.1 | ||
| 2013-05-14T11:44 | 4671 | 580 | 248 | 8 | ||
| 2013-05-14T11:44 | 4747 | 574 | 0.5 | -3.1 | ||
| 2013-05-14T11:44 | 4799 | 570 | 0.0 | -1.6 | ||
| 2013-05-14T11:44 | 4815 | 569 | -0.1 | -1.8 | ||
| 2013-05-14T11:45 | 5008 | 556 | 247 | 9 | ||
| 2013-05-14T11:45 | 5094 | 550 | -2.3 | -3.0 | ||
| 2013-05-14T11:45 | 5121 | 548 | -2.3 | -5.4 | ||
| 2013-05-14T11:46 | 5247 | 539 | -3.3 | -5.3 | ||
| 2013-05-14T11:46 | 5281 | 537 | -3.4 | -7.5 | ||
| 2013-05-14T11:46 | 5340 | 533 | 245 | 11 | ||
| 2013-05-14T11:46 | 5355 | 532 | -4.0 | -6.0 | ||
| 2013-05-14T11:46 | 5467 | 524 | -4.7 | -8.6 | ||
| 2013-05-14T11:47 | 5524 | 521 | -5.1 | -8.5 | ||
| 2013-05-14T11:47 | 5650 | 512 | 244 | 13 | ||
| 2013-05-14T11:47 | 5670 | 511 | -5.6 | -13.2 | ||
| 2013-05-14T11:47 | 5701 | 509 | -5.7 | -11.4 | ||
| 2013-05-14T11:47 | 5730 | 507 | -5.7 | -15.2 | ||
| 2013-05-14T11:47 | 5791 | 503 | -6.1 | -15.6 | ||
| 2013-05-14T11:48 | 5842 | 500 | -6.5 | -13.6 | ||
| 2013-05-14T11:48 | 5958 | 493 | 262 | 14 | ||
| 2013-05-14T11:48 | 6011 | 489 | -7.6 | -15.1 | ||
| 2013-05-14T11:48 | 6077 | 485 | -7.6 | -13.8 | ||
| 2013-05-14T11:49 | 6211 | 477 | -8.1 | -18.2 | ||
| 2013-05-14T11:49 | 6250 | 474 | -8.2 | -19.4 | ||
| 2013-05-14T11:49 | 6260 | 474 | 282 | 15 | ||
| 2013-05-14T11:50 | 6454 | 462 | -8.9 | -23.3 | ||
| 2013-05-14T11:50 | 6550 | 456 | -9.1 | -21.8 | ||
| 2013-05-14T11:50 | 6572 | 455 | 268 | 17 | ||
| 2013-05-14T11:50 | 6582 | 455 | -8.8 | -21.2 | ||
| 2013-05-14T11:51 | 6773 | 443 | -10.2 | -19.4 | ||
| 2013-05-14T11:51 | 6885 | 437 | 266 | 17 | ||
| 2013-05-14T11:52 | 7128 | 423 | -13.4 | -20.1 | ||
| 2013-05-14T11:52 | 7227 | 418 | 268 | 16 | ||
| 2013-05-14T11:52 | 7275 | 415 | -14.1 | -23.7 | ||
| 2013-05-14T11:53 | 7566 | 400 | 261 | 17 | ||
| 2013-05-14T11:53 | 7686 | 393 | -17.3 | -24.4 | ||
| 2013-05-14T11:54 | 7913 | 381 | 262 | 18 | ||
| 2013-05-14T11:54 | 8060 | 374 | -20.6 | -29.5 | ||
| 2013-05-14T11:55 | 8278 | 363 | 265 | 18 | ||
| 2013-05-14T11:56 | 8578 | 348 | -25.3 | -28.3 | ||
| 2013-05-14T11:56 | 8622 | 346 | 255 | 19 | ||
| 2013-05-14T11:56 | 8721 | 342 | -26.2 | -26.9 | ||
| 2013-05-14T11:57 | 8847 | 336 | -27.2 | -28.5 | ||
| 2013-05-14T11:57 | 8914 | 333 | -27.6 | -30.3 | ||
| 2013-05-14T11:57 | 8953 | 331 | 250 | 23 | ||
| 2013-05-14T11:57 | 9093 | 324 | -29.0 | -31.5 | ||
| 2013-05-14T11:58 | 9152 | 322 | -29.0 | -30.6 | ||
| 2013-05-14T11:58 | 9190 | 320 | -28.7 | -29.4 | ||
| 2013-05-14T11:58 | 9262 | 317 | -29.0 | -30.5 | ||
| 2013-05-14T11:58 | 9278 | 316 | 258 | 24 | ||
| 2013-05-14T11:59 | 9589 | 303 | -30.9 | -52.6 | ||
| 2013-05-14T11:59 | 9601 | 302 | 267 | 26 | ||
| 2013-05-14T11:59 | 9678 | 299 | -30.9 | -60.1 | ||
| 2013-05-14T12:00 | 9938 | 288 | 279 | 25 | ||
| 2013-05-14T12:00 | 9944 | 288 | -32.1 | -56.5 | ||
| 2013-05-14T12:01 | 10147 | 280 | -33.4 | -48.3 | ||
| 2013-05-14T12:01 | 10299 | 274 | 284 | 26 | ||
| 2013-05-14T12:02 | 10650 | 260 | 286 | 30 | ||
| 2013-05-14T12:02 | 10685 | 259 | -37.5 | -51.4 | ||
| 2013-05-14T12:03 | 10987 | 248 | -38.7 | -65.9 | ||
| 2013-05-14T12:03 | 11012 | 247 | 287 | 33 | ||
| 2013-05-14T12:03 | 11149 | 242 | -40.0 | -71.8 | ||
| 2013-05-14T12:04 | 11357 | 235 | 286 | 32 | ||
| 2013-05-14T12:05 | 11669 | 224 | 284 | 32 | ||
| 2013-05-14T12:06 | 12017 | 213 | 280 | 30 | ||
| 2013-05-14T12:07 | 12364 | 202 | 278 | 29 | ||
| 2013-05-14T12:08 | 12714 | 191 | 271 | 28 | ||
| 2013-05-14T12:08 | 12840 | 187 | -53.6 | |||
| 2013-05-14T12:09 | 13056 | 181 | 274 | 28 | ||
| 2013-05-14T12:10 | 13263 | 175 | -56.1 | |||
| 2013-05-14T12:10 | 13380 | 172 | 274 | 27 | ||
| 2013-05-14T12:11 | 13687 | 164 | 274 | 26 | ||
| 2013-05-14T12:12 | 13975 | 157 | -61.2 | |||
| 2013-05-14T12:12 | 14027 | 155 | 285 | 25 | ||
| 2013-05-14T12:13 | 14398 | 146 | 294 | 21 | ||
| 2013-05-14T12:14 | 14722 | 139 | -66.8 | |||
| 2013-05-14T12:14 | 14757 | 138 | 292 | 17 | ||
| 2013-05-14T12:14 | 14980 | 133 | -68.0 | |||
| 2013-05-14T12:15 | 15191 | 128 | -68.5 | |||
| 2013-05-14T12:15 | 15210 | 128 | 290 | 19 | ||
| 2013-05-14T12:16 | 15670 | 118 | 304 | 20 | ||
| 2013-05-14T12:17 | 16035 | 111 | -72.6 | |||
| 2013-05-14T12:17 | 16131 | 109 | 299 | 16 | ||
| 2013-05-14T12:17 | 16309 | 106 | -74.1 | |||
| 2013-05-14T12:18 | 16533 | 102 | 321 | 18 | ||
| 2013-05-14T12:19 | 16866 | 96 | -75.3 | |||
| 2013-05-14T12:19 | 16963 | 95 | 309 | 14 | ||
| 2013-05-14T12:20 | 17268 | 90 | -78.2 | |||
| 2013-05-14T12:20 | 17416 | 88 | 310 | 15 | ||
| 2013-05-14T12:21 | 17834 | 81 | 322 | 16 | ||
| 2013-05-14T12:22 | 18076 | 78 | -79.1 | |||
| 2013-05-14T12:22 | 18231 | 76 | 343 | 9 | ||
| 2013-05-14T12:23 | 18424 | 73 | -76.4 | |||
| 2013-05-14T12:23 | 18607 | 71 | 64 | 3 | ||
| 2013-05-14T12:24 | 18870 | 68 | -78.0 | |||
| 2013-05-14T12:24 | 18980 | 67 | 87 | 1 | ||
| 2013-05-14T12:24 | 19059 | 66 | -78.0 | |||
| 2013-05-14T12:25 | 19290 | 63 | -76.3 | |||
| 2013-05-14T12:25 | 19327 | 63 | 353 | 4 | ||
| 2013-05-14T12:26 | 19566 | 60 | -70.1 | |||
| 2013-05-14T12:26 | 19676 | 59 | 52 | 6 | ||
| 2013-05-14T12:26 | 19706 | 59 | -67.5 | |||
| 2013-05-14T12:26 | 19789 | 58 | -65.4 | |||
| 2013-05-14T12:27 | 19960 | 56 | -64.3 | |||
| 2013-05-14T12:27 | 20014 | 56 | 117 | 5 | ||
| 2013-05-14T12:28 | 20351 | 53 | 112 | 2 | ||
| 2013-05-14T12:29 | 20720 | 50 | 35 | 8 | ||
| 2013-05-14T12:29 | 20769 | 49 | -65.0 | |||
| 2013-05-14T12:30 | 21073 | 47 | 51 | 11 | ||
| 2013-05-14T12:31 | 21421 | 44 | 67 | 8 | ||
| 2013-05-14T12:32 | 21776 | 42 | 104 | 9 | ||
| 2013-05-14T12:33 | 22139 | 40 | 82 | 7 | ||
| 2013-05-14T12:34 | 22492 | 37 | 92 | 6 | ||
| 2013-05-14T12:34 | 22525 | 37 | -62.1 | |||
| 2013-05-14T12:35 | 22834 | 35 | 52 | 7 | ||
| 2013-05-14T12:36 | 23105 | 34 | -58.6 | |||
| 2013-05-14T12:36 | 23199 | 33 | 68 | 10 | ||
| 2013-05-14T12:37 | 23588 | 31 | 52 | 7 | ||
| 2013-05-14T12:38 | 23962 | 30 | 70 | 10 | ||
| 2013-05-14T12:38 | 24070 | 29 | -57.5 | |||
| 2013-05-14T12:39 | 24337 | 28 | 66 | 7 | ||
| 2013-05-14T12:40 | 24689 | 26 | 28 | 8 | ||
| 2013-05-14T12:41 | 25088 | 25 | 31 | 8 | ||
| 2013-05-14T12:41 | 25192 | 24 | -55.0 | |||
| 2013-05-14T12:42 | 25516 | 23 | 27 | 11 | ||
| 2013-05-14T12:43 | 25860 | 22 | -52.6 | |||
| 2013-05-14T12:43 | 25919 | 22 | 50 | 12 | ||
| 2013-05-14T12:44 | 26289 | 21 | 73 | 14 | ||
| 2013-05-14T12:44 | 26321 | 20 | -49.7 | |||
| 2013-05-14T12:45 | 26684 | 19 | 71 | 14 | ||
| 2013-05-14T12:46 | 26963 | 19 | -48.4 | |||
| 2013-05-14T12:46 | 27143 | 18 | 81 | 13 | ||
| 2013-05-14T12:47 | 27594 | 17 | 102 | 13 | ||
| 2013-05-14T12:48 | 27871 | 16 | -51.3 | |||
| 2013-05-14T12:48 | 28034 | 16 | 84 | 11 | ||
| 2013-05-14T12:49 | 28463 | 15 | 90 | 16 | ||
| 2013-05-14T12:50 | 28876 | 14 | 88 | 7 | ||
| 2013-05-14T12:50 | 28971 | 14 | -49.6 | |||
| 2013-05-14T23:30 | 8 | 1008 | 26.8 | 24.6 | 240 | 3 |
| 2013-05-14T23:31 | 256 | 980 | 23.7 | 22.5 | ||
| 2013-05-14T23:31 | 291 | 977 | 23.4 | 22.4 | ||
| 2013-05-14T23:31 | 336 | 972 | 223 | 5 | ||
| 2013-05-14T23:31 | 341 | 971 | 23.0 | 22.0 | ||
| 2013-05-14T23:32 | 599 | 943 | 22.0 | 20.5 | ||
| 2013-05-14T23:32 | 670 | 935 | 209 | 7 | ||
| 2013-05-14T23:33 | 902 | 911 | 21.2 | 18.0 | ||
| 2013-05-14T23:33 | 1003 | 900 | 221 | 8 | ||
| 2013-05-14T23:33 | 1058 | 894 | 20.6 | 17.0 | ||
| 2013-05-14T23:34 | 1300 | 870 | 19.6 | 15.5 | ||
| 2013-05-14T23:34 | 1335 | 866 | 242 | 9 | ||
| 2013-05-14T23:35 | 1566 | 843 | 18.0 | 14.9 | ||
| 2013-05-14T23:35 | 1683 | 832 | 249 | 7 | ||
| 2013-05-14T23:36 | 1858 | 815 | 16.1 | 13.2 | ||
| 2013-05-14T23:36 | 2028 | 799 | 15.7 | 11.3 | ||
| 2013-05-14T23:36 | 2040 | 798 | 235 | 9 | ||
| 2013-05-14T23:37 | 2381 | 766 | 13.5 | 9.9 | ||
| 2013-05-14T23:37 | 2388 | 766 | 227 | 7 | ||
| 2013-05-14T23:37 | 2524 | 753 | 13.2 | 8.3 | ||
| 2013-05-14T23:38 | 2611 | 746 | 13.0 | 6.8 | ||
| 2013-05-14T23:38 | 2710 | 737 | 12.4 | 5.6 | ||
| 2013-05-14T23:38 | 2744 | 734 | 234 | 9 | ||
| 2013-05-14T23:38 | 2886 | 722 | 11.6 | 6.3 | ||
| 2013-05-14T23:39 | 3082 | 705 | 242 | 11 | ||
| 2013-05-14T23:39 | 3097 | 704 | 9.8 | 5.8 | ||
| 2013-05-14T23:40 | 3343 | 683 | 8.8 | 4.2 | ||
| 2013-05-14T23:40 | 3404 | 678 | 240 | 12 | ||
| 2013-05-14T23:40 | 3426 | 676 | 8.7 | 2.5 | ||
| 2013-05-14T23:40 | 3554 | 666 | 7.6 | 4.4 | ||
| 2013-05-14T23:41 | 3714 | 653 | 6.7 | 2.6 | ||
| 2013-05-14T23:41 | 3737 | 651 | 244 | 10 | ||
| 2013-05-14T23:41 | 3841 | 643 | 5.8 | 0.9 | ||
| 2013-05-14T23:42 | 4018 | 629 | 4.9 | -0.3 | ||
| 2013-05-14T23:42 | 4090 | 624 | 237 | 12 | ||
| 2013-05-14T23:42 | 4102 | 623 | 4.1 | 0.8 | ||
| 2013-05-14T23:42 | 4190 | 616 | 3.8 | 1.3 | ||
| 2013-05-14T23:42 | 4226 | 613 | 4.0 | -1.2 | ||
| 2013-05-14T23:43 | 4302 | 608 | 3.3 | -3.3 | ||
| 2013-05-14T23:43 | 4412 | 600 | 2.9 | -1.8 | ||
| 2013-05-14T23:43 | 4435 | 598 | 242 | 11 | ||
| 2013-05-14T23:43 | 4469 | 595 | 2.6 | -5.1 | ||
| 2013-05-14T23:43 | 4481 | 594 | 2.6 | -5.5 | ||
| 2013-05-14T23:43 | 4521 | 592 | 2.5 | -9.4 | ||
| 2013-05-14T23:43 | 4589 | 587 | 2.3 | -14.4 | ||
| 2013-05-14T23:44 | 4613 | 585 | 2.2 | -14.9 | ||
| 2013-05-14T23:44 | 4625 | 584 | 2.1 | -15.0 | ||
| 2013-05-14T23:44 | 4728 | 577 | 1.3 | -10.5 | ||
| 2013-05-14T23:44 | 4788 | 572 | 247 | 10 | ||
| 2013-05-14T23:44 | 4868 | 567 | 0.7 | -14.1 | ||
| 2013-05-14T23:44 | 4928 | 562 | 0.2 | -12.5 | ||
| 2013-05-14T23:44 | 4959 | 560 | 0.0 | -18.2 | ||
| 2013-05-14T23:45 | 5002 | 557 | -0.2 | -19.9 | ||
| 2013-05-14T23:45 | 5069 | 553 | -0.8 | -16.6 | ||
| 2013-05-14T23:45 | 5155 | 547 | 236 | 9 | ||
| 2013-05-14T23:45 | 5210 | 543 | -2.1 | -11.1 | ||
| 2013-05-14T23:45 | 5246 | 540 | -2.4 | -11.4 | ||
| 2013-05-14T23:46 | 5522 | 522 | 249 | 10 | ||
| 2013-05-14T23:46 | 5578 | 518 | -4.9 | -12.8 | ||
| 2013-05-14T23:46 | 5647 | 514 | -4.6 | -14.0 | ||
| 2013-05-14T23:47 | 5868 | 499 | -5.8 | -15.6 | ||
| 2013-05-14T23:47 | 5892 | 498 | 273 | 11 | ||
| 2013-05-14T23:47 | 6014 | 490 | -7.2 | -15.9 | ||
| 2013-05-14T23:48 | 6074 | 486 | -7.6 | -14.2 | ||
| 2013-05-14T23:48 | 6118 | 484 | -7.7 | -13.3 | ||
| 2013-05-14T23:48 | 6259 | 475 | 296 | 9 | ||
| 2013-05-14T23:48 | 6346 | 470 | -8.3 | -14.7 | ||
| 2013-05-14T23:49 | 6629 | 453 | 284 | 12 | ||
| 2013-05-14T23:49 | 6689 | 449 | -10.8 | -13.4 | ||
| 2013-05-14T23:50 | 6992 | 432 | 278 | 16 | ||
| 2013-05-14T23:50 | 7036 | 429 | -13.3 | -16.5 | ||
| 2013-05-14T23:51 | 7330 | 413 | -15.5 | -18.5 | ||
| 2013-05-14T23:51 | 7370 | 411 | 276 | 15 | ||
| 2013-05-14T23:52 | 7587 | 399 | -17.4 | -19.3 | ||
| 2013-05-14T23:52 | 7742 | 391 | 280 | 18 | ||
| 2013-05-14T23:52 | 7914 | 382 | -20.1 | -21.3 | ||
| 2013-05-14T23:53 | 8124 | 371 | -21.3 | -23.0 | 288 | 20 |
| 2013-05-14T23:53 | 8256 | 365 | -22.5 | -24.3 | ||
| 2013-05-14T23:53 | 8296 | 363 | -22.5 | -24.3 | ||
| 2013-05-14T23:54 | 8507 | 352 | 291 | 20 | ||
| 2013-05-14T23:55 | 8780 | 339 | -26.2 | -27.5 | ||
| 2013-05-14T23:55 | 8851 | 336 | 285 | 21 | ||
| 2013-05-14T23:55 | 8898 | 334 | -27.1 | -28.5 | ||
| 2013-05-14T23:55 | 8929 | 333 | -27.4 | -28.8 | ||
| 2013-05-14T23:56 | 9197 | 320 | 288 | 19 | ||
| 2013-05-14T23:56 | 9230 | 319 | -29.2 | -32.5 | ||
| 2013-05-14T23:57 | 9499 | 307 | -31.1 | -35.4 | ||
| 2013-05-14T23:57 | 9545 | 305 | 289 | 21 | ||
| 2013-05-14T23:58 | 9740 | 297 | -32.8 | -38.1 | ||
| 2013-05-14T23:58 | 9896 | 290 | 299 | 14 | ||
| 2013-05-14T23:58 | 9915 | 289 | -33.4 | -40.9 | ||
| 2013-05-14T23:58 | 10022 | 285 | -33.1 | -45.4 | ||
| 2013-05-14T23:59 | 10242 | 276 | 327 | 12 | ||
| 2013-05-15T00:00 | 10585 | 263 | 313 | 15 | ||
| 2013-05-15T00:01 | 10795 | 255 | -38.5 | -53.1 | ||
| 2013-05-15T00:01 | 10931 | 250 | 316 | 19 | ||
| 2013-05-15T00:01 | 10958 | 249 | -40.0 | -52.9 | ||
| 2013-05-15T00:02 | 11273 | 238 | 316 | 20 | ||
| 2013-05-15T00:03 | 11641 | 225 | 314 | 25 | ||
| 2013-05-15T00:04 | 12044 | 212 | 306 | 25 | ||
| 2013-05-15T00:05 | 12308 | 203 | -51.5 | |||
| 2013-05-15T00:05 | 12489 | 198 | 294 | 19 | ||
| 2013-05-15T00:06 | 12848 | 187 | 288 | 19 | ||
| 2013-05-15T00:06 | 12954 | 184 | -57.0 | |||
| 2013-05-15T00:07 | 13192 | 177 | 282 | 22 | ||
| 2013-05-15T00:08 | 13456 | 170 | -59.5 | |||
| 2013-05-15T00:08 | 13552 | 167 | 279 | 25 | ||
| 2013-05-15T00:09 | 13854 | 159 | -61.4 | |||
| 2013-05-15T00:09 | 13897 | 158 | 276 | 23 | ||
| 2013-05-15T00:10 | 14230 | 150 | 283 | 23 | ||
| 2013-05-15T00:10 | 14363 | 147 | -63.4 | |||
| 2013-05-15T00:11 | 14567 | 142 | 284 | 22 | ||
| 2013-05-15T00:12 | 14901 | 134 | 281 | 23 | ||
| 2013-05-15T00:12 | 15023 | 132 | -68.0 | |||
| 2013-05-15T00:13 | 15251 | 127 | 297 | 25 | ||
| 2013-05-15T00:13 | 15288 | 126 | -68.7 | |||
| 2013-05-15T00:14 | 15690 | 118 | 315 | 21 | ||
| 2013-05-15T00:15 | 15837 | 115 | -71.2 | |||
| 2013-05-15T11:30 | 8 | 1008 | 26.0 | 24.2 | 110 | 4 |
| 2013-05-15T11:30 | 93 | 998 | 24.6 | 22.9 | ||
| 2013-05-15T11:31 | 145 | 992 | 25.2 | 23.1 | ||
| 2013-05-15T11:31 | 313 | 974 | 163 | 6 | ||
| 2013-05-15T11:32 | 598 | 943 | 22.8 | 21.6 | ||
| 2013-05-15T11:32 | 641 | 938 | 202 | 8 | ||
| 2013-05-15T11:33 | 816 | 919 | 21.5 | 20.1 | ||
| 2013-05-15T11:33 | 962 | 904 | 206 | 8 | ||
| 2013-05-15T11:33 | 1106 | 889 | 19.5 | 18.0 | ||
| 2013-05-15T11:34 | 1208 | 879 | 19.3 | 16.5 | ||
| 2013-05-15T11:34 | 1273 | 872 | 19.1 | 15.6 | 210 | 10 |
| 2013-05-15T11:34 | 1395 | 860 | 18.3 | 15.6 | ||
| 2013-05-15T11:35 | 1423 | 857 | 18.1 | 14.2 | ||
| 2013-05-15T11:35 | 1453 | 854 | 18.0 | 16.7 | ||
| 2013-05-15T11:35 | 1508 | 849 | 17.6 | 16.1 | ||
| 2013-05-15T11:35 | 1557 | 844 | 17.2 | 15.9 | ||
| 2013-05-15T11:35 | 1572 | 842 | 208 | 11 | ||
| 2013-05-15T11:36 | 1729 | 827 | 16.6 | 16.1 | ||
| 2013-05-15T11:36 | 1833 | 817 | 16.2 | 14.7 | ||
| 2013-05-15T11:36 | 1880 | 813 | 213 | 10 | ||
| 2013-05-15T11:36 | 1988 | 802 | 15.5 | 13.9 | ||
| 2013-05-15T11:37 | 2151 | 787 | 14.6 | 13.6 | ||
| 2013-05-15T11:37 | 2206 | 782 | 221 | 12 | ||
| 2013-05-15T11:38 | 2386 | 766 | 13.6 | 12.2 | ||
| 2013-05-15T11:38 | 2489 | 756 | 13.2 | 12.1 | ||
| 2013-05-15T11:38 | 2548 | 751 | 231 | 12 | ||
| 2013-05-15T11:38 | 2601 | 746 | 12.5 | 11.2 | ||
| 2013-05-15T11:39 | 2790 | 730 | 12.4 | 9.0 | ||
| 2013-05-15T11:39 | 2900 | 720 | 241 | 13 | ||
| 2013-05-15T11:39 | 2941 | 717 | 11.5 | 6.8 | ||
| 2013-05-15T11:39 | 3027 | 709 | 10.7 | 6.8 | ||
| 2013-05-15T11:40 | 3083 | 705 | 10.2 | 6.5 | ||
| 2013-05-15T11:40 | 3136 | 700 | 9.8 | 5.2 | ||
| 2013-05-15T11:40 | 3226 | 693 | 9.4 | 4.4 | ||
| 2013-05-15T11:40 | 3243 | 691 | 241 | 15 | ||
| 2013-05-15T11:41 | 3420 | 677 | 8.7 | 2.7 | ||
| 2013-05-15T11:41 | 3582 | 663 | 237 | 15 | ||
| 2013-05-15T11:42 | 3900 | 638 | 5.0 | 2.5 | ||
| 2013-05-15T11:42 | 3923 | 636 | 233 | 15 | ||
| 2013-05-15T11:43 | 4137 | 620 | 3.2 | 1.7 | ||
| 2013-05-15T11:43 | 4228 | 613 | 2.6 | 1.3 | ||
| 2013-05-15T11:43 | 4257 | 611 | 2.6 | 1.3 | 228 | 13 |
| 2013-05-15T11:43 | 4273 | 610 | 2.5 | 1.0 | ||
| 2013-05-15T11:43 | 4284 | 609 | 2.4 | 0.0 | ||
| 2013-05-15T11:43 | 4364 | 603 | 1.8 | 0.2 | ||
| 2013-05-15T11:43 | 4375 | 602 | 1.7 | -0.9 | ||
| 2013-05-15T11:43 | 4404 | 600 | 1.6 | -1.5 | ||
| 2013-05-15T11:44 | 4522 | 591 | 1.4 | -0.7 | ||
| 2013-05-15T11:44 | 4564 | 588 | 239 | 8 | ||
| 2013-05-15T11:44 | 4592 | 586 | 1.1 | -2.5 | ||
| 2013-05-15T11:44 | 4719 | 577 | 0.0 | -3.0 | ||
| 2013-05-15T11:45 | 4772 | 573 | -0.1 | -2.0 | ||
| 2013-05-15T11:45 | 4885 | 565 | -0.6 | -1.0 | ||
| 2013-05-15T11:45 | 4911 | 563 | 239 | 15 | ||
| 2013-05-15T11:46 | 5274 | 538 | 239 | 17 | ||
| 2013-05-15T11:47 | 5646 | 513 | 242 | 16 | ||
| 2013-05-15T11:48 | 6016 | 490 | 243 | 13 | ||
| 2013-05-15T11:48 | 6065 | 487 | -6.7 | -7.4 | ||
| 2013-05-15T11:49 | 6376 | 468 | 243 | 11 | ||
| 2013-05-15T11:50 | 6723 | 447 | 265 | 12 | ||
| 2013-05-15T11:50 | 6819 | 442 | -10.0 | -11.1 | ||
| 2013-05-15T11:51 | 7090 | 426 | 269 | 12 | ||
| 2013-05-15T11:52 | 7370 | 411 | -13.6 | -14.2 | ||
| 2013-05-15T11:52 | 7495 | 404 | 280 | 12 | ||
| 2013-05-15T11:53 | 7905 | 383 | 282 | 12 | ||
| 2013-05-15T11:54 | 8304 | 363 | 281 | 12 | ||
| 2013-05-15T11:55 | 8567 | 350 | -21.4 | -22.5 | ||
| 2013-05-15T11:55 | 8701 | 344 | 286 | 14 | ||
| 2013-05-15T11:56 | 9100 | 326 | 283 | 13 | ||
| 2013-05-15T11:56 | 9223 | 320 | -26.2 | -27.5 | ||
| 2013-05-15T11:57 | 9484 | 309 | 274 | 14 | ||
| 2013-05-15T11:58 | 9851 | 293 | 268 | 15 | ||
| 2013-05-15T11:58 | 9914 | 291 | -32.0 | -33.9 | ||
| 2013-05-15T11:59 | 10243 | 278 | 267 | 17 | ||
| 2013-05-15T12:00 | 10492 | 268 | -37.1 | -39.3 | ||
| 2013-05-15T12:00 | 10625 | 263 | 263 | 16 | ||
| 2013-05-15T12:01 | 10874 | 253 | -40.0 | -42.2 | ||
| 2013-05-15T12:01 | 11007 | 248 | 264 | 17 | ||
| 2013-05-15T12:02 | 11379 | 235 | 265 | 17 | ||
| 2013-05-15T12:03 | 11749 | 222 | 273 | 19 | ||
| 2013-05-15T12:04 | 12096 | 211 | 268 | 21 | ||
| 2013-05-15T12:04 | 12102 | 211 | -49.8 | |||
| 2013-05-15T12:05 | 12467 | 199 | 278 | 21 | ||
| 2013-05-15T12:06 | 12858 | 187 | 290 | 23 | ||
| 2013-05-15T12:07 | 13247 | 176 | 295 | 24 | ||
| 2013-05-15T12:08 | 13551 | 168 | -61.7 | |||
| 2013-05-15T12:08 | 13674 | 165 | 307 | 29 | ||
| 2013-05-15T12:09 | 13962 | 157 | -62.1 | |||
| 2013-05-15T12:09 | 14101 | 154 | 313 | 20 | ||
| 2013-05-15T12:10 | 14317 | 148 | -64.2 | |||
| 2013-05-15T12:10 | 14522 | 143 | 297 | 17 | ||
| 2013-05-15T12:11 | 14977 | 133 | 286 | 17 | ||
| 2013-05-15T12:12 | 15332 | 125 | -70.8 | |||
| 2013-05-15T12:12 | 15427 | 123 | 293 | 20 | ||
| 2013-05-15T12:13 | 15794 | 116 | -70.8 | |||
| 2013-05-15T12:13 | 15850 | 115 | 302 | 19 | ||
| 2013-05-15T12:14 | 16298 | 106 | 289 | 10 | ||
| 2013-05-15T12:14 | 16505 | 103 | -74.5 | |||
| 2013-05-15T12:15 | 16712 | 99 | 267 | 11 | ||
| 2013-05-15T12:16 | 17112 | 92 | 292 | 6 | ||
| 2013-05-15T12:16 | 17264 | 90 | -76.1 | |||
| 2013-05-15T12:17 | 17546 | 86 | 314 | 9 | ||
| 2013-05-15T12:17 | 17745 | 83 | -76.0 | |||
| 2013-05-15T12:18 | 17958 | 80 | 350 | 9 | ||
| 2013-05-15T12:19 | 18081 | 78 | -76.8 | |||
| 2013-05-15T23:31 | 8 | 1008 | 26.9 | 25.7 | 190 | 6 |
| 2013-05-15T23:31 | 17 | 1007 | 26.0 | 25.8 | ||
| 2013-05-15T23:32 | 309 | 974 | 207 | 13 | ||
| 2013-05-15T23:32 | 335 | 971 | 24.2 | 23.7 | ||
| 2013-05-15T23:33 | 663 | 936 | 218 | 15 | ||
| 2013-05-15T23:33 | 791 | 922 | 21.4 | 20.7 | ||
| 2013-05-15T23:34 | 840 | 917 | 21.2 | 19.3 | ||
| 2013-05-15T23:34 | 988 | 901 | 225 | 13 | ||
| 2013-05-15T23:34 | 1003 | 900 | 19.9 | 19.2 | ||
| 2013-05-15T23:34 | 1014 | 899 | 19.9 | 17.9 | ||
| 2013-05-15T23:35 | 1173 | 882 | 19.2 | 18.7 | ||
| 2013-05-15T23:35 | 1309 | 868 | 227 | 11 | ||
| 2013-05-15T23:35 | 1366 | 863 | 18.3 | 17.5 | ||
| 2013-05-15T23:35 | 1417 | 858 | 18.9 | 15.8 | ||
| 2013-05-15T23:36 | 1544 | 845 | 18.3 | 13.8 | ||
| 2013-05-15T23:36 | 1655 | 834 | 226 | 10 | ||
| 2013-05-15T23:37 | 1927 | 808 | 15.8 | 13.1 | ||
| 2013-05-15T23:37 | 2000 | 801 | 222 | 11 | ||
| 2013-05-15T23:37 | 2104 | 791 | 15.1 | 11.9 | ||
| 2013-05-15T23:38 | 2212 | 781 | 14.2 | 11.7 | ||
| 2013-05-15T23:38 | 2349 | 769 | 13.6 | 11.5 | 225 | 13 |
| 2013-05-15T23:38 | 2511 | 754 | 12.6 | 12.1 | ||
| 2013-05-15T23:39 | 2587 | 747 | 12.4 | 11.3 | ||
| 2013-05-15T23:39 | 2705 | 737 | 12.0 | 11.1 | ||
| 2013-05-15T23:39 | 2730 | 735 | 230 | 12 | ||
| 2013-05-15T23:40 | 2920 | 718 | 11.5 | 8.9 | ||
| 2013-05-15T23:40 | 3100 | 703 | 233 | 11 | ||
| 2013-05-15T23:40 | 3236 | 692 | 9.6 | 5.8 | ||
| 2013-05-15T23:41 | 3415 | 677 | 8.6 | 4.6 | ||
| 2013-05-15T23:41 | 3430 | 676 | 8.7 | 3.9 | ||
| 2013-05-15T23:41 | 3436 | 675 | 245 | 12 | ||
| 2013-05-15T23:41 | 3442 | 675 | 8.6 | 3.4 | ||
| 2013-05-15T23:41 | 3453 | 674 | 9.0 | 3.8 | ||
| 2013-05-15T23:42 | 3707 | 653 | 7.7 | 2.2 | ||
| 2013-05-15T23:42 | 3793 | 647 | 247 | 15 | ||
| 2013-05-15T23:43 | 4130 | 621 | 246 | 17 | ||
| 2013-05-15T23:43 | 4161 | 618 | 4.3 | 0.1 | ||
| 2013-05-15T23:44 | 4341 | 605 | 3.0 | -0.6 | ||
| 2013-05-15T23:44 | 4452 | 597 | 242 | 19 | ||
| 2013-05-15T23:44 | 4520 | 592 | 1.8 | -1.3 | ||
| 2013-05-15T23:45 | 4733 | 576 | 0.2 | -1.6 | ||
| 2013-05-15T23:45 | 4774 | 573 | 247 | 15 | ||
| 2013-05-15T23:46 | 4979 | 559 | -1.5 | -1.9 | ||
| 2013-05-15T23:46 | 5078 | 552 | -2.1 | -2.5 | ||
| 2013-05-15T23:46 | 5100 | 550 | -2.2 | -2.6 | ||
| 2013-05-15T23:46 | 5111 | 549 | -2.3 | -2.7 | ||
| 2013-05-15T23:46 | 5128 | 548 | 253 | 17 | ||
| 2013-05-15T23:46 | 5153 | 547 | -2.5 | -2.9 | ||
| 2013-05-15T23:46 | 5220 | 542 | -2.9 | -4.0 | ||
| 2013-05-15T23:47 | 5486 | 524 | 254 | 17 | ||
| 2013-05-15T23:47 | 5532 | 521 | -3.8 | -5.3 | ||
| 2013-05-15T23:48 | 5679 | 511 | -4.4 | -6.7 | ||
| 2013-05-15T23:48 | 5827 | 502 | 250 | 16 | ||
| 2013-05-15T23:48 | 5908 | 497 | -6.2 | -8.8 | ||
| 2013-05-15T23:49 | 6173 | 480 | 239 | 18 | ||
| 2013-05-15T23:49 | 6281 | 474 | -8.7 | -10.3 | ||
| 2013-05-15T23:49 | 6324 | 471 | -8.7 | -10.8 | ||
| 2013-05-15T23:50 | 6531 | 459 | 238 | 13 | ||
| 2013-05-15T23:50 | 6542 | 458 | -9.7 | -12.3 | ||
| 2013-05-15T23:51 | 6701 | 449 | -10.1 | -14.5 | ||
| 2013-05-15T23:51 | 6825 | 441 | -10.2 | -16.7 | ||
| 2013-05-15T23:51 | 6881 | 438 | 271 | 11 | ||
| 2013-05-15T23:52 | 7093 | 426 | -12.2 | -19.2 | ||
| 2013-05-15T23:52 | 7252 | 417 | 264 | 9 | ||
| 2013-05-15T23:52 | 7316 | 414 | -13.3 | -20.9 | ||
| 2013-05-15T23:52 | 7329 | 413 | -13.1 | -20.9 | ||
| 2013-05-15T23:53 | 7615 | 398 | -15.2 | -24.2 | 266 | 11 |
| 2013-05-15T23:53 | 7697 | 394 | -15.5 | -23.1 | ||
| 2013-05-15T23:54 | 7837 | 386 | -16.5 | -21.9 | ||
| 2013-05-15T23:54 | 7899 | 383 | -16.5 | -22.6 | ||
| 2013-05-15T23:54 | 7964 | 380 | 266 | 14 | ||
| 2013-05-15T23:54 | 8012 | 378 | -17.5 | -23.2 | ||
| 2013-05-15T23:55 | 8145 | 371 | -18.5 | -24.4 | ||
| 2013-05-15T23:55 | 8304 | 363 | -19.6 | -24.3 | ||
| 2013-05-15T23:55 | 8335 | 362 | 269 | 15 | ||
| 2013-05-15T23:55 | 8396 | 359 | -19.8 | -25.4 | ||
| 2013-05-15T23:56 | 8620 | 348 | -21.6 | -27.1 | ||
| 2013-05-15T23:56 | 8648 | 347 | -21.6 | -27.3 | ||
| 2013-05-15T23:56 | 8695 | 344 | 264 | 15 | ||
| 2013-05-15T23:56 | 8802 | 339 | -22.9 | -28.5 | ||
| 2013-05-15T23:56 | 8837 | 338 | -23.0 | -29.0 | ||
| 2013-05-15T23:57 | 9045 | 328 | 275 | 18 | ||
| 2013-05-15T23:57 | 9056 | 328 | -24.7 | -31.5 | ||
| 2013-05-15T23:57 | 9068 | 327 | -24.6 | -31.4 | ||
| 2013-05-15T23:58 | 9222 | 320 | -26.1 | -32.7 | ||
| 2013-05-15T23:58 | 9359 | 314 | -27.2 | -33.5 | ||
| 2013-05-15T23:58 | 9393 | 313 | 287 | 18 | ||
| 2013-05-15T23:59 | 9579 | 305 | -28.8 | -34.3 | ||
| 2013-05-15T23:59 | 9757 | 297 | 293 | 18 | ||
| 2013-05-15T23:59 | 9790 | 296 | -30.5 | -36.3 | ||
| 2013-05-16T00:00 | 9992 | 288 | -31.8 | -39.6 | ||
| 2013-05-16T00:00 | 10151 | 281 | 301 | 18 | ||
| 2013-05-16T00:01 | 10492 | 268 | -36.0 | -44.1 | ||
| 2013-05-16T00:01 | 10573 | 265 | 302 | 17 | ||
| 2013-05-16T00:02 | 10932 | 251 | -40.0 | -48.0 | ||
| 2013-05-16T00:02 | 11000 | 249 | 303 | 19 | ||
| 2013-05-16T00:03 | 11409 | 234 | 307 | 22 | ||
| 2013-05-16T00:04 | 11763 | 222 | -47.1 | |||
| 2013-05-16T00:04 | 11808 | 221 | 310 | 24 | ||
| 2013-05-16T00:05 | 12188 | 208 | 306 | 27 | ||
| 2013-05-16T00:06 | 12566 | 196 | 316 | 28 | ||
| 2013-05-16T00:07 | 12945 | 185 | 322 | 26 | ||
| 2013-05-16T00:08 | 13289 | 175 | 330 | 25 | ||
| 2013-05-16T00:09 | 13610 | 166 | -61.3 | |||
| 2013-05-16T00:09 | 13666 | 165 | 331 | 26 | ||
| 2013-05-16T00:10 | 14110 | 153 | 330 | 27 | ||
| 2013-05-16T00:11 | 14602 | 141 | 331 | 30 | ||
| 2013-05-16T00:12 | 15082 | 130 | 334 | 27 | ||
| 2013-05-16T00:12 | 15159 | 129 | -73.0 | |||
| 2013-05-16T00:13 | 15487 | 122 | -73.0 | |||
| 2013-05-16T00:13 | 15589 | 120 | 309 | 21 | ||
| 2013-05-16T00:13 | 15714 | 117 | -71.3 | |||
| 2013-05-16T00:14 | 15929 | 113 | 318 | 18 | ||
| 2013-05-16T00:14 | 15934 | 113 | -72.5 | |||
| 2013-05-16T11:31 | 8 | 1007 | 27.0 | 25.4 | 180 | 3 |
| 2013-05-16T11:31 | 24 | 1005 | 26.8 | 26.3 | ||
| 2013-05-16T11:32 | 336 | 971 | 213 | 11 | ||
| 2013-05-16T11:32 | 397 | 964 | 24.8 | 23.6 | ||
| 2013-05-16T11:32 | 471 | 956 | 24.8 | 22.1 | ||
| 2013-05-16T11:33 | 557 | 947 | 24.3 | 20.8 | ||
| 2013-05-16T11:33 | 654 | 936 | 24.2 | 20.5 | ||
| 2013-05-16T11:33 | 703 | 931 | 220 | 14 | ||
| 2013-05-16T11:34 | 960 | 904 | 21.5 | 20.1 | ||
| 2013-05-16T11:34 | 1053 | 894 | 221 | 14 | ||
| 2013-05-16T11:34 | 1129 | 887 | 21.3 | 19.1 | ||
| 2013-05-16T11:35 | 1351 | 864 | 19.7 | 18.0 | ||
| 2013-05-16T11:35 | 1402 | 859 | 221 | 14 | ||
| 2013-05-16T11:36 | 1639 | 836 | 18.8 | 15.7 | ||
| 2013-05-16T11:36 | 1696 | 830 | 18.7 | 14.6 | ||
| 2013-05-16T11:36 | 1742 | 826 | 225 | 15 | ||
| 2013-05-16T11:37 | 1922 | 809 | 17.8 | 13.5 | ||
| 2013-05-16T11:37 | 2083 | 794 | 16.6 | 12.8 | ||
| 2013-05-16T11:37 | 2088 | 793 | 230 | 18 | ||
| 2013-05-16T11:38 | 2323 | 772 | 15.6 | 11.4 | ||
| 2013-05-16T11:38 | 2431 | 762 | 14.9 | 11.3 | 234 | 17 |
| 2013-05-16T11:38 | 2565 | 750 | 14.0 | 10.4 | ||
| 2013-05-16T11:39 | 2708 | 737 | 13.7 | 10.3 | ||
| 2013-05-16T11:39 | 2779 | 731 | 240 | 14 | ||
| 2013-05-16T11:39 | 2815 | 728 | 13.0 | 8.5 | ||
| 2013-05-16T11:39 | 2834 | 727 | 13.2 | 8.9 | ||
| 2013-05-16T11:39 | 2888 | 722 | 12.8 | 7.7 | ||
| 2013-05-16T11:39 | 2943 | 717 | 12.8 | 6.6 | ||
| 2013-05-16T11:40 | 3147 | 700 | 247 | 15 | ||
| 2013-05-16T11:40 | 3201 | 695 | 10.5 | 6.5 | ||
| 2013-05-16T11:40 | 3295 | 688 | 10.6 | 6.5 | ||
| 2013-05-16T11:41 | 3500 | 671 | 251 | 18 | ||
| 2013-05-16T11:42 | 3732 | 652 | 7.3 | 4.1 | ||
| 2013-05-16T11:42 | 3849 | 643 | 255 | 18 | ||
| 2013-05-16T11:42 | 3944 | 636 | 5.8 | 3.5 | ||
| 2013-05-16T11:43 | 4211 | 615 | 249 | 17 | ||
| 2013-05-16T11:43 | 4299 | 609 | 4.2 | 2.2 | ||
| 2013-05-16T11:44 | 4466 | 596 | 3.6 | 1.8 | ||
| 2013-05-16T11:44 | 4544 | 591 | 3.4 | 1.8 | ||
| 2013-05-16T11:44 | 4580 | 588 | 252 | 14 | ||
| 2013-05-16T11:45 | 4828 | 570 | 1.4 | -0.4 | ||
| 2013-05-16T11:45 | 4891 | 566 | 0.9 | -0.6 | ||
| 2013-05-16T11:45 | 4904 | 565 | 0.8 | -0.7 | ||
| 2013-05-16T11:45 | 4955 | 561 | 256 | 16 | ||
| 2013-05-16T11:45 | 5121 | 550 | -0.4 | -2.0 | ||
| 2013-05-16T11:46 | 5336 | 535 | 266 | 20 | ||
| 2013-05-16T11:47 | 5600 | 518 | -3.7 | -4.7 | ||
| 2013-05-16T11:47 | 5712 | 511 | 270 | 18 | ||
| 2013-05-16T11:47 | 5725 | 510 | -4.1 | -4.5 | ||
| 2013-05-16T11:48 | 6086 | 487 | 252 | 16 | ||
| 2013-05-16T11:48 | 6111 | 485 | -5.6 | -6.1 | ||
| 2013-05-16T11:49 | 6409 | 467 | -7.7 | -8.8 | ||
| 2013-05-16T11:49 | 6449 | 465 | 236 | 19 | ||
| 2013-05-16T11:50 | 6785 | 445 | 246 | 18 | ||
| 2013-05-16T11:51 | 7100 | 427 | -10.8 | -12.0 | ||
| 2013-05-16T11:51 | 7123 | 426 | 251 | 15 | ||
| 2013-05-16T11:52 | 7488 | 406 | 249 | 15 | ||
| 2013-05-16T11:53 | 7853 | 387 | 248 | 14 | ||
| 2013-05-16T11:53 | 7865 | 387 | -15.6 | -16.9 | ||
| 2013-05-16T11:54 | 8232 | 368 | 256 | 13 | ||
| 2013-05-16T11:55 | 8607 | 350 | 259 | 13 | ||
| 2013-05-16T11:56 | 8987 | 332 | 272 | 13 | ||
| 2013-05-16T11:56 | 9033 | 330 | -23.4 | -24.7 | ||
| 2013-05-16T11:57 | 9358 | 316 | 271 | 12 | ||
| 2013-05-16T11:58 | 9623 | 305 | -27.4 | -29.3 | ||
| 2013-05-16T11:58 | 9697 | 301 | 267 | 13 | ||
| 2013-05-16T11:59 | 10041 | 287 | 269 | 13 | ||
| 2013-05-16T12:00 | 10389 | 273 | 267 | 13 | ||
| 2013-05-16T12:01 | 10741 | 260 | 272 | 14 | ||
| 2013-05-16T12:01 | 10887 | 255 | -37.8 | -41.2 | ||
| 2013-05-16T12:02 | 11109 | 246 | 272 | 16 | ||
| 2013-05-16T12:02 | 11159 | 245 | -40.0 | -42.9 | ||
| 2013-05-16T12:03 | 11480 | 233 | 285 | 16 | ||
| 2013-05-16T12:04 | 11846 | 221 | 295 | 20 | ||
| 2013-05-16T12:05 | 12205 | 209 | 294 | 24 | ||
| 2013-05-16T12:06 | 12521 | 199 | -51.9 | |||
| 2013-05-16T12:06 | 12573 | 198 | 295 | 25 | ||
| 2013-05-16T12:07 | 12924 | 187 | 302 | 29 | ||
| 2013-05-16T12:08 | 13216 | 179 | -57.0 | |||
| 2013-05-16T12:08 | 13280 | 177 | 308 | 30 | ||
| 2013-05-16T12:09 | 13652 | 167 | 313 | 32 | ||
| 2013-05-16T12:09 | 13742 | 164 | -61.2 | |||
| 2013-05-16T12:10 | 14018 | 157 | 314 | 35 | ||
| 2013-05-16T12:10 | 14172 | 153 | -64.7 | |||
| 2013-05-16T12:11 | 14485 | 146 | 321 | 30 | ||
| 2013-05-16T12:12 | 14959 | 135 | 325 | 23 | ||
| 2013-05-16T12:13 | 15251 | 128 | -72.9 | |||
| 2013-05-16T23:31 | 8 | 1007 | 26.2 | 25.0 | 220 | 7 |
| 2013-05-16T23:31 | 19 | 1005 | 25.3 | 24.8 | ||
| 2013-05-16T23:31 | 68 | 1000 | 24.8 | 24.5 | ||
| 2013-05-16T23:32 | 119 | 994 | 24.5 | 23.8 | ||
| 2013-05-16T23:32 | 238 | 981 | 240 | 11 | ||
| 2013-05-16T23:32 | 375 | 966 | 23.5 | 22.8 | ||
| 2013-05-16T23:33 | 524 | 949 | 241 | 12 | ||
| 2013-05-16T23:34 | 680 | 933 | 21.7 | 21.2 | ||
| 2013-05-16T23:34 | 791 | 921 | 244 | 11 | ||
| 2013-05-16T23:34 | 876 | 912 | 20.9 | 20.2 | ||
| 2013-05-16T23:35 | 1028 | 896 | 20.2 | 19.4 | ||
| 2013-05-16T23:35 | 1078 | 891 | 238 | 13 | ||
| 2013-05-16T23:35 | 1163 | 882 | 19.1 | 17.8 | ||
| 2013-05-16T23:36 | 1395 | 859 | 239 | 14 | ||
| 2013-05-16T23:37 | 1712 | 827 | 16.1 | 15.5 | ||
| 2013-05-16T23:37 | 1717 | 827 | 240 | 16 | ||
| 2013-05-16T23:37 | 1732 | 825 | 15.9 | 15.4 | ||
| 2013-05-16T23:38 | 1962 | 803 | 248 | 16 | ||
| 2013-05-16T23:38 | 2036 | 796 | 14.1 | 13.6 | ||
| 2013-05-16T23:39 | 2075 | 793 | 13.8 | 12.7 | ||
| 2013-05-16T23:39 | 2094 | 791 | 13.7 | 12.6 | ||
| 2013-05-16T23:39 | 2145 | 786 | 13.7 | 12.6 | ||
| 2013-05-16T23:39 | 2160 | 785 | 13.7 | 12.8 | ||
| 2013-05-16T23:39 | 2191 | 782 | 253 | 19 | ||
| 2013-05-16T23:39 | 2199 | 781 | 13.6 | 12.3 | ||
| 2013-05-16T23:39 | 2268 | 775 | 13.4 | 12.3 | ||
| 2013-05-16T23:40 | 2308 | 771 | 13.3 | 12.0 | ||
| 2013-05-16T23:40 | 2337 | 769 | 13.2 | 12.4 | ||
| 2013-05-16T23:40 | 2349 | 768 | 13.2 | 12.4 | ||
| 2013-05-16T23:40 | 2390 | 764 | 13.0 | 12.1 | 255 | 22 |
| 2013-05-16T23:40 | 2394 | 763 | 13.0 | 12.7 | ||
| 2013-05-16T23:40 | 2407 | 762 | 12.9 | 12.6 | ||
| 2013-05-16T23:40 | 2418 | 761 | 12.8 | 12.5 | ||
| 2013-05-16T23:40 | 2437 | 760 | 12.7 | 12.5 | ||
| 2013-05-16T23:40 | 2445 | 759 | 12.6 | 11.3 | ||
| 2013-05-16T23:41 | 2535 | 751 | 12.1 | 11.5 | ||
| 2013-05-16T23:41 | 2566 | 748 | 250 | 21 | ||
| 2013-05-16T23:41 | 2579 | 747 | 11.9 | 11.6 | ||
| 2013-05-16T23:41 | 2611 | 744 | 11.9 | 11.7 | ||
| 2013-05-16T23:42 | 2655 | 740 | 11.7 | 11.4 | ||
| 2013-05-16T23:42 | 2667 | 739 | 11.7 | 11.7 | ||
| 2013-05-16T23:42 | 2734 | 733 | 240 | 22 | ||
| 2013-05-16T23:42 | 2772 | 730 | 11.3 | 11.3 | ||
| 2013-05-16T23:43 | 2899 | 719 | 10.9 | 10.9 | ||
| 2013-05-16T23:43 | 2918 | 717 | 10.8 | 10.8 | ||
| 2013-05-16T23:43 | 2927 | 716 | 10.6 | 10.6 | ||
| 2013-05-16T23:43 | 2988 | 711 | 237 | 21 | ||
| 2013-05-16T23:43 | 3000 | 710 | 9.9 | 9.9 | ||
| 2013-05-16T23:44 | 3111 | 701 | 9.5 | 9.5 | ||
| 2013-05-16T23:44 | 3225 | 691 | 8.9 | 8.9 | ||
| 2013-05-16T23:44 | 3227 | 691 | 242 | 22 | ||
| 2013-05-16T23:44 | 3245 | 690 | 9.0 | 9.0 | ||
| 2013-05-16T23:44 | 3258 | 689 | 9.2 | 9.2 | ||
| 2013-05-16T23:45 | 3337 | 682 | 8.9 | 8.9 | ||
| 2013-05-16T23:45 | 3374 | 679 | 233 | 19 | ||
| 2013-05-16T23:45 | 3377 | 679 | 8.8 | 8.8 | ||
| 2013-05-16T23:45 | 3477 | 671 | 8.5 | 8.5 | ||
| 2013-05-16T23:46 | 3629 | 658 | 225 | 22 | ||
| 2013-05-16T23:46 | 3662 | 656 | 8.1 | 8.1 | ||
| 2013-05-16T23:47 | 3815 | 644 | 7.3 | 7.3 | ||
| 2013-05-16T23:47 | 3818 | 644 | 237 | 17 | ||
| 2013-05-16T23:48 | 3913 | 636 | 230 | 15 | ||
| 2013-05-16T23:48 | 4005 | 629 | 215 | 14 | ||
| 2013-05-16T23:50 | 4191 | 615 | 4.8 | 4.8 | ||
| 2013-05-16T23:50 | 4203 | 614 | 212 | 17 | ||
| 2013-05-16T23:51 | 4397 | 600 | 209 | 19 | ||
| 2013-05-16T23:52 | 4617 | 584 | 3.1 | 3.1 | ||
| 2013-05-16T23:52 | 4687 | 579 | 203 | 21 | ||
| 2013-05-16T23:52 | 4711 | 577 | 2.7 | 2.7 | ||
| 2013-05-16T23:52 | 4727 | 576 | 2.9 | 2.9 | ||
| 2013-05-16T23:52 | 4825 | 569 | 2.3 | 2.3 | ||
| 2013-05-16T23:53 | 4857 | 567 | 2.3 | 2.3 | ||
| 2013-05-16T23:53 | 4954 | 560 | 1.5 | 1.5 | ||
| 2013-05-16T23:53 | 4996 | 557 | 1.2 | 1.2 | ||
| 2013-05-16T23:53 | 5025 | 555 | 203 | 22 | ||
| 2013-05-16T23:53 | 5037 | 554 | 1.0 | 1.0 | ||
| 2013-05-16T23:53 | 5076 | 552 | 0.8 | 0.8 | ||
| 2013-05-16T23:53 | 5155 | 546 | 0.5 | 0.5 | ||
| 2013-05-16T23:54 | 5311 | 536 | -0.9 | -1.3 | ||
| 2013-05-16T23:54 | 5398 | 530 | -1.5 | -1.9 | ||
| 2013-05-16T23:54 | 5427 | 528 | -0.9 | -1.3 | ||
| 2013-05-16T23:54 | 5445 | 527 | -0.9 | -1.3 | ||
| 2013-05-16T23:54 | 5485 | 524 | 211 | 19 | ||
| 2013-05-16T23:54 | 5566 | 519 | -1.8 | -2.2 | ||
| 2013-05-16T23:54 | 5638 | 514 | -2.5 | -2.9 | ||
| 2013-05-16T23:54 | 5680 | 511 | -2.6 | -3.0 | ||
| 2013-05-16T23:55 | 5943 | 495 | -4.6 | -5.1 | ||
| 2013-05-16T23:55 | 6012 | 490 | -4.9 | -6.3 | ||
| 2013-05-16T23:55 | 6067 | 487 | 216 | 20 | ||
| 2013-05-16T23:55 | 6088 | 486 | -4.9 | -5.9 | ||
| 2013-05-16T23:55 | 6135 | 483 | -4.8 | -5.9 | ||
| 2013-05-16T23:55 | 6260 | 475 | -5.3 | -5.8 | ||
| 2013-05-16T23:56 | 6291 | 473 | -5.4 | -5.9 | ||
| 2013-05-16T23:56 | 6306 | 472 | -5.4 | -5.9 | ||
| 2013-05-16T23:56 | 6509 | 460 | 234 | 20 | ||
| 2013-05-16T23:56 | 6535 | 459 | -7.6 | -8.4 | ||
| 2013-05-16T23:56 | 6548 | 458 | -7.6 | -8.7 | ||
| 2013-05-16T23:56 | 6565 | 457 | -7.7 | -9.8 | ||
| 2013-05-16T23:56 | 6586 | 456 | -7.8 | -8.3 | ||
| 2013-05-16T23:56 | 6715 | 448 | -8.6 | -9.1 | ||
| 2013-05-16T23:57 | 6812 | 443 | -8.9 | -9.4 | ||
| 2013-05-16T23:57 | 6830 | 442 | -8.9 | -9.4 | ||
| 2013-05-16T23:57 | 6876 | 439 | -9.2 | -9.7 | ||
| 2013-05-16T23:57 | 7038 | 430 | 232 | 21 | ||
| 2013-05-16T23:57 | 7272 | 417 | -11.8 | -12.4 | ||
| 2013-05-16T23:57 | 7290 | 416 | -11.6 | -12.1 | ||
| 2013-05-16T23:58 | 7318 | 415 | -11.6 | -12.1 | ||
| 2013-05-16T23:58 | 7327 | 414 | -11.7 | -12.2 | ||
| 2013-05-16T23:58 | 7346 | 413 | -11.8 | -12.4 | ||
| 2013-05-16T23:58 | 7407 | 410 | -12.1 | -12.7 | ||
| 2013-05-16T23:58 | 7575 | 401 | 247 | 21 | ||
| 2013-05-16T23:58 | 7636 | 398 | -13.9 | -14.5 | ||
| 2013-05-16T23:59 | 7796 | 389 | -15.1 | -15.7 | ||
| 2013-05-16T23:59 | 7937 | 382 | 250 | 20 | ||
| 2013-05-17T00:00 | 8171 | 371 | -17.4 | -18.1 | ||
| 2013-05-17T00:00 | 8258 | 366 | 241 | 20 | ||
| 2013-05-17T00:01 | 8589 | 350 | 241 | 19 | ||
| 2013-05-17T00:01 | 8719 | 344 | -20.7 | -21.9 | ||
| 2013-05-17T00:02 | 8821 | 340 | -21.3 | -22.4 | ||
| 2013-05-17T00:02 | 8873 | 337 | 240 | 20 | ||
| 2013-05-17T00:03 | 9212 | 322 | 247 | 23 | ||
| 2013-05-17T00:04 | 9462 | 311 | -25.5 | -26.9 | ||
| 2013-05-17T00:04 | 9553 | 307 | 249 | 22 | ||
| 2013-05-17T00:04 | 9699 | 301 | -27.0 | -28.4 | ||
| 2013-05-17T00:05 | 9919 | 292 | -29.1 | -30.7 | ||
| 2013-05-17T00:05 | 9980 | 289 | 240 | 20 | ||
| 2013-05-17T00:05 | 10064 | 286 | -30.5 | -32.2 | ||
| 2013-05-17T00:06 | 10385 | 273 | 250 | 17 | ||
| 2013-05-17T00:07 | 10768 | 259 | 249 | 18 | ||
| 2013-05-17T00:08 | 10967 | 251 | -37.9 | -40.1 | ||
| 2013-05-17T00:08 | 11088 | 247 | 242 | 19 | ||
| 2013-05-17T00:08 | 11208 | 243 | -40.0 | -42.2 | ||
| 2013-05-17T00:09 | 11416 | 235 | 247 | 18 | ||
| 2013-05-17T00:10 | 11786 | 223 | 251 | 21 | ||
| 2013-05-17T00:10 | 11957 | 217 | -45.8 | |||
| 2013-05-17T00:11 | 12187 | 210 | 258 | 20 | ||
| 2013-05-17T00:12 | 12612 | 197 | -51.3 | |||
| 2013-05-17T00:12 | 12638 | 196 | 262 | 22 | ||
| 2013-05-17T00:13 | 13112 | 182 | 270 | 20 | ||
| 2013-05-17T00:14 | 13546 | 170 | 276 | 22 | ||
| 2013-05-17T00:14 | 13571 | 169 | -59.9 | |||
| 2013-05-17T00:15 | 13902 | 160 | 281 | 26 | ||
| 2013-05-17T00:16 | 14208 | 153 | -65.4 | |||
| 2013-05-17T00:16 | 14252 | 151 | 293 | 24 | ||
| 2013-05-17T00:17 | 14617 | 143 | 290 | 24 | ||
| 2013-05-17T00:17 | 14697 | 141 | -69.9 | |||
| 2013-05-17T00:18 | 14846 | 137 | -70.5 | |||
| 2013-05-17T00:18 | 14889 | 136 | 308 | 23 | ||
| 2013-05-17T00:19 | 15057 | 132 | -71.6 | |||
| 2013-05-17T00:19 | 15129 | 131 | 315 | 23 | ||
| 2013-05-17T00:19 | 15247 | 128 | -72.5 | |||
| 2013-05-17T00:20 | 15410 | 125 | 326 | 23 | ||
| 2013-05-17T00:20 | 15533 | 122 | -72.9 | |||
| 2013-05-17T00:21 | 15748 | 118 | 345 | 15 | ||
| 2013-05-17T00:22 | 16152 | 110 | 339 | 12 | ||
| 2013-05-17T00:22 | 16280 | 107 | -76.1 | |||
| 2013-05-17T00:23 | 16594 | 102 | 329 | 12 | ||
| 2013-05-17T00:23 | 16606 | 101 | -76.6 | |||
| 2013-05-17T00:23 | 16767 | 99 | -75.7 | |||
| 2013-05-17T00:24 | 16892 | 97 | 5 | 10 | ||
| 2013-05-17T00:24 | 16898 | 96 | -75.1 | |||
| 2013-05-17T11:30 | 8 | 1007 | 26.5 | 23.4 | 40 | 1 |
| 2013-05-17T11:30 | 20 | 1005 | 26.1 | 23.6 | ||
| 2013-05-17T11:31 | 204 | 984 | 24.9 | 21.8 | ||
| 2013-05-17T11:31 | 311 | 973 | 24.6 | 20.9 | ||
| 2013-05-17T11:31 | 329 | 971 | 7 | 2 | ||
| 2013-05-17T11:31 | 348 | 968 | 24.7 | 20.6 | ||
| 2013-05-17T11:31 | 397 | 963 | 25.2 | 19.8 | ||
| 2013-05-17T11:32 | 662 | 935 | 355 | 2 | ||
| 2013-05-17T11:32 | 672 | 933 | 22.9 | 18.9 | ||
| 2013-05-17T11:33 | 863 | 913 | 21.7 | 18.5 | ||
| 2013-05-17T11:33 | 929 | 906 | 21.4 | 18.8 | ||
| 2013-05-17T11:33 | 1002 | 899 | 21.7 | 18.1 | ||
| 2013-05-17T11:33 | 1014 | 898 | 324 | 2 | ||
| 2013-05-17T11:33 | 1066 | 892 | 21.5 | 16.9 | ||
| 2013-05-17T11:34 | 1367 | 862 | 330 | 3 | ||
| 2013-05-17T11:34 | 1385 | 860 | 18.7 | 16.3 | ||
| 2013-05-17T11:35 | 1613 | 837 | 16.6 | 16.0 | ||
| 2013-05-17T11:35 | 1656 | 833 | 16.6 | 16.0 | ||
| 2013-05-17T11:35 | 1673 | 831 | 17.6 | 15.8 | ||
| 2013-05-17T11:35 | 1722 | 827 | 17.2 | 15.0 | ||
| 2013-05-17T11:35 | 1734 | 826 | 279 | 5 | ||
| 2013-05-17T11:35 | 1752 | 824 | 17.7 | 14.6 | ||
| 2013-05-17T11:36 | 1925 | 807 | 16.6 | 13.3 | ||
| 2013-05-17T11:36 | 2020 | 798 | 16.3 | 12.7 | ||
| 2013-05-17T11:36 | 2089 | 792 | 265 | 7 | ||
| 2013-05-17T11:36 | 2163 | 785 | 15.4 | 12.2 | ||
| 2013-05-17T11:37 | 2378 | 765 | 13.7 | 12.4 | ||
| 2013-05-17T11:37 | 2421 | 762 | 288 | 10 | ||
| 2013-05-17T11:37 | 2537 | 751 | 13.9 | 11.2 | ||
| 2013-05-17T11:38 | 2758 | 732 | 301 | 13 | ||
| 2013-05-17T11:39 | 2982 | 713 | 11.1 | 8.3 | ||
| 2013-05-17T11:39 | 3044 | 707 | 10.8 | 7.7 | ||
| 2013-05-17T11:39 | 3076 | 705 | 294 | 13 | ||
| 2013-05-17T11:40 | 3243 | 691 | 9.7 | 7.1 | ||
| 2013-05-17T11:40 | 3403 | 677 | 287 | 13 | ||
| 2013-05-17T11:41 | 3725 | 652 | 7.1 | 3.9 | ||
| 2013-05-17T11:41 | 3749 | 650 | 283 | 12 | ||
| 2013-05-17T11:42 | 3934 | 635 | 5.6 | 1.0 | ||
| 2013-05-17T11:42 | 4104 | 622 | 288 | 12 | ||
| 2013-05-17T11:42 | 4146 | 619 | 4.7 | -2.6 | ||
| 2013-05-17T11:43 | 4458 | 596 | 285 | 11 | ||
| 2013-05-17T11:43 | 4465 | 595 | 3.3 | -5.9 | ||
| 2013-05-17T11:43 | 4618 | 584 | 2.1 | -6.0 | ||
| 2013-05-17T11:43 | 4638 | 583 | 2.1 | -5.5 | ||
| 2013-05-17T11:44 | 4649 | 582 | 2.0 | -5.6 | ||
| 2013-05-17T11:44 | 4827 | 569 | 278 | 13 | ||
| 2013-05-17T11:44 | 4947 | 561 | -0.7 | -5.5 | ||
| 2013-05-17T11:45 | 5045 | 554 | -1.1 | -7.9 | ||
| 2013-05-17T11:45 | 5075 | 552 | -1.4 | -7.1 | ||
| 2013-05-17T11:45 | 5117 | 549 | -1.7 | -8.0 | ||
| 2013-05-17T11:45 | 5130 | 548 | -1.8 | -7.1 | ||
| 2013-05-17T11:45 | 5190 | 544 | 292 | 14 | ||
| 2013-05-17T11:45 | 5215 | 542 | -2.4 | -6.2 | ||
| 2013-05-17T11:46 | 5490 | 524 | -3.7 | -9.9 | ||
| 2013-05-17T11:46 | 5557 | 519 | 297 | 12 | ||
| 2013-05-17T11:47 | 5773 | 505 | -5.5 | -14.5 | ||
| 2013-05-17T11:47 | 5831 | 501 | -5.1 | -16.6 | ||
| 2013-05-17T11:47 | 5866 | 499 | -5.4 | -14.7 | ||
| 2013-05-17T11:47 | 5912 | 496 | 299 | 9 | ||
| 2013-05-17T11:47 | 5945 | 494 | -5.5 | -18.9 | ||
| 2013-05-17T11:47 | 6023 | 489 | -6.0 | -19.0 | ||
| 2013-05-17T11:48 | 6246 | 475 | 296 | 8 | ||
| 2013-05-17T11:48 | 6339 | 470 | -9.0 | -21.1 | ||
| 2013-05-17T11:49 | 6558 | 457 | -10.5 | -21.8 | ||
| 2013-05-17T11:49 | 6588 | 455 | 283 | 10 | ||
| 2013-05-17T11:49 | 6593 | 455 | -10.7 | -19.8 | ||
| 2013-05-17T11:49 | 6658 | 451 | -10.3 | -27.0 | ||
| 2013-05-17T11:49 | 6711 | 448 | -10.3 | -32.0 | ||
| 2013-05-17T11:50 | 6829 | 441 | -10.7 | -35.5 | ||
| 2013-05-17T11:50 | 6939 | 435 | 299 | 12 | ||
| 2013-05-17T11:51 | 7128 | 424 | -12.8 | -37.2 | ||
| 2013-05-17T11:51 | 7286 | 415 | 293 | 14 | ||
| 2013-05-17T11:51 | 7430 | 407 | -14.0 | -41.2 | ||
| 2013-05-17T11:52 | 7512 | 403 | -14.0 | -43.9 | ||
| 2013-05-17T11:52 | 7622 | 397 | 311 | 14 | ||
| 2013-05-17T11:53 | 7993 | 378 | 312 | 19 | ||
| 2013-05-17T11:53 | 8019 | 377 | -17.4 | -45.1 | ||
| 2013-05-17T11:53 | 8145 | 371 | -17.5 | -48.2 | ||
| 2013-05-17T11:54 | 8368 | 360 | 314 | 20 | ||
| 2013-05-17T11:55 | 8725 | 343 | 312 | 18 | ||
| 2013-05-17T11:55 | 8740 | 342 | -22.7 | -50.6 | ||
| 2013-05-17T11:56 | 8966 | 332 | -24.5 | -51.9 | ||
| 2013-05-17T11:56 | 9001 | 330 | -24.1 | -51.6 | ||
| 2013-05-17T11:56 | 9041 | 328 | -23.9 | -53.0 | ||
| 2013-05-17T11:56 | 9054 | 328 | 316 | 20 | ||
| 2013-05-17T11:56 | 9103 | 325 | -23.9 | -57.2 | ||
| 2013-05-17T11:57 | 9388 | 313 | 322 | 17 | ||
| 2013-05-17T11:57 | 9488 | 309 | -26.2 | -67.2 | ||
| 2013-05-17T11:58 | 9647 | 302 | -26.9 | -67.7 | ||
| 2013-05-17T11:58 | 9750 | 298 | 324 | 16 | ||
| 2013-05-17T11:59 | 10115 | 283 | -30.3 | -69.9 | ||
| 2013-05-17T11:59 | 10143 | 282 | 326 | 19 | ||
| 2013-05-17T12:00 | 10584 | 265 | 317 | 18 | ||
| 2013-05-17T12:01 | 11031 | 248 | 305 | 19 | ||
| 2013-05-17T12:01 | 11227 | 241 | -40.0 | -76.4 | ||
| 2013-05-17T12:02 | 11477 | 232 | 291 | 19 | ||
| 2013-05-17T12:03 | 11895 | 218 | 287 | 18 | ||
| 2013-05-17T12:04 | 12292 | 206 | 295 | 17 | ||
| 2013-05-17T12:05 | 12692 | 193 | 297 | 19 | ||
| 2013-05-17T12:05 | 12868 | 188 | -52.7 | |||
| 2013-05-17T12:06 | 13069 | 182 | 297 | 22 | ||
| 2013-05-17T12:07 | 13459 | 172 | 306 | 22 | ||
| 2013-05-17T12:08 | 13769 | 163 | -58.1 | |||
| 2013-05-17T12:08 | 13843 | 162 | 315 | 20 | ||
| 2013-05-17T12:08 | 14036 | 157 | -59.5 | |||
| 2013-05-17T12:09 | 14148 | 154 | -60.1 | |||
| 2013-05-17T12:09 | 14254 | 151 | 334 | 15 | ||
| 2013-05-17T12:10 | 14718 | 140 | 335 | 15 | ||
| 2013-05-17T12:11 | 15144 | 131 | 348 | 18 | ||
| 2013-05-17T12:11 | 15204 | 129 | -70.4 | |||
| 2013-05-18T01:36 | 8 | 1007 | 28.5 | 23.4 | 310 | 5 |
| 2013-05-18T01:36 | 15 | 1006 | 26.8 | 24.1 | ||
| 2013-05-18T01:36 | 120 | 994 | 25.8 | 21.9 | ||
| 2013-05-18T01:37 | 261 | 978 | 24.4 | 20.7 | ||
| 2013-05-18T01:37 | 361 | 967 | 321 | 9 | ||
| 2013-05-18T01:37 | 442 | 958 | 22.7 | 20.4 | ||
| 2013-05-18T01:37 | 467 | 955 | 23.5 | 20.6 | ||
| 2013-05-18T01:38 | 735 | 927 | 299 | 7 | ||
| 2013-05-18T01:38 | 801 | 920 | 20.9 | 19.2 | ||
| 2013-05-18T01:38 | 835 | 916 | 21.7 | 19.4 | ||
| 2013-05-18T01:38 | 900 | 909 | 22.0 | 19.0 | ||
| 2013-05-18T01:39 | 1047 | 894 | 21.9 | 16.8 | ||
| 2013-05-18T01:39 | 1088 | 890 | 318 | 6 | ||
| 2013-05-18T01:40 | 1428 | 856 | 309 | 6 | ||
| 2013-05-18T01:40 | 1521 | 846 | 19.2 | 13.8 | ||
| 2013-05-18T01:41 | 1678 | 831 | 19.2 | 12.7 | ||
| 2013-05-18T01:41 | 1747 | 824 | 18.9 | 12.6 | ||
| 2013-05-18T01:41 | 1752 | 824 | 303 | 7 | ||
| 2013-05-18T01:42 | 2059 | 795 | 290 | 8 | ||
| 2013-05-18T01:42 | 2122 | 789 | 16.0 | 12.2 | ||
| 2013-05-18T01:43 | 2295 | 773 | 14.6 | 11.7 | ||
| 2013-05-18T01:43 | 2390 | 765 | 273 | 9 | ||
| 2013-05-18T01:43 | 2413 | 763 | 13.9 | 11.4 | ||
| 2013-05-18T01:43 | 2419 | 762 | 14.0 | 11.5 | ||
| 2013-05-18T01:44 | 2566 | 749 | 14.2 | 10.6 | ||
| 2013-05-18T01:44 | 2732 | 734 | 259 | 10 | ||
| 2013-05-18T01:44 | 2788 | 729 | 12.7 | 9.7 | ||
| 2013-05-18T01:45 | 2920 | 718 | 11.7 | 8.9 | ||
| 2013-05-18T01:45 | 2977 | 713 | 11.7 | 7.4 | ||
| 2013-05-18T01:45 | 3076 | 705 | 299 | 10 | ||
| 2013-05-18T01:45 | 3152 | 698 | 10.6 | 5.6 | ||
| 2013-05-18T01:46 | 3316 | 685 | 10.3 | 5.1 | ||
| 2013-05-18T01:46 | 3424 | 676 | 306 | 9 | ||
| 2013-05-18T01:46 | 3507 | 669 | 9.4 | 5.0 | ||
| 2013-05-18T01:47 | 3714 | 653 | 7.8 | 2.5 | ||
| 2013-05-18T01:47 | 3752 | 650 | 296 | 9 | ||
| 2013-05-18T01:47 | 3881 | 640 | 7.1 | 2.2 | ||
| 2013-05-18T01:48 | 4079 | 625 | 312 | 13 | ||
| 2013-05-18T01:48 | 4226 | 613 | 4.2 | 2.2 | ||
| 2013-05-18T01:49 | 4400 | 600 | 315 | 12 | ||
| 2013-05-18T01:49 | 4422 | 599 | 3.0 | 1.0 | ||
| 2013-05-18T01:50 | 4575 | 588 | 2.1 | -2.0 | ||
| 2013-05-18T01:50 | 4685 | 580 | 1.5 | -3.6 | ||
| 2013-05-18T01:50 | 4710 | 578 | 321 | 10 | ||
| 2013-05-18T01:50 | 4814 | 570 | 0.8 | -3.9 | ||
| 2013-05-18T01:50 | 4830 | 569 | 0.6 | -3.9 | ||
| 2013-05-18T01:51 | 4947 | 561 | -0.4 | -5.8 | ||
| 2013-05-18T01:51 | 5034 | 555 | 322 | 11 | ||
| 2013-05-18T01:51 | 5062 | 553 | -1.0 | -8.4 | ||
| 2013-05-18T01:51 | 5158 | 546 | -1.1 | -10.7 | ||
| 2013-05-18T01:52 | 5296 | 537 | -1.7 | -10.0 | ||
| 2013-05-18T01:52 | 5347 | 534 | 323 | 14 | ||
| 2013-05-18T01:52 | 5372 | 532 | -1.6 | -10.9 | ||
| 2013-05-18T01:52 | 5447 | 527 | -1.2 | -17.4 | ||
| 2013-05-18T01:53 | 5607 | 516 | -1.4 | -26.3 | ||
| 2013-05-18T01:53 | 5658 | 513 | 323 | 16 | ||
| 2013-05-18T01:53 | 5675 | 512 | -1.8 | -25.8 | ||
| 2013-05-18T01:54 | 5823 | 503 | -2.1 | -28.7 | ||
| 2013-05-18T01:54 | 5916 | 497 | -2.4 | -32.3 | ||
| 2013-05-18T01:54 | 5975 | 493 | 320 | 11 | ||
| 2013-05-18T01:54 | 6055 | 488 | -3.1 | -35.8 | ||
| 2013-05-18T01:55 | 6291 | 474 | 319 | 12 | ||
| 2013-05-18T01:55 | 6392 | 468 | -5.2 | -33.2 | ||
| 2013-05-18T01:56 | 6608 | 455 | -6.0 | -35.1 | ||
| 2013-05-18T01:56 | 6613 | 455 | 312 | 9 | ||
| 2013-05-18T01:56 | 6750 | 447 | -7.2 | -32.7 | ||
| 2013-05-18T01:57 | 6878 | 439 | -8.0 | -30.9 | ||
| 2013-05-18T01:57 | 6945 | 436 | 320 | 12 | ||
| 2013-05-18T01:58 | 7136 | 425 | -9.6 | -26.9 | ||
| 2013-05-18T01:58 | 7295 | 416 | 321 | 14 | ||
| 2013-05-18T01:58 | 7371 | 412 | -11.5 | -27.2 | ||
| 2013-05-18T01:59 | 7620 | 399 | -13.2 | -27.1 | ||
| 2013-05-18T01:59 | 7635 | 398 | 317 | 12 | ||
| 2013-05-18T01:59 | 7726 | 394 | -13.8 | -26.6 | ||
| 2013-05-18T01:59 | 7764 | 392 | -13.8 | -25.7 | ||
| 2013-05-18T02:00 | 7970 | 381 | -15.1 | -27.5 | ||
| 2013-05-18T02:00 | 7976 | 381 | 306 | 11 | ||
| 2013-05-18T02:00 | 8134 | 373 | -16.2 | -27.3 | ||
| 2013-05-18T02:01 | 8328 | 363 | 300 | 12 | ||
| 2013-05-18T02:02 | 8517 | 354 | -19.6 | -28.5 | ||
| 2013-05-18T02:02 | 8612 | 350 | -20.1 | -31.1 | ||
| 2013-05-18T02:02 | 8684 | 346 | 284 | 10 | ||
| 2013-05-18T02:02 | 8727 | 344 | -20.9 | -31.5 | ||
| 2013-05-18T02:03 | 9034 | 330 | -23.7 | -33.5 | ||
| 2013-05-18T02:03 | 9052 | 329 | 298 | 8 | ||
| 2013-05-18T02:04 | 9376 | 315 | -26.7 | -32.7 | ||
| 2013-05-18T02:04 | 9413 | 313 | 312 | 9 | ||
| 2013-05-18T02:05 | 9772 | 298 | 326 | 11 | ||
| 2013-05-18T02:05 | 9902 | 293 | -30.6 | -37.7 | ||
| 2013-05-18T02:06 | 10113 | 284 | 315 | 14 | ||
| 2013-05-18T02:07 | 10472 | 270 | 317 | 14 | ||
| 2013-05-18T02:08 | 10702 | 261 | -37.4 | -42.5 | ||
| 2013-05-18T02:08 | 10816 | 257 | 318 | 13 | ||
| 2013-05-18T02:09 | 11047 | 248 | -40.0 | -48.7 | ||
| 2013-05-18T02:09 | 11174 | 244 | 315 | 13 | ||
| 2013-05-18T02:10 | 11538 | 231 | 327 | 14 | ||
| 2013-05-18T02:11 | 11894 | 219 | -47.2 | |||
| 2013-05-18T02:11 | 11927 | 218 | 318 | 11 | ||
| 2013-05-18T02:12 | 12200 | 209 | -47.8 | |||
| 2013-05-18T02:12 | 12327 | 205 | 288 | 8 | ||
| 2013-05-18T02:13 | 12731 | 193 | 268 | 10 | ||
| 2013-05-18T02:14 | 12989 | 185 | -54.2 | |||
| 2013-05-18T02:14 | 13104 | 182 | 296 | 12 | ||
| 2013-05-18T02:15 | 13499 | 171 | 302 | 16 | ||
| 2013-05-18T02:16 | 13910 | 160 | 310 | 17 | ||
| 2013-05-18T02:16 | 14031 | 157 | -63.2 | |||
| 2013-05-18T02:17 | 14298 | 150 | 326 | 15 | ||
| 2013-05-18T02:18 | 14672 | 141 | 335 | 15 | ||
| 2013-05-18T02:18 | 14698 | 141 | -67.9 | |||
| 2013-05-18T02:19 | 15093 | 132 | 347 | 16 | ||
| 2013-05-18T02:20 | 15424 | 124 | -73.1 | |||
| 2013-05-18T02:20 | 15567 | 121 | 347 | 22 | ||
| 2013-05-18T02:20 | 15735 | 118 | -72.2 | |||
| 2013-05-18T02:21 | 16077 | 111 | 14 | 14 | ||
| 2013-05-18T02:21 | 16145 | 110 | -75.5 | |||
| 2013-05-18T02:22 | 16512 | 103 | -78.1 | |||
| 2013-05-18T02:22 | 16607 | 101 | 12 | 7 | ||
| 2013-05-18T02:23 | 16913 | 96 | -78.7 | |||
| 2013-05-18T02:23 | 17076 | 93 | 357 | 17 | ||
| 2013-05-18T02:24 | 17358 | 89 | -76.6 | |||
| 2013-05-18T02:24 | 17542 | 86 | 21 | 11 | ||
| 2013-05-18T02:25 | 17792 | 82 | -79.6 | |||
| 2013-05-18T02:25 | 18031 | 79 | 26 | 14 | ||
| 2013-05-18T02:25 | 18244 | 76 | -77.9 | |||
| 2013-05-18T02:26 | 18481 | 73 | 62 | 13 | ||
| 2013-05-18T02:27 | 18753 | 70 | -79.0 | |||
| 2013-05-18T02:27 | 18961 | 67 | 65 | 10 | ||
| 2013-05-18T02:27 | 19160 | 65 | -78.0 | |||
| 2013-05-18T02:28 | 19422 | 62 | 70 | 14 | ||
| 2013-05-18T02:28 | 19488 | 61 | -76.3 | |||
| 2013-05-18T02:29 | 19758 | 58 | -75.6 | |||
| 2013-05-18T02:29 | 19828 | 58 | 101 | 12 | ||
| 2013-05-18T02:29 | 19920 | 57 | -74.4 | |||
| 2013-05-18T02:30 | 20034 | 56 | -71.9 | |||
| 2013-05-18T02:30 | 20206 | 54 | 103 | 11 | ||
| 2013-05-18T02:30 | 20338 | 53 | -71.3 | |||
| 2013-05-18T02:31 | 20487 | 52 | -68.0 | |||
| 2013-05-18T02:31 | 20546 | 51 | 134 | 10 | ||
| 2013-05-18T02:31 | 20593 | 51 | -66.4 | |||
| 2013-05-18T11:30 | 8 | 1005 | 26.9 | 23.8 | 140 | 2 |
| 2013-05-18T11:30 | 34 | 1002 | 26.3 | 23.6 | ||
| 2013-05-18T11:31 | 160 | 988 | 25.4 | 22.7 | ||
| 2013-05-18T11:31 | 339 | 968 | 143 | 5 | ||
| 2013-05-18T11:31 | 438 | 957 | 24.1 | 20.8 | ||
| 2013-05-18T11:32 | 668 | 933 | 23.2 | 20.7 | ||
| 2013-05-18T11:32 | 704 | 929 | 176 | 7 | ||
| 2013-05-18T11:32 | 739 | 925 | 23.5 | 19.0 | ||
| 2013-05-18T11:33 | 1048 | 893 | 180 | 6 | ||
| 2013-05-18T11:34 | 1260 | 872 | 20.8 | 15.4 | ||
| 2013-05-18T11:34 | 1386 | 859 | 173 | 7 | ||
| 2013-05-18T11:34 | 1415 | 856 | 19.7 | 15.1 | ||
| 2013-05-18T11:34 | 1547 | 843 | 19.9 | 14.1 | ||
| 2013-05-18T11:35 | 1642 | 834 | 19.7 | 14.5 | ||
| 2013-05-18T11:35 | 1745 | 824 | 138 | 2 | ||
| 2013-05-18T11:36 | 2018 | 798 | 17.1 | 14.4 | ||
| 2013-05-18T11:36 | 2110 | 790 | 328 | 7 | ||
| 2013-05-18T11:36 | 2127 | 788 | 16.5 | 14.3 | ||
| 2013-05-18T11:37 | 2319 | 771 | 16.6 | 13.3 | ||
| 2013-05-18T11:37 | 2470 | 757 | 306 | 10 | ||
| 2013-05-18T11:38 | 2661 | 740 | 14.9 | 10.5 | ||
| 2013-05-18T11:38 | 2827 | 726 | 305 | 10 | ||
| 2013-05-18T11:38 | 2963 | 714 | 12.3 | 9.7 | ||
| 2013-05-18T11:39 | 3210 | 694 | 296 | 7 | ||
| 2013-05-18T11:40 | 3471 | 672 | 9.1 | 6.7 | ||
| 2013-05-18T11:40 | 3598 | 662 | 307 | 7 | ||
| 2013-05-18T11:40 | 3629 | 659 | 8.2 | 7.1 | ||
| 2013-05-18T11:41 | 3840 | 643 | 7.6 | 4.9 | ||
| 2013-05-18T11:41 | 3981 | 632 | 312 | 12 | ||
| 2013-05-18T11:41 | 4065 | 626 | 6.3 | 3.8 | ||
| 2013-05-18T11:42 | 4261 | 611 | 5.6 | 2.4 | ||
| 2013-05-18T11:42 | 4323 | 606 | 5.8 | 0.9 | ||
| 2013-05-18T11:42 | 4354 | 604 | 301 | 15 | ||
| 2013-05-18T11:43 | 4726 | 577 | 307 | 11 | ||
| 2013-05-18T11:43 | 4824 | 570 | 2.9 | -2.8 | ||
| 2013-05-18T11:44 | 4928 | 563 | 2.3 | -3.4 | ||
| 2013-05-18T11:44 | 5095 | 551 | 1.2 | -4.2 | 300 | 10 |
| 2013-05-18T11:44 | 5107 | 550 | 1.1 | -4.3 | ||
| 2013-05-18T11:45 | 5373 | 532 | -0.5 | -5.9 | ||
| 2013-05-18T11:45 | 5456 | 527 | 306 | 11 | ||
| 2013-05-18T11:45 | 5487 | 525 | -1.0 | -7.4 | ||
| 2013-05-18T11:45 | 5530 | 522 | -1.0 | -9.9 | ||
| 2013-05-18T11:46 | 5737 | 509 | -2.4 | -11.7 | ||
| 2013-05-18T11:46 | 5826 | 503 | 307 | 12 | ||
| 2013-05-18T11:46 | 5896 | 499 | -3.4 | -10.5 | ||
| 2013-05-18T11:47 | 6060 | 488 | -4.4 | -9.2 | ||
| 2013-05-18T11:47 | 6203 | 480 | 313 | 11 | ||
| 2013-05-18T11:47 | 6264 | 476 | -5.7 | -11.4 | ||
| 2013-05-18T11:47 | 6369 | 470 | -6.2 | -12.5 | ||
| 2013-05-18T11:48 | 6463 | 464 | -6.7 | -13.4 | ||
| 2013-05-18T11:48 | 6513 | 461 | -6.9 | -12.8 | ||
| 2013-05-18T11:48 | 6569 | 458 | -7.0 | -15.4 | ||
| 2013-05-18T11:48 | 6574 | 457 | 306 | 10 | ||
| 2013-05-18T11:48 | 6715 | 449 | -7.9 | -16.3 | ||
| 2013-05-18T11:49 | 6792 | 445 | -8.5 | -15.7 | ||
| 2013-05-18T11:49 | 6950 | 436 | 308 | 10 | ||
| 2013-05-18T11:49 | 6986 | 434 | -9.4 | -17.2 | ||
| 2013-05-18T11:49 | 7117 | 426 | -10.3 | -16.8 | ||
| 2013-05-18T11:50 | 7299 | 416 | -11.3 | -18.6 | ||
| 2013-05-18T11:50 | 7305 | 416 | 295 | 9 | ||
| 2013-05-18T11:50 | 7357 | 413 | -11.7 | -17.9 | ||
| 2013-05-18T11:51 | 7514 | 405 | -12.6 | -19.8 | ||
| 2013-05-18T11:51 | 7584 | 401 | -12.8 | -20.4 | ||
| 2013-05-18T11:51 | 7655 | 398 | 291 | 10 | ||
| 2013-05-18T11:51 | 7678 | 396 | -13.3 | -22.0 | ||
| 2013-05-18T11:52 | 8008 | 379 | 296 | 11 | ||
| 2013-05-18T11:52 | 8067 | 376 | -16.3 | -24.1 | ||
| 2013-05-18T11:53 | 8364 | 362 | -18.1 | -24.0 | ||
| 2013-05-18T11:53 | 8391 | 361 | 299 | 14 | ||
| 2013-05-18T11:54 | 8603 | 350 | -19.5 | -26.9 | ||
| 2013-05-18T11:54 | 8774 | 342 | 304 | 15 | ||
| 2013-05-18T11:55 | 9162 | 325 | 301 | 16 | ||
| 2013-05-18T11:55 | 9176 | 324 | -23.5 | -30.4 | ||
| 2013-05-18T11:56 | 9542 | 308 | 299 | 16 | ||
| 2013-05-18T11:56 | 9647 | 304 | -27.2 | -35.8 | ||
| 2013-05-18T11:57 | 9916 | 293 | 298 | 16 | ||
| 2013-05-18T11:57 | 9948 | 291 | -30.0 | -37.5 | ||
| 2013-05-18T11:58 | 10299 | 277 | 309 | 17 | ||
| 2013-05-18T11:59 | 10538 | 268 | -34.8 | -39.7 | ||
| 2013-05-18T11:59 | 10664 | 263 | 315 | 15 | ||
| 2013-05-18T12:00 | 11005 | 250 | 324 | 15 | ||
| 2013-05-18T12:00 | 11022 | 250 | -38.9 | -46.6 | ||
| 2013-05-18T12:00 | 11149 | 245 | -40.0 | -47.2 | ||
| 2013-05-18T12:01 | 11375 | 237 | 328 | 15 | ||
| 2013-05-18T12:02 | 11727 | 225 | 338 | 18 | ||
| 2013-05-18T12:03 | 11969 | 217 | -46.2 | |||
| 2013-05-18T12:03 | 12102 | 213 | 339 | 17 | ||
| 2013-05-18T12:04 | 12489 | 201 | 341 | 15 | ||
| 2013-05-18T12:05 | 12862 | 189 | 339 | 12 | ||
| 2013-05-18T12:06 | 13135 | 182 | -55.2 | |||
| 2013-05-18T12:06 | 13223 | 179 | 343 | 12 | ||
| 2013-05-18T12:07 | 13602 | 169 | 346 | 11 | ||
| 2013-05-18T12:08 | 14014 | 158 | -61.9 | |||
| 2013-05-18T12:08 | 14030 | 157 | 352 | 14 | ||
| 2013-05-18T12:09 | 14453 | 147 | 347 | 15 | ||
| 2013-05-18T12:10 | 14689 | 141 | -67.2 | |||
| 2013-05-18T12:10 | 14896 | 137 | 355 | 14 | ||
| 2013-05-18T12:11 | 15329 | 127 | 344 | 13 | ||
| 2013-05-18T12:11 | 15370 | 126 | -72.9 | |||
| 2013-05-18T23:31 | 8 | 1003 | 27.9 | 26.1 | 210 | 3 |
| 2013-05-18T23:31 | 19 | 1002 | 27.2 | 27.2 | ||
| 2013-05-18T23:32 | 223 | 979 | 25.3 | 24.4 | ||
| 2013-05-18T23:32 | 296 | 971 | 25.1 | 23.7 | ||
| 2013-05-18T23:32 | 332 | 967 | 221 | 7 | ||
| 2013-05-18T23:32 | 416 | 958 | 25.8 | 22.5 | ||
| 2013-05-18T23:33 | 571 | 941 | 25.2 | 21.1 | ||
| 2013-05-18T23:33 | 648 | 933 | 26.3 | 20.9 | ||
| 2013-05-18T23:33 | 690 | 929 | 185 | 4 | ||
| 2013-05-18T23:33 | 819 | 915 | 26.8 | 18.1 | ||
| 2013-05-18T23:34 | 1015 | 895 | 25.6 | 17.0 | ||
| 2013-05-18T23:34 | 1038 | 893 | 164 | 3 | ||
| 2013-05-18T23:35 | 1280 | 869 | 23.3 | 16.6 | ||
| 2013-05-18T23:35 | 1375 | 859 | 172 | 2 | ||
| 2013-05-18T23:36 | 1583 | 839 | 20.4 | 16.0 | ||
| 2013-05-18T23:36 | 1728 | 825 | 256 | 4 | ||
| 2013-05-18T23:36 | 1772 | 821 | 19.5 | 15.2 | ||
| 2013-05-18T23:36 | 1835 | 815 | 20.0 | 14.8 | ||
| 2013-05-18T23:37 | 1937 | 805 | 19.8 | 13.7 | ||
| 2013-05-18T23:37 | 2070 | 793 | 19.8 | 13.0 | ||
| 2013-05-18T23:37 | 2106 | 790 | 260 | 11 | ||
| 2013-05-18T23:38 | 2368 | 766 | 17.5 | 11.1 | ||
| 2013-05-18T23:38 | 2481 | 756 | 267 | 12 | ||
| 2013-05-18T23:39 | 2844 | 724 | 13.5 | 10.1 | ||
| 2013-05-18T23:39 | 2851 | 724 | 280 | 12 | ||
| 2013-05-18T23:39 | 2856 | 723 | 13.4 | 10.0 | ||
| 2013-05-18T23:40 | 3162 | 697 | 10.6 | 9.0 | ||
| 2013-05-18T23:40 | 3220 | 693 | 288 | 14 | ||
| 2013-05-18T23:40 | 3257 | 690 | 10.6 | 8.4 | ||
| 2013-05-18T23:41 | 3446 | 674 | 9.4 | 6.8 | ||
| 2013-05-18T23:41 | 3562 | 665 | 8.5 | 6.6 | ||
| 2013-05-18T23:41 | 3592 | 662 | 285 | 15 | ||
| 2013-05-18T23:41 | 3641 | 658 | 8.2 | 5.7 | ||
| 2013-05-18T23:41 | 3714 | 653 | 8.0 | 5.1 | ||
| 2013-05-18T23:42 | 3775 | 648 | 7.7 | 3.9 | ||
| 2013-05-18T23:42 | 3862 | 641 | 7.1 | 3.3 | ||
| 2013-05-18T23:42 | 3917 | 637 | 7.2 | 1.7 | ||
| 2013-05-18T23:42 | 3961 | 633 | 286 | 13 | ||
| 2013-05-18T23:42 | 3993 | 631 | 7.0 | 2.3 | ||
| 2013-05-18T23:42 | 4048 | 627 | 6.8 | 0.9 | ||
| 2013-05-18T23:42 | 4066 | 625 | 6.9 | -0.3 | ||
| 2013-05-18T23:42 | 4102 | 623 | 6.7 | -0.7 | ||
| 2013-05-18T23:43 | 4173 | 617 | 6.2 | 0.1 | ||
| 2013-05-18T23:43 | 4209 | 615 | 5.9 | 1.8 | ||
| 2013-05-18T23:43 | 4244 | 612 | 5.6 | 1.9 | ||
| 2013-05-18T23:43 | 4284 | 609 | 5.5 | 0.7 | ||
| 2013-05-18T23:43 | 4318 | 606 | 281 | 12 | ||
| 2013-05-18T23:44 | 4579 | 587 | 3.7 | -1.5 | ||
| 2013-05-18T23:44 | 4643 | 583 | 3.2 | -1.2 | ||
| 2013-05-18T23:44 | 4661 | 581 | 276 | 13 | ||
| 2013-05-18T23:45 | 4943 | 562 | 1.2 | -2.4 | ||
| 2013-05-18T23:45 | 4966 | 560 | 1.0 | -2.9 | ||
| 2013-05-18T23:45 | 4977 | 559 | 1.0 | -3.1 | ||
| 2013-05-18T23:45 | 5006 | 557 | 277 | 14 | ||
| 2013-05-18T23:45 | 5108 | 550 | -0.1 | -2.3 | ||
| 2013-05-18T23:46 | 5218 | 543 | -0.7 | -2.9 | ||
| 2013-05-18T23:46 | 5259 | 540 | -0.8 | -5.2 | ||
| 2013-05-18T23:46 | 5356 | 533 | 274 | 14 | ||
| 2013-05-18T23:46 | 5417 | 529 | -2.0 | -6.2 | ||
| 2013-05-18T23:46 | 5484 | 525 | -2.6 | -4.5 | ||
| 2013-05-18T23:46 | 5503 | 524 | -2.7 | -5.3 | ||
| 2013-05-18T23:47 | 5549 | 521 | -2.9 | -6.7 | ||
| 2013-05-18T23:47 | 5701 | 511 | -3.8 | -7.4 | ||
| 2013-05-18T23:47 | 5732 | 509 | 279 | 14 | ||
| 2013-05-18T23:47 | 5873 | 500 | -5.1 | -6.1 | ||
| 2013-05-18T23:48 | 5982 | 493 | -5.6 | -8.5 | ||
| 2013-05-18T23:48 | 6040 | 489 | -5.4 | -6.6 | ||
| 2013-05-18T23:48 | 6117 | 484 | 289 | 16 | ||
| 2013-05-18T23:49 | 6314 | 472 | -6.7 | -8.6 | ||
| 2013-05-18T23:49 | 6392 | 468 | -6.8 | -8.9 | ||
| 2013-05-18T23:49 | 6483 | 462 | -6.7 | -9.9 | 286 | 16 |
| 2013-05-18T23:49 | 6501 | 461 | -6.1 | -10.3 | ||
| 2013-05-18T23:49 | 6607 | 455 | -6.4 | -12.7 | ||
| 2013-05-18T23:49 | 6633 | 453 | -6.4 | -13.7 | ||
| 2013-05-18T23:50 | 6725 | 448 | -7.0 | -12.5 | ||
| 2013-05-18T23:50 | 6857 | 441 | 282 | 19 | ||
| 2013-05-18T23:50 | 7015 | 432 | -9.2 | -14.8 | ||
| 2013-05-18T23:51 | 7174 | 423 | -10.6 | -16.7 | ||
| 2013-05-18T23:51 | 7232 | 420 | 278 | 16 | ||
| 2013-05-18T23:52 | 7544 | 403 | -13.9 | -17.2 | ||
| 2013-05-18T23:52 | 7635 | 398 | 276 | 18 | ||
| 2013-05-18T23:53 | 7839 | 388 | -15.9 | -17.6 | ||
| 2013-05-18T23:53 | 7908 | 384 | -15.9 | -18.0 | ||
| 2013-05-18T23:53 | 8015 | 379 | 273 | 17 | ||
| 2013-05-18T23:53 | 8032 | 378 | -16.6 | -19.7 | ||
| 2013-05-18T23:54 | 8268 | 366 | -18.5 | -20.5 | ||
| 2013-05-18T23:54 | 8381 | 361 | 275 | 17 | ||
| 2013-05-18T23:54 | 8418 | 359 | -19.6 | -20.7 | ||
| 2013-05-18T23:55 | 8590 | 351 | -20.4 | -23.2 | ||
| 2013-05-18T23:55 | 8748 | 343 | 281 | 14 | ||
| 2013-05-18T23:55 | 8831 | 339 | -22.1 | -25.2 | ||
| 2013-05-18T23:56 | 8936 | 334 | -23.0 | -25.9 | ||
| 2013-05-18T23:56 | 8971 | 333 | -23.1 | -25.9 | ||
| 2013-05-18T23:56 | 9042 | 330 | -23.5 | -26.3 | ||
| 2013-05-18T23:56 | 9118 | 326 | 274 | 16 | ||
| 2013-05-18T23:57 | 9520 | 309 | 274 | 17 | ||
| 2013-05-18T23:57 | 9597 | 305 | -28.0 | -30.0 | ||
| 2013-05-18T23:58 | 9896 | 293 | -30.1 | -32.1 | ||
| 2013-05-18T23:58 | 9915 | 292 | 281 | 17 | ||
| 2013-05-18T23:59 | 10316 | 276 | 287 | 17 | ||
| 2013-05-19T00:00 | 10601 | 265 | -35.4 | -40.9 | ||
| 2013-05-19T00:00 | 10728 | 260 | 296 | 18 | ||
| 2013-05-19T00:01 | 11115 | 246 | -39.3 | -44.0 | 295 | 18 |
| 2013-05-19T00:01 | 11193 | 243 | -40.0 | -44.8 | ||
| 2013-05-19T00:02 | 11545 | 231 | 298 | 18 | ||
| 2013-05-19T00:03 | 11970 | 217 | 297 | 20 | ||
| 2013-05-19T00:04 | 12288 | 206 | -49.0 | |||
| 2013-05-19T00:04 | 12394 | 203 | 311 | 20 | ||
| 2013-05-19T00:05 | 12806 | 191 | 324 | 20 | ||
| 2013-05-19T00:06 | 13209 | 179 | 324 | 18 | ||
| 2013-05-19T00:06 | 13216 | 179 | -55.7 | |||
| 2013-05-19T00:07 | 13606 | 168 | 333 | 14 | ||
| 2013-05-19T00:08 | 13980 | 158 | 323 | 8 | ||
| 2013-05-19T00:08 | 14126 | 155 | -62.9 | |||
| 2013-05-19T00:09 | 14360 | 149 | 301 | 6 | ||
| 2013-05-19T00:10 | 14712 | 140 | 312 | 5 | ||
| 2013-05-19T00:11 | 15084 | 132 | -71.4 | |||
| 2013-05-19T00:11 | 15124 | 131 | 321 | 10 | ||
| 2013-05-19T00:12 | 15560 | 122 | -75.2 | |||
| 2013-05-19T00:12 | 15584 | 121 | 347 | 9 | ||
| 2013-05-19T00:12 | 15783 | 117 | -75.9 | |||
| 2013-05-19T00:13 | 15877 | 115 | -74.7 | |||
| 2013-05-19T00:13 | 15989 | 113 | 344 | 9 | ||
| 2013-05-19T00:14 | 16456 | 104 | 22 | 9 | ||
| 2013-05-19T00:14 | 16478 | 104 | -78.0 | |||
| 2013-05-19T00:14 | 16618 | 101 | -78.2 | |||
| 2013-05-19T00:15 | 16959 | 95 | -80.0 | 49 | 6 | |
| 2013-05-19T00:16 | 17410 | 88 | 78 | 7 | ||
| 2013-05-19T00:17 | 17769 | 83 | -79.4 | |||
| 2013-05-19T00:17 | 17866 | 81 | 80 | 6 | ||
| 2013-05-19T00:17 | 17923 | 80 | -76.9 | |||
| 2013-05-19T00:18 | 18246 | 76 | 88 | 5 | ||
| 2013-05-19T00:18 | 18390 | 74 | -78.1 | |||
| 2013-05-19T00:19 | 18602 | 71 | 88 | 8 | ||
| 2013-05-19T00:20 | 18797 | 69 | -77.8 | |||
| 2013-05-19T00:20 | 18982 | 67 | 98 | 5 | ||
| 2013-05-19T00:21 | 19182 | 65 | -79.2 | |||
| 2013-05-19T00:21 | 19325 | 63 | 66 | 7 | ||
| 2013-05-19T00:21 | 19463 | 61 | -77.3 | |||
| 2013-05-19T00:22 | 19683 | 59 | 73 | 12 | ||
| 2013-05-19T00:23 | 19902 | 57 | -74.3 | |||
| 2013-05-19T00:23 | 20037 | 56 | 86 | 9 | ||
| 2013-05-19T00:23 | 20091 | 55 | -71.6 | |||
| 2013-05-19T00:24 | 20221 | 54 | -69.3 | |||
| 2013-05-19T00:24 | 20379 | 53 | 86 | 9 | ||
| 2013-05-19T00:25 | 20591 | 51 | -64.3 | |||
| 2013-05-19T00:25 | 20737 | 50 | 167 | 5 | ||
| 2013-05-19T00:26 | 21119 | 47 | 72 | 2 | ||
| 2013-05-19T00:26 | 21158 | 46 | -65.3 | |||
| 2013-05-19T00:27 | 21497 | 44 | 50 | 4 | ||
| 2013-05-19T00:28 | 21874 | 41 | -62.8 | 58 | 8 | |
| 2013-05-19T00:29 | 22246 | 39 | 104 | 6 | ||
| 2013-05-19T00:29 | 22376 | 38 | -60.4 | |||
| 2013-05-19T00:30 | 22611 | 37 | 97 | 10 | ||
| 2013-05-19T00:31 | 22963 | 35 | 111 | 11 | ||
| 2013-05-19T00:31 | 22999 | 34 | -59.0 | |||
| 2013-05-19T00:32 | 23167 | 33 | -56.9 | |||
| 2013-05-19T00:32 | 23321 | 33 | 102 | 3 | ||
| 2013-05-19T00:33 | 23702 | 31 | 135 | 4 | ||
| 2013-05-19T00:34 | 24000 | 29 | -54.9 | |||
| 2013-05-19T00:34 | 24110 | 29 | 128 | 7 | ||
| 2013-05-19T00:35 | 24523 | 27 | 147 | 12 | ||
| 2013-05-19T00:36 | 24940 | 25 | 144 | 9 | ||
| 2013-05-19T00:37 | 25332 | 24 | 142 | 10 | ||
| 2013-05-19T00:37 | 25386 | 24 | -53.6 | |||
| 2013-05-19T00:38 | 25694 | 23 | -51.8 | |||
| 2013-05-19T00:38 | 25752 | 22 | 127 | 9 | ||
| 2013-05-19T00:39 | 26172 | 21 | -51.6 | |||
| 2013-05-19T00:39 | 26203 | 21 | 95 | 9 | ||
| 2013-05-19T00:40 | 26624 | 20 | 82 | 6 | ||
| 2013-05-19T00:40 | 26830 | 19 | -48.1 | |||
| 2013-05-19T00:41 | 27007 | 18 | 73 | 6 | ||
| 2013-05-19T00:42 | 27380 | 17 | 100 | 12 | ||
| 2013-05-19T00:43 | 27575 | 17 | -42.6 | |||
| 2013-05-19T00:43 | 27778 | 16 | 155 | 6 | ||
| 2013-05-19T00:44 | 28203 | 15 | 229 | 7 | ||
| 2013-05-19T00:44 | 28427 | 15 | -42.0 | |||
| 2013-05-19T00:45 | 28657 | 14 | 278 | 7 | ||
| 2013-05-19T00:46 | 29139 | 13 | -45.2 | |||
| 2013-05-19T00:46 | 29189 | 13 | 206 | 11 | ||
| 2013-05-19T00:47 | 29710 | 12 | 230 | 11 | ||
| 2013-05-19T00:48 | 30043 | 12 | -46.3 | |||
| 2013-05-19T00:48 | 30100 | 12 | 284 | 7 | ||
| 2013-05-19T00:49 | 30515 | 11 | 355 | 4 | ||
| 2013-05-19T00:50 | 30894 | 10 | 282 | 5 | ||
| 2013-05-19T00:50 | 31025 | 10 | -43.5 | |||
| 2013-05-19T00:51 | 31159 | 10 | -43.9 | |||
| 2013-05-19T11:30 | 8 | 1003 | 27.1 | 23.6 | 10 | 3 |
| 2013-05-19T11:30 | 21 | 1002 | 26.5 | 24.4 | ||
| 2013-05-19T11:30 | 94 | 994 | 26.9 | 22.7 | ||
| 2013-05-19T11:31 | 165 | 986 | 27.1 | 21.8 | ||
| 2013-05-19T11:31 | 349 | 966 | 359 | 5 | ||
| 2013-05-19T11:31 | 502 | 949 | 25.4 | 20.4 | ||
| 2013-05-19T11:32 | 623 | 936 | 24.3 | 20.2 | ||
| 2013-05-19T11:32 | 687 | 929 | 344 | 7 | ||
| 2013-05-19T11:32 | 827 | 914 | 23.4 | 19.6 | ||
| 2013-05-19T11:33 | 991 | 897 | 22.9 | 18.7 | ||
| 2013-05-19T11:33 | 1015 | 895 | 23.7 | 18.4 | 342 | 6 |
| 2013-05-19T11:33 | 1084 | 888 | 23.3 | 17.3 | ||
| 2013-05-19T11:34 | 1275 | 869 | 22.8 | 15.6 | ||
| 2013-05-19T11:34 | 1382 | 858 | 325 | 9 | ||
| 2013-05-19T11:35 | 1724 | 825 | 18.9 | 12.4 | ||
| 2013-05-19T11:35 | 1762 | 821 | 312 | 13 | ||
| 2013-05-19T11:35 | 1897 | 809 | 18.6 | 12.8 | ||
| 2013-05-19T11:36 | 2052 | 794 | 17.3 | 12.2 | ||
| 2013-05-19T11:36 | 2124 | 787 | 311 | 14 | ||
| 2013-05-19T11:36 | 2220 | 779 | 16.1 | 12.1 | ||
| 2013-05-19T11:37 | 2469 | 756 | 15.3 | 9.7 | ||
| 2013-05-19T11:37 | 2487 | 755 | 294 | 9 | ||
| 2013-05-19T11:37 | 2576 | 747 | 14.6 | 9.4 | ||
| 2013-05-19T11:37 | 2630 | 742 | 15.1 | 8.6 | ||
| 2013-05-19T11:38 | 2834 | 724 | 14.0 | 6.6 | ||
| 2013-05-19T11:38 | 2846 | 723 | 293 | 12 | ||
| 2013-05-19T11:38 | 2927 | 716 | 13.9 | 6.3 | ||
| 2013-05-19T11:39 | 3217 | 692 | 279 | 10 | ||
| 2013-05-19T11:39 | 3316 | 684 | 11.0 | 4.7 | ||
| 2013-05-19T11:40 | 3586 | 662 | 284 | 10 | ||
| 2013-05-19T11:41 | 3836 | 642 | 6.6 | 3.2 | ||
| 2013-05-19T11:41 | 3939 | 634 | 5.8 | 3.1 | ||
| 2013-05-19T11:41 | 3945 | 634 | 278 | 9 | ||
| 2013-05-19T11:42 | 4157 | 618 | 5.4 | 1.7 | ||
| 2013-05-19T11:42 | 4316 | 606 | 284 | 10 | ||
| 2013-05-19T11:42 | 4372 | 602 | 3.5 | 0.9 | ||
| 2013-05-19T11:43 | 4595 | 585 | 3.0 | 0.6 | ||
| 2013-05-19T11:43 | 4659 | 581 | 2.9 | 0.0 | ||
| 2013-05-19T11:43 | 4691 | 578 | 271 | 15 | ||
| 2013-05-19T11:43 | 4771 | 573 | 2.4 | -1.0 | ||
| 2013-05-19T11:44 | 5013 | 556 | 0.7 | -2.5 | ||
| 2013-05-19T11:44 | 5075 | 552 | 272 | 16 | ||
| 2013-05-19T11:44 | 5209 | 542 | 0.1 | -4.9 | ||
| 2013-05-19T11:45 | 5337 | 534 | -1.0 | -5.6 | ||
| 2013-05-19T11:45 | 5423 | 528 | -1.5 | -8.7 | ||
| 2013-05-19T11:45 | 5462 | 526 | 273 | 18 | ||
| 2013-05-19T11:46 | 5784 | 505 | -3.6 | -10.9 | ||
| 2013-05-19T11:46 | 5841 | 501 | 265 | 18 | ||
| 2013-05-19T11:47 | 6078 | 486 | -5.4 | -11.9 | ||
| 2013-05-19T11:47 | 6181 | 480 | -5.9 | -16.2 | ||
| 2013-05-19T11:47 | 6225 | 477 | 272 | 17 | ||
| 2013-05-19T11:47 | 6302 | 472 | -6.5 | -17.3 | ||
| 2013-05-19T11:47 | 6354 | 469 | -6.7 | -15.6 | ||
| 2013-05-19T11:48 | 6457 | 463 | -7.3 | -17.5 | ||
| 2013-05-19T11:48 | 6573 | 456 | -7.6 | -16.5 | ||
| 2013-05-19T11:48 | 6612 | 454 | 257 | 15 | ||
| 2013-05-19T11:48 | 6658 | 451 | -8.0 | -16.6 | ||
| 2013-05-19T11:48 | 6741 | 447 | -8.7 | -14.9 | ||
| 2013-05-19T11:49 | 6963 | 434 | -9.8 | -16.3 | ||
| 2013-05-19T11:49 | 6993 | 432 | 254 | 18 | ||
| 2013-05-19T11:49 | 7031 | 430 | -10.2 | -19.1 | ||
| 2013-05-19T11:49 | 7061 | 428 | -10.2 | -24.5 | ||
| 2013-05-19T11:50 | 7252 | 418 | -11.2 | -28.8 | ||
| 2013-05-19T11:50 | 7368 | 412 | -12.1 | -23.0 | 262 | 19 |
| 2013-05-19T11:50 | 7433 | 408 | -12.6 | -24.3 | ||
| 2013-05-19T11:50 | 7552 | 402 | -13.7 | -18.9 | ||
| 2013-05-19T11:51 | 7613 | 399 | -14.2 | -18.3 | ||
| 2013-05-19T11:51 | 7697 | 394 | -14.8 | -18.2 | ||
| 2013-05-19T11:51 | 7728 | 393 | -15.1 | -19.3 | ||
| 2013-05-19T11:51 | 7761 | 391 | 261 | 21 | ||
| 2013-05-19T11:51 | 7864 | 386 | -15.8 | -20.2 | ||
| 2013-05-19T11:51 | 7932 | 382 | -16.0 | -20.5 | ||
| 2013-05-19T11:52 | 8027 | 377 | -16.3 | -23.0 | ||
| 2013-05-19T11:52 | 8140 | 372 | -16.8 | -22.7 | ||
| 2013-05-19T11:52 | 8146 | 371 | 261 | 18 | ||
| 2013-05-19T11:53 | 8348 | 362 | -18.3 | -26.6 | ||
| 2013-05-19T11:53 | 8532 | 353 | 260 | 17 | ||
| 2013-05-19T11:53 | 8563 | 351 | -19.7 | -29.4 | ||
| 2013-05-19T11:54 | 8794 | 340 | -21.4 | -29.3 | ||
| 2013-05-19T11:54 | 8925 | 334 | 260 | 16 | ||
| 2013-05-19T11:54 | 9003 | 331 | -22.0 | -31.2 | ||
| 2013-05-19T11:55 | 9124 | 326 | -22.9 | -28.7 | ||
| 2013-05-19T11:55 | 9324 | 317 | 243 | 15 | ||
| 2013-05-19T11:55 | 9479 | 310 | -26.0 | -28.8 | ||
| 2013-05-19T11:56 | 9720 | 300 | 244 | 16 | ||
| 2013-05-19T11:57 | 10107 | 284 | 250 | 16 | ||
| 2013-05-19T11:58 | 10311 | 276 | -32.6 | -36.1 | ||
| 2013-05-19T11:58 | 10512 | 268 | 256 | 17 | ||
| 2013-05-19T11:59 | 10869 | 255 | -37.1 | -39.7 | ||
| 2013-05-19T11:59 | 10929 | 253 | 262 | 14 | ||
| 2013-05-19T12:00 | 11235 | 242 | -40.0 | -42.0 | ||
| 2013-05-19T12:00 | 11366 | 237 | 278 | 14 | ||
| 2013-05-19T12:01 | 11777 | 223 | 281 | 16 | ||
| 2013-05-19T12:01 | 11795 | 222 | -44.6 | |||
| 2013-05-19T12:02 | 12145 | 211 | 286 | 15 | ||
| 2013-05-19T12:03 | 12316 | 206 | -48.7 | |||
| 2013-05-19T12:03 | 12487 | 200 | 288 | 15 | ||
| 2013-05-19T12:04 | 12847 | 189 | 287 | 17 | ||
| 2013-05-19T12:05 | 13234 | 178 | 292 | 19 | ||
| 2013-05-19T12:05 | 13378 | 174 | -56.9 | |||
| 2013-05-19T12:06 | 13621 | 168 | 291 | 14 | ||
| 2013-05-19T12:07 | 13869 | 161 | -60.3 | |||
| 2013-05-19T12:07 | 14009 | 158 | 284 | 12 | ||
| 2013-05-19T12:08 | 14438 | 147 | 279 | 9 | ||
| 2013-05-19T12:09 | 14700 | 141 | -66.2 | |||
| 2013-05-19T12:09 | 14887 | 137 | 290 | 10 | ||
| 2013-05-19T12:10 | 15383 | 126 | 309 | 9 | ||
| 2013-05-19T12:11 | 15637 | 120 | -73.3 | |||
| 2013-05-19T12:11 | 15890 | 115 | 336 | 11 | ||
| 2013-05-19T12:11 | 16032 | 112 | -75.0 | |||
| 2013-05-19T12:12 | 16354 | 106 | -77.2 | |||
| 2013-05-19T12:12 | 16403 | 105 | 316 | 8 | ||
| 2013-05-19T12:12 | 16608 | 102 | -77.2 | |||
| 2013-05-19T12:13 | 16896 | 97 | 133 | 3 | ||
| 2013-05-19T12:13 | 17087 | 94 | -79.8 | |||
| 2013-05-19T12:14 | 17303 | 90 | 168 | 7 | ||
| 2013-05-19T12:14 | 17353 | 89 | -80.4 | |||
| 2013-05-19T23:30 | 8 | 1006 | 27.0 | 24.7 | 110 | 3 |
| 2013-05-19T23:30 | 15 | 1005 | 26.2 | 25.7 | ||
| 2013-05-19T23:30 | 22 | 1004 | 26.1 | 25.6 | ||
| 2013-05-19T23:31 | 212 | 983 | 24.0 | 22.6 | ||
| 2013-05-19T23:31 | 225 | 981 | 23.9 | 22.5 | ||
| 2013-05-19T23:31 | 325 | 970 | 126 | 2 | ||
| 2013-05-19T23:31 | 392 | 963 | 22.9 | 21.7 | ||
| 2013-05-19T23:31 | 455 | 956 | 23.3 | 21.4 | ||
| 2013-05-19T23:32 | 664 | 933 | 193 | 1 | ||
| 2013-05-19T23:33 | 869 | 912 | 21.4 | 19.1 | ||
| 2013-05-19T23:33 | 1015 | 896 | 218 | 5 | ||
| 2013-05-19T23:33 | 1057 | 892 | 20.6 | 18.4 | ||
| 2013-05-19T23:33 | 1080 | 890 | 20.9 | 18.3 | ||
| 2013-05-19T23:33 | 1109 | 887 | 21.9 | 17.7 | ||
| 2013-05-19T23:34 | 1306 | 867 | 21.1 | 15.6 | ||
| 2013-05-19T23:34 | 1364 | 861 | 233 | 4 | ||
| 2013-05-19T23:35 | 1557 | 842 | 19.4 | 14.7 | ||
| 2013-05-19T23:35 | 1720 | 826 | 248 | 4 | ||
| 2013-05-19T23:35 | 1823 | 816 | 17.4 | 14.3 | ||
| 2013-05-19T23:36 | 1925 | 807 | 16.7 | 13.6 | ||
| 2013-05-19T23:36 | 2080 | 792 | 263 | 8 | ||
| 2013-05-19T23:36 | 2187 | 782 | 16.7 | 11.8 | ||
| 2013-05-19T23:37 | 2416 | 762 | 15.9 | 9.8 | ||
| 2013-05-19T23:37 | 2434 | 760 | 256 | 10 | ||
| 2013-05-19T23:37 | 2497 | 754 | 15.5 | 9.8 | ||
| 2013-05-19T23:38 | 2756 | 732 | 13.8 | 8.6 | ||
| 2013-05-19T23:38 | 2778 | 730 | 248 | 8 | ||
| 2013-05-19T23:39 | 3116 | 701 | 254 | 10 | ||
| 2013-05-19T23:39 | 3151 | 698 | 11.0 | 6.3 | ||
| 2013-05-19T23:40 | 3399 | 678 | 9.0 | 5.0 | ||
| 2013-05-19T23:40 | 3473 | 672 | 263 | 10 | ||
| 2013-05-19T23:40 | 3582 | 663 | 7.7 | 3.9 | ||
| 2013-05-19T23:40 | 3637 | 658 | 8.1 | 3.6 | ||
| 2013-05-19T23:41 | 3835 | 643 | 250 | 11 | ||
| 2013-05-19T23:41 | 3895 | 638 | 6.2 | 2.5 | ||
| 2013-05-19T23:42 | 4197 | 615 | 4.0 | 1.4 | ||
| 2013-05-19T23:42 | 4204 | 615 | 250 | 12 | ||
| 2013-05-19T23:43 | 4501 | 592 | 2.2 | 0.3 | ||
| 2013-05-19T23:43 | 4565 | 588 | 266 | 13 | ||
| 2013-05-19T23:44 | 4755 | 574 | 1.0 | -1.6 | ||
| 2013-05-19T23:44 | 4820 | 569 | 0.6 | -1.6 | ||
| 2013-05-19T23:44 | 4919 | 562 | 262 | 14 | ||
| 2013-05-19T23:44 | 4955 | 560 | -0.1 | -3.3 | ||
| 2013-05-19T23:44 | 5050 | 553 | -0.5 | -5.7 | ||
| 2013-05-19T23:44 | 5071 | 552 | -0.6 | -3.8 | ||
| 2013-05-19T23:45 | 5103 | 550 | -0.8 | -4.0 | ||
| 2013-05-19T23:45 | 5129 | 548 | -0.9 | -5.1 | ||
| 2013-05-19T23:45 | 5149 | 547 | -1.0 | -5.2 | ||
| 2013-05-19T23:45 | 5237 | 541 | -1.3 | -5.2 | ||
| 2013-05-19T23:45 | 5272 | 538 | 263 | 15 | ||
| 2013-05-19T23:46 | 5514 | 522 | -3.4 | -5.6 | ||
| 2013-05-19T23:46 | 5636 | 514 | 263 | 15 | ||
| 2013-05-19T23:46 | 5669 | 512 | -3.6 | -6.1 | ||
| 2013-05-19T23:47 | 5927 | 495 | -5.0 | -10.2 | ||
| 2013-05-19T23:47 | 6008 | 490 | 262 | 18 | ||
| 2013-05-19T23:47 | 6099 | 485 | -5.8 | -13.9 | ||
| 2013-05-19T23:47 | 6147 | 482 | -5.9 | -18.3 | ||
| 2013-05-19T23:48 | 6226 | 477 | -6.5 | -16.5 | ||
| 2013-05-19T23:48 | 6262 | 475 | -6.7 | -13.2 | ||
| 2013-05-19T23:48 | 6323 | 471 | -6.9 | -13.2 | ||
| 2013-05-19T23:48 | 6371 | 468 | -7.2 | -15.6 | 256 | 19 |
| 2013-05-19T23:48 | 6406 | 466 | -7.3 | -19.2 | ||
| 2013-05-19T23:49 | 6619 | 453 | -8.6 | -18.4 | ||
| 2013-05-19T23:49 | 6643 | 452 | -8.6 | -18.7 | ||
| 2013-05-19T23:49 | 6702 | 449 | -8.8 | -20.6 | ||
| 2013-05-19T23:49 | 6726 | 447 | 253 | 19 | ||
| 2013-05-19T23:49 | 6853 | 440 | -9.9 | -19.3 | ||
| 2013-05-19T23:50 | 6970 | 433 | -10.4 | -20.1 | ||
| 2013-05-19T23:50 | 7092 | 427 | 258 | 20 | ||
| 2013-05-19T23:50 | 7147 | 423 | -11.4 | -24.2 | ||
| 2013-05-19T23:51 | 7373 | 411 | -12.5 | -22.8 | ||
| 2013-05-19T23:51 | 7465 | 406 | 262 | 22 | ||
| 2013-05-19T23:51 | 7544 | 402 | -13.1 | -29.0 | ||
| 2013-05-19T23:52 | 7776 | 390 | -14.7 | -26.8 | ||
| 2013-05-19T23:52 | 7825 | 387 | 262 | 22 | ||
| 2013-05-19T23:52 | 7948 | 381 | -15.9 | -26.7 | ||
| 2013-05-19T23:53 | 8186 | 369 | 257 | 23 | ||
| 2013-05-19T23:53 | 8239 | 367 | -18.1 | -28.4 | ||
| 2013-05-19T23:54 | 8401 | 359 | -19.2 | -29.7 | ||
| 2013-05-19T23:54 | 8487 | 355 | -19.2 | -27.7 | ||
| 2013-05-19T23:54 | 8567 | 351 | 256 | 21 | ||
| 2013-05-19T23:54 | 8710 | 344 | -21.1 | -29.2 | ||
| 2013-05-19T23:55 | 8969 | 332 | 260 | 21 | ||
| 2013-05-19T23:56 | 9234 | 320 | -26.1 | -29.9 | ||
| 2013-05-19T23:56 | 9343 | 316 | 265 | 22 | ||
| 2013-05-19T23:57 | 9551 | 307 | -28.2 | -31.4 | ||
| 2013-05-19T23:57 | 9643 | 303 | -28.5 | -31.3 | ||
| 2013-05-19T23:57 | 9719 | 299 | 257 | 21 | ||
| 2013-05-19T23:57 | 9825 | 295 | -29.4 | -32.0 | ||
| 2013-05-19T23:58 | 10105 | 284 | 251 | 21 | ||
| 2013-05-19T23:59 | 10487 | 269 | 248 | 21 | ||
| 2013-05-20T00:00 | 10875 | 254 | 256 | 20 | ||
| 2013-05-20T00:01 | 11196 | 242 | -40.0 | -43.9 | ||
| 2013-05-20T00:01 | 11261 | 240 | 258 | 21 | ||
| 2013-05-20T00:02 | 11632 | 227 | 257 | 19 | ||
| 2013-05-20T00:03 | 12003 | 215 | 258 | 20 | ||
| 2013-05-20T00:04 | 12377 | 203 | 260 | 21 | ||
| 2013-05-20T00:05 | 12751 | 192 | 261 | 20 | ||
| 2013-05-20T00:06 | 13058 | 183 | -56.3 | |||
| 2013-05-20T00:06 | 13128 | 181 | 269 | 21 | ||
| 2013-05-20T00:07 | 13443 | 172 | -58.3 | |||
| 2013-05-20T00:07 | 13517 | 170 | 266 | 17 | ||
| 2013-05-20T00:08 | 13757 | 164 | -59.8 | |||
| 2013-05-20T00:08 | 13939 | 159 | 250 | 13 | ||
| 2013-05-20T00:09 | 14306 | 150 | 243 | 10 | ||
| 2013-05-20T00:10 | 14538 | 144 | -66.5 | |||
| 2013-05-20T00:10 | 14661 | 141 | 232 | 11 | ||
| 2013-05-20T00:11 | 15092 | 131 | 263 | 6 | ||
| 2013-05-20T00:11 | 15299 | 127 | -71.0 | |||
| 2013-05-20T00:12 | 15498 | 123 | 301 | 6 | ||
| 2013-05-20T00:13 | 15814 | 116 | -72.4 | |||
| 2013-05-20T00:13 | 15870 | 115 | 187 | 2 | ||
| 2013-05-20T00:14 | 16305 | 107 | 116 | 1 | ||
| 2013-05-20T00:14 | 16513 | 103 | -77.8 | |||
| 2013-05-20T00:15 | 16693 | 100 | -78.0 | |||
| 2013-05-20T00:15 | 16774 | 98 | 248 | 5 | ||
| 2013-05-20T00:16 | 17188 | 92 | -78.5 | |||
| 2013-05-20T00:16 | 17257 | 90 | 316 | 9 | ||
| 2013-05-20T00:17 | 17502 | 87 | -78.9 | |||
| 2013-05-20T00:17 | 17696 | 84 | 300 | 4 | ||
| 2013-05-20T00:18 | 17974 | 80 | -78.4 | |||
| 2013-05-20T00:18 | 18148 | 77 | 334 | 3 | ||
| 2013-05-20T00:19 | 18587 | 72 | 4 | 2 | ||
| 2013-05-20T00:19 | 18620 | 71 | -77.0 | |||
| 2013-05-20T00:20 | 18808 | 69 | -76.9 | |||
| 2013-05-20T00:20 | 19012 | 67 | 137 | 4 | ||
| 2013-05-20T00:21 | 19288 | 63 | -75.1 | |||
| 2013-05-20T00:21 | 19371 | 63 | 253 | 2 | ||
| 2013-05-20T00:21 | 19494 | 61 | -73.6 | |||
| 2013-05-20T00:22 | 19737 | 59 | -73.6 | 99 | 3 | |
| 2013-05-20T00:23 | 19931 | 57 | -71.4 | |||
| 2013-05-20T00:23 | 20100 | 55 | 42 | 3 | ||
| 2013-05-20T00:23 | 20220 | 54 | -68.7 | |||
| 2013-05-20T00:24 | 20435 | 52 | 74 | 6 | ||
| 2013-05-20T00:24 | 20516 | 52 | -67.0 | |||
| 2013-05-20T00:25 | 20706 | 50 | -67.2 | |||
| 2013-05-20T00:25 | 20804 | 49 | 109 | 8 | ||
| 2013-05-20T00:26 | 21069 | 47 | -65.7 | |||
| 2013-05-20T00:26 | 21134 | 47 | 128 | 5 | ||
| 2013-05-20T00:26 | 21173 | 46 | -65.0 | |||
| 2013-05-20T11:30 | 8 | 1005 | 27.5 | 25.1 | 90 | 5 |
| 2013-05-20T11:30 | 17 | 1004 | 27.0 | 26.5 | ||
| 2013-05-20T11:30 | 87 | 996 | 26.5 | 25.1 | ||
| 2013-05-20T11:31 | 275 | 975 | 24.7 | 23.8 | ||
| 2013-05-20T11:31 | 324 | 970 | 90 | 7 | ||
| 2013-05-20T11:31 | 367 | 965 | 23.9 | 23.2 | ||
| 2013-05-20T11:32 | 571 | 943 | 22.9 | 22.4 | ||
| 2013-05-20T11:32 | 680 | 931 | 118 | 6 | ||
| 2013-05-20T11:33 | 1050 | 892 | 127 | 2 | ||
| 2013-05-20T11:33 | 1075 | 890 | 20.1 | 18.6 | ||
| 2013-05-20T11:34 | 1266 | 870 | 20.5 | 16.9 | ||
| 2013-05-20T11:34 | 1341 | 863 | 20.4 | 16.8 | ||
| 2013-05-20T11:34 | 1428 | 854 | 334 | 5 | ||
| 2013-05-20T11:34 | 1544 | 843 | 19.7 | 16.0 | ||
| 2013-05-20T11:35 | 1629 | 834 | 19.4 | 15.3 | ||
| 2013-05-20T11:35 | 1793 | 819 | 18.6 | 13.9 | 338 | 3 |
| 2013-05-20T11:36 | 1974 | 802 | 17.6 | 12.5 | ||
| 2013-05-20T11:36 | 2095 | 790 | 17.4 | 11.7 | ||
| 2013-05-20T11:36 | 2155 | 785 | 229 | 3 | ||
| 2013-05-20T11:37 | 2525 | 752 | 237 | 6 | ||
| 2013-05-20T11:38 | 2746 | 732 | 12.8 | 9.1 | ||
| 2013-05-20T11:38 | 2894 | 719 | 258 | 8 | ||
| 2013-05-20T11:38 | 2919 | 717 | 12.1 | 8.6 | ||
| 2013-05-20T11:39 | 3131 | 699 | 10.9 | 8.7 | ||
| 2013-05-20T11:39 | 3255 | 689 | 10.5 | 6.8 | 252 | 12 |
| 2013-05-20T11:40 | 3604 | 661 | 246 | 11 | ||
| 2013-05-20T11:40 | 3621 | 659 | 7.9 | 6.0 | ||
| 2013-05-20T11:41 | 3774 | 647 | 7.2 | 4.7 | ||
| 2013-05-20T11:41 | 3957 | 633 | 244 | 13 | ||
| 2013-05-20T11:41 | 3999 | 630 | 6.0 | 3.7 | ||
| 2013-05-20T11:42 | 4330 | 605 | 245 | 12 | ||
| 2013-05-20T11:42 | 4375 | 601 | 3.0 | 2.3 | ||
| 2013-05-20T11:42 | 4413 | 599 | 3.0 | 2.3 | ||
| 2013-05-20T11:43 | 4576 | 587 | 2.0 | 1.3 | ||
| 2013-05-20T11:43 | 4590 | 586 | 2.0 | 1.3 | ||
| 2013-05-20T11:43 | 4597 | 585 | 1.9 | 1.2 | ||
| 2013-05-20T11:43 | 4724 | 576 | 247 | 14 | ||
| 2013-05-20T11:43 | 4803 | 570 | 0.6 | 0.0 | ||
| 2013-05-20T11:44 | 4956 | 560 | 0.0 | -0.4 | ||
| 2013-05-20T11:44 | 5090 | 550 | -0.4 | -1.1 | ||
| 2013-05-20T11:44 | 5125 | 548 | 253 | 15 | ||
| 2013-05-20T11:45 | 5535 | 520 | 253 | 14 | ||
| 2013-05-20T11:45 | 5635 | 514 | -4.2 | -4.6 | ||
| 2013-05-20T11:46 | 5925 | 495 | -5.9 | -6.4 | ||
| 2013-05-20T11:46 | 5960 | 493 | 250 | 14 | ||
| 2013-05-20T11:46 | 5980 | 492 | -6.3 | -6.8 | ||
| 2013-05-20T11:46 | 6105 | 484 | -7.0 | -8.4 | ||
| 2013-05-20T11:47 | 6223 | 477 | -6.8 | -8.2 | ||
| 2013-05-20T11:47 | 6325 | 471 | -7.1 | -8.6 | ||
| 2013-05-20T11:47 | 6350 | 469 | 253 | 14 | ||
| 2013-05-20T11:47 | 6381 | 467 | -7.3 | -7.8 | ||
| 2013-05-20T11:47 | 6455 | 463 | -7.3 | -9.4 | ||
| 2013-05-20T11:48 | 6536 | 458 | -7.7 | -9.3 | ||
| 2013-05-20T11:48 | 6722 | 447 | 249 | 13 | ||
| 2013-05-20T11:48 | 6801 | 443 | -8.7 | -12.0 | ||
| 2013-05-20T11:49 | 6961 | 434 | -9.9 | -11.9 | ||
| 2013-05-20T11:49 | 7106 | 426 | 254 | 15 | ||
| 2013-05-20T11:50 | 7389 | 410 | -12.8 | -13.4 | ||
| 2013-05-20T11:50 | 7490 | 405 | 255 | 15 | ||
| 2013-05-20T11:50 | 7585 | 400 | -14.1 | -15.2 | ||
| 2013-05-20T11:51 | 7715 | 393 | -14.1 | -16.6 | ||
| 2013-05-20T11:51 | 7808 | 388 | -14.5 | -17.5 | ||
| 2013-05-20T11:51 | 7881 | 384 | 250 | 17 | ||
| 2013-05-20T11:51 | 7901 | 383 | -15.2 | -18.3 | ||
| 2013-05-20T11:51 | 7934 | 382 | -14.9 | -21.9 | ||
| 2013-05-20T11:51 | 8000 | 378 | -15.5 | -21.1 | ||
| 2013-05-20T11:52 | 8181 | 369 | -17.0 | -20.2 | ||
| 2013-05-20T11:52 | 8279 | 365 | 258 | 18 | ||
| 2013-05-20T11:52 | 8304 | 363 | -17.6 | -29.4 | ||
| 2013-05-20T11:52 | 8395 | 359 | -18.2 | -29.1 | ||
| 2013-05-20T11:52 | 8460 | 356 | -18.7 | -29.8 | ||
| 2013-05-20T11:53 | 8680 | 346 | 252 | 19 | ||
| 2013-05-20T11:53 | 8714 | 344 | -20.8 | -27.5 | ||
| 2013-05-20T11:53 | 8785 | 341 | -21.2 | -25.4 | ||
| 2013-05-20T11:53 | 8842 | 338 | -21.4 | -27.3 | ||
| 2013-05-20T11:54 | 8892 | 336 | -21.5 | -32.6 | ||
| 2013-05-20T11:54 | 8954 | 333 | -21.8 | -32.9 | ||
| 2013-05-20T11:54 | 9101 | 326 | 250 | 19 | ||
| 2013-05-20T11:54 | 9148 | 324 | -23.1 | -40.4 | ||
| 2013-05-20T11:54 | 9292 | 318 | -24.1 | -39.8 | ||
| 2013-05-20T11:55 | 9416 | 313 | -25.2 | -34.2 | ||
| 2013-05-20T11:55 | 9514 | 308 | 253 | 20 | ||
| 2013-05-20T11:55 | 9588 | 305 | -26.8 | -36.9 | ||
| 2013-05-20T11:56 | 9769 | 298 | -28.0 | -32.4 | ||
| 2013-05-20T11:56 | 9881 | 293 | -28.4 | -32.8 | ||
| 2013-05-20T11:56 | 9940 | 291 | 244 | 20 | ||
| 2013-05-20T11:56 | 10014 | 288 | -29.5 | -38.6 | ||
| 2013-05-20T11:56 | 10134 | 283 | -30.0 | -39.3 | ||
| 2013-05-20T11:57 | 10281 | 277 | -31.4 | -43.3 | ||
| 2013-05-20T11:57 | 10361 | 274 | 245 | 22 | ||
| 2013-05-20T11:58 | 10785 | 258 | 245 | 22 | ||
| 2013-05-20T11:59 | 11197 | 243 | 243 | 22 | ||
| 2013-05-20T11:59 | 11205 | 243 | -40.0 | -49.6 | ||
| 2013-05-20T12:00 | 11634 | 228 | 250 | 23 | ||
| 2013-05-20T12:01 | 12073 | 213 | 257 | 23 | ||
| 2013-05-20T12:02 | 12496 | 200 | 255 | 22 | ||
| 2013-05-20T12:02 | 12667 | 195 | -52.4 | |||
| 2013-05-20T12:03 | 12862 | 189 | 261 | 23 | ||
| 2013-05-20T12:03 | 12989 | 185 | -54.8 | |||
| 2013-05-20T12:04 | 13217 | 179 | 267 | 24 | ||
| 2013-05-20T12:05 | 13580 | 169 | 274 | 25 | ||
| 2013-05-20T12:06 | 13900 | 160 | -60.9 | |||
| 2013-05-20T12:06 | 13986 | 158 | 275 | 23 | ||
| 2013-05-20T12:07 | 14413 | 147 | 271 | 17 | ||
| 2013-05-20T12:07 | 14516 | 145 | -65.6 | |||
| 2013-05-20T12:08 | 14859 | 137 | 264 | 16 | ||
| 2013-05-20T12:08 | 15018 | 133 | -69.5 | |||
| 2013-05-20T12:09 | 15342 | 126 | 255 | 12 | ||
| 2013-05-20T12:10 | 15779 | 117 | 246 | 13 | ||
| 2013-05-20T12:10 | 15804 | 117 | -75.7 | |||
| 2013-05-20T12:10 | 15960 | 114 | -75.8 | |||
| 2013-05-20T12:11 | 16235 | 108 | 230 | 13 | ||
| 2013-05-20T12:12 | 16477 | 104 | -78.9 | |||
| 2013-05-20T12:12 | 16729 | 99 | 258 | 11 | ||
| 2013-05-20T12:12 | 16821 | 98 | -80.1 | |||
| 2013-05-20T12:13 | 17159 | 92 | 265 | 10 | ||
| 2013-05-20T12:13 | 17202 | 91 | -82.2 | |||
| 2013-05-20T23:30 | 8 | 1006 | 26.9 | 23.0 | 300 | 4 |
| 2013-05-20T23:30 | 12 | 1005 | 25.9 | 24.7 | ||
| 2013-05-20T23:31 | 144 | 990 | 24.8 | 21.1 | ||
| 2013-05-20T23:31 | 179 | 987 | 24.9 | 20.8 | ||
| 2013-05-20T23:31 | 221 | 982 | 26.2 | 20.3 | ||
| 2013-05-20T23:31 | 301 | 973 | 25.9 | 20.0 | ||
| 2013-05-20T23:31 | 314 | 972 | 279 | 9 | ||
| 2013-05-20T23:31 | 398 | 962 | 26.4 | 18.8 | ||
| 2013-05-20T23:32 | 553 | 946 | 25.5 | 19.4 | ||
| 2013-05-20T23:32 | 684 | 932 | 247 | 5 | ||
| 2013-05-20T23:32 | 785 | 921 | 23.3 | 18.6 | ||
| 2013-05-20T23:33 | 897 | 909 | 22.8 | 18.1 | ||
| 2013-05-20T23:33 | 1026 | 896 | 22.1 | 17.5 | ||
| 2013-05-20T23:33 | 1038 | 895 | 284 | 5 | ||
| 2013-05-20T23:34 | 1388 | 859 | 285 | 7 | ||
| 2013-05-20T23:34 | 1469 | 851 | 18.8 | 14.9 | ||
| 2013-05-20T23:35 | 1695 | 829 | 17.8 | 12.9 | ||
| 2013-05-20T23:35 | 1745 | 824 | 264 | 7 | ||
| 2013-05-20T23:36 | 2006 | 800 | 15.7 | 11.1 | ||
| 2013-05-20T23:36 | 2118 | 789 | 261 | 7 | ||
| 2013-05-20T23:36 | 2187 | 783 | 15.2 | 11.2 | ||
| 2013-05-20T23:36 | 2244 | 777 | 15.5 | 11.5 | ||
| 2013-05-20T23:37 | 2393 | 764 | 14.7 | 10.7 | ||
| 2013-05-20T23:37 | 2492 | 755 | 257 | 13 | ||
| 2013-05-20T23:37 | 2629 | 743 | 13.9 | 8.5 | ||
| 2013-05-20T23:38 | 2860 | 723 | 12.1 | 6.4 | 265 | 16 |
| 2013-05-20T23:38 | 3028 | 708 | 11.0 | 6.1 | ||
| 2013-05-20T23:39 | 3211 | 693 | 259 | 18 | ||
| 2013-05-20T23:40 | 3497 | 670 | 7.0 | 6.4 | ||
| 2013-05-20T23:40 | 3585 | 662 | 6.8 | 6.1 | 257 | 20 |
| 2013-05-20T23:40 | 3729 | 651 | 5.6 | 5.0 | ||
| 2013-05-20T23:41 | 3960 | 633 | 242 | 26 | ||
| 2013-05-20T23:41 | 4120 | 621 | 3.7 | 3.0 | ||
| 2013-05-20T23:42 | 4328 | 605 | 244 | 25 | ||
| 2013-05-20T23:42 | 4347 | 603 | 2.2 | 1.9 | ||
| 2013-05-20T23:43 | 4597 | 585 | 1.2 | 0.6 | ||
| 2013-05-20T23:43 | 4701 | 578 | 244 | 25 | ||
| 2013-05-20T23:43 | 4750 | 574 | 0.5 | 0.1 | ||
| 2013-05-20T23:43 | 4824 | 569 | 0.4 | 0.1 | ||
| 2013-05-20T23:44 | 4898 | 564 | 0.1 | -0.2 | ||
| 2013-05-20T23:44 | 4911 | 563 | 0.0 | -0.3 | ||
| 2013-05-20T23:44 | 4954 | 560 | -0.3 | -0.9 | ||
| 2013-05-20T23:44 | 5071 | 552 | 239 | 25 | ||
| 2013-05-20T23:45 | 5444 | 526 | 241 | 24 | ||
| 2013-05-20T23:46 | 5665 | 512 | -3.9 | -4.7 | ||
| 2013-05-20T23:46 | 5840 | 501 | 242 | 25 | ||
| 2013-05-20T23:46 | 6008 | 490 | -5.8 | -7.2 | ||
| 2013-05-20T23:47 | 6237 | 476 | 254 | 21 | ||
| 2013-05-20T23:48 | 6512 | 459 | -8.8 | -9.3 | ||
| 2013-05-20T23:48 | 6645 | 452 | 256 | 24 | ||
| 2013-05-20T23:48 | 6780 | 444 | -10.3 | -10.8 | ||
| 2013-05-20T23:48 | 6794 | 443 | -10.3 | -10.8 | ||
| 2013-05-20T23:49 | 6869 | 439 | -10.6 | -11.1 | ||
| 2013-05-20T23:49 | 7053 | 428 | 251 | 22 | ||
| 2013-05-20T23:50 | 7450 | 407 | 244 | 24 | ||
| 2013-05-20T23:50 | 7628 | 397 | -15.0 | -16.5 | ||
| 2013-05-20T23:51 | 7858 | 385 | 249 | 22 | ||
| 2013-05-20T23:52 | 8275 | 364 | 255 | 19 | ||
| 2013-05-20T23:53 | 8660 | 346 | 255 | 17 | ||
| 2013-05-20T23:53 | 8666 | 346 | -21.4 | -22.9 | ||
| 2013-05-20T23:54 | 9038 | 329 | 249 | 16 | ||
| 2013-05-20T23:54 | 9092 | 326 | -24.4 | -26.3 | ||
| 2013-05-20T23:55 | 9413 | 312 | 253 | 15 | ||
| 2013-05-20T23:55 | 9494 | 309 | -26.8 | -29.5 | ||
| 2013-05-20T23:56 | 9654 | 302 | -27.9 | -31.7 | ||
| 2013-05-20T23:56 | 9776 | 297 | 252 | 19 | ||
| 2013-05-20T23:56 | 9920 | 291 | -30.2 | -34.1 | ||
| 2013-05-20T23:57 | 10158 | 281 | 244 | 16 | ||
| 2013-05-20T23:58 | 10475 | 269 | -34.3 | -39.2 | ||
| 2013-05-20T23:58 | 10556 | 266 | 241 | 16 | ||
| 2013-05-20T23:59 | 10964 | 250 | 241 | 18 | ||
| 2013-05-20T23:59 | 11130 | 244 | -40.0 | -43.6 | ||
| 2013-05-21T00:00 | 11385 | 235 | 241 | 18 | ||
| 2013-05-21T00:01 | 11766 | 222 | 234 | 16 | ||
| 2013-05-21T00:01 | 11848 | 220 | -46.1 | |||
| 2013-05-21T00:02 | 12146 | 210 | 242 | 17 | ||
| 2013-05-21T00:03 | 12547 | 198 | 240 | 15 | ||
| 2013-05-21T00:04 | 12925 | 186 | 243 | 17 | ||
| 2013-05-21T00:05 | 13292 | 176 | 247 | 21 | ||
| 2013-05-21T00:05 | 13313 | 175 | -58.9 | |||
| 2013-05-21T00:06 | 13654 | 166 | 256 | 19 | ||
| 2013-05-21T00:07 | 13957 | 158 | -62.1 | |||
| 2013-05-21T00:07 | 14051 | 156 | 275 | 15 | ||
| 2013-05-21T00:08 | 14412 | 147 | 291 | 18 | ||
| 2013-05-21T00:09 | 14686 | 140 | -67.5 | |||
| 2013-05-21T00:09 | 14777 | 138 | 289 | 15 | ||
| 2013-05-21T00:10 | 15157 | 130 | -70.3 | |||
| 2013-05-21T00:10 | 15194 | 129 | 268 | 12 | ||
| 2013-05-21T00:11 | 15582 | 121 | 270 | 13 | ||
| 2013-05-21T00:12 | 15960 | 113 | 273 | 10 | ||
| 2013-05-21T00:12 | 16063 | 111 | -76.7 | |||
| 2013-05-21T00:13 | 16420 | 104 | 299 | 12 | ||
| 2013-05-21T00:13 | 16586 | 101 | -78.8 | |||
| 2013-05-21T00:14 | 16850 | 97 | 316 | 14 | ||
| 2013-05-21T00:15 | 17215 | 91 | -79.6 | |||
| 2013-05-21T00:15 | 17329 | 89 | 305 | 8 | ||
| 2013-05-21T00:15 | 17387 | 88 | -77.9 | |||
| 2013-05-21T00:16 | 17763 | 82 | 328 | 2 | ||
| 2013-05-21T00:17 | 18134 | 77 | 332 | 7 | ||
| 2013-05-21T00:18 | 18413 | 73 | -79.4 | |||
| 2013-05-21T00:18 | 18475 | 73 | 4 | 3 | ||
| 2013-05-21T00:19 | 18676 | 70 | -75.7 | |||
| 2013-05-21T00:19 | 18810 | 69 | 39 | 6 | ||
| 2013-05-21T00:19 | 18930 | 67 | -74.9 | |||
| 2013-05-21T00:20 | 19196 | 64 | 117 | 8 | ||
| 2013-05-21T00:20 | 19204 | 64 | -74.7 | |||
| 2013-05-21T00:21 | 19570 | 60 | 120 | 6 | ||
| 2013-05-21T00:21 | 19708 | 59 | -73.7 | |||
| 2013-05-21T00:22 | 19901 | 57 | 110 | 8 | ||
| 2013-05-21T00:22 | 19975 | 56 | -69.9 | |||
| 2013-05-21T00:23 | 20137 | 55 | -68.1 | |||
| 2013-05-21T00:23 | 20248 | 54 | 103 | 4 | ||
| 2013-05-21T00:23 | 20419 | 52 | -66.6 | |||
| 2013-05-21T00:24 | 20608 | 51 | 69 | 7 | ||
| 2013-05-21T00:24 | 20693 | 50 | -65.8 | |||
| 2013-05-21T00:25 | 20866 | 48 | -64.1 | |||
| 2013-05-21T00:25 | 20981 | 48 | 82 | 9 | ||
| 2013-05-21T00:26 | 21353 | 45 | 72 | 6 | ||
| 2013-05-21T00:27 | 21662 | 43 | -64.1 | |||
| 2013-05-21T00:27 | 21691 | 42 | 68 | 6 | ||
| 2013-05-21T00:28 | 22004 | 40 | 89 | 6 | ||
| 2013-05-21T00:29 | 22370 | 38 | 99 | 4 | ||
| 2013-05-21T00:29 | 22436 | 38 | -59.6 | |||
| 2013-05-21T00:30 | 22762 | 36 | 74 | 7 | ||
| 2013-05-21T00:30 | 22779 | 36 | -58.7 | |||
| 2013-05-21T00:31 | 23143 | 34 | 81 | 11 | ||
| 2013-05-21T00:32 | 23237 | 33 | -58.9 | |||
| 2013-05-21T11:30 | 8 | 1008 | 26.8 | 24.3 | 60 | 4 |
| 2013-05-21T11:30 | 17 | 1006 | 26.3 | 25.1 | ||
| 2013-05-21T11:31 | 134 | 993 | 25.3 | 23.2 | ||
| 2013-05-21T11:31 | 327 | 972 | 58 | 7 | ||
| 2013-05-21T11:31 | 401 | 964 | 23.4 | 22.0 | ||
| 2013-05-21T11:31 | 474 | 956 | 23.4 | 21.5 | ||
| 2013-05-21T11:32 | 597 | 942 | 22.6 | 20.5 | ||
| 2013-05-21T11:32 | 685 | 933 | 114 | 4 | ||
| 2013-05-21T11:32 | 744 | 927 | 21.8 | 21.0 | ||
| 2013-05-21T11:33 | 920 | 908 | 21.3 | 20.6 | ||
| 2013-05-21T11:33 | 1040 | 896 | 181 | 3 | ||
| 2013-05-21T11:33 | 1136 | 886 | 21.0 | 19.1 | ||
| 2013-05-21T11:34 | 1310 | 868 | 20.0 | 18.1 | ||
| 2013-05-21T11:34 | 1397 | 859 | 128 | 3 | ||
| 2013-05-21T11:34 | 1498 | 849 | 18.7 | 17.2 | ||
| 2013-05-21T11:35 | 1662 | 833 | 17.4 | 16.1 | ||
| 2013-05-21T11:35 | 1758 | 824 | 117 | 3 | ||
| 2013-05-21T11:35 | 1879 | 813 | 16.2 | 15.7 | ||
| 2013-05-21T11:36 | 2013 | 800 | 15.9 | 15.1 | ||
| 2013-05-21T11:36 | 2121 | 790 | 183 | 3 | ||
| 2013-05-21T11:36 | 2181 | 784 | 16.6 | 12.6 | ||
| 2013-05-21T11:37 | 2336 | 770 | 15.9 | 10.2 | ||
| 2013-05-21T11:37 | 2462 | 759 | 15.0 | 10.2 | ||
| 2013-05-21T11:37 | 2480 | 757 | 229 | 6 | ||
| 2013-05-21T11:37 | 2589 | 748 | 14.1 | 9.9 | ||
| 2013-05-21T11:38 | 2732 | 735 | 13.0 | 9.1 | ||
| 2013-05-21T11:38 | 2853 | 725 | 12.2 | 9.0 | 247 | 8 |
| 2013-05-21T11:38 | 2860 | 724 | 12.1 | 8.9 | ||
| 2013-05-21T11:39 | 3103 | 703 | 10.5 | 8.3 | ||
| 2013-05-21T11:39 | 3218 | 694 | 252 | 10 | ||
| 2013-05-21T11:39 | 3234 | 692 | 10.3 | 7.4 | ||
| 2013-05-21T11:39 | 3343 | 683 | 9.4 | 7.0 | ||
| 2013-05-21T11:40 | 3448 | 675 | 8.6 | 6.7 | ||
| 2013-05-21T11:40 | 3559 | 666 | 253 | 11 | ||
| 2013-05-21T11:41 | 3810 | 646 | 5.9 | 5.6 | ||
| 2013-05-21T11:41 | 3875 | 641 | 6.5 | 5.9 | ||
| 2013-05-21T11:41 | 3946 | 635 | 249 | 14 | ||
| 2013-05-21T11:41 | 4113 | 622 | 5.0 | 4.4 | ||
| 2013-05-21T11:42 | 4327 | 606 | 247 | 13 | ||
| 2013-05-21T11:43 | 4705 | 579 | 244 | 14 | ||
| 2013-05-21T11:44 | 5081 | 552 | 244 | 16 | ||
| 2013-05-21T11:44 | 5192 | 545 | -1.8 | -2.2 | ||
| 2013-05-21T11:44 | 5244 | 541 | -2.3 | -3.4 | ||
| 2013-05-21T11:45 | 5277 | 539 | -2.6 | -4.0 | ||
| 2013-05-21T11:45 | 5400 | 530 | -2.2 | -5.2 | ||
| 2013-05-21T11:45 | 5471 | 526 | 242 | 12 | ||
| 2013-05-21T11:45 | 5521 | 522 | -1.2 | -8.0 | ||
| 2013-05-21T11:46 | 5771 | 506 | -2.5 | -9.9 | ||
| 2013-05-21T11:46 | 5840 | 502 | 247 | 8 | ||
| 2013-05-21T11:46 | 5895 | 498 | -2.8 | -10.4 | ||
| 2013-05-21T11:46 | 5943 | 495 | -3.0 | -13.3 | ||
| 2013-05-21T11:46 | 6001 | 492 | -3.4 | -16.7 | ||
| 2013-05-21T11:47 | 6194 | 480 | 249 | 5 | ||
| 2013-05-21T11:47 | 6235 | 477 | -5.0 | -15.9 | ||
| 2013-05-21T11:47 | 6314 | 473 | -5.5 | -17.9 | ||
| 2013-05-21T11:48 | 6398 | 468 | -6.2 | -18.5 | ||
| 2013-05-21T11:48 | 6509 | 461 | -7.2 | -15.9 | ||
| 2013-05-21T11:48 | 6545 | 459 | 246 | 7 | ||
| 2013-05-21T11:48 | 6561 | 458 | -7.6 | -16.2 | ||
| 2013-05-21T11:48 | 6638 | 453 | -8.2 | -18.3 | ||
| 2013-05-21T11:49 | 6905 | 438 | 241 | 10 | ||
| 2013-05-21T11:49 | 6910 | 438 | -10.8 | -15.4 | ||
| 2013-05-21T11:49 | 7043 | 430 | -11.9 | -13.8 | ||
| 2013-05-21T11:50 | 7218 | 421 | -12.4 | -15.9 | ||
| 2013-05-21T11:50 | 7280 | 417 | 236 | 15 | ||
| 2013-05-21T11:50 | 7313 | 415 | -12.6 | -18.4 | ||
| 2013-05-21T11:51 | 7472 | 407 | -13.7 | -18.0 | ||
| 2013-05-21T11:51 | 7635 | 398 | -14.4 | -19.7 | ||
| 2013-05-21T11:51 | 7652 | 397 | 233 | 17 | ||
| 2013-05-21T11:51 | 7755 | 392 | -15.5 | -18.3 | ||
| 2013-05-21T11:51 | 7821 | 388 | -16.1 | -18.8 | ||
| 2013-05-21T11:52 | 7911 | 384 | -16.6 | -17.2 | ||
| 2013-05-21T11:52 | 8015 | 379 | 244 | 14 | ||
| 2013-05-21T11:53 | 8260 | 366 | -18.5 | -19.1 | ||
| 2013-05-21T11:53 | 8406 | 359 | 253 | 18 | ||
| 2013-05-21T11:54 | 8724 | 344 | -22.2 | -22.9 | ||
| 2013-05-21T11:54 | 8779 | 342 | -22.7 | -23.4 | ||
| 2013-05-21T11:54 | 8822 | 340 | 253 | 16 | ||
| 2013-05-21T11:54 | 8842 | 339 | -23.3 | -24.0 | ||
| 2013-05-21T11:54 | 8892 | 336 | -22.9 | -23.6 | ||
| 2013-05-21T11:55 | 9209 | 322 | 247 | 17 | ||
| 2013-05-21T11:56 | 9572 | 306 | 246 | 20 | ||
| 2013-05-21T11:56 | 9721 | 300 | -27.6 | -30.4 | ||
| 2013-05-21T11:57 | 9939 | 291 | 243 | 18 | ||
| 2013-05-21T11:57 | 9959 | 290 | -29.6 | -33.3 | ||
| 2013-05-21T11:58 | 10328 | 276 | 247 | 16 | ||
| 2013-05-21T11:58 | 10374 | 274 | -32.9 | -36.5 | ||
| 2013-05-21T11:59 | 10714 | 261 | 248 | 18 | ||
| 2013-05-21T12:00 | 11062 | 248 | -38.3 | -43.5 | ||
| 2013-05-21T12:00 | 11101 | 247 | 248 | 17 | ||
| 2013-05-21T12:00 | 11259 | 241 | -40.0 | -45.3 | ||
| 2013-05-21T12:01 | 11491 | 233 | 252 | 17 | ||
| 2013-05-21T12:02 | 11890 | 219 | 256 | 18 | ||
| 2013-05-21T12:03 | 12278 | 207 | 254 | 18 | ||
| 2013-05-21T12:03 | 12284 | 207 | -48.8 | |||
| 2013-05-21T12:04 | 12644 | 196 | 251 | 18 | ||
| 2013-05-21T12:05 | 12999 | 185 | 249 | 16 | ||
| 2013-05-21T12:06 | 13341 | 175 | -57.6 | |||
| 2013-05-21T12:06 | 13359 | 175 | 256 | 18 | ||
| 2013-05-21T12:07 | 13732 | 165 | 272 | 16 | ||
| 2013-05-21T12:08 | 14091 | 156 | -63.4 | |||
| 2013-05-21T12:08 | 14119 | 155 | 274 | 14 | ||
| 2013-05-21T12:09 | 14534 | 145 | 262 | 10 | ||
| 2013-05-21T12:10 | 14959 | 135 | 266 | 9 | ||
| 2013-05-21T12:11 | 15192 | 130 | -71.5 | |||
| 2013-05-21T12:11 | 15391 | 125 | 274 | 6 | ||
| 2013-05-21T12:12 | 15682 | 119 | -75.1 | |||
| 2013-05-21T12:12 | 15854 | 116 | 242 | 7 | ||
| 2013-05-21T12:13 | 16093 | 111 | -77.8 | |||
| 2013-05-21T12:13 | 16265 | 108 | 264 | 5 | ||
| 2013-05-21T12:14 | 16608 | 101 | -79.9 | |||
| 2013-05-21T12:14 | 16687 | 100 | 269 | 6 | ||
| 2013-05-21T12:14 | 16884 | 97 | -77.4 | |||
| 2013-05-21T12:15 | 17095 | 93 | 225 | 5 | ||
| 2013-05-21T12:16 | 17395 | 88 | -81.0 | |||
| 2013-05-21T12:16 | 17557 | 86 | 231 | 6 | ||
| 2013-05-21T12:17 | 17884 | 81 | -78.7 | |||
| 2013-05-21T12:17 | 17984 | 80 | 140 | 2 | ||
| 2013-05-21T12:17 | 18034 | 79 | -77.6 | |||
| 2013-05-21T23:31 | 8 | 1007 | 27.5 | 25.5 | 230 | 5 |
| 2013-05-21T23:31 | 15 | 1006 | 26.4 | 26.2 | ||
| 2013-05-21T23:31 | 47 | 1003 | 26.4 | 26.2 | ||
| 2013-05-21T23:32 | 304 | 974 | 24.3 | 23.4 | ||
| 2013-05-21T23:32 | 349 | 969 | 236 | 9 | ||
| 2013-05-21T23:32 | 497 | 953 | 23.5 | 22.8 | ||
| 2013-05-21T23:33 | 725 | 928 | 237 | 8 | ||
| 2013-05-21T23:34 | 922 | 908 | 23.0 | 17.7 | ||
| 2013-05-21T23:34 | 1069 | 893 | 22.6 | 17.1 | ||
| 2013-05-21T23:34 | 1088 | 891 | 231 | 10 | ||
| 2013-05-21T23:34 | 1201 | 879 | 22.6 | 16.9 | ||
| 2013-05-21T23:35 | 1419 | 858 | 20.9 | 14.3 | ||
| 2013-05-21T23:35 | 1441 | 855 | 248 | 12 | ||
| 2013-05-21T23:36 | 1773 | 823 | 17.7 | 12.8 | 231 | 14 |
| 2013-05-21T23:37 | 1996 | 802 | 17.4 | 11.2 | ||
| 2013-05-21T23:37 | 2115 | 791 | 230 | 13 | ||
| 2013-05-21T23:37 | 2132 | 789 | 17.7 | 10.3 | ||
| 2013-05-21T23:38 | 2362 | 768 | 16.0 | 9.7 | ||
| 2013-05-21T23:38 | 2451 | 760 | 15.3 | 9.2 | ||
| 2013-05-21T23:38 | 2463 | 759 | 242 | 10 | ||
| 2013-05-21T23:39 | 2719 | 737 | 13.9 | 7.9 | ||
| 2013-05-21T23:39 | 2816 | 728 | 239 | 12 | ||
| 2013-05-21T23:40 | 3183 | 697 | 9.7 | 7.3 | ||
| 2013-05-21T23:40 | 3209 | 695 | 234 | 10 | ||
| 2013-05-21T23:40 | 3330 | 685 | 9.2 | 7.0 | ||
| 2013-05-21T23:41 | 3419 | 677 | 9.2 | 4.2 | ||
| 2013-05-21T23:41 | 3590 | 664 | 241 | 13 | ||
| 2013-05-21T23:41 | 3691 | 656 | 7.9 | 3.6 | ||
| 2013-05-21T23:42 | 3964 | 634 | 247 | 15 | ||
| 2013-05-21T23:42 | 4085 | 625 | 4.9 | 2.1 | ||
| 2013-05-21T23:43 | 4331 | 606 | 259 | 16 | ||
| 2013-05-21T23:43 | 4430 | 599 | 2.9 | 0.8 | ||
| 2013-05-21T23:44 | 4648 | 583 | 1.4 | -0.4 | ||
| 2013-05-21T23:44 | 4670 | 581 | 269 | 13 | ||
| 2013-05-21T23:44 | 4794 | 573 | 0.6 | -0.9 | ||
| 2013-05-21T23:45 | 4853 | 568 | 0.6 | -1.3 | ||
| 2013-05-21T23:45 | 5026 | 556 | 278 | 17 | ||
| 2013-05-21T23:45 | 5085 | 552 | -1.1 | -3.0 | ||
| 2013-05-21T23:46 | 5285 | 538 | -2.3 | -4.6 | ||
| 2013-05-21T23:46 | 5382 | 532 | 267 | 16 | ||
| 2013-05-21T23:46 | 5461 | 527 | -3.1 | -6.2 | ||
| 2013-05-21T23:47 | 5589 | 518 | -3.7 | -5.7 | ||
| 2013-05-21T23:47 | 5743 | 508 | 262 | 15 | ||
| 2013-05-21T23:47 | 5789 | 505 | -5.1 | -7.2 | ||
| 2013-05-21T23:48 | 5959 | 494 | -6.3 | -6.8 | ||
| 2013-05-21T23:48 | 6104 | 485 | 258 | 13 | ||
| 2013-05-21T23:49 | 6428 | 466 | -8.7 | -9.2 | ||
| 2013-05-21T23:49 | 6473 | 463 | 266 | 14 | ||
| 2013-05-21T23:50 | 6877 | 439 | 269 | 16 | ||
| 2013-05-21T23:50 | 6958 | 435 | -11.4 | -11.9 | ||
| 2013-05-21T23:50 | 7031 | 431 | -11.7 | -12.2 | ||
| 2013-05-21T23:51 | 7122 | 425 | -12.5 | -13.7 | ||
| 2013-05-21T23:51 | 7267 | 417 | 260 | 17 | ||
| 2013-05-21T23:52 | 7654 | 397 | 265 | 17 | ||
| 2013-05-21T23:52 | 7691 | 395 | -16.3 | -17.0 | ||
| 2013-05-21T23:52 | 7777 | 390 | -16.6 | -20.0 | ||
| 2013-05-21T23:53 | 8003 | 379 | -17.7 | -22.2 | ||
| 2013-05-21T23:53 | 8007 | 378 | 258 | 14 | ||
| 2013-05-21T23:54 | 8240 | 367 | -18.9 | -25.7 | ||
| 2013-05-21T23:54 | 8369 | 361 | 251 | 15 | ||
| 2013-05-21T23:54 | 8458 | 356 | -20.0 | -26.7 | ||
| 2013-05-21T23:55 | 8681 | 346 | -21.1 | -28.2 | ||
| 2013-05-21T23:55 | 8769 | 342 | 240 | 15 | ||
| 2013-05-21T23:56 | 9025 | 330 | -23.6 | -30.3 | ||
| 2013-05-21T23:56 | 9132 | 325 | -24.4 | -30.5 | ||
| 2013-05-21T23:56 | 9172 | 323 | 238 | 16 | ||
| 2013-05-21T23:57 | 9460 | 311 | -27.0 | -32.3 | ||
| 2013-05-21T23:57 | 9565 | 306 | 248 | 17 | ||
| 2013-05-21T23:57 | 9646 | 303 | -28.1 | -34.5 | ||
| 2013-05-21T23:57 | 9717 | 300 | -28.3 | -35.7 | ||
| 2013-05-21T23:58 | 9962 | 290 | 248 | 17 | ||
| 2013-05-21T23:59 | 10330 | 275 | 251 | 17 | ||
| 2013-05-21T23:59 | 10453 | 270 | -34.5 | -42.7 | ||
| 2013-05-22T00:00 | 10676 | 262 | 246 | 20 | ||
| 2013-05-22T00:01 | 11046 | 248 | 247 | 22 | ||
| 2013-05-22T00:01 | 11096 | 246 | -40.0 | -47.6 | ||
| 2013-05-22T00:02 | 11418 | 235 | 245 | 21 | ||
| 2013-05-22T00:03 | 11809 | 221 | 257 | 20 | ||
| 2013-05-22T00:04 | 12206 | 209 | 260 | 24 | ||
| 2013-05-22T00:05 | 12458 | 201 | -51.2 | |||
| 2013-05-22T00:05 | 12605 | 196 | 256 | 20 | ||
| 2013-05-22T00:06 | 12972 | 185 | 255 | 19 | ||
| 2013-05-22T00:07 | 13317 | 175 | 265 | 18 | ||
| 2013-05-22T00:07 | 13448 | 172 | -58.7 | |||
| 2013-05-22T00:08 | 13689 | 165 | 283 | 15 | ||
| 2013-05-22T00:08 | 13768 | 163 | -60.7 | |||
| 2013-05-22T00:09 | 14079 | 155 | 262 | 10 | ||
| 2013-05-22T00:10 | 14313 | 149 | -64.6 | |||
| 2013-05-22T00:10 | 14449 | 146 | 253 | 9 | ||
| 2013-05-22T00:11 | 14806 | 138 | 262 | 9 | ||
| 2013-05-22T00:12 | 15025 | 133 | -70.9 | |||
| 2013-05-22T00:12 | 15247 | 128 | 263 | 8 | ||
| 2013-05-22T00:13 | 15552 | 121 | -75.1 | |||
| 2013-05-22T00:13 | 15697 | 118 | 245 | 9 | ||
| 2013-05-22T00:14 | 15940 | 113 | -76.8 | |||
| 2013-05-22T00:14 | 16042 | 111 | 249 | 9 | ||
| 2013-05-22T00:15 | 16432 | 104 | -77.3 | |||
| 2013-05-22T00:15 | 16449 | 104 | 263 | 8 | ||
| 2013-05-22T00:16 | 16937 | 95 | 302 | 6 | ||
| 2013-05-22T00:17 | 17300 | 89 | -79.3 | |||
| 2013-05-22T00:17 | 17409 | 88 | 274 | 2 | ||
| 2013-05-22T00:17 | 17507 | 86 | -78.6 | |||
| 2013-05-22T00:18 | 17854 | 81 | -78.6 | |||
| 2013-05-22T00:18 | 17889 | 81 | 346 | 3 | ||
| 2013-05-22T00:19 | 18231 | 76 | -79.3 | |||
| 2013-05-22T00:19 | 18329 | 75 | 347 | 4 | ||
| 2013-05-22T00:20 | 18650 | 71 | -78.9 | |||
| 2013-05-22T00:20 | 18690 | 70 | 40 | 6 | ||
| 2013-05-22T00:21 | 18915 | 67 | -77.8 | |||
| 2013-05-22T00:21 | 19106 | 65 | 46 | 8 | ||
| 2013-05-22T00:21 | 19115 | 65 | -75.7 | |||
| 2013-05-22T00:22 | 19474 | 61 | 86 | 8 | ||
| 2013-05-22T00:22 | 19531 | 61 | -74.3 | |||
| 2013-05-22T00:23 | 19698 | 59 | -71.3 | |||
| 2013-05-22T00:23 | 19800 | 58 | 72 | 14 | ||
| 2013-05-22T00:23 | 19831 | 58 | -69.8 | |||
| 2013-05-22T11:31 | 8 | 1008 | 28.1 | 26.7 | 170 | 5 |
| 2013-05-22T11:31 | 17 | 1007 | 27.4 | 26.9 | ||
| 2013-05-22T11:32 | 318 | 973 | 188 | 9 | ||
| 2013-05-22T11:32 | 439 | 960 | 24.8 | 23.0 | ||
| 2013-05-22T11:33 | 629 | 940 | 23.7 | 22.1 | ||
| 2013-05-22T11:33 | 671 | 935 | 217 | 13 | ||
| 2013-05-22T11:33 | 807 | 921 | 22.7 | 21.3 | ||
| 2013-05-22T11:34 | 1039 | 897 | 226 | 13 | ||
| 2013-05-22T11:34 | 1062 | 894 | 21.1 | 19.9 | ||
| 2013-05-22T11:35 | 1279 | 872 | 19.4 | 18.9 | ||
| 2013-05-22T11:35 | 1385 | 861 | 228 | 15 | ||
| 2013-05-22T11:35 | 1414 | 859 | 18.6 | 18.4 | ||
| 2013-05-22T11:35 | 1493 | 851 | 18.0 | 17.7 | ||
| 2013-05-22T11:36 | 1608 | 839 | 17.2 | 16.2 | ||
| 2013-05-22T11:36 | 1699 | 831 | 17.8 | 16.1 | ||
| 2013-05-22T11:36 | 1726 | 828 | 224 | 14 | ||
| 2013-05-22T11:36 | 1855 | 816 | 17.1 | 15.4 | ||
| 2013-05-22T11:37 | 2016 | 800 | 16.5 | 14.0 | ||
| 2013-05-22T11:37 | 2043 | 798 | 225 | 15 | ||
| 2013-05-22T11:37 | 2048 | 797 | 16.6 | 13.3 | ||
| 2013-05-22T11:37 | 2120 | 791 | 16.6 | 12.6 | ||
| 2013-05-22T11:38 | 2335 | 771 | 227 | 15 | ||
| 2013-05-22T11:39 | 2632 | 744 | 236 | 16 | ||
| 2013-05-22T11:39 | 2679 | 740 | 13.2 | 9.1 | ||
| 2013-05-22T11:40 | 2884 | 722 | 11.8 | 8.3 | ||
| 2013-05-22T11:40 | 2948 | 717 | 234 | 16 | ||
| 2013-05-22T11:41 | 3131 | 701 | 10.6 | 8.4 | ||
| 2013-05-22T11:41 | 3277 | 689 | 230 | 14 | ||
| 2013-05-22T11:41 | 3343 | 684 | 9.7 | 5.5 | ||
| 2013-05-22T11:42 | 3622 | 661 | 228 | 15 | ||
| 2013-05-22T11:42 | 3734 | 652 | 7.3 | 3.2 | ||
| 2013-05-22T11:43 | 3962 | 635 | 228 | 17 | ||
| 2013-05-22T11:43 | 4021 | 630 | 5.8 | -0.3 | ||
| 2013-05-22T11:43 | 4102 | 624 | 5.0 | 0.2 | ||
| 2013-05-22T11:44 | 4162 | 619 | 4.6 | -0.6 | ||
| 2013-05-22T11:44 | 4201 | 616 | 4.3 | 1.0 | ||
| 2013-05-22T11:44 | 4324 | 607 | 235 | 17 | ||
| 2013-05-22T11:44 | 4420 | 600 | 3.2 | -1.6 | ||
| 2013-05-22T11:45 | 4545 | 591 | 2.6 | -3.7 | ||
| 2013-05-22T11:45 | 4574 | 589 | 2.4 | -2.1 | ||
| 2013-05-22T11:45 | 4621 | 585 | 2.2 | -3.7 | ||
| 2013-05-22T11:45 | 4665 | 582 | 233 | 16 | ||
| 2013-05-22T11:45 | 4678 | 581 | 1.9 | -3.6 | ||
| 2013-05-22T11:45 | 4756 | 575 | 1.7 | -5.9 | ||
| 2013-05-22T11:46 | 4849 | 569 | 1.1 | -5.8 | ||
| 2013-05-22T11:46 | 4894 | 566 | 0.8 | -6.1 | ||
| 2013-05-22T11:46 | 4917 | 564 | 0.7 | -6.4 | ||
| 2013-05-22T11:46 | 4946 | 562 | 0.5 | -6.6 | ||
| 2013-05-22T11:46 | 5008 | 558 | 240 | 17 | ||
| 2013-05-22T11:46 | 5064 | 554 | 0.2 | -8.5 | ||
| 2013-05-22T11:46 | 5164 | 547 | -0.2 | -12.5 | ||
| 2013-05-22T11:47 | 5246 | 541 | -0.9 | -13.1 | ||
| 2013-05-22T11:47 | 5319 | 536 | -1.4 | -9.7 | ||
| 2013-05-22T11:47 | 5341 | 535 | 238 | 18 | ||
| 2013-05-22T11:47 | 5347 | 535 | -1.5 | -10.3 | ||
| 2013-05-22T11:47 | 5386 | 532 | -1.7 | -7.6 | ||
| 2013-05-22T11:47 | 5425 | 529 | -1.8 | -9.2 | ||
| 2013-05-22T11:47 | 5470 | 526 | -1.9 | -10.9 | ||
| 2013-05-22T11:47 | 5499 | 524 | -1.9 | -15.0 | ||
| 2013-05-22T11:48 | 5624 | 516 | -2.7 | -16.4 | ||
| 2013-05-22T11:48 | 5683 | 512 | -3.2 | -16.2 | 236 | 18 |
| 2013-05-22T11:48 | 5712 | 511 | -3.4 | -14.5 | ||
| 2013-05-22T11:48 | 5782 | 506 | -3.5 | -17.8 | ||
| 2013-05-22T11:48 | 5819 | 504 | -3.8 | -14.6 | ||
| 2013-05-22T11:49 | 5879 | 500 | -4.0 | -18.3 | ||
| 2013-05-22T11:49 | 5958 | 495 | -4.7 | -18.9 | ||
| 2013-05-22T11:49 | 6001 | 492 | -5.1 | -13.9 | ||
| 2013-05-22T11:49 | 6032 | 490 | -5.3 | -13.4 | ||
| 2013-05-22T11:49 | 6043 | 490 | 233 | 17 | ||
| 2013-05-22T11:49 | 6067 | 488 | -5.6 | -14.9 | ||
| 2013-05-22T11:49 | 6086 | 487 | -5.7 | -11.8 | ||
| 2013-05-22T11:49 | 6133 | 484 | -5.8 | -16.7 | ||
| 2013-05-22T11:50 | 6228 | 478 | -6.2 | -17.9 | ||
| 2013-05-22T11:50 | 6257 | 476 | -6.3 | -18.3 | ||
| 2013-05-22T11:50 | 6292 | 474 | -6.6 | -13.1 | ||
| 2013-05-22T11:50 | 6335 | 472 | -6.6 | -18.9 | ||
| 2013-05-22T11:50 | 6375 | 469 | -6.9 | -17.1 | ||
| 2013-05-22T11:50 | 6392 | 468 | 236 | 18 | ||
| 2013-05-22T11:50 | 6460 | 464 | -7.3 | -18.0 | ||
| 2013-05-22T11:50 | 6522 | 460 | -7.8 | -13.6 | ||
| 2013-05-22T11:50 | 6547 | 459 | -7.8 | -16.2 | ||
| 2013-05-22T11:51 | 6600 | 456 | -8.2 | -16.6 | ||
| 2013-05-22T11:51 | 6650 | 453 | -8.6 | -15.4 | ||
| 2013-05-22T11:51 | 6662 | 452 | -8.7 | -14.5 | ||
| 2013-05-22T11:51 | 6691 | 451 | -9.0 | -14.2 | ||
| 2013-05-22T11:51 | 6729 | 448 | 232 | 19 | ||
| 2013-05-22T11:51 | 6741 | 448 | -9.2 | -15.7 | ||
| 2013-05-22T11:51 | 6753 | 447 | -9.3 | -16.0 | ||
| 2013-05-22T11:51 | 6786 | 445 | -9.5 | -19.8 | ||
| 2013-05-22T11:51 | 6814 | 443 | -9.7 | -19.4 | ||
| 2013-05-22T11:51 | 6842 | 442 | -9.8 | -20.3 | ||
| 2013-05-22T11:51 | 6871 | 440 | -10.0 | -21.6 | ||
| 2013-05-22T11:51 | 6892 | 439 | -10.2 | -18.2 | ||
| 2013-05-22T11:52 | 6915 | 438 | -10.3 | -14.9 | ||
| 2013-05-22T11:52 | 6926 | 437 | -10.4 | -14.8 | ||
| 2013-05-22T11:52 | 6949 | 436 | -10.5 | -16.0 | ||
| 2013-05-22T11:52 | 7002 | 433 | -10.8 | -14.9 | ||
| 2013-05-22T11:52 | 7034 | 431 | -11.0 | -16.9 | ||
| 2013-05-22T11:52 | 7061 | 429 | 227 | 19 | ||
| 2013-05-22T11:52 | 7072 | 429 | -11.3 | -15.2 | ||
| 2013-05-22T11:52 | 7093 | 428 | -11.5 | -15.9 | ||
| 2013-05-22T11:52 | 7136 | 425 | -11.7 | -19.6 | ||
| 2013-05-22T11:52 | 7203 | 422 | -12.3 | -21.6 | ||
| 2013-05-22T11:53 | 7234 | 420 | -12.6 | -19.4 | ||
| 2013-05-22T11:53 | 7351 | 413 | -13.1 | -17.6 | ||
| 2013-05-22T11:53 | 7379 | 412 | 223 | 17 | ||
| 2013-05-22T11:53 | 7405 | 411 | -13.3 | -17.8 | ||
| 2013-05-22T11:53 | 7461 | 408 | -13.4 | -16.4 | ||
| 2013-05-22T11:54 | 7543 | 403 | -13.3 | -17.8 | ||
| 2013-05-22T11:54 | 7663 | 397 | -14.3 | -17.8 | ||
| 2013-05-22T11:54 | 7697 | 395 | 225 | 17 | ||
| 2013-05-22T11:54 | 7780 | 391 | -15.0 | -24.0 | ||
| 2013-05-22T11:54 | 7815 | 389 | -15.3 | -24.8 | ||
| 2013-05-22T11:54 | 7852 | 387 | -15.5 | -21.1 | ||
| 2013-05-22T11:55 | 7986 | 380 | -16.2 | -21.1 | ||
| 2013-05-22T11:55 | 8052 | 377 | 230 | 17 | ||
| 2013-05-22T11:56 | 8235 | 368 | -17.7 | -23.0 | ||
| 2013-05-22T11:56 | 8426 | 359 | 228 | 17 | ||
| 2013-05-22T11:56 | 8478 | 356 | -19.2 | -25.2 | ||
| 2013-05-22T11:56 | 8560 | 352 | -19.4 | -26.6 | ||
| 2013-05-22T11:57 | 8668 | 347 | -20.3 | -25.7 | ||
| 2013-05-22T11:57 | 8812 | 340 | 222 | 15 | ||
| 2013-05-22T11:57 | 8887 | 337 | -21.9 | -25.9 | ||
| 2013-05-22T11:58 | 9110 | 327 | -23.5 | -26.3 | ||
| 2013-05-22T11:58 | 9216 | 322 | 225 | 16 | ||
| 2013-05-22T11:59 | 9480 | 311 | -25.9 | -28.1 | ||
| 2013-05-22T11:59 | 9614 | 305 | 244 | 15 | ||
| 2013-05-22T11:59 | 9740 | 300 | -27.7 | -29.6 | ||
| 2013-05-22T12:00 | 10018 | 288 | 256 | 18 | ||
| 2013-05-22T12:01 | 10421 | 272 | 263 | 17 | ||
| 2013-05-22T12:02 | 10806 | 258 | 266 | 16 | ||
| 2013-05-22T12:03 | 11165 | 245 | 268 | 16 | ||
| 2013-05-22T12:03 | 11202 | 243 | -40.0 | -42.6 | ||
| 2013-05-22T12:04 | 11525 | 232 | 272 | 17 | ||
| 2013-05-22T12:05 | 11875 | 220 | 276 | 18 | ||
| 2013-05-22T12:06 | 12211 | 209 | 278 | 18 | ||
| 2013-05-22T12:07 | 12583 | 198 | 279 | 20 | ||
| 2013-05-22T12:08 | 12959 | 186 | 283 | 19 | ||
| 2013-05-22T12:08 | 12989 | 186 | -55.4 | |||
| 2013-05-22T12:09 | 13362 | 175 | 281 | 17 | ||
| 2013-05-22T12:09 | 13398 | 174 | -58.6 | |||
| 2013-05-22T12:10 | 13802 | 163 | 284 | 14 | ||
| 2013-05-22T12:11 | 14267 | 151 | -65.1 | |||
| 2013-05-22T12:11 | 14283 | 151 | 252 | 10 | ||
| 2013-05-22T12:12 | 14753 | 139 | 223 | 9 | ||
| 2013-05-22T12:13 | 15177 | 130 | -72.1 | |||
| 2013-05-22T12:13 | 15227 | 129 | 225 | 9 | ||
| 2013-05-22T12:14 | 15714 | 118 | 277 | 9 | ||
| 2013-05-22T12:14 | 15803 | 117 | -75.2 | |||
| 2013-05-22T12:15 | 16177 | 109 | 312 | 8 | ||
| 2013-05-22T12:15 | 16337 | 106 | -76.5 | |||
| 2013-05-22T12:16 | 16496 | 103 | -76.8 | |||
| 2013-05-22T12:16 | 16625 | 101 | 272 | 2 | ||
| 2013-05-22T12:17 | 16951 | 96 | -78.9 | |||
| 2013-05-22T12:17 | 17053 | 94 | 349 | 2 | ||
| 2013-05-22T12:17 | 17095 | 93 | -79.0 | |||
| 2013-05-22T23:31 | 8 | 1008 | 28.2 | 25.4 | 210 | 9 |
| 2013-05-22T23:31 | 17 | 1007 | 26.8 | 26.8 | ||
| 2013-05-22T23:32 | 265 | 979 | 25.3 | 24.1 | ||
| 2013-05-22T23:32 | 309 | 974 | 227 | 12 | ||
| 2013-05-22T23:32 | 340 | 971 | 25.4 | 23.6 | ||
| 2013-05-22T23:33 | 539 | 949 | 24.7 | 22.4 | ||
| 2013-05-22T23:33 | 656 | 937 | 250 | 13 | ||
| 2013-05-22T23:33 | 736 | 928 | 23.0 | 21.5 | ||
| 2013-05-22T23:34 | 892 | 912 | 21.9 | 20.7 | ||
| 2013-05-22T23:34 | 997 | 901 | 21.4 | 20.4 | 250 | 13 |
| 2013-05-22T23:34 | 1150 | 885 | 20.7 | 19.0 | ||
| 2013-05-22T23:35 | 1342 | 866 | 235 | 16 | ||
| 2013-05-22T23:35 | 1387 | 861 | 19.0 | 18.2 | ||
| 2013-05-22T23:36 | 1649 | 835 | 18.3 | 16.1 | ||
| 2013-05-22T23:36 | 1670 | 833 | 229 | 17 | ||
| 2013-05-22T23:37 | 1904 | 811 | 17.4 | 14.3 | ||
| 2013-05-22T23:37 | 1992 | 803 | 234 | 19 | ||
| 2013-05-22T23:37 | 2088 | 794 | 17.5 | 13.2 | ||
| 2013-05-22T23:38 | 2274 | 777 | 16.6 | 11.5 | ||
| 2013-05-22T23:38 | 2347 | 770 | 249 | 19 | ||
| 2013-05-22T23:39 | 2533 | 753 | 14.9 | 10.7 | ||
| 2013-05-22T23:39 | 2719 | 737 | 246 | 16 | ||
| 2013-05-22T23:40 | 2971 | 715 | 11.8 | 9.4 | ||
| 2013-05-22T23:40 | 3094 | 705 | 253 | 15 | ||
| 2013-05-22T23:41 | 3451 | 675 | 8.7 | 6.3 | ||
| 2013-05-22T23:41 | 3477 | 673 | 242 | 15 | ||
| 2013-05-22T23:42 | 3665 | 658 | 7.7 | 5.5 | ||
| 2013-05-22T23:42 | 3847 | 644 | 250 | 17 | ||
| 2013-05-22T23:43 | 4034 | 629 | 5.1 | 3.1 | ||
| 2013-05-22T23:43 | 4101 | 624 | 4.8 | 3.0 | ||
| 2013-05-22T23:43 | 4202 | 616 | 4.3 | 1.3 | ||
| 2013-05-22T23:43 | 4209 | 616 | 250 | 18 | ||
| 2013-05-22T23:43 | 4274 | 611 | 3.9 | 0.6 | ||
| 2013-05-22T23:44 | 4474 | 596 | 2.6 | 0.3 | ||
| 2013-05-22T23:44 | 4529 | 592 | 2.3 | 0.0 | ||
| 2013-05-22T23:44 | 4561 | 590 | 246 | 18 | ||
| 2013-05-22T23:44 | 4602 | 587 | 2.0 | 1.0 | ||
| 2013-05-22T23:45 | 4756 | 576 | 1.3 | 0.0 | ||
| 2013-05-22T23:45 | 4790 | 573 | 1.2 | -1.5 | ||
| 2013-05-22T23:45 | 4860 | 568 | 0.6 | -0.9 | ||
| 2013-05-22T23:45 | 4911 | 565 | 250 | 18 | ||
| 2013-05-22T23:45 | 4962 | 561 | 0.0 | -1.7 | ||
| 2013-05-22T23:46 | 5081 | 553 | -0.5 | -2.6 | ||
| 2013-05-22T23:46 | 5254 | 541 | 255 | 19 | ||
| 2013-05-22T23:46 | 5378 | 533 | -1.7 | -5.0 | ||
| 2013-05-22T23:47 | 5535 | 522 | -2.8 | -5.8 | ||
| 2013-05-22T23:47 | 5616 | 517 | 256 | 18 | ||
| 2013-05-22T23:48 | 5811 | 504 | -4.4 | -8.3 | ||
| 2013-05-22T23:48 | 5927 | 497 | -5.4 | -9.1 | ||
| 2013-05-22T23:48 | 5989 | 493 | 259 | 18 | ||
| 2013-05-22T23:48 | 6013 | 492 | -5.9 | -8.2 | ||
| 2013-05-22T23:48 | 6109 | 486 | -6.6 | -8.6 | ||
| 2013-05-22T23:48 | 6151 | 483 | -7.0 | -8.9 | ||
| 2013-05-22T23:49 | 6354 | 471 | 256 | 19 | ||
| 2013-05-22T23:49 | 6425 | 466 | -9.0 | -10.3 | ||
| 2013-05-22T23:49 | 6443 | 465 | -9.0 | -10.8 | ||
| 2013-05-22T23:49 | 6461 | 464 | -9.1 | -11.9 | ||
| 2013-05-22T23:49 | 6478 | 463 | -9.1 | -12.9 | ||
| 2013-05-22T23:50 | 6539 | 459 | -9.6 | -11.4 | ||
| 2013-05-22T23:50 | 6625 | 454 | -9.5 | -12.9 | ||
| 2013-05-22T23:50 | 6714 | 449 | 250 | 19 | ||
| 2013-05-22T23:50 | 6733 | 448 | -9.7 | -20.2 | ||
| 2013-05-22T23:50 | 6814 | 443 | -10.1 | -25.2 | ||
| 2013-05-22T23:50 | 6882 | 439 | -10.5 | -20.7 | ||
| 2013-05-22T23:51 | 7038 | 431 | -10.9 | -25.1 | ||
| 2013-05-22T23:51 | 7061 | 429 | 254 | 18 | ||
| 2013-05-22T23:51 | 7084 | 428 | -11.2 | -26.5 | ||
| 2013-05-22T23:51 | 7142 | 425 | -11.7 | -20.8 | ||
| 2013-05-22T23:52 | 7238 | 420 | -12.5 | -21.5 | ||
| 2013-05-22T23:52 | 7296 | 416 | -12.8 | -25.4 | ||
| 2013-05-22T23:52 | 7379 | 412 | -13.5 | -20.4 | ||
| 2013-05-22T23:52 | 7416 | 410 | -13.7 | -17.8 | 256 | 17 |
| 2013-05-22T23:52 | 7440 | 409 | -13.8 | -18.3 | ||
| 2013-05-22T23:52 | 7496 | 406 | -13.7 | -28.3 | ||
| 2013-05-22T23:52 | 7502 | 405 | -13.8 | -28.8 | ||
| 2013-05-22T23:52 | 7526 | 404 | -13.9 | -29.7 | ||
| 2013-05-22T23:52 | 7571 | 402 | -14.2 | -19.2 | ||
| 2013-05-22T23:53 | 7625 | 399 | -14.3 | -18.7 | ||
| 2013-05-22T23:53 | 7800 | 390 | 262 | 16 | ||
| 2013-05-22T23:53 | 7819 | 389 | -15.5 | -20.8 | ||
| 2013-05-22T23:53 | 7869 | 386 | -15.9 | -20.1 | ||
| 2013-05-22T23:53 | 7940 | 382 | -16.4 | -19.0 | ||
| 2013-05-22T23:54 | 8029 | 378 | -16.5 | -21.7 | ||
| 2013-05-22T23:54 | 8121 | 373 | -16.9 | -22.1 | ||
| 2013-05-22T23:54 | 8190 | 370 | 255 | 15 | ||
| 2013-05-22T23:54 | 8351 | 362 | -18.5 | -21.5 | ||
| 2013-05-22T23:55 | 8623 | 349 | 253 | 13 | ||
| 2013-05-22T23:56 | 9042 | 330 | -23.3 | -25.9 | ||
| 2013-05-22T23:56 | 9071 | 328 | 258 | 12 | ||
| 2013-05-22T23:57 | 9506 | 309 | 247 | 12 | ||
| 2013-05-22T23:57 | 9541 | 308 | -27.5 | -29.8 | ||
| 2013-05-22T23:58 | 9920 | 292 | 255 | 11 | ||
| 2013-05-22T23:58 | 9949 | 291 | -30.4 | -33.4 | ||
| 2013-05-22T23:59 | 10313 | 276 | -33.6 | -37.2 | 257 | 15 |
| 2013-05-23T00:00 | 10662 | 263 | 260 | 16 | ||
| 2013-05-23T00:01 | 11020 | 249 | 272 | 16 | ||
| 2013-05-23T00:01 | 11090 | 247 | -40.0 | -44.6 | ||
| 2013-05-23T00:02 | 11422 | 235 | 272 | 15 | ||
| 2013-05-23T00:03 | 11828 | 221 | 274 | 15 | ||
| 2013-05-23T00:04 | 12209 | 209 | 287 | 17 | ||
| 2013-05-23T00:05 | 12601 | 197 | 289 | 16 | ||
| 2013-05-23T00:06 | 13053 | 183 | 289 | 12 | ||
| 2013-05-23T00:06 | 13126 | 181 | -56.9 | |||
| 2013-05-23T00:07 | 13469 | 172 | 284 | 6 | ||
| 2013-05-23T00:08 | 13831 | 162 | 290 | 8 | ||
| 2013-05-23T00:09 | 14063 | 156 | -63.9 | |||
| 2013-05-23T00:09 | 14198 | 152 | 294 | 8 | ||
| 2013-05-23T00:10 | 14617 | 142 | 242 | 4 | ||
| 2013-05-23T00:11 | 15055 | 132 | 237 | 8 | ||
| 2013-05-23T00:11 | 15245 | 128 | -73.0 | |||
| 2013-05-23T00:12 | 15502 | 122 | 240 | 8 | ||
| 2013-05-23T00:12 | 15603 | 120 | -74.5 | |||
| 2013-05-23T00:13 | 15844 | 115 | -74.7 | |||
| 2013-05-23T00:13 | 15935 | 114 | 223 | 7 | ||
| 2013-05-23T00:14 | 16232 | 108 | -77.3 | |||
| 2013-05-23T00:14 | 16410 | 105 | 284 | 7 | ||
| 2013-05-23T00:14 | 16634 | 101 | -77.0 | |||
| 2013-05-23T00:15 | 16796 | 98 | -76.6 | |||
| 2013-05-23T00:15 | 16915 | 96 | 342 | 6 | ||
| 2013-05-23T00:16 | 17374 | 88 | 350 | 4 | ||
| 2013-05-23T00:17 | 17623 | 85 | -80.1 | |||
| 2013-05-23T00:17 | 17738 | 83 | 22 | 6 | ||
| 2013-05-23T00:17 | 17883 | 81 | -80.3 | |||
| 2013-05-23T00:18 | 18097 | 78 | 32 | 9 | ||
| 2013-05-23T00:18 | 18245 | 76 | -78.1 | |||
| 2013-05-23T00:19 | 18445 | 73 | 58 | 7 | ||
| 2013-05-23T00:20 | 18742 | 70 | -76.9 | |||
| 2013-05-23T00:20 | 18792 | 69 | 97 | 10 | ||
| 2013-05-23T00:21 | 19148 | 65 | -73.2 | |||
| 2013-05-23T00:21 | 19175 | 65 | 98 | 5 | ||
| 2013-05-23T00:22 | 19560 | 60 | 37 | 11 | ||
| 2013-05-23T00:22 | 19628 | 60 | -72.9 | |||
| 2013-05-23T00:23 | 19910 | 57 | 46 | 12 | ||
| 2013-05-23T00:23 | 19962 | 56 | -72.5 | |||
| 2013-05-23T00:24 | 20240 | 54 | 85 | 17 | ||
| 2013-05-23T00:24 | 20318 | 53 | -70.3 | |||
| 2013-05-23T00:25 | 20535 | 51 | -69.8 | |||
| 2013-05-23T00:25 | 20593 | 51 | 101 | 16 | ||
| 2013-05-23T00:26 | 20974 | 48 | 114 | 15 | ||
| 2013-05-23T00:26 | 20986 | 48 | -65.0 | |||
| 2013-05-23T00:27 | 21317 | 45 | 99 | 11 | ||
| 2013-05-23T00:28 | 21512 | 44 | -62.0 | |||
| 2013-05-23T00:28 | 21655 | 43 | 82 | 12 | ||
| 2013-05-23T00:28 | 21817 | 42 | -61.7 | |||
| 2013-05-23T00:29 | 22030 | 40 | 89 | 16 | ||
| 2013-05-23T00:30 | 22464 | 37 | 99 | 15 | ||
| 2013-05-23T00:31 | 22861 | 35 | 105 | 16 | ||
| 2013-05-23T00:32 | 23249 | 33 | 99 | 12 | ||
| 2013-05-23T00:33 | 23604 | 31 | 83 | 13 | ||
| 2013-05-23T00:33 | 23645 | 31 | -56.5 | |||
| 2013-05-23T11:30 | 8 | 1009 | 26.7 | 23.4 | 30 | 3 |
| 2013-05-23T11:30 | 17 | 1008 | 25.8 | 23.1 | ||
| 2013-05-23T11:31 | 268 | 980 | 24.1 | 21.0 | ||
| 2013-05-23T11:31 | 289 | 977 | 25 | 7 | ||
| 2013-05-23T11:32 | 602 | 943 | 2 | 8 | ||
| 2013-05-23T11:32 | 653 | 937 | 20.9 | 19.9 | ||
| 2013-05-23T11:33 | 948 | 906 | 4 | 9 | ||
| 2013-05-23T11:34 | 1272 | 873 | 349 | 7 | ||
| 2013-05-23T11:34 | 1300 | 870 | 17.6 | 17.0 | ||
| 2013-05-23T11:35 | 1609 | 839 | 294 | 7 | ||
| 2013-05-23T11:35 | 1652 | 835 | 16.4 | 15.1 | ||
| 2013-05-23T11:36 | 1896 | 811 | 15.4 | 13.6 | ||
| 2013-05-23T11:36 | 1941 | 807 | 283 | 6 | ||
| 2013-05-23T11:37 | 2290 | 774 | 293 | 6 | ||
| 2013-05-23T11:38 | 2619 | 745 | 271 | 5 | ||
| 2013-05-23T11:38 | 2655 | 741 | 11.3 | 11.3 | ||
| 2013-05-23T11:39 | 2912 | 719 | 9.9 | 9.6 | ||
| 2013-05-23T11:39 | 2934 | 717 | 279 | 7 | ||
| 2013-05-23T11:40 | 3178 | 696 | 8.9 | 8.1 | ||
| 2013-05-23T11:40 | 3261 | 689 | 267 | 7 | ||
| 2013-05-23T11:41 | 3553 | 665 | 6.4 | 6.0 | ||
| 2013-05-23T11:41 | 3593 | 662 | 267 | 7 | ||
| 2013-05-23T11:41 | 3735 | 651 | 5.7 | 5.7 | ||
| 2013-05-23T11:42 | 3918 | 636 | 271 | 8 | ||
| 2013-05-23T11:42 | 3924 | 636 | 5.3 | 5.3 | ||
| 2013-05-23T11:43 | 4257 | 611 | 264 | 11 | ||
| 2013-05-23T11:44 | 4441 | 597 | 2.3 | 2.3 | ||
| 2013-05-23T11:44 | 4546 | 589 | 1.5 | 0.9 | ||
| 2013-05-23T11:44 | 4561 | 588 | 1.5 | 0.8 | ||
| 2013-05-23T11:44 | 4582 | 587 | 1.4 | 0.8 | ||
| 2013-05-23T11:44 | 4593 | 586 | 1.4 | 0.8 | ||
| 2013-05-23T11:44 | 4604 | 585 | 1.4 | 0.8 | 265 | 12 |
| 2013-05-23T11:45 | 4914 | 563 | 0.1 | 0.1 | ||
| 2013-05-23T11:45 | 4937 | 561 | 259 | 9 | ||
| 2013-05-23T11:45 | 5098 | 550 | -0.7 | -1.1 | ||
| 2013-05-23T11:46 | 5298 | 537 | 254 | 11 | ||
| 2013-05-23T11:47 | 5612 | 516 | -3.6 | -4.0 | ||
| 2013-05-23T11:47 | 5655 | 513 | -3.9 | -4.4 | ||
| 2013-05-23T11:47 | 5666 | 512 | 273 | 10 | ||
| 2013-05-23T11:48 | 5896 | 498 | -5.0 | -6.8 | ||
| 2013-05-23T11:48 | 5983 | 492 | 270 | 12 | ||
| 2013-05-23T11:49 | 6180 | 480 | -6.0 | -7.5 | ||
| 2013-05-23T11:49 | 6297 | 473 | 264 | 13 | ||
| 2013-05-23T11:50 | 6508 | 460 | -8.1 | -10.6 | ||
| 2013-05-23T11:50 | 6564 | 457 | -8.6 | -14.2 | ||
| 2013-05-23T11:50 | 6603 | 455 | -8.9 | -18.4 | ||
| 2013-05-23T11:50 | 6632 | 453 | 269 | 9 | ||
| 2013-05-23T11:50 | 6690 | 449 | -8.8 | -23.6 | ||
| 2013-05-23T11:50 | 6735 | 447 | -8.6 | -28.7 | ||
| 2013-05-23T11:51 | 6805 | 443 | -8.3 | -27.3 | ||
| 2013-05-23T11:51 | 6855 | 440 | -8.7 | -30.7 | ||
| 2013-05-23T11:51 | 6928 | 436 | -9.1 | -31.8 | ||
| 2013-05-23T11:51 | 6990 | 432 | 293 | 9 | ||
| 2013-05-23T11:51 | 7023 | 431 | -9.7 | -33.0 | ||
| 2013-05-23T11:51 | 7028 | 430 | -9.8 | -29.7 | ||
| 2013-05-23T11:51 | 7066 | 428 | -10.1 | -32.6 | ||
| 2013-05-23T11:51 | 7078 | 427 | -10.2 | -31.3 | ||
| 2013-05-23T11:51 | 7149 | 424 | -10.8 | -34.7 | ||
| 2013-05-23T11:52 | 7367 | 412 | 287 | 9 | ||
| 2013-05-23T11:52 | 7417 | 409 | -12.7 | -37.1 | ||
| 2013-05-23T11:53 | 7644 | 397 | -14.3 | -39.3 | ||
| 2013-05-23T11:53 | 7742 | 392 | 260 | 13 | ||
| 2013-05-23T11:54 | 7929 | 382 | -15.4 | -35.0 | ||
| 2013-05-23T11:54 | 8112 | 373 | 262 | 15 | ||
| 2013-05-23T11:54 | 8161 | 371 | -17.2 | -40.7 | ||
| 2013-05-23T11:55 | 8380 | 360 | -18.3 | -43.5 | ||
| 2013-05-23T11:55 | 8453 | 356 | -18.3 | -40.8 | ||
| 2013-05-23T11:55 | 8472 | 356 | 271 | 12 | ||
| 2013-05-23T11:56 | 8850 | 338 | 268 | 11 | ||
| 2013-05-23T11:56 | 8951 | 333 | -22.2 | -38.2 | ||
| 2013-05-23T11:57 | 9040 | 329 | -22.4 | -32.6 | ||
| 2013-05-23T11:57 | 9211 | 322 | 255 | 13 | ||
| 2013-05-23T11:57 | 9319 | 317 | -24.5 | -33.8 | ||
| 2013-05-23T11:58 | 9584 | 306 | 257 | 14 | ||
| 2013-05-23T11:59 | 9874 | 293 | -29.5 | -36.0 | ||
| 2013-05-23T11:59 | 9979 | 289 | 254 | 14 | ||
| 2013-05-23T11:59 | 10053 | 286 | -31.2 | -39.5 | ||
| 2013-05-23T12:00 | 10409 | 272 | 243 | 16 | ||
| 2013-05-23T12:00 | 10568 | 266 | -34.8 | -43.5 | ||
| 2013-05-23T12:01 | 10737 | 260 | -36.1 | -47.2 | ||
| 2013-05-23T12:01 | 10828 | 256 | 247 | 18 | ||
| 2013-05-23T12:02 | 11167 | 244 | -40.0 | -45.4 | ||
| 2013-05-23T12:02 | 11229 | 242 | 255 | 21 | ||
| 2013-05-23T12:03 | 11630 | 228 | 257 | 21 | ||
| 2013-05-23T12:04 | 12028 | 215 | 263 | 21 | ||
| 2013-05-23T12:05 | 12272 | 207 | -49.1 | |||
| 2013-05-23T12:05 | 12432 | 202 | 272 | 23 | ||
| 2013-05-23T12:06 | 12823 | 190 | 274 | 19 | ||
| 2013-05-23T12:07 | 13169 | 180 | 272 | 17 | ||
| 2013-05-23T12:08 | 13387 | 174 | -57.6 | |||
| 2013-05-23T12:08 | 13530 | 170 | 267 | 16 | ||
| 2013-05-23T12:09 | 13931 | 159 | 253 | 14 | ||
| 2013-05-23T12:10 | 14335 | 149 | 237 | 15 | ||
| 2013-05-23T12:11 | 14723 | 140 | 232 | 16 | ||
| 2013-05-23T12:11 | 14839 | 137 | -70.6 | |||
| 2013-05-23T12:12 | 15135 | 130 | 241 | 15 | ||
| 2013-05-23T12:12 | 15307 | 127 | -73.9 | |||
| 2013-05-23T12:13 | 15471 | 123 | -71.9 | |||
| 2013-05-23T12:13 | 15616 | 120 | 271 | 14 | ||
| 2013-05-23T12:14 | 15972 | 113 | -74.9 | |||
| 2013-05-23T12:14 | 16086 | 111 | 288 | 11 | ||
| 2013-05-23T12:14 | 16208 | 109 | -75.3 | |||
| 2013-05-23T12:15 | 16470 | 104 | 290 | 6 | ||
| 2013-05-23T12:15 | 16570 | 102 | -76.3 | |||
| 2013-05-23T12:16 | 16818 | 98 | -77.3 | |||
| 2013-05-23T12:16 | 16883 | 97 | 315 | 4 | ||
| 2013-05-23T12:17 | 17205 | 91 | 352 | 4 | ||
| 2013-05-23T12:17 | 17255 | 90 | -79.7 | |||
| 2013-05-23T23:30 | 8 | 1009 | 26.9 | 22.7 | 10 | 4 |
| 2013-05-23T23:31 | 143 | 994 | 24.8 | 21.5 | ||
| 2013-05-23T23:31 | 168 | 991 | 24.5 | 21.2 | ||
| 2013-05-23T23:31 | 302 | 976 | 10 | 6 | ||
| 2013-05-23T23:32 | 503 | 954 | 21.5 | 19.2 | ||
| 2013-05-23T23:32 | 630 | 940 | 352 | 8 | ||
| 2013-05-23T23:32 | 635 | 940 | 21.2 | 18.8 | ||
| 2013-05-23T23:32 | 774 | 925 | 20.3 | 17.9 | ||
| 2013-05-23T23:33 | 879 | 914 | 20.2 | 16.6 | ||
| 2013-05-23T23:33 | 959 | 905 | 338 | 11 | ||
| 2013-05-23T23:33 | 1020 | 899 | 19.7 | 16.4 | ||
| 2013-05-23T23:34 | 1188 | 882 | 19.5 | 16.0 | ||
| 2013-05-23T23:34 | 1266 | 874 | 327 | 15 | ||
| 2013-05-23T23:35 | 1462 | 854 | 18.0 | 14.7 | ||
| 2013-05-23T23:35 | 1589 | 841 | 317 | 15 | ||
| 2013-05-23T23:35 | 1687 | 832 | 16.5 | 13.6 | ||
| 2013-05-23T23:36 | 1783 | 822 | 16.0 | 13.5 | ||
| 2013-05-23T23:36 | 1819 | 819 | 16.9 | 13.2 | ||
| 2013-05-23T23:36 | 1933 | 808 | 16.1 | 12.1 | ||
| 2013-05-23T23:36 | 1946 | 807 | 299 | 11 | ||
| 2013-05-23T23:36 | 2097 | 793 | 15.6 | 11.4 | ||
| 2013-05-23T23:37 | 2308 | 773 | 293 | 10 | ||
| 2013-05-23T23:38 | 2642 | 743 | 11.1 | 9.4 | ||
| 2013-05-23T23:38 | 2665 | 741 | 283 | 10 | ||
| 2013-05-23T23:39 | 2975 | 714 | 8.5 | 7.9 | ||
| 2013-05-23T23:39 | 3003 | 712 | 273 | 9 | ||
| 2013-05-23T23:39 | 3031 | 709 | 8.0 | 7.6 | ||
| 2013-05-23T23:39 | 3059 | 707 | 9.0 | 7.0 | ||
| 2013-05-23T23:39 | 3153 | 699 | 8.7 | 6.1 | ||
| 2013-05-23T23:40 | 3320 | 685 | 8.1 | 5.4 | ||
| 2013-05-23T23:40 | 3343 | 683 | 8.4 | 4.2 | 262 | 6 |
| 2013-05-23T23:40 | 3383 | 680 | 8.6 | 3.2 | ||
| 2013-05-23T23:41 | 3551 | 666 | 7.6 | 2.3 | ||
| 2013-05-23T23:41 | 3683 | 655 | 260 | 6 | ||
| 2013-05-23T23:41 | 3737 | 651 | 6.9 | 2.4 | ||
| 2013-05-23T23:42 | 4040 | 628 | 294 | 7 | ||
| 2013-05-23T23:42 | 4091 | 624 | 4.3 | -2.1 | ||
| 2013-05-23T23:42 | 4113 | 622 | 4.1 | -3.2 | ||
| 2013-05-23T23:42 | 4173 | 617 | 3.8 | -5.4 | ||
| 2013-05-23T23:43 | 4234 | 613 | 3.7 | -9.3 | ||
| 2013-05-23T23:43 | 4365 | 603 | 298 | 8 | ||
| 2013-05-23T23:43 | 4370 | 603 | 2.5 | -6.1 | ||
| 2013-05-23T23:43 | 4458 | 596 | 1.8 | -3.7 | ||
| 2013-05-23T23:43 | 4481 | 594 | 1.6 | -2.2 | ||
| 2013-05-23T23:43 | 4508 | 592 | 1.3 | -1.8 | ||
| 2013-05-23T23:44 | 4687 | 579 | 0.6 | -5.4 | ||
| 2013-05-23T23:44 | 4698 | 579 | 289 | 9 | ||
| 2013-05-23T23:44 | 4720 | 577 | 0.9 | -6.7 | ||
| 2013-05-23T23:44 | 4844 | 568 | 0.3 | -7.2 | ||
| 2013-05-23T23:45 | 4885 | 565 | 1.3 | -9.9 | ||
| 2013-05-23T23:45 | 4948 | 561 | 1.5 | -12.0 | ||
| 2013-05-23T23:45 | 4988 | 558 | 2.4 | -25.1 | ||
| 2013-05-23T23:45 | 5043 | 554 | 323 | 6 | ||
| 2013-05-23T23:45 | 5055 | 553 | 2.6 | -31.5 | ||
| 2013-05-23T23:46 | 5294 | 537 | 1.3 | -25.0 | ||
| 2013-05-23T23:46 | 5383 | 531 | 315 | 5 | ||
| 2013-05-23T23:46 | 5504 | 523 | -0.6 | -23.4 | ||
| 2013-05-23T23:46 | 5525 | 522 | -0.6 | -22.0 | ||
| 2013-05-23T23:47 | 5696 | 511 | 312 | 8 | ||
| 2013-05-23T23:47 | 5773 | 506 | -2.6 | -22.0 | ||
| 2013-05-23T23:48 | 5984 | 493 | -3.5 | -25.1 | ||
| 2013-05-23T23:48 | 6029 | 490 | 298 | 8 | ||
| 2013-05-23T23:48 | 6107 | 485 | -4.5 | -26.6 | ||
| 2013-05-23T23:49 | 6209 | 479 | -5.4 | -25.4 | ||
| 2013-05-23T23:49 | 6237 | 477 | -5.4 | -24.9 | ||
| 2013-05-23T23:49 | 6369 | 469 | 288 | 7 | ||
| 2013-05-23T23:49 | 6428 | 466 | -7.2 | -29.5 | ||
| 2013-05-23T23:50 | 6602 | 455 | -8.5 | -29.2 | ||
| 2013-05-23T23:50 | 6653 | 452 | -8.8 | -26.2 | ||
| 2013-05-23T23:50 | 6704 | 449 | -9.3 | -23.7 | ||
| 2013-05-23T23:50 | 6709 | 449 | 301 | 8 | ||
| 2013-05-23T23:50 | 6749 | 447 | -9.2 | -28.1 | ||
| 2013-05-23T23:50 | 6847 | 441 | -10.0 | -28.8 | ||
| 2013-05-23T23:51 | 6938 | 436 | -10.3 | -42.9 | ||
| 2013-05-23T23:51 | 7052 | 429 | 299 | 9 | ||
| 2013-05-23T23:51 | 7150 | 424 | -11.9 | -34.1 | ||
| 2013-05-23T23:52 | 7397 | 410 | 291 | 12 | ||
| 2013-05-23T23:52 | 7468 | 407 | -14.4 | -32.5 | ||
| 2013-05-23T23:52 | 7554 | 402 | -15.0 | -29.5 | ||
| 2013-05-23T23:53 | 7757 | 391 | 297 | 13 | ||
| 2013-05-23T23:54 | 8125 | 373 | 290 | 14 | ||
| 2013-05-23T23:54 | 8161 | 371 | -19.6 | -40.4 | ||
| 2013-05-23T23:55 | 8413 | 358 | -21.4 | -38.9 | ||
| 2013-05-23T23:55 | 8500 | 354 | 283 | 13 | ||
| 2013-05-23T23:55 | 8512 | 354 | -22.2 | -38.6 | ||
| 2013-05-23T23:55 | 8577 | 350 | -22.4 | -34.9 | ||
| 2013-05-23T23:56 | 8877 | 336 | 284 | 19 | ||
| 2013-05-23T23:56 | 8966 | 332 | -25.7 | -33.5 | ||
| 2013-05-23T23:57 | 9206 | 321 | -28.0 | -32.6 | ||
| 2013-05-23T23:57 | 9255 | 319 | 284 | 19 | ||
| 2013-05-23T23:57 | 9387 | 313 | -28.9 | -34.2 | ||
| 2013-05-23T23:58 | 9602 | 304 | -30.8 | -36.2 | ||
| 2013-05-23T23:58 | 9635 | 303 | 273 | 18 | ||
| 2013-05-23T23:59 | 9905 | 291 | -33.5 | -37.8 | ||
| 2013-05-23T23:59 | 10019 | 287 | 276 | 18 | ||
| 2013-05-24T00:00 | 10382 | 272 | -37.4 | -41.3 | 281 | 19 |
| 2013-05-24T00:00 | 10503 | 267 | -37.6 | -44.8 | ||
| 2013-05-24T00:01 | 10733 | 258 | 283 | 20 | ||
| 2013-05-24T00:01 | 10813 | 255 | -40.0 | -50.7 | ||
| 2013-05-24T00:02 | 11109 | 245 | 266 | 18 | ||
| 2013-05-24T00:03 | 11476 | 232 | 256 | 18 | ||
| 2013-05-24T00:04 | 11851 | 219 | 249 | 19 | ||
| 2013-05-24T00:05 | 12251 | 206 | 243 | 21 | ||
| 2013-05-24T00:06 | 12652 | 193 | 261 | 24 | ||
| 2013-05-24T00:06 | 12721 | 191 | -55.0 | |||
| 2013-05-24T00:07 | 12966 | 184 | -56.0 | |||
| 2013-05-24T00:07 | 13025 | 182 | 274 | 25 | ||
| 2013-05-24T00:08 | 13392 | 172 | 275 | 22 | ||
| 2013-05-24T00:09 | 13777 | 162 | 280 | 22 | ||
| 2013-05-24T00:10 | 14191 | 151 | 272 | 19 | ||
| 2013-05-24T00:10 | 14277 | 149 | -64.1 | |||
| 2013-05-24T00:11 | 14578 | 142 | 255 | 17 | ||
| 2013-05-24T00:12 | 14957 | 133 | 257 | 18 | ||
| 2013-05-24T00:12 | 15047 | 131 | -70.7 | |||
| 2013-05-24T00:13 | 15338 | 125 | -70.7 | |||
| 2013-05-24T00:13 | 15343 | 125 | 286 | 17 | ||
| 2013-05-24T00:13 | 15511 | 121 | -70.5 | |||
| 2013-05-24T00:14 | 15704 | 118 | 294 | 12 | ||
| 2013-05-24T00:14 | 15842 | 115 | -71.7 | |||
| 2013-05-24T00:15 | 16157 | 109 | 284 | 10 | ||
| 2013-05-24T00:15 | 16265 | 107 | -74.3 | |||
| 2013-05-24T00:16 | 16566 | 101 | 312 | 10 | ||
| 2013-05-24T00:17 | 17020 | 94 | 298 | 3 | ||
| 2013-05-24T00:17 | 17125 | 92 | -78.1 | |||
| 2013-05-24T00:18 | 17385 | 88 | 276 | 3 | ||
| 2013-05-24T00:19 | 17669 | 84 | -80.3 | |||
| 2013-05-24T00:19 | 17744 | 83 | 337 | 2 | ||
| 2013-05-24T00:20 | 17889 | 80 | -80.3 | |||
| 2013-05-24T12:14 | 8 | 1010 | 25.2 | 22.1 | 50 | 3 |
| 2013-05-24T12:14 | 21 | 1008 | 24.5 | 22.2 | ||
| 2013-05-24T12:15 | 258 | 981 | 22.7 | 20.2 | ||
| 2013-05-24T12:15 | 338 | 973 | 55 | 7 | ||
| 2013-05-24T12:16 | 566 | 947 | 20.2 | 18.5 | ||
| 2013-05-24T12:16 | 672 | 936 | 19.8 | 18.1 | 41 | 7 |
| 2013-05-24T12:17 | 892 | 912 | 18.2 | 16.9 | ||
| 2013-05-24T12:17 | 1001 | 901 | 35 | 7 | ||
| 2013-05-24T12:17 | 1059 | 895 | 17.1 | 16.3 | ||
| 2013-05-24T12:18 | 1231 | 877 | 15.6 | 15.4 | ||
| 2013-05-24T12:18 | 1257 | 874 | 15.5 | 15.3 | ||
| 2013-05-24T12:18 | 1267 | 873 | 15.4 | 15.2 | ||
| 2013-05-24T12:18 | 1295 | 870 | 15.3 | 14.0 | ||
| 2013-05-24T12:18 | 1307 | 869 | 15.3 | 13.3 | ||
| 2013-05-24T12:18 | 1312 | 868 | 34 | 8 | ||
| 2013-05-24T12:18 | 1317 | 868 | 15.3 | 12.4 | ||
| 2013-05-24T12:18 | 1337 | 866 | 15.2 | 14.9 | ||
| 2013-05-24T12:18 | 1347 | 865 | 15.2 | 15.0 | ||
| 2013-05-24T12:18 | 1356 | 864 | 15.2 | 11.8 | ||
| 2013-05-24T12:18 | 1376 | 862 | 15.2 | 8.7 | ||
| 2013-05-24T12:18 | 1402 | 859 | 17.6 | 9.5 | ||
| 2013-05-24T12:18 | 1438 | 856 | 17.3 | 8.4 | ||
| 2013-05-24T12:19 | 1464 | 853 | 18.3 | 6.8 | ||
| 2013-05-24T12:19 | 1530 | 847 | 18.7 | 6.5 | ||
| 2013-05-24T12:19 | 1631 | 837 | 19.0 | 3.2 | ||
| 2013-05-24T12:19 | 1637 | 836 | 22 | 9 | ||
| 2013-05-24T12:19 | 1656 | 834 | 19.8 | -2.5 | ||
| 2013-05-24T12:20 | 1907 | 810 | 18.0 | -8.2 | ||
| 2013-05-24T12:20 | 1992 | 802 | 8 | 10 | ||
| 2013-05-24T12:20 | 2049 | 797 | 17.0 | -4.9 | ||
| 2013-05-24T12:21 | 2168 | 786 | 16.0 | -7.6 | ||
| 2013-05-24T12:21 | 2208 | 782 | 16.2 | -23.6 | ||
| 2013-05-24T12:21 | 2294 | 774 | 15.4 | -17.4 | ||
| 2013-05-24T12:21 | 2302 | 773 | 15.4 | -2.5 | ||
| 2013-05-24T12:21 | 2338 | 770 | 15.0 | 0.4 | 5 | 8 |
| 2013-05-24T12:21 | 2440 | 761 | 14.2 | 0.4 | ||
| 2013-05-24T12:22 | 2516 | 754 | 13.5 | 3.6 | ||
| 2013-05-24T12:22 | 2613 | 745 | 12.6 | 3.8 | ||
| 2013-05-24T12:22 | 2696 | 738 | 2 | 8 | ||
| 2013-05-24T12:22 | 2708 | 737 | 11.8 | 3.8 | ||
| 2013-05-24T12:22 | 2784 | 730 | 11.4 | 3.4 | ||
| 2013-05-24T12:23 | 2890 | 721 | 10.7 | 2.5 | ||
| 2013-05-24T12:23 | 3044 | 708 | 5 | 7 | ||
| 2013-05-24T12:23 | 3177 | 697 | 9.0 | -2.0 | ||
| 2013-05-24T12:23 | 3200 | 695 | 8.8 | -0.5 | ||
| 2013-05-24T12:24 | 3323 | 684 | 7.8 | 0.5 | ||
| 2013-05-24T12:24 | 3394 | 679 | 359 | 8 | ||
| 2013-05-24T12:24 | 3446 | 674 | 6.9 | 0.1 | ||
| 2013-05-24T12:25 | 3590 | 663 | 6.8 | -3.2 | ||
| 2013-05-24T12:25 | 3664 | 657 | 6.3 | -5.1 | ||
| 2013-05-24T12:25 | 3756 | 649 | 332 | 9 | ||
| 2013-05-24T12:25 | 3779 | 647 | 5.9 | -5.7 | ||
| 2013-05-24T12:25 | 3863 | 641 | 7.3 | -19.4 | ||
| 2013-05-24T12:25 | 3893 | 639 | 7.8 | -27.7 | ||
| 2013-05-24T12:26 | 4109 | 622 | 6.4 | -24.3 | 315 | 8 |
| 2013-05-24T12:26 | 4268 | 610 | 5.0 | -18.8 | ||
| 2013-05-24T12:27 | 4447 | 597 | 308 | 9 | ||
| 2013-05-24T12:27 | 4475 | 595 | 3.8 | -20.5 | ||
| 2013-05-24T12:28 | 4650 | 582 | 3.2 | -21.8 | ||
| 2013-05-24T12:28 | 4727 | 576 | 3.2 | -24.5 | ||
| 2013-05-24T12:28 | 4778 | 573 | 294 | 8 | ||
| 2013-05-24T12:28 | 4800 | 571 | 2.8 | -24.8 | ||
| 2013-05-24T12:29 | 5007 | 557 | 1.4 | -32.4 | ||
| 2013-05-24T12:29 | 5013 | 556 | 1.4 | -34.3 | ||
| 2013-05-24T12:29 | 5043 | 554 | 1.3 | -39.4 | ||
| 2013-05-24T12:29 | 5061 | 553 | 1.2 | -39.5 | ||
| 2013-05-24T12:29 | 5125 | 549 | 307 | 8 | ||
| 2013-05-24T12:29 | 5160 | 546 | 0.6 | -33.0 | ||
| 2013-05-24T12:29 | 5219 | 542 | 0.8 | -31.2 | ||
| 2013-05-24T12:30 | 5316 | 536 | 1.2 | -34.4 | ||
| 2013-05-24T12:30 | 5479 | 525 | 319 | 10 | ||
| 2013-05-24T12:30 | 5625 | 515 | -0.6 | -44.5 | ||
| 2013-05-24T12:31 | 5830 | 502 | -1.9 | -45.4 | ||
| 2013-05-24T12:31 | 5843 | 502 | 306 | 10 | ||
| 2013-05-24T12:32 | 6231 | 477 | 303 | 9 | ||
| 2013-05-24T12:32 | 6389 | 468 | -6.5 | -40.1 | ||
| 2013-05-24T12:33 | 6494 | 462 | -6.9 | -32.5 | ||
| 2013-05-24T12:33 | 6623 | 454 | 295 | 9 | ||
| 2013-05-24T12:34 | 6826 | 442 | -9.0 | -41.9 | ||
| 2013-05-24T12:34 | 7010 | 432 | 290 | 11 | ||
| 2013-05-24T12:35 | 7409 | 410 | -13.9 | -23.3 | 313 | 10 |
| 2013-05-24T12:35 | 7525 | 404 | -14.7 | -26.2 | ||
| 2013-05-24T12:36 | 7621 | 399 | -14.8 | -30.5 | ||
| 2013-05-24T12:36 | 7749 | 392 | -15.5 | -28.8 | ||
| 2013-05-24T12:36 | 7815 | 389 | 313 | 12 | ||
| 2013-05-24T12:37 | 8012 | 378 | -17.2 | -37.1 | ||
| 2013-05-24T12:37 | 8208 | 369 | 306 | 11 | ||
| 2013-05-24T12:37 | 8269 | 366 | -19.2 | -39.4 | ||
| 2013-05-24T12:38 | 8613 | 349 | 310 | 11 | ||
| 2013-05-24T12:38 | 8689 | 345 | -22.6 | -39.5 | ||
| 2013-05-24T12:39 | 9006 | 331 | 312 | 12 | ||
| 2013-05-24T12:40 | 9282 | 318 | -27.6 | -42.8 | ||
| 2013-05-24T12:40 | 9386 | 314 | 308 | 11 | ||
| 2013-05-24T12:40 | 9465 | 310 | -29.0 | -53.0 | ||
| 2013-05-24T12:41 | 9772 | 297 | 305 | 12 | ||
| 2013-05-24T12:41 | 9884 | 293 | -32.8 | -53.3 | ||
| 2013-05-24T12:42 | 10071 | 285 | -34.5 | -51.1 | ||
| 2013-05-24T12:42 | 10170 | 281 | 302 | 14 | ||
| 2013-05-24T12:43 | 10474 | 269 | -38.3 | -47.6 | ||
| 2013-05-24T12:43 | 10546 | 266 | 301 | 16 | ||
| 2013-05-24T12:43 | 10668 | 261 | -40.0 | -47.2 | ||
| 2013-05-24T12:44 | 10904 | 252 | 293 | 17 | ||
| 2013-05-24T12:45 | 11265 | 239 | 294 | 17 | ||
| 2013-05-24T12:46 | 11657 | 225 | 295 | 18 | ||
| 2013-05-24T12:47 | 12039 | 213 | 300 | 19 | ||
| 2013-05-24T12:48 | 12328 | 203 | -53.8 | |||
| 2013-05-24T12:48 | 12411 | 201 | 304 | 19 | ||
| 2013-05-24T12:49 | 12726 | 191 | -56.1 | |||
| 2013-05-24T12:49 | 12783 | 189 | 290 | 19 | ||
| 2013-05-24T12:50 | 13113 | 180 | -56.6 | |||
| 2013-05-24T12:50 | 13138 | 179 | 269 | 19 | ||
| 2013-05-24T12:51 | 13519 | 169 | 286 | 20 | ||
| 2013-05-24T12:52 | 13786 | 162 | -59.3 | |||
| 2013-05-24T12:52 | 13860 | 160 | 301 | 23 | ||
| 2013-05-24T12:53 | 14213 | 151 | 298 | 19 | ||
| 2013-05-24T12:53 | 14237 | 150 | -61.9 | |||
| 2013-05-24T12:54 | 14621 | 141 | 286 | 20 | ||
| 2013-05-24T12:55 | 14857 | 136 | -67.1 | |||
| 2013-05-24T12:55 | 15037 | 132 | 300 | 21 | ||
| 2013-05-24T12:56 | 15440 | 123 | -70.6 | |||
| 2013-05-24T12:56 | 15483 | 122 | 319 | 19 | ||
| 2013-05-24T12:57 | 15807 | 116 | -71.7 | |||
| 2013-05-24T12:57 | 15956 | 113 | 333 | 11 | ||
| 2013-05-24T12:58 | 16373 | 105 | -75.6 | |||
| 2013-05-24T12:58 | 16406 | 104 | 309 | 8 | ||
| 2013-05-24T12:59 | 16724 | 99 | -76.8 | |||
| 2013-05-24T12:59 | 16865 | 96 | 304 | 9 | ||
| 2013-05-24T13:00 | 17154 | 92 | -76.1 | |||
| 2013-05-24T13:00 | 17371 | 88 | 331 | 7 | ||
| 2013-05-24T13:00 | 17496 | 86 | -77.7 | |||
| 2013-05-24T13:01 | 17796 | 82 | 18 | 7 | ||
| 2013-05-24T13:02 | 17989 | 79 | -75.2 | |||
| 2013-05-24T13:02 | 18212 | 76 | 62 | 5 | ||
| 2013-05-24T13:02 | 18395 | 74 | -77.9 | |||
| 2013-05-24T13:03 | 18674 | 70 | 53 | 5 | ||
| 2013-05-24T13:03 | 18849 | 68 | -75.0 | |||
| 2013-05-24T13:04 | 19075 | 66 | 52 | 8 | ||
| 2013-05-24T13:05 | 19436 | 62 | -70.1 | 90 | 7 | |
| 2013-05-24T13:06 | 19794 | 58 | 71 | 10 | ||
| 2013-05-24T13:07 | 19961 | 57 | -68.2 | |||
| 2013-05-24T23:30 | 8 | 1010 | 26.6 | 21.6 | 40 | 6 |
| 2013-05-24T23:30 | 97 | 1000 | 24.0 | 19.9 | ||
| 2013-05-24T23:31 | 283 | 979 | 42 | 7 | ||
| 2013-05-24T23:32 | 489 | 956 | 20.9 | 17.9 | ||
| 2013-05-24T23:32 | 554 | 949 | 20.5 | 17.7 | ||
| 2013-05-24T23:32 | 594 | 945 | 35 | 7 | ||
| 2013-05-24T23:32 | 741 | 929 | 19.3 | 16.5 | ||
| 2013-05-24T23:33 | 836 | 919 | 19.0 | 15.3 | ||
| 2013-05-24T23:33 | 895 | 912 | 18.6 | 14.7 | ||
| 2013-05-24T23:33 | 923 | 909 | 33 | 7 | ||
| 2013-05-24T23:33 | 980 | 903 | 18.0 | 14.1 | ||
| 2013-05-24T23:33 | 1078 | 893 | 17.5 | 14.2 | ||
| 2013-05-24T23:34 | 1250 | 875 | 32 | 7 | ||
| 2013-05-24T23:34 | 1286 | 872 | 15.9 | 13.4 | ||
| 2013-05-24T23:34 | 1329 | 867 | 17.0 | 13.1 | ||
| 2013-05-24T23:35 | 1407 | 859 | 17.2 | 12.1 | ||
| 2013-05-24T23:35 | 1521 | 848 | 16.2 | 11.2 | ||
| 2013-05-24T23:35 | 1572 | 843 | 27 | 7 | ||
| 2013-05-24T23:35 | 1659 | 834 | 15.7 | 10.5 | ||
| 2013-05-24T23:35 | 1734 | 827 | 15.7 | 10.5 | ||
| 2013-05-24T23:36 | 1768 | 824 | 16.6 | 9.8 | ||
| 2013-05-24T23:36 | 1910 | 810 | 353 | 8 | ||
| 2013-05-24T23:36 | 1956 | 806 | 16.3 | 6.7 | ||
| 2013-05-24T23:37 | 2220 | 781 | 330 | 10 | ||
| 2013-05-24T23:37 | 2255 | 778 | 14.5 | -1.2 | ||
| 2013-05-24T23:37 | 2289 | 775 | 14.3 | -3.5 | ||
| 2013-05-24T23:38 | 2430 | 762 | 13.3 | -6.3 | ||
| 2013-05-24T23:38 | 2501 | 755 | 340 | 11 | ||
| 2013-05-24T23:38 | 2511 | 755 | 12.9 | -8.9 | ||
| 2013-05-24T23:38 | 2544 | 752 | 13.0 | -4.2 | ||
| 2013-05-24T23:38 | 2578 | 749 | 13.6 | -11.0 | ||
| 2013-05-24T23:38 | 2632 | 744 | 13.8 | -13.3 | ||
| 2013-05-24T23:39 | 2708 | 737 | 13.9 | -18.5 | ||
| 2013-05-24T23:39 | 2802 | 729 | 328 | 8 | ||
| 2013-05-24T23:39 | 2859 | 724 | 12.9 | -15.9 | ||
| 2013-05-24T23:39 | 2874 | 723 | 12.9 | -15.9 | ||
| 2013-05-24T23:40 | 2978 | 714 | 12.7 | -10.4 | ||
| 2013-05-24T23:40 | 3041 | 708 | 13.2 | -17.8 | ||
| 2013-05-24T23:40 | 3117 | 702 | 337 | 6 | ||
| 2013-05-24T23:40 | 3150 | 699 | 12.6 | -18.3 | ||
| 2013-05-24T23:41 | 3387 | 680 | 10.8 | -19.7 | ||
| 2013-05-24T23:41 | 3442 | 675 | 335 | 8 | ||
| 2013-05-24T23:42 | 3622 | 661 | 8.9 | -19.0 | ||
| 2013-05-24T23:42 | 3783 | 648 | 325 | 8 | ||
| 2013-05-24T23:42 | 3940 | 636 | 6.6 | -16.1 | ||
| 2013-05-24T23:43 | 4029 | 629 | 6.5 | -20.9 | ||
| 2013-05-24T23:43 | 4122 | 622 | 325 | 10 | ||
| 2013-05-24T23:43 | 4129 | 621 | 6.0 | -15.9 | ||
| 2013-05-24T23:44 | 4398 | 601 | 4.5 | -25.7 | ||
| 2013-05-24T23:44 | 4455 | 597 | 316 | 9 | ||
| 2013-05-24T23:45 | 4777 | 574 | 3.1 | -26.8 | ||
| 2013-05-24T23:45 | 4788 | 573 | 300 | 10 | ||
| 2013-05-24T23:45 | 4910 | 564 | 2.0 | -30.3 | ||
| 2013-05-24T23:46 | 4980 | 559 | 1.9 | -32.0 | ||
| 2013-05-24T23:46 | 5111 | 550 | 303 | 8 | ||
| 2013-05-24T23:46 | 5153 | 547 | 1.4 | -36.5 | ||
| 2013-05-24T23:46 | 5251 | 541 | 0.7 | -31.3 | ||
| 2013-05-24T23:47 | 5282 | 539 | 0.5 | -31.5 | ||
| 2013-05-24T23:47 | 5292 | 538 | 0.5 | -33.1 | ||
| 2013-05-24T23:47 | 5431 | 529 | 307 | 9 | ||
| 2013-05-24T23:47 | 5549 | 521 | -1.6 | -45.2 | ||
| 2013-05-24T23:48 | 5760 | 507 | 305 | 10 | ||
| 2013-05-24T23:49 | 5965 | 494 | -4.4 | -35.2 | ||
| 2013-05-24T23:49 | 6113 | 485 | 293 | 9 | ||
| 2013-05-24T23:49 | 6181 | 481 | -6.0 | -31.8 | ||
| 2013-05-24T23:50 | 6485 | 462 | 292 | 8 | ||
| 2013-05-24T23:50 | 6535 | 459 | -8.4 | -30.5 | ||
| 2013-05-24T23:51 | 6800 | 444 | -10.6 | -27.8 | ||
| 2013-05-24T23:51 | 6849 | 441 | 312 | 6 | ||
| 2013-05-24T23:51 | 6945 | 436 | -11.5 | -26.0 | ||
| 2013-05-24T23:52 | 7074 | 428 | -12.7 | -24.1 | ||
| 2013-05-24T23:52 | 7167 | 423 | -13.4 | -24.7 | ||
| 2013-05-24T23:52 | 7203 | 421 | 306 | 8 | ||
| 2013-05-24T23:52 | 7296 | 416 | -13.9 | -27.4 | ||
| 2013-05-24T23:52 | 7333 | 414 | -14.0 | -36.5 | ||
| 2013-05-24T23:53 | 7390 | 411 | -14.4 | -33.6 | ||
| 2013-05-24T23:53 | 7414 | 410 | -14.5 | -30.7 | ||
| 2013-05-24T23:53 | 7554 | 402 | 302 | 13 | ||
| 2013-05-24T23:53 | 7587 | 400 | -15.4 | -41.2 | ||
| 2013-05-24T23:54 | 7835 | 387 | -17.6 | -24.5 | ||
| 2013-05-24T23:54 | 7905 | 384 | 300 | 13 | ||
| 2013-05-24T23:54 | 7991 | 379 | -18.9 | -30.9 | ||
| 2013-05-24T23:54 | 8028 | 377 | -19.1 | -31.1 | ||
| 2013-05-24T23:55 | 8082 | 375 | -19.6 | -26.8 | ||
| 2013-05-24T23:55 | 8159 | 371 | -20.2 | -27.3 | ||
| 2013-05-24T23:55 | 8258 | 366 | -21.3 | -28.0 | ||
| 2013-05-24T23:55 | 8264 | 366 | 300 | 11 | ||
| 2013-05-24T23:55 | 8327 | 363 | -21.8 | -28.4 | ||
| 2013-05-24T23:56 | 8480 | 355 | -22.5 | -31.0 | ||
| 2013-05-24T23:56 | 8595 | 350 | -23.4 | -30.3 | ||
| 2013-05-24T23:56 | 8645 | 347 | 305 | 10 | ||
| 2013-05-24T23:56 | 8732 | 343 | -24.1 | -35.0 | ||
| 2013-05-24T23:57 | 8837 | 338 | -25.1 | -33.6 | ||
| 2013-05-24T23:57 | 8910 | 335 | -25.8 | -33.8 | ||
| 2013-05-24T23:57 | 9014 | 330 | 296 | 10 | ||
| 2013-05-24T23:57 | 9153 | 324 | -27.7 | -35.6 | ||
| 2013-05-24T23:58 | 9387 | 313 | 301 | 12 | ||
| 2013-05-24T23:58 | 9426 | 312 | -30.1 | -34.9 | ||
| 2013-05-24T23:58 | 9497 | 308 | -30.5 | -34.6 | ||
| 2013-05-24T23:59 | 9667 | 301 | -31.9 | -38.1 | ||
| 2013-05-24T23:59 | 9773 | 297 | 294 | 11 | ||
| 2013-05-24T23:59 | 9866 | 293 | -33.5 | -42.3 | ||
| 2013-05-25T00:00 | 10075 | 284 | -34.2 | -51.9 | ||
| 2013-05-25T00:00 | 10167 | 280 | 317 | 11 | ||
| 2013-05-25T00:01 | 10542 | 266 | 321 | 13 | ||
| 2013-05-25T00:01 | 10693 | 260 | -40.0 | -54.0 | ||
| 2013-05-25T00:02 | 10925 | 251 | 320 | 11 | ||
| 2013-05-25T00:03 | 11319 | 237 | 312 | 8 | ||
| 2013-05-25T00:04 | 11708 | 223 | 323 | 13 | ||
| 2013-05-25T00:05 | 12087 | 211 | 326 | 17 | ||
| 2013-05-25T00:06 | 12458 | 199 | 333 | 21 | ||
| 2013-05-25T00:06 | 12606 | 194 | -56.2 | |||
| 2013-05-25T00:07 | 12865 | 187 | 335 | 25 | ||
| 2013-05-25T00:07 | 12923 | 185 | -58.4 | |||
| 2013-05-25T00:08 | 13075 | 180 | -57.6 | |||
| 2013-05-25T00:08 | 13263 | 175 | 330 | 23 | ||
| 2013-05-25T00:09 | 13634 | 165 | 324 | 18 | ||
| 2013-05-25T00:10 | 14000 | 156 | 320 | 16 | ||
| 2013-05-25T00:11 | 14390 | 146 | 299 | 17 | ||
| 2013-05-25T00:11 | 14406 | 146 | -65.6 | |||
| 2013-05-25T00:12 | 14726 | 138 | 299 | 17 | ||
| 2013-05-25T00:13 | 14925 | 134 | -69.0 | |||
| 2013-05-25T00:13 | 15070 | 130 | 306 | 17 | ||
| 2013-05-25T00:14 | 15449 | 122 | 322 | 19 | ||
| 2013-05-25T00:14 | 15468 | 122 | -72.5 | |||
| 2013-05-25T00:15 | 15821 | 115 | -72.0 | |||
| 2013-05-25T00:15 | 15852 | 114 | 333 | 12 | ||
| 2013-05-25T00:16 | 16260 | 106 | 321 | 9 | ||
| 2013-05-25T00:16 | 16447 | 103 | -76.8 | |||
| 2013-05-25T00:17 | 16663 | 99 | 333 | 13 | ||
| 2013-05-25T00:18 | 17015 | 93 | -77.4 | |||
| 2013-05-25T00:18 | 17114 | 92 | 346 | 8 | ||
| 2013-05-25T00:19 | 17397 | 87 | -76.3 | |||
| 2013-05-25T00:19 | 17524 | 85 | 61 | 2 | ||
| 2013-05-25T00:20 | 17709 | 83 | -76.3 | |||
| 2013-05-25T00:20 | 17871 | 80 | 112 | 3 | ||
| 2013-05-25T00:21 | 18059 | 78 | -77.8 | |||
| 2013-05-25T00:21 | 18216 | 76 | 53 | 2 | ||
| 2013-05-25T00:21 | 18285 | 75 | -76.4 | |||
| 2013-05-25T00:22 | 18555 | 71 | 3 | 6 | ||
| 2013-05-25T00:23 | 18763 | 69 | -72.1 | |||
| 2013-05-25T00:23 | 18893 | 67 | 83 | 2 | ||
| 2013-05-25T00:24 | 19244 | 64 | 136 | 4 | ||
| 2013-05-25T00:25 | 19609 | 60 | 37 | 4 | ||
| 2013-05-25T00:25 | 19689 | 59 | -70.9 | |||
| 2013-05-25T00:26 | 19968 | 56 | 145 | 4 | ||
| 2013-05-25T00:26 | 20010 | 56 | -69.4 | |||
| 2013-05-25T00:27 | 20284 | 53 | -68.5 | |||
| 2013-05-25T00:27 | 20318 | 53 | 21 | 6 | ||
| 2013-05-25T00:27 | 20410 | 52 | -66.9 | |||
| 2013-05-25T00:28 | 20694 | 50 | 59 | 12 | ||
| 2013-05-25T00:28 | 20718 | 50 | -66.5 | |||
| 2013-05-25T00:29 | 21084 | 47 | 79 | 12 | ||
| 2013-05-25T00:29 | 21284 | 45 | -63.6 | |||
| 2013-05-25T00:30 | 21477 | 44 | 77 | 11 | ||
| 2013-05-25T00:31 | 21840 | 41 | 87 | 14 | ||
| 2013-05-25T00:32 | 22116 | 40 | -61.2 | |||
| 2013-05-25T00:32 | 22195 | 39 | 100 | 17 | ||
| 2013-05-25T00:33 | 22557 | 37 | 106 | 18 | ||
| 2013-05-25T00:34 | 22781 | 36 | -59.3 | |||
| 2013-05-25T00:34 | 22942 | 35 | 103 | 14 | ||
| 2013-05-25T00:35 | 23298 | 33 | -56.7 | |||
| 2013-05-25T00:35 | 23356 | 32 | 104 | 13 | ||
| 2013-05-25T00:36 | 23761 | 30 | 104 | 13 | ||
| 2013-05-25T00:37 | 23974 | 29 | -55.5 | |||
| 2013-05-25T00:37 | 24150 | 29 | 97 | 15 | ||
| 2013-05-25T00:38 | 24354 | 28 | -55.0 | |||
| 2013-05-25T00:38 | 24541 | 27 | 83 | 13 | ||
| 2013-05-25T00:39 | 24935 | 25 | 107 | 16 | ||
| 2013-05-25T00:40 | 25356 | 24 | 87 | 15 | ||
| 2013-05-25T00:40 | 25411 | 24 | -52.3 | |||
| 2013-05-25T00:41 | 25692 | 23 | -52.6 | |||
| 2013-05-25T00:41 | 25808 | 22 | 90 | 16 | ||
| 2013-05-25T00:41 | 25985 | 22 | -53.4 | |||
| 2013-05-25T00:42 | 26229 | 21 | 83 | 17 | ||
| 2013-05-25T00:43 | 26419 | 20 | -52.3 | |||
| 2013-05-25T00:43 | 26649 | 19 | 91 | 14 | ||
| 2013-05-25T00:44 | 27064 | 18 | 90 | 16 | ||
| 2013-05-25T00:44 | 27245 | 18 | -49.8 | |||
| 2013-05-25T00:45 | 27471 | 17 | 109 | 13 | ||
| 2013-05-25T00:45 | 27589 | 17 | -46.8 | |||
| 2013-05-25T00:46 | 27912 | 16 | 120 | 7 | ||
| 2013-05-25T00:47 | 28338 | 15 | 57 | 9 | ||
| 2013-05-25T00:48 | 28745 | 14 | 43 | 16 | ||
| 2013-05-25T00:48 | 28886 | 14 | -48.9 | |||
| 2013-05-25T00:49 | 29229 | 13 | 69 | 18 | ||
| 2013-05-25T00:50 | 29595 | 12 | -45.0 | |||
| 2013-05-25T00:50 | 29649 | 12 | 86 | 13 | ||
| 2013-05-25T00:51 | 30101 | 12 | 100 | 12 | ||
| 2013-05-25T00:52 | 30339 | 11 | -41.9 | |||
| 2013-05-25T00:52 | 30524 | 11 | 169 | 5 | ||
| 2013-05-25T00:53 | 30843 | 10 | -43.8 | |||
| 2013-05-25T23:30 | 8 | 1010 | 26.6 | 22.2 | 60 | 5 |
| 2013-05-25T23:30 | 21 | 1008 | 25.5 | 22.6 | ||
| 2013-05-25T23:30 | 118 | 997 | 24.3 | 20.6 | ||
| 2013-05-25T23:31 | 325 | 974 | 52 | 5 | ||
| 2013-05-25T23:32 | 517 | 952 | 20.9 | 19.7 | ||
| 2013-05-25T23:32 | 593 | 944 | 20.6 | 19.3 | ||
| 2013-05-25T23:32 | 613 | 942 | 20.5 | 18.3 | ||
| 2013-05-25T23:32 | 625 | 941 | 20.6 | 18.2 | ||
| 2013-05-25T23:32 | 704 | 932 | 60 | 3 | ||
| 2013-05-25T23:32 | 723 | 930 | 19.8 | 17.6 | ||
| 2013-05-25T23:32 | 793 | 923 | 19.8 | 16.6 | ||
| 2013-05-25T23:33 | 1033 | 897 | 18.3 | 14.2 | ||
| 2013-05-25T23:33 | 1083 | 892 | 234 | 1 | ||
| 2013-05-25T23:34 | 1313 | 868 | 16.6 | 14.6 | ||
| 2013-05-25T23:34 | 1338 | 866 | 17.0 | 13.9 | ||
| 2013-05-25T23:34 | 1357 | 864 | 18.0 | 12.5 | ||
| 2013-05-25T23:34 | 1458 | 854 | 190 | 4 | ||
| 2013-05-25T23:34 | 1464 | 853 | 18.1 | 7.8 | ||
| 2013-05-25T23:35 | 1687 | 831 | 16.2 | 4.3 | ||
| 2013-05-25T23:35 | 1699 | 830 | 16.6 | 3.3 | ||
| 2013-05-25T23:35 | 1819 | 818 | 289 | 4 | ||
| 2013-05-25T23:35 | 1861 | 814 | 16.5 | -4.7 | ||
| 2013-05-25T23:35 | 1916 | 809 | 16.5 | -5.9 | ||
| 2013-05-25T23:35 | 1982 | 803 | 17.2 | -11.5 | ||
| 2013-05-25T23:36 | 2006 | 801 | 18.0 | -18.4 | ||
| 2013-05-25T23:36 | 2176 | 785 | 300 | 6 | ||
| 2013-05-25T23:37 | 2357 | 768 | 16.2 | -13.3 | ||
| 2013-05-25T23:37 | 2516 | 754 | 313 | 6 | ||
| 2013-05-25T23:37 | 2545 | 751 | 15.1 | -12.2 | ||
| 2013-05-25T23:38 | 2743 | 734 | 13.7 | -10.2 | ||
| 2013-05-25T23:38 | 2857 | 724 | 297 | 5 | ||
| 2013-05-25T23:38 | 2863 | 724 | 13.2 | -10.6 | ||
| 2013-05-25T23:38 | 2950 | 716 | 13.4 | -23.5 | ||
| 2013-05-25T23:39 | 3205 | 695 | 11.8 | -18.9 | ||
| 2013-05-25T23:39 | 3217 | 694 | 310 | 5 | ||
| 2013-05-25T23:39 | 3249 | 691 | 11.6 | -16.9 | ||
| 2013-05-25T23:39 | 3285 | 688 | 11.3 | -17.1 | ||
| 2013-05-25T23:39 | 3303 | 686 | 11.2 | -0.9 | ||
| 2013-05-25T23:39 | 3340 | 683 | 10.9 | 1.4 | ||
| 2013-05-25T23:40 | 3489 | 671 | 9.8 | 0.7 | ||
| 2013-05-25T23:40 | 3501 | 670 | 10.2 | -2.1 | ||
| 2013-05-25T23:40 | 3562 | 665 | 10.0 | 0.6 | ||
| 2013-05-25T23:40 | 3587 | 663 | 280 | 7 | ||
| 2013-05-25T23:41 | 3865 | 642 | 7.4 | 2.9 | ||
| 2013-05-25T23:41 | 3957 | 634 | 7.3 | 1.4 | ||
| 2013-05-25T23:41 | 3970 | 633 | 271 | 8 | ||
| 2013-05-25T23:41 | 4064 | 626 | 7.0 | -0.7 | ||
| 2013-05-25T23:41 | 4150 | 620 | 6.2 | -0.1 | ||
| 2013-05-25T23:42 | 4209 | 615 | 5.8 | -0.7 | ||
| 2013-05-25T23:42 | 4301 | 608 | 5.4 | -0.9 | ||
| 2013-05-25T23:42 | 4337 | 606 | 268 | 8 | ||
| 2013-05-25T23:42 | 4363 | 604 | 5.1 | -2.7 | ||
| 2013-05-25T23:42 | 4394 | 602 | 5.9 | -13.2 | ||
| 2013-05-25T23:42 | 4463 | 596 | 5.7 | -24.8 | ||
| 2013-05-25T23:43 | 4613 | 586 | 5.6 | -31.2 | ||
| 2013-05-25T23:43 | 4721 | 578 | 250 | 3 | ||
| 2013-05-25T23:43 | 4773 | 574 | 4.6 | -34.2 | ||
| 2013-05-25T23:44 | 4969 | 561 | 3.4 | -27.8 | ||
| 2013-05-25T23:44 | 5098 | 552 | 243 | 4 | ||
| 2013-05-25T23:44 | 5254 | 541 | 0.9 | -20.2 | ||
| 2013-05-25T23:45 | 5339 | 535 | 0.1 | -15.0 | ||
| 2013-05-25T23:45 | 5438 | 529 | -0.4 | -18.5 | ||
| 2013-05-25T23:45 | 5490 | 525 | 253 | 7 | ||
| 2013-05-25T23:45 | 5548 | 522 | -1.2 | -20.2 | ||
| 2013-05-25T23:46 | 5685 | 513 | -2.2 | -29.8 | ||
| 2013-05-25T23:46 | 5717 | 511 | -2.3 | -29.9 | ||
| 2013-05-25T23:46 | 5730 | 510 | -2.3 | -29.9 | ||
| 2013-05-25T23:46 | 5736 | 509 | -2.3 | -29.9 | ||
| 2013-05-25T23:46 | 5877 | 500 | 255 | 6 | ||
| 2013-05-25T23:46 | 5958 | 495 | -4.2 | -28.6 | ||
| 2013-05-25T23:46 | 6004 | 492 | -4.5 | -23.6 | ||
| 2013-05-25T23:46 | 6030 | 491 | -4.7 | -18.2 | ||
| 2013-05-25T23:46 | 6055 | 489 | -4.9 | -17.7 | ||
| 2013-05-25T23:47 | 6186 | 481 | -6.1 | -20.5 | ||
| 2013-05-25T23:47 | 6248 | 477 | -6.0 | -32.8 | ||
| 2013-05-25T23:47 | 6255 | 477 | 262 | 5 | ||
| 2013-05-25T23:47 | 6435 | 466 | -7.1 | -35.9 | ||
| 2013-05-25T23:48 | 6536 | 460 | -7.9 | -36.5 | ||
| 2013-05-25T23:48 | 6629 | 454 | -8.7 | -33.0 | 247 | 5 |
| 2013-05-25T23:48 | 6682 | 451 | -9.1 | -22.4 | ||
| 2013-05-25T23:48 | 6707 | 450 | -9.3 | -19.9 | ||
| 2013-05-25T23:48 | 6755 | 447 | -9.1 | -28.0 | ||
| 2013-05-25T23:49 | 6845 | 442 | -9.5 | -30.7 | ||
| 2013-05-25T23:49 | 6868 | 441 | -9.7 | -26.5 | ||
| 2013-05-25T23:49 | 6905 | 439 | -9.9 | -28.7 | ||
| 2013-05-25T23:49 | 6959 | 435 | -10.2 | -25.3 | ||
| 2013-05-25T23:49 | 6989 | 434 | 236 | 6 | ||
| 2013-05-25T23:50 | 7183 | 423 | -11.6 | -29.6 | ||
| 2013-05-25T23:50 | 7366 | 413 | 243 | 6 | ||
| 2013-05-25T23:50 | 7468 | 407 | -14.1 | -27.9 | ||
| 2013-05-25T23:50 | 7511 | 405 | -14.4 | -25.3 | ||
| 2013-05-25T23:51 | 7620 | 399 | -14.6 | -26.4 | ||
| 2013-05-25T23:51 | 7727 | 394 | 264 | 6 | ||
| 2013-05-25T23:51 | 7827 | 389 | -16.4 | -25.1 | ||
| 2013-05-25T23:51 | 7881 | 386 | -16.1 | -27.5 | ||
| 2013-05-25T23:52 | 7954 | 382 | -16.9 | -28.2 | ||
| 2013-05-25T23:52 | 8025 | 378 | -17.5 | -28.1 | ||
| 2013-05-25T23:52 | 8085 | 375 | 297 | 5 | ||
| 2013-05-25T23:52 | 8249 | 367 | -19.6 | -29.8 | ||
| 2013-05-25T23:53 | 8452 | 357 | 327 | 4 | ||
| 2013-05-25T23:53 | 8572 | 352 | -21.0 | -42.2 | ||
| 2013-05-25T23:54 | 8777 | 342 | -21.3 | -55.4 | ||
| 2013-05-25T23:54 | 8822 | 340 | 223 | 2 | ||
| 2013-05-25T23:55 | 9155 | 325 | -24.7 | -61.0 | ||
| 2013-05-25T23:55 | 9216 | 322 | 180 | 4 | ||
| 2013-05-25T23:56 | 9611 | 305 | 233 | 4 | ||
| 2013-05-25T23:57 | 9931 | 291 | -31.5 | -60.5 | ||
| 2013-05-25T23:57 | 10021 | 288 | 275 | 4 | ||
| 2013-05-25T23:58 | 10419 | 272 | 304 | 4 | ||
| 2013-05-25T23:59 | 10704 | 261 | -38.7 | -56.2 | ||
| 2013-05-25T23:59 | 10818 | 257 | 351 | 5 | ||
| 2013-05-25T23:59 | 10852 | 255 | -40.0 | -52.9 | ||
| 2013-05-26T00:00 | 11212 | 242 | 345 | 5 | ||
| 2013-05-26T00:01 | 11613 | 228 | 14 | 7 | ||
| 2013-05-26T00:02 | 11997 | 215 | 10 | 8 | ||
| 2013-05-26T00:02 | 12004 | 215 | -49.9 | |||
| 2013-05-26T00:03 | 12383 | 203 | 9 | 13 | ||
| 2013-05-26T00:04 | 12784 | 190 | 8 | 17 | ||
| 2013-05-26T00:05 | 13141 | 180 | 4 | 19 | ||
| 2013-05-26T00:06 | 13513 | 169 | 357 | 20 | ||
| 2013-05-26T00:07 | 13884 | 159 | 356 | 20 | ||
| 2013-05-26T00:07 | 13899 | 159 | -66.7 | |||
| 2013-05-26T00:08 | 14265 | 150 | 6 | 23 | ||
| 2013-05-26T00:08 | 14366 | 147 | -70.2 | |||
| 2013-05-26T00:09 | 14625 | 141 | -71.3 | |||
| 2013-05-26T00:09 | 14638 | 140 | 16 | 23 | ||
| 2013-05-26T00:10 | 14918 | 134 | -71.6 | |||
| 2013-05-26T00:10 | 15047 | 131 | 33 | 15 | ||
| 2013-05-26T00:11 | 15449 | 122 | 351 | 9 | ||
| 2013-05-26T00:11 | 15463 | 122 | -74.6 | |||
| 2013-05-26T00:12 | 15701 | 117 | -73.8 | |||
| 2013-05-26T00:12 | 15817 | 115 | 334 | 14 | ||
| 2013-05-26T00:13 | 16089 | 110 | -72.1 | |||
| 2013-05-26T00:13 | 16186 | 108 | 332 | 14 | ||
| 2013-05-26T00:14 | 16432 | 103 | -72.7 | |||
| 2013-05-26T00:14 | 16575 | 101 | 335 | 14 | ||
| 2013-05-26T00:15 | 16920 | 95 | -74.9 | |||
| 2013-05-26T00:15 | 17000 | 94 | 349 | 15 | ||
| 2013-05-26T00:16 | 17447 | 87 | -76.8 | |||
| 2013-05-26T00:16 | 17500 | 86 | 1 | 10 | ||
| 2013-05-26T00:17 | 17878 | 81 | -79.2 | |||
| 2013-05-26T00:17 | 17949 | 80 | 6 | 13 | ||
| 2013-05-26T00:18 | 18235 | 76 | -78.1 | |||
| 2013-05-26T00:18 | 18311 | 75 | 35 | 11 | ||
| 2013-05-26T00:19 | 18653 | 70 | 42 | 8 | ||
| 2013-05-26T00:19 | 18677 | 70 | -75.6 | |||
| 2013-05-26T00:20 | 18863 | 68 | -74.6 | |||
| 2013-05-26T00:20 | 18985 | 66 | -72.1 | 58 | 9 | |
| 2013-05-26T00:21 | 19211 | 64 | -70.6 | |||
| 2013-05-26T00:21 | 19324 | 63 | 80 | 8 | ||
| 2013-05-26T00:22 | 19420 | 62 | -69.4 | |||
| 2013-05-26T11:30 | 8 | 1010 | 26.5 | 22.4 | 120 | 2 |
| 2013-05-26T11:30 | 23 | 1008 | 26.0 | 22.5 | ||
| 2013-05-26T11:31 | 220 | 986 | 24.3 | 20.8 | ||
| 2013-05-26T11:31 | 236 | 984 | 24.2 | 20.9 | ||
| 2013-05-26T11:31 | 297 | 977 | 133 | 3 | ||
| 2013-05-26T11:32 | 550 | 949 | 21.4 | 20.2 | ||
| 2013-05-26T11:32 | 562 | 948 | 21.3 | 19.6 | ||
| 2013-05-26T11:32 | 637 | 940 | 183 | 2 | ||
| 2013-05-26T11:32 | 642 | 939 | 21.1 | 18.7 | ||
| 2013-05-26T11:32 | 803 | 922 | 19.8 | 17.9 | ||
| 2013-05-26T11:33 | 975 | 904 | 210 | 4 | ||
| 2013-05-26T11:33 | 1052 | 896 | 18.0 | 16.5 | ||
| 2013-05-26T11:34 | 1216 | 879 | 18.2 | 14.3 | ||
| 2013-05-26T11:34 | 1243 | 876 | 19.2 | 9.7 | ||
| 2013-05-26T11:34 | 1301 | 870 | 295 | 3 | ||
| 2013-05-26T11:34 | 1449 | 855 | 17.7 | 10.1 | ||
| 2013-05-26T11:35 | 1559 | 844 | 17.5 | 8.1 | ||
| 2013-05-26T11:35 | 1630 | 837 | 324 | 7 | ||
| 2013-05-26T11:35 | 1641 | 836 | 17.9 | 2.6 | ||
| 2013-05-26T11:35 | 1685 | 832 | 18.7 | -10.3 | ||
| 2013-05-26T11:35 | 1791 | 822 | 18.5 | -7.0 | ||
| 2013-05-26T11:36 | 1925 | 809 | 18.0 | -9.0 | ||
| 2013-05-26T11:36 | 1964 | 805 | 306 | 7 | ||
| 2013-05-26T11:36 | 1986 | 803 | 18.2 | -15.2 | ||
| 2013-05-26T11:36 | 2044 | 798 | 17.7 | 1.6 | ||
| 2013-05-26T11:36 | 2078 | 794 | 17.4 | 4.0 | ||
| 2013-05-26T11:37 | 2135 | 789 | 16.9 | 3.9 | ||
| 2013-05-26T11:37 | 2223 | 781 | 16.3 | 7.2 | ||
| 2013-05-26T11:37 | 2275 | 776 | 16.4 | 6.5 | ||
| 2013-05-26T11:37 | 2304 | 774 | 307 | 7 | ||
| 2013-05-26T11:37 | 2422 | 763 | 16.1 | -2.9 | ||
| 2013-05-26T11:38 | 2598 | 747 | 14.9 | -5.0 | ||
| 2013-05-26T11:38 | 2637 | 744 | 14.6 | -3.7 | ||
| 2013-05-26T11:38 | 2643 | 743 | 296 | 7 | ||
| 2013-05-26T11:38 | 2657 | 742 | 14.5 | 0.7 | ||
| 2013-05-26T11:38 | 2672 | 741 | 14.4 | 5.2 | ||
| 2013-05-26T11:38 | 2791 | 730 | 13.5 | 3.8 | ||
| 2013-05-26T11:39 | 2937 | 718 | 12.2 | 7.3 | ||
| 2013-05-26T11:39 | 2983 | 714 | 283 | 5 | ||
| 2013-05-26T11:39 | 2995 | 713 | 11.7 | 6.6 | ||
| 2013-05-26T11:40 | 3164 | 699 | 10.7 | 5.9 | ||
| 2013-05-26T11:40 | 3234 | 693 | 10.3 | 4.7 | ||
| 2013-05-26T11:40 | 3293 | 688 | 10.0 | 4.8 | ||
| 2013-05-26T11:40 | 3332 | 685 | 277 | 5 | ||
| 2013-05-26T11:40 | 3399 | 679 | 9.8 | 3.3 | ||
| 2013-05-26T11:40 | 3437 | 676 | 9.5 | 2.1 | ||
| 2013-05-26T11:40 | 3490 | 672 | 9.1 | 4.3 | ||
| 2013-05-26T11:41 | 3543 | 668 | 8.7 | 4.1 | ||
| 2013-05-26T11:41 | 3657 | 658 | 8.0 | 3.5 | 279 | 3 |
| 2013-05-26T11:41 | 3705 | 655 | 8.2 | -2.4 | ||
| 2013-05-26T11:41 | 3721 | 653 | 8.1 | -2.0 | ||
| 2013-05-26T11:41 | 3795 | 648 | 7.8 | -4.3 | ||
| 2013-05-26T11:41 | 3811 | 646 | 7.7 | -4.1 | ||
| 2013-05-26T11:42 | 3821 | 645 | 7.6 | 2.5 | ||
| 2013-05-26T11:42 | 3843 | 644 | 7.5 | 3.0 | ||
| 2013-05-26T11:42 | 3945 | 636 | 6.9 | 2.4 | ||
| 2013-05-26T11:42 | 3977 | 633 | 256 | 3 | ||
| 2013-05-26T11:42 | 4056 | 627 | 6.4 | -0.6 | ||
| 2013-05-26T11:42 | 4136 | 621 | 6.1 | -0.2 | ||
| 2013-05-26T11:43 | 4206 | 616 | 5.9 | -1.3 | ||
| 2013-05-26T11:43 | 4304 | 609 | 5.1 | -1.8 | ||
| 2013-05-26T11:43 | 4321 | 607 | 267 | 5 | ||
| 2013-05-26T11:43 | 4395 | 602 | 4.5 | -1.7 | ||
| 2013-05-26T11:43 | 4454 | 598 | 4.1 | -2.1 | ||
| 2013-05-26T11:44 | 4517 | 593 | 3.5 | 0.0 | ||
| 2013-05-26T11:44 | 4667 | 582 | 255 | 5 | ||
| 2013-05-26T11:45 | 4849 | 569 | 0.9 | -3.2 | ||
| 2013-05-26T11:45 | 4864 | 568 | 0.9 | -2.7 | ||
| 2013-05-26T11:45 | 4888 | 566 | 0.7 | -2.4 | ||
| 2013-05-26T11:45 | 4909 | 565 | 0.9 | -4.0 | ||
| 2013-05-26T11:45 | 4915 | 564 | 1.0 | -4.8 | ||
| 2013-05-26T11:45 | 4942 | 563 | 0.9 | -7.9 | ||
| 2013-05-26T11:45 | 4969 | 561 | 0.9 | -8.1 | ||
| 2013-05-26T11:45 | 4991 | 559 | 1.0 | -9.1 | ||
| 2013-05-26T11:45 | 5003 | 558 | 223 | 6 | ||
| 2013-05-26T11:45 | 5028 | 557 | 1.1 | -10.4 | ||
| 2013-05-26T11:45 | 5083 | 553 | 1.0 | -9.1 | ||
| 2013-05-26T11:45 | 5093 | 552 | 0.9 | -8.6 | ||
| 2013-05-26T11:45 | 5115 | 551 | 0.8 | -9.0 | ||
| 2013-05-26T11:45 | 5143 | 549 | 0.7 | -8.5 | ||
| 2013-05-26T11:46 | 5175 | 546 | 0.6 | -9.7 | ||
| 2013-05-26T11:46 | 5202 | 545 | 0.3 | -7.2 | ||
| 2013-05-26T11:46 | 5332 | 536 | 229 | 7 | ||
| 2013-05-26T11:47 | 5676 | 513 | -2.8 | -9.3 | ||
| 2013-05-26T11:47 | 5688 | 512 | 223 | 8 | ||
| 2013-05-26T11:47 | 5809 | 505 | -3.1 | -11.3 | ||
| 2013-05-26T11:48 | 5989 | 493 | -4.1 | -12.0 | ||
| 2013-05-26T11:48 | 6047 | 490 | 240 | 7 | ||
| 2013-05-26T11:48 | 6122 | 485 | -4.6 | -14.2 | ||
| 2013-05-26T11:49 | 6261 | 477 | -5.5 | -15.3 | ||
| 2013-05-26T11:49 | 6352 | 471 | -5.4 | -19.5 | ||
| 2013-05-26T11:49 | 6392 | 469 | -5.2 | -24.2 | 234 | 8 |
| 2013-05-26T11:50 | 6736 | 448 | 229 | 9 | ||
| 2013-05-26T11:51 | 6926 | 438 | -9.2 | -24.4 | ||
| 2013-05-26T11:51 | 7090 | 428 | 227 | 7 | ||
| 2013-05-26T11:51 | 7160 | 425 | -10.5 | -25.9 | ||
| 2013-05-26T11:52 | 7447 | 409 | 251 | 5 | ||
| 2013-05-26T11:53 | 7718 | 395 | -14.6 | -25.8 | ||
| 2013-05-26T11:53 | 7811 | 390 | 272 | 4 | ||
| 2013-05-26T11:54 | 8004 | 380 | -16.6 | -26.0 | ||
| 2013-05-26T11:54 | 8085 | 376 | -17.0 | -25.2 | ||
| 2013-05-26T11:54 | 8172 | 372 | -17.8 | -25.7 | ||
| 2013-05-26T11:54 | 8184 | 371 | 292 | 2 | ||
| 2013-05-26T11:54 | 8257 | 367 | -18.3 | -27.6 | ||
| 2013-05-26T11:55 | 8518 | 355 | -20.0 | -27.6 | ||
| 2013-05-26T11:55 | 8549 | 353 | 261 | 3 | ||
| 2013-05-26T11:56 | 8920 | 336 | 235 | 6 | ||
| 2013-05-26T11:56 | 8927 | 336 | -22.6 | -49.1 | ||
| 2013-05-26T11:57 | 9290 | 319 | 222 | 8 | ||
| 2013-05-26T11:58 | 9517 | 309 | -27.8 | -60.0 | ||
| 2013-05-26T11:58 | 9671 | 303 | 224 | 8 | ||
| 2013-05-26T11:59 | 9932 | 292 | -31.8 | -49.3 | ||
| 2013-05-26T11:59 | 10073 | 286 | 236 | 8 | ||
| 2013-05-26T11:59 | 10249 | 279 | -34.8 | -52.4 | ||
| 2013-05-26T12:00 | 10477 | 270 | 246 | 8 | ||
| 2013-05-26T12:00 | 10591 | 266 | -37.9 | -57.5 | ||
| 2013-05-26T12:01 | 10851 | 256 | -39.8 | -44.6 | ||
| 2013-05-26T12:01 | 10883 | 254 | -40.0 | -44.2 | 267 | 6 |
| 2013-05-26T12:02 | 11273 | 240 | 331 | 2 | ||
| 2013-05-26T12:03 | 11640 | 227 | 348 | 3 | ||
| 2013-05-26T12:04 | 11888 | 219 | -47.0 | |||
| 2013-05-26T12:04 | 12016 | 215 | 352 | 4 | ||
| 2013-05-26T12:05 | 12420 | 202 | 10 | 6 | ||
| 2013-05-26T12:06 | 12801 | 190 | 12 | 7 | ||
| 2013-05-26T12:07 | 13171 | 180 | 9 | 10 | ||
| 2013-05-26T12:08 | 13581 | 168 | 2 | 12 | ||
| 2013-05-26T12:09 | 13861 | 161 | -64.4 | |||
| 2013-05-26T12:09 | 13991 | 157 | 10 | 18 | ||
| 2013-05-26T12:10 | 14412 | 147 | 6 | 17 | ||
| 2013-05-26T12:11 | 14745 | 139 | -71.7 | |||
| 2013-05-26T12:11 | 14809 | 137 | 21 | 17 | ||
| 2013-05-26T12:12 | 15152 | 129 | 20 | 18 | ||
| 2013-05-26T12:12 | 15215 | 128 | -74.0 | |||
| 2013-05-26T12:13 | 15510 | 122 | 21 | 11 | ||
| 2013-05-26T12:13 | 15592 | 120 | -73.2 | |||
| 2013-05-26T12:14 | 15911 | 114 | 2 | 12 | ||
| 2013-05-26T12:15 | 16187 | 108 | -77.1 | |||
| 2013-05-26T12:15 | 16299 | 106 | 357 | 16 | ||
| 2013-05-26T12:16 | 16685 | 99 | 23 | 16 | ||
| 2013-05-26T12:16 | 16703 | 99 | -76.7 | |||
| 2013-05-26T12:17 | 16886 | 96 | -75.0 | |||
| 2013-05-26T12:17 | 17052 | 93 | 45 | 13 | ||
| 2013-05-26T12:17 | 17121 | 92 | -75.4 | |||
| 2013-05-26T12:18 | 17431 | 87 | 23 | 7 | ||
| 2013-05-26T12:19 | 17758 | 83 | 23 | 12 | ||
| 2013-05-26T12:19 | 17765 | 82 | -75.4 | |||
| 2013-05-26T12:20 | 17987 | 79 | -75.0 | |||
| 2013-05-26T12:20 | 18120 | 78 | 37 | 11 | ||
| 2013-05-26T12:21 | 18428 | 74 | -74.6 | |||
| 2013-05-26T12:21 | 18460 | 73 | 40 | 12 | ||
| 2013-05-26T12:22 | 18663 | 71 | -72.6 | |||
| 2013-05-26T12:22 | 18781 | 69 | 65 | 11 | ||
| 2013-05-26T12:23 | 18971 | 67 | -71.7 | |||
| 2013-05-26T12:23 | 19095 | 66 | 93 | 9 | ||
| 2013-05-26T12:24 | 19314 | 63 | -72.7 | |||
| 2013-05-26T12:24 | 19342 | 63 | 56 | 7 | ||
| 2013-05-26T12:25 | 19456 | 62 | -71.6 | |||
| 2013-05-26T23:31 | 8 | 1010 | 27.4 | 22.6 | 180 | 4 |
| 2013-05-26T23:31 | 14 | 1009 | 26.1 | 23.4 | ||
| 2013-05-26T23:31 | 24 | 1008 | 26.3 | 23.0 | ||
| 2013-05-26T23:31 | 32 | 1007 | 26.2 | 22.7 | ||
| 2013-05-26T23:32 | 245 | 983 | 24.4 | 20.9 | ||
| 2013-05-26T23:32 | 291 | 978 | 188 | 4 | ||
| 2013-05-26T23:33 | 639 | 940 | 215 | 6 | ||
| 2013-05-26T23:33 | 645 | 939 | 21.1 | 18.7 | ||
| 2013-05-26T23:34 | 874 | 914 | 20.2 | 16.0 | ||
| 2013-05-26T23:34 | 961 | 905 | 215 | 5 | ||
| 2013-05-26T23:34 | 1011 | 900 | 19.1 | 15.6 | ||
| 2013-05-26T23:34 | 1044 | 897 | 19.7 | 14.1 | ||
| 2013-05-26T23:34 | 1098 | 891 | 20.6 | 8.6 | ||
| 2013-05-26T23:35 | 1156 | 885 | 20.7 | 4.7 | ||
| 2013-05-26T23:35 | 1177 | 883 | 20.7 | 8.7 | ||
| 2013-05-26T23:35 | 1220 | 879 | 20.6 | 8.9 | ||
| 2013-05-26T23:35 | 1282 | 872 | 143 | 3 | ||
| 2013-05-26T23:35 | 1297 | 871 | 20.0 | 10.1 | ||
| 2013-05-26T23:35 | 1417 | 859 | 19.1 | 11.4 | ||
| 2013-05-26T23:36 | 1437 | 857 | 19.1 | 12.8 | ||
| 2013-05-26T23:36 | 1462 | 854 | 19.1 | 13.5 | ||
| 2013-05-26T23:36 | 1539 | 847 | 19.1 | 10.4 | ||
| 2013-05-26T23:36 | 1586 | 842 | 139 | 2 | ||
| 2013-05-26T23:36 | 1608 | 840 | 19.1 | 7.8 | ||
| 2013-05-26T23:36 | 1674 | 833 | 19.1 | 7.2 | ||
| 2013-05-26T23:36 | 1729 | 828 | 18.7 | 9.2 | ||
| 2013-05-26T23:37 | 1800 | 821 | 18.1 | 9.7 | ||
| 2013-05-26T23:37 | 1918 | 810 | 176 | 3 | ||
| 2013-05-26T23:37 | 1929 | 809 | 18.0 | 6.2 | ||
| 2013-05-26T23:37 | 2060 | 797 | 17.3 | 2.5 | ||
| 2013-05-26T23:38 | 2237 | 780 | 198 | 4 | ||
| 2013-05-26T23:38 | 2274 | 777 | 16.1 | 4.2 | ||
| 2013-05-26T23:38 | 2364 | 769 | 15.4 | 5.0 | ||
| 2013-05-26T23:38 | 2375 | 768 | 15.4 | 3.5 | ||
| 2013-05-26T23:39 | 2402 | 765 | 15.2 | 5.4 | ||
| 2013-05-26T23:39 | 2429 | 763 | 15.0 | 7.3 | ||
| 2013-05-26T23:39 | 2440 | 762 | 14.9 | 7.0 | ||
| 2013-05-26T23:39 | 2497 | 757 | 14.6 | 6.7 | ||
| 2013-05-26T23:39 | 2565 | 751 | 197 | 3 | ||
| 2013-05-26T23:39 | 2612 | 747 | 14.0 | 7.1 | ||
| 2013-05-26T23:39 | 2680 | 741 | 13.7 | 5.8 | ||
| 2013-05-26T23:39 | 2691 | 740 | 13.6 | 7.4 | ||
| 2013-05-26T23:40 | 2822 | 728 | 12.5 | 6.3 | ||
| 2013-05-26T23:40 | 2867 | 724 | 12.4 | 6.0 | ||
| 2013-05-26T23:40 | 2907 | 721 | 228 | 4 | ||
| 2013-05-26T23:41 | 3090 | 705 | 11.4 | 5.7 | ||
| 2013-05-26T23:41 | 3236 | 693 | 248 | 6 | ||
| 2013-05-26T23:41 | 3313 | 687 | 10.1 | 4.3 | ||
| 2013-05-26T23:41 | 3369 | 682 | 10.2 | 3.7 | ||
| 2013-05-26T23:41 | 3391 | 680 | 10.5 | -1.2 | ||
| 2013-05-26T23:42 | 3423 | 678 | 10.2 | -3.1 | ||
| 2013-05-26T23:42 | 3482 | 673 | 9.8 | 2.9 | ||
| 2013-05-26T23:42 | 3561 | 666 | 270 | 7 | ||
| 2013-05-26T23:42 | 3594 | 664 | 8.9 | 3.5 | ||
| 2013-05-26T23:42 | 3609 | 663 | 8.8 | 3.2 | ||
| 2013-05-26T23:43 | 3873 | 642 | 7.2 | 1.5 | ||
| 2013-05-26T23:43 | 3888 | 641 | 283 | 6 | ||
| 2013-05-26T23:43 | 4005 | 632 | 6.4 | 1.3 | ||
| 2013-05-26T23:43 | 4036 | 629 | 6.2 | -0.1 | ||
| 2013-05-26T23:44 | 4062 | 627 | 6.2 | -1.7 | ||
| 2013-05-26T23:44 | 4116 | 623 | 5.7 | -3.4 | ||
| 2013-05-26T23:44 | 4190 | 618 | 5.0 | -3.1 | ||
| 2013-05-26T23:44 | 4213 | 616 | 274 | 5 | ||
| 2013-05-26T23:44 | 4293 | 610 | 4.1 | -0.1 | ||
| 2013-05-26T23:44 | 4378 | 603 | 3.3 | 0.4 | ||
| 2013-05-26T23:45 | 4444 | 599 | 3.0 | 0.1 | ||
| 2013-05-26T23:45 | 4494 | 595 | 2.6 | -0.8 | ||
| 2013-05-26T23:45 | 4511 | 594 | 2.6 | -0.7 | ||
| 2013-05-26T23:45 | 4534 | 592 | 2.5 | -0.8 | ||
| 2013-05-26T23:45 | 4546 | 591 | 266 | 6 | ||
| 2013-05-26T23:45 | 4574 | 589 | 2.5 | -1.3 | ||
| 2013-05-26T23:45 | 4591 | 588 | 2.5 | -1.5 | ||
| 2013-05-26T23:46 | 4757 | 576 | 1.7 | -2.3 | ||
| 2013-05-26T23:46 | 4870 | 568 | 0.7 | -2.9 | 264 | 5 |
| 2013-05-26T23:46 | 4968 | 561 | 0.1 | -2.8 | ||
| 2013-05-26T23:46 | 5021 | 557 | -0.3 | -3.7 | ||
| 2013-05-26T23:47 | 5189 | 546 | -1.4 | -5.3 | 235 | 5 |
| 2013-05-26T23:47 | 5210 | 544 | -1.2 | -7.3 | ||
| 2013-05-26T23:47 | 5227 | 543 | -0.9 | -14.8 | ||
| 2013-05-26T23:47 | 5249 | 542 | -1.1 | -14.6 | ||
| 2013-05-26T23:47 | 5308 | 538 | -1.5 | -9.8 | ||
| 2013-05-26T23:47 | 5319 | 537 | -1.6 | -9.5 | ||
| 2013-05-26T23:47 | 5329 | 536 | -1.9 | -8.6 | ||
| 2013-05-26T23:48 | 5350 | 535 | -2.1 | -7.2 | ||
| 2013-05-26T23:48 | 5371 | 533 | -2.1 | -7.0 | ||
| 2013-05-26T23:48 | 5401 | 531 | -2.3 | -7.2 | ||
| 2013-05-26T23:48 | 5422 | 530 | -1.8 | -11.4 | ||
| 2013-05-26T23:48 | 5438 | 529 | -1.7 | -18.3 | ||
| 2013-05-26T23:48 | 5497 | 525 | 208 | 7 | ||
| 2013-05-26T23:48 | 5508 | 524 | -1.9 | -22.5 | ||
| 2013-05-26T23:48 | 5544 | 522 | -2.1 | -21.0 | ||
| 2013-05-26T23:48 | 5576 | 520 | -2.3 | -13.2 | ||
| 2013-05-26T23:48 | 5587 | 519 | -2.4 | -13.0 | ||
| 2013-05-26T23:49 | 5668 | 514 | -2.7 | -15.1 | ||
| 2013-05-26T23:49 | 5747 | 509 | -2.9 | -19.3 | ||
| 2013-05-26T23:49 | 5791 | 506 | -3.1 | -19.9 | ||
| 2013-05-26T23:49 | 5819 | 504 | 215 | 8 | ||
| 2013-05-26T23:49 | 5825 | 504 | -3.2 | -20.5 | ||
| 2013-05-26T23:49 | 5901 | 499 | -3.6 | -15.6 | ||
| 2013-05-26T23:50 | 6171 | 482 | 220 | 10 | ||
| 2013-05-26T23:50 | 6194 | 481 | -5.6 | -18.3 | ||
| 2013-05-26T23:50 | 6295 | 474 | -5.3 | -25.9 | ||
| 2013-05-26T23:51 | 6514 | 461 | 203 | 8 | ||
| 2013-05-26T23:51 | 6620 | 455 | -7.0 | -32.6 | ||
| 2013-05-26T23:52 | 6803 | 445 | -8.6 | -28.7 | ||
| 2013-05-26T23:52 | 6868 | 441 | 216 | 8 | ||
| 2013-05-26T23:53 | 7225 | 421 | 219 | 7 | ||
| 2013-05-26T23:53 | 7254 | 419 | -12.3 | -29.7 | ||
| 2013-05-26T23:54 | 7552 | 403 | -14.4 | -30.1 | ||
| 2013-05-26T23:54 | 7569 | 402 | 194 | 4 | ||
| 2013-05-26T23:55 | 7753 | 393 | -16.0 | -27.1 | ||
| 2013-05-26T23:55 | 7910 | 384 | 214 | 3 | ||
| 2013-05-26T23:55 | 8070 | 376 | -17.8 | -31.2 | ||
| 2013-05-26T23:56 | 8160 | 372 | -18.1 | -35.1 | ||
| 2013-05-26T23:56 | 8240 | 368 | -18.1 | -36.1 | ||
| 2013-05-26T23:56 | 8264 | 367 | 274 | 3 | ||
| 2013-05-26T23:56 | 8300 | 365 | -18.2 | -38.6 | ||
| 2013-05-26T23:57 | 8521 | 354 | -19.6 | -44.5 | ||
| 2013-05-26T23:57 | 8633 | 349 | 242 | 5 | ||
| 2013-05-26T23:57 | 8652 | 348 | -20.1 | -63.2 | ||
| 2013-05-26T23:58 | 8882 | 337 | -22.1 | -64.5 | ||
| 2013-05-26T23:58 | 8998 | 332 | 228 | 6 | ||
| 2013-05-26T23:59 | 9219 | 322 | -25.1 | -66.5 | ||
| 2013-05-26T23:59 | 9344 | 317 | 224 | 7 | ||
| 2013-05-26T23:59 | 9415 | 314 | -27.0 | -59.5 | ||
| 2013-05-27T00:00 | 9559 | 307 | -28.1 | -58.0 | ||
| 2013-05-27T00:00 | 9719 | 301 | 243 | 7 | ||
| 2013-05-27T00:00 | 9840 | 295 | -30.7 | -50.9 | ||
| 2013-05-27T00:01 | 10128 | 284 | 237 | 7 | ||
| 2013-05-27T00:02 | 10347 | 275 | -34.8 | -47.3 | ||
| 2013-05-27T00:02 | 10519 | 268 | 226 | 7 | ||
| 2013-05-27T00:03 | 10855 | 255 | -39.2 | -51.2 | ||
| 2013-05-27T00:03 | 10906 | 254 | 239 | 4 | ||
| 2013-05-27T00:03 | 10947 | 252 | -40.0 | -52.2 | ||
| 2013-05-27T00:04 | 11300 | 239 | 306 | 2 | ||
| 2013-05-27T00:05 | 11689 | 226 | 305 | 2 | ||
| 2013-05-27T00:06 | 12067 | 213 | 323 | 3 | ||
| 2013-05-27T00:07 | 12440 | 201 | 324 | 2 | ||
| 2013-05-27T00:08 | 12779 | 191 | -56.4 | |||
| 2013-05-27T00:08 | 12822 | 190 | 206 | 1 | ||
| 2013-05-27T00:09 | 13195 | 179 | -59.3 | 100 | 3 | |
| 2013-05-27T00:10 | 13594 | 168 | 82 | 13 | ||
| 2013-05-27T00:11 | 13979 | 157 | 69 | 12 | ||
| 2013-05-27T00:11 | 14018 | 156 | -65.6 | |||
| 2013-05-27T00:12 | 14351 | 148 | 66 | 14 | ||
| 2013-05-27T00:13 | 14728 | 139 | 70 | 14 | ||
| 2013-05-27T00:14 | 15053 | 131 | -74.8 | |||
| 2013-05-27T00:14 | 15115 | 130 | 63 | 10 | ||
| 2013-05-27T00:15 | 15455 | 123 | -76.0 | |||
| 2013-05-27T00:15 | 15498 | 122 | 20 | 7 | ||
| 2013-05-27T00:15 | 15555 | 120 | -74.9 | |||
| 2013-05-27T00:16 | 15785 | 116 | -75.5 | |||
| 2013-05-27T00:16 | 15882 | 114 | -74.2 | |||
| 2013-05-27T00:16 | 15918 | 113 | 359 | 12 | ||
| 2013-05-27T00:17 | 16169 | 108 | -75.6 | |||
| 2013-05-27T00:17 | 16326 | 105 | 39 | 13 | ||
| 2013-05-27T00:17 | 16448 | 103 | -76.0 | |||
| 2013-05-27T00:18 | 16733 | 98 | 31 | 9 | ||
| 2013-05-27T00:18 | 16821 | 97 | -78.7 | |||
| 2013-05-27T00:19 | 17062 | 93 | -77.6 | |||
| 2013-05-27T00:19 | 17199 | 91 | 26 | 15 | ||
| 2013-05-27T00:20 | 17645 | 84 | 34 | 14 | ||
| 2013-05-27T00:20 | 17762 | 82 | -78.8 | |||
| 2013-05-27T00:21 | 18026 | 78 | 46 | 16 | ||
| 2013-05-27T00:21 | 18077 | 78 | -76.4 | |||
| 2013-05-27T00:22 | 18251 | 75 | -75.9 | |||
| 2013-05-27T00:22 | 18375 | 74 | 60 | 13 | ||
| 2013-05-27T00:23 | 18550 | 72 | -75.8 | |||
| 2013-05-27T00:23 | 18731 | 69 | -73.8 | 56 | 15 | |
| 2013-05-27T00:24 | 19010 | 66 | -70.2 | |||
| 2013-05-27T00:24 | 19092 | 65 | 69 | 16 | ||
| 2013-05-27T00:24 | 19221 | 64 | -68.7 | |||
| 2013-05-27T00:25 | 19441 | 62 | 84 | 15 | ||
| 2013-05-27T00:26 | 19792 | 58 | -68.1 | |||
| 2013-05-27T00:26 | 19802 | 58 | 90 | 9 | ||
| 2013-05-27T00:27 | 20003 | 56 | -66.4 | |||
| 2013-05-27T00:27 | 20179 | 54 | 54 | 8 | ||
| 2013-05-27T00:27 | 20224 | 54 | -65.4 | |||
| 2013-05-27T00:28 | 20548 | 51 | 49 | 10 | ||
| 2013-05-27T00:28 | 20632 | 51 | -65.0 | |||
| 2013-05-27T00:29 | 20917 | 48 | 86 | 11 | ||
| 2013-05-27T00:29 | 20995 | 48 | -62.4 | |||
| 2013-05-27T00:30 | 21301 | 45 | 92 | 10 | ||
| 2013-05-27T00:31 | 21683 | 43 | 84 | 14 | ||
| 2013-05-27T00:32 | 21890 | 41 | -60.0 | |||
| 2013-05-27T00:32 | 22059 | 40 | 78 | 16 | ||
| 2013-05-27T00:33 | 22444 | 38 | 79 | 15 | ||
| 2013-05-27T00:33 | 22461 | 38 | -60.0 | |||
| 2013-05-27T00:34 | 22838 | 35 | 75 | 14 | ||
| 2013-05-27T00:35 | 23239 | 33 | 86 | 16 | ||
| 2013-05-27T00:36 | 23630 | 31 | 90 | 15 | ||
| 2013-05-27T00:37 | 24047 | 29 | 93 | 15 | ||
| 2013-05-27T00:37 | 24200 | 29 | -57.5 | |||
| 2013-05-27T00:38 | 24449 | 27 | 104 | 18 | ||
| 2013-05-27T00:39 | 24756 | 26 | -56.5 | |||
| 2013-05-27T00:39 | 24829 | 26 | 105 | 17 | ||
| 2013-05-27T00:40 | 25212 | 24 | 117 | 14 | ||
| 2013-05-27T00:41 | 25483 | 23 | -52.4 | |||
| 2013-05-27T00:41 | 25623 | 23 | 94 | 19 | ||
| 2013-05-27T00:42 | 26066 | 21 | -49.8 | 108 | 16 | |
| 2013-05-27T00:43 | 26511 | 20 | -49.8 | 100 | 9 | |
| 2013-05-27T00:44 | 26919 | 19 | 93 | 7 | ||
| 2013-05-27T00:45 | 27318 | 18 | -47.5 | 76 | 6 | |
| 2013-05-27T00:46 | 27784 | 16 | 75 | 10 | ||
| 2013-05-27T00:47 | 28197 | 15 | 81 | 17 | ||
| 2013-05-27T00:48 | 28547 | 15 | -49.3 | |||
| 2013-05-27T00:48 | 28683 | 14 | 104 | 20 | ||
| 2013-05-27T00:49 | 29063 | 14 | 123 | 21 | ||
| 2013-05-27T00:50 | 29367 | 13 | -44.8 | |||
| 2013-05-27T00:50 | 29472 | 13 | 135 | 20 | ||
| 2013-05-27T00:51 | 29741 | 12 | -43.5 | |||
| 2013-05-27T11:30 | 8 | 1008 | 27.9 | 25.3 | 170 | 5 |
| 2013-05-27T11:30 | 18 | 1007 | 27.3 | 26.2 | ||
| 2013-05-27T11:31 | 146 | 993 | 26.1 | 23.6 | ||
| 2013-05-27T11:31 | 164 | 991 | 25.9 | 23.6 | ||
| 2013-05-27T11:31 | 306 | 975 | 185 | 8 | ||
| 2013-05-27T11:32 | 560 | 947 | 23.2 | 21.5 | ||
| 2013-05-27T11:32 | 670 | 935 | 199 | 10 | ||
| 2013-05-27T11:32 | 763 | 925 | 22.2 | 20.3 | ||
| 2013-05-27T11:33 | 1024 | 898 | 217 | 10 | ||
| 2013-05-27T11:34 | 1218 | 878 | 19.2 | 18.5 | ||
| 2013-05-27T11:34 | 1388 | 861 | 224 | 9 | ||
| 2013-05-27T11:35 | 1712 | 829 | 16.0 | 15.7 | ||
| 2013-05-27T11:35 | 1747 | 826 | 228 | 9 | ||
| 2013-05-27T11:35 | 1764 | 824 | 15.6 | 15.1 | ||
| 2013-05-27T11:35 | 1793 | 821 | 15.9 | 15.9 | ||
| 2013-05-27T11:36 | 1958 | 805 | 15.1 | 14.3 | ||
| 2013-05-27T11:36 | 2085 | 793 | 15.2 | 14.1 | ||
| 2013-05-27T11:36 | 2090 | 793 | 229 | 6 | ||
| 2013-05-27T11:36 | 2119 | 790 | 16.4 | 12.9 | ||
| 2013-05-27T11:36 | 2240 | 779 | 16.9 | 8.8 | ||
| 2013-05-27T11:37 | 2336 | 770 | 16.8 | 8.2 | ||
| 2013-05-27T11:37 | 2415 | 763 | 216 | 7 | ||
| 2013-05-27T11:37 | 2498 | 756 | 16.4 | 6.0 | ||
| 2013-05-27T11:38 | 2629 | 744 | 16.0 | 5.0 | ||
| 2013-05-27T11:38 | 2752 | 734 | 217 | 7 | ||
| 2013-05-27T11:38 | 2842 | 726 | 14.3 | 4.6 | ||
| 2013-05-27T11:39 | 3006 | 712 | 13.0 | 3.1 | ||
| 2013-05-27T11:39 | 3116 | 703 | 222 | 5 | ||
| 2013-05-27T11:39 | 3195 | 696 | 11.3 | 3.1 | ||
| 2013-05-27T11:39 | 3219 | 694 | 11.1 | 3.6 | ||
| 2013-05-27T11:40 | 3351 | 683 | 10.2 | 1.6 | ||
| 2013-05-27T11:40 | 3453 | 675 | 9.3 | 3.3 | ||
| 2013-05-27T11:40 | 3491 | 672 | 216 | 5 | ||
| 2013-05-27T11:40 | 3523 | 669 | 9.1 | 2.9 | ||
| 2013-05-27T11:40 | 3548 | 667 | 9.1 | 2.0 | ||
| 2013-05-27T11:41 | 3817 | 646 | 7.6 | 0.8 | ||
| 2013-05-27T11:41 | 3858 | 643 | 207 | 7 | ||
| 2013-05-27T11:41 | 3863 | 642 | 7.6 | -1.4 | ||
| 2013-05-27T11:41 | 4002 | 631 | 6.6 | -2.8 | ||
| 2013-05-27T11:41 | 4020 | 630 | 6.4 | -0.1 | ||
| 2013-05-27T11:42 | 4095 | 624 | 5.7 | 0.9 | ||
| 2013-05-27T11:42 | 4125 | 622 | 5.6 | 0.4 | ||
| 2013-05-27T11:42 | 4224 | 615 | 215 | 6 | ||
| 2013-05-27T11:42 | 4272 | 611 | 4.6 | 0.6 | ||
| 2013-05-27T11:43 | 4442 | 598 | 4.2 | 0.2 | ||
| 2013-05-27T11:43 | 4590 | 588 | 233 | 8 | ||
| 2013-05-27T11:43 | 4610 | 586 | 3.0 | -1.9 | ||
| 2013-05-27T11:43 | 4667 | 582 | 2.6 | -3.5 | ||
| 2013-05-27T11:43 | 4686 | 581 | 2.5 | -3.6 | ||
| 2013-05-27T11:43 | 4699 | 580 | 2.4 | -3.7 | ||
| 2013-05-27T11:44 | 4976 | 560 | 222 | 7 | ||
| 2013-05-27T11:44 | 4989 | 559 | 0.7 | -4.1 | ||
| 2013-05-27T11:45 | 5221 | 543 | -0.2 | -6.0 | ||
| 2013-05-27T11:45 | 5328 | 536 | -0.4 | -11.5 | ||
| 2013-05-27T11:45 | 5353 | 534 | 226 | 10 | ||
| 2013-05-27T11:45 | 5434 | 529 | -1.2 | -10.6 | ||
| 2013-05-27T11:45 | 5498 | 525 | -1.6 | -9.9 | ||
| 2013-05-27T11:46 | 5552 | 521 | -1.8 | -11.6 | ||
| 2013-05-27T11:46 | 5664 | 514 | -2.7 | -10.5 | ||
| 2013-05-27T11:46 | 5727 | 510 | 224 | 9 | ||
| 2013-05-27T11:46 | 5823 | 504 | -3.5 | -13.5 | ||
| 2013-05-27T11:46 | 5897 | 499 | -3.7 | -16.0 | ||
| 2013-05-27T11:47 | 5962 | 495 | -3.6 | -18.3 | ||
| 2013-05-27T11:47 | 6085 | 487 | -3.9 | -27.5 | ||
| 2013-05-27T11:47 | 6091 | 487 | 232 | 11 | ||
| 2013-05-27T11:47 | 6259 | 477 | -4.9 | -27.6 | ||
| 2013-05-27T11:48 | 6442 | 466 | -6.3 | -25.1 | ||
| 2013-05-27T11:48 | 6462 | 464 | 210 | 12 | ||
| 2013-05-27T11:48 | 6625 | 455 | -7.7 | -29.9 | ||
| 2013-05-27T11:49 | 6834 | 443 | 207 | 12 | ||
| 2013-05-27T11:50 | 7209 | 422 | 219 | 12 | ||
| 2013-05-27T11:51 | 7595 | 401 | -15.5 | -38.5 | 211 | 13 |
| 2013-05-27T11:52 | 7896 | 385 | -17.0 | -40.6 | ||
| 2013-05-27T11:52 | 7978 | 381 | 195 | 16 | ||
| 2013-05-27T11:52 | 8027 | 378 | -17.3 | -40.8 | ||
| 2013-05-27T11:53 | 8161 | 372 | -18.6 | -31.9 | ||
| 2013-05-27T11:53 | 8215 | 369 | -18.6 | -29.1 | ||
| 2013-05-27T11:53 | 8270 | 366 | -17.7 | -34.3 | ||
| 2013-05-27T11:53 | 8338 | 363 | -17.6 | -46.7 | ||
| 2013-05-27T11:53 | 8344 | 363 | 178 | 15 | ||
| 2013-05-27T11:54 | 8701 | 346 | 171 | 9 | ||
| 2013-05-27T11:55 | 8959 | 334 | -22.3 | -56.1 | ||
| 2013-05-27T11:55 | 9081 | 328 | 189 | 7 | ||
| 2013-05-27T11:56 | 9375 | 315 | -26.1 | -46.4 | ||
| 2013-05-27T11:56 | 9474 | 311 | -27.0 | -46.5 | 192 | 5 |
| 2013-05-27T11:57 | 9877 | 294 | 211 | 6 | ||
| 2013-05-27T11:57 | 9889 | 293 | -29.7 | -61.4 | ||
| 2013-05-27T11:58 | 10293 | 277 | 209 | 8 | ||
| 2013-05-27T11:58 | 10491 | 269 | -35.3 | -54.7 | ||
| 2013-05-27T11:59 | 10711 | 261 | 225 | 7 | ||
| 2013-05-27T12:00 | 11000 | 250 | -40.0 | -55.7 | ||
| 2013-05-27T12:00 | 11132 | 245 | 217 | 6 | ||
| 2013-05-27T12:01 | 11543 | 231 | 254 | 4 | ||
| 2013-05-27T12:02 | 11959 | 217 | 262 | 6 | ||
| 2013-05-27T12:03 | 12377 | 204 | 233 | 7 | ||
| 2013-05-27T12:04 | 12783 | 191 | 208 | 7 | ||
| 2013-05-27T12:04 | 12854 | 189 | -54.7 | |||
| 2013-05-27T12:05 | 13196 | 179 | 179 | 6 | ||
| 2013-05-27T12:06 | 13596 | 168 | 168 | 5 | ||
| 2013-05-27T12:07 | 14004 | 157 | 159 | 5 | ||
| 2013-05-27T12:07 | 14185 | 153 | -66.7 | |||
| 2013-05-27T12:08 | 14467 | 146 | 130 | 6 | ||
| 2013-05-27T12:09 | 14806 | 138 | -71.9 | |||
| 2013-05-27T12:09 | 14901 | 135 | 88 | 4 | ||
| 2013-05-27T12:09 | 15007 | 133 | -71.5 | |||
| 2013-05-27T12:10 | 15394 | 124 | 27 | 9 | ||
| 2013-05-27T12:10 | 15574 | 121 | -76.1 | |||
| 2013-05-27T12:11 | 15834 | 115 | 50 | 12 | ||
| 2013-05-27T12:11 | 15854 | 115 | -75.0 | |||
| 2013-05-27T12:11 | 16033 | 111 | -75.8 | |||
| 2013-05-27T12:12 | 16244 | 107 | -75.3 | |||
| 2013-05-27T12:12 | 16304 | 106 | 58 | 13 | ||
| 2013-05-27T12:13 | 16639 | 100 | -77.0 | |||
| 2013-05-27T12:13 | 16760 | 98 | 36 | 11 | ||
| 2013-05-27T12:14 | 16999 | 94 | -77.0 | |||
| 2013-05-27T12:14 | 17160 | 92 | 43 | 12 | ||
| 2013-05-27T12:15 | 17437 | 87 | -76.2 | |||
| 2013-05-27T12:15 | 17524 | 86 | 36 | 15 | ||
| 2013-05-27T12:16 | 17884 | 81 | 50 | 16 | ||
| 2013-05-27T12:17 | 18163 | 77 | -74.9 | |||
| 2013-05-27T12:17 | 18231 | 76 | 56 | 14 | ||
| 2013-05-27T12:18 | 18577 | 72 | 60 | 15 | ||
| 2013-05-27T12:19 | 18774 | 69 | -74.8 | |||
| 2013-05-27T12:19 | 18911 | 68 | -71.6 | |||
| 2013-05-27T12:19 | 18928 | 68 | 81 | 12 | ||
| 2013-05-27T12:20 | 19272 | 64 | 62 | 9 | ||
| 2013-05-27T12:20 | 19347 | 63 | -69.5 | |||
| 2013-05-27T12:21 | 19619 | 60 | 50 | 10 | ||
| 2013-05-27T12:21 | 19649 | 60 | -68.8 | |||
| 2013-05-27T12:22 | 19989 | 57 | 55 | 12 | ||
| 2013-05-27T12:22 | 20161 | 55 | -68.2 | |||
| 2013-05-27T12:23 | 20339 | 53 | 74 | 10 | ||
| 2013-05-27T12:24 | 20512 | 52 | -65.9 | |||
| 2013-05-27T12:24 | 20679 | 50 | 78 | 10 | ||
| 2013-05-27T12:24 | 20691 | 50 | -64.1 | |||
| 2013-05-27T12:25 | 21016 | 48 | -63.5 | |||
| 2013-05-27T12:25 | 21029 | 48 | 70 | 9 | ||
| 2013-05-27T12:26 | 21415 | 45 | 63 | 14 | ||
| 2013-05-27T12:26 | 21526 | 44 | -62.9 | |||
| 2013-05-27T12:27 | 21785 | 42 | 74 | 11 | ||
| 2013-05-27T12:28 | 22151 | 40 | 79 | 14 | ||
| 2013-05-27T12:29 | 22361 | 38 | -57.2 | |||
| 2013-05-27T12:29 | 22511 | 38 | 87 | 14 | ||
| 2013-05-27T12:30 | 22894 | 35 | 88 | 13 | ||
| 2013-05-27T12:31 | 23303 | 33 | 99 | 10 | ||
| 2013-05-27T12:32 | 23699 | 31 | 64 | 9 | ||
| 2013-05-27T12:32 | 23782 | 31 | -55.3 | |||
| 2013-05-27T12:33 | 24102 | 29 | 50 | 6 | ||
| 2013-05-27T12:34 | 24325 | 28 | -54.5 | |||
| 2013-05-27T12:34 | 24486 | 28 | 53 | 10 | ||
| 2013-05-27T12:35 | 24895 | 26 | 60 | 9 | ||
| 2013-05-27T12:36 | 25306 | 24 | 60 | 12 | ||
| 2013-05-27T12:37 | 25747 | 23 | 70 | 15 | ||
| 2013-05-27T12:37 | 25891 | 22 | -52.7 | |||
| 2013-05-27T12:38 | 26160 | 21 | 84 | 13 | ||
| 2013-05-27T12:38 | 26221 | 21 | -51.5 | |||
| 2013-05-27T12:39 | 26571 | 20 | 65 | 19 | ||
| 2013-05-27T12:40 | 26978 | 19 | 80 | 21 | ||
| 2013-05-27T12:41 | 27303 | 18 | -47.9 | |||
| 2013-05-27T12:41 | 27378 | 18 | 99 | 23 | ||
| 2013-05-27T12:41 | 27415 | 18 | -46.0 | |||
| 2013-05-27T23:31 | 8 | 1009 | 29.2 | 26.4 | 180 | 5 |
| 2013-05-27T23:31 | 17 | 1008 | 27.4 | 26.9 | ||
| 2013-05-27T23:31 | 85 | 1001 | 27.2 | 25.4 | ||
| 2013-05-27T23:32 | 313 | 975 | 189 | 12 | ||
| 2013-05-27T23:32 | 407 | 965 | 25.2 | 22.1 | ||
| 2013-05-27T23:33 | 559 | 948 | 24.9 | 20.8 | ||
| 2013-05-27T23:33 | 678 | 936 | 206 | 12 | ||
| 2013-05-27T23:33 | 731 | 930 | 23.6 | 19.7 | ||
| 2013-05-27T23:34 | 937 | 908 | 22.2 | 18.4 | ||
| 2013-05-27T23:34 | 1013 | 901 | 212 | 11 | ||
| 2013-05-27T23:35 | 1201 | 881 | 20.7 | 16.3 | ||
| 2013-05-27T23:35 | 1346 | 867 | 216 | 14 | ||
| 2013-05-27T23:35 | 1384 | 863 | 19.7 | 14.7 | ||
| 2013-05-27T23:36 | 1520 | 849 | 19.3 | 14.3 | ||
| 2013-05-27T23:36 | 1674 | 834 | 222 | 14 | ||
| 2013-05-27T23:36 | 1836 | 819 | 17.5 | 12.6 | ||
| 2013-05-27T23:37 | 2025 | 801 | 228 | 11 | ||
| 2013-05-27T23:37 | 2031 | 800 | 17.2 | 10.6 | ||
| 2013-05-27T23:37 | 2082 | 795 | 16.8 | 10.2 | ||
| 2013-05-27T23:37 | 2177 | 787 | 16.3 | 10.2 | ||
| 2013-05-27T23:37 | 2182 | 786 | 16.3 | 10.2 | ||
| 2013-05-27T23:38 | 2276 | 778 | 15.9 | 10.0 | ||
| 2013-05-27T23:38 | 2294 | 776 | 16.0 | 10.5 | ||
| 2013-05-27T23:38 | 2315 | 774 | 15.9 | 10.7 | ||
| 2013-05-27T23:38 | 2359 | 770 | 16.0 | 9.2 | 220 | 8 |
| 2013-05-27T23:38 | 2370 | 769 | 16.4 | 9.6 | ||
| 2013-05-27T23:39 | 2689 | 741 | 232 | 4 | ||
| 2013-05-27T23:40 | 2931 | 720 | 12.1 | 6.8 | ||
| 2013-05-27T23:40 | 3041 | 710 | 218 | 6 | ||
| 2013-05-27T23:41 | 3224 | 695 | 9.7 | 5.7 | ||
| 2013-05-27T23:41 | 3405 | 680 | 227 | 9 | ||
| 2013-05-27T23:41 | 3418 | 679 | 9.0 | 4.4 | ||
| 2013-05-27T23:42 | 3603 | 664 | 8.0 | 3.1 | ||
| 2013-05-27T23:42 | 3764 | 651 | 221 | 9 | ||
| 2013-05-27T23:42 | 3847 | 645 | 7.7 | 1.8 | ||
| 2013-05-27T23:43 | 4088 | 626 | 235 | 9 | ||
| 2013-05-27T23:44 | 4424 | 601 | 222 | 11 | ||
| 2013-05-27T23:44 | 4454 | 598 | 2.9 | -1.3 | ||
| 2013-05-27T23:44 | 4478 | 597 | 2.9 | -0.4 | ||
| 2013-05-27T23:44 | 4555 | 591 | 2.3 | -1.9 | ||
| 2013-05-27T23:44 | 4570 | 590 | 2.3 | -3.2 | ||
| 2013-05-27T23:45 | 4652 | 584 | 1.7 | -1.0 | ||
| 2013-05-27T23:45 | 4776 | 575 | 1.0 | -2.9 | 223 | 11 |
| 2013-05-27T23:45 | 4941 | 563 | -0.4 | -3.1 | ||
| 2013-05-27T23:46 | 5128 | 550 | 221 | 10 | ||
| 2013-05-27T23:46 | 5157 | 548 | -1.5 | -4.8 | ||
| 2013-05-27T23:46 | 5274 | 540 | -2.0 | -5.7 | ||
| 2013-05-27T23:47 | 5444 | 529 | -2.4 | -9.8 | ||
| 2013-05-27T23:47 | 5479 | 527 | 218 | 12 | ||
| 2013-05-27T23:47 | 5616 | 518 | -3.2 | -10.5 | ||
| 2013-05-27T23:48 | 5666 | 514 | -3.2 | -11.4 | ||
| 2013-05-27T23:48 | 5829 | 504 | 227 | 12 | ||
| 2013-05-27T23:48 | 5839 | 503 | -4.4 | -13.3 | ||
| 2013-05-27T23:48 | 5992 | 493 | -5.7 | -16.3 | ||
| 2013-05-27T23:49 | 6167 | 483 | -6.3 | -18.9 | ||
| 2013-05-27T23:49 | 6178 | 482 | 216 | 12 | ||
| 2013-05-27T23:49 | 6232 | 479 | -6.7 | -19.3 | ||
| 2013-05-27T23:49 | 6303 | 474 | -6.6 | -23.9 | ||
| 2013-05-27T23:50 | 6357 | 471 | -6.9 | -22.4 | ||
| 2013-05-27T23:50 | 6434 | 466 | -7.3 | -25.4 | ||
| 2013-05-27T23:50 | 6531 | 461 | 231 | 10 | ||
| 2013-05-27T23:50 | 6606 | 456 | -8.6 | -24.7 | ||
| 2013-05-27T23:51 | 6722 | 449 | -9.0 | -25.9 | ||
| 2013-05-27T23:51 | 6866 | 441 | -9.9 | -29.8 | ||
| 2013-05-27T23:51 | 6885 | 440 | 245 | 12 | ||
| 2013-05-27T23:52 | 7116 | 427 | -11.9 | -29.4 | ||
| 2013-05-27T23:52 | 7253 | 419 | 244 | 10 | ||
| 2013-05-27T23:52 | 7428 | 410 | -14.8 | -30.5 | ||
| 2013-05-27T23:53 | 7609 | 400 | -16.5 | -26.2 | 251 | 9 |
| 2013-05-27T23:53 | 7671 | 397 | -16.9 | -33.2 | ||
| 2013-05-27T23:54 | 7868 | 386 | -17.8 | -39.6 | ||
| 2013-05-27T23:54 | 7964 | 382 | -18.2 | -36.2 | 224 | 11 |
| 2013-05-27T23:54 | 8038 | 378 | -18.8 | -28.8 | ||
| 2013-05-27T23:54 | 8104 | 374 | -19.3 | -28.5 | ||
| 2013-05-27T23:55 | 8216 | 369 | -19.6 | -34.3 | ||
| 2013-05-27T23:55 | 8352 | 362 | 213 | 17 | ||
| 2013-05-27T23:55 | 8500 | 355 | -21.8 | -40.9 | ||
| 2013-05-27T23:56 | 8596 | 350 | -21.8 | -43.6 | ||
| 2013-05-27T23:56 | 8738 | 344 | 200 | 17 | ||
| 2013-05-27T23:57 | 9030 | 330 | -24.9 | -46.2 | ||
| 2013-05-27T23:57 | 9125 | 326 | 201 | 14 | ||
| 2013-05-27T23:57 | 9242 | 321 | -26.4 | -42.7 | ||
| 2013-05-27T23:58 | 9394 | 314 | -27.7 | -41.0 | ||
| 2013-05-27T23:58 | 9488 | 310 | 200 | 12 | ||
| 2013-05-27T23:58 | 9633 | 304 | -29.1 | -42.6 | ||
| 2013-05-27T23:59 | 9687 | 301 | -29.5 | -42.9 | ||
| 2013-05-27T23:59 | 9859 | 294 | 221 | 11 | ||
| 2013-05-27T23:59 | 9986 | 289 | -31.4 | -45.7 | ||
| 2013-05-28T00:00 | 10244 | 279 | 215 | 11 | ||
| 2013-05-28T00:01 | 10637 | 263 | 211 | 12 | ||
| 2013-05-28T00:01 | 10684 | 261 | -37.7 | -53.8 | ||
| 2013-05-28T00:02 | 10931 | 252 | -40.1 | |||
| 2013-05-28T00:02 | 11043 | 248 | 220 | 12 | ||
| 2013-05-28T00:03 | 11434 | 234 | 220 | 11 | ||
| 2013-05-28T00:04 | 11823 | 221 | 219 | 11 | ||
| 2013-05-28T00:05 | 12233 | 207 | 234 | 9 | ||
| 2013-05-28T00:05 | 12273 | 206 | -51.8 | |||
| 2013-05-28T00:06 | 12620 | 195 | 209 | 5 | ||
| 2013-05-28T00:07 | 12968 | 185 | -56.7 | |||
| 2013-05-28T00:07 | 12999 | 184 | 209 | 7 | ||
| 2013-05-28T00:08 | 13408 | 172 | 234 | 4 | ||
| 2013-05-28T00:08 | 13426 | 172 | -60.1 | |||
| 2013-05-28T00:09 | 13778 | 162 | 317 | 2 | ||
| 2013-05-28T00:10 | 14144 | 153 | 348 | 5 | ||
| 2013-05-28T00:11 | 14489 | 145 | 358 | 6 | ||
| 2013-05-28T00:12 | 14838 | 136 | 15 | 5 | ||
| 2013-05-28T00:12 | 14899 | 135 | -71.0 | |||
| 2013-05-28T00:13 | 15213 | 128 | 357 | 9 | ||
| 2013-05-28T00:13 | 15376 | 124 | -73.4 | |||
| 2013-05-28T00:14 | 15586 | 120 | 41 | 9 | ||
| 2013-05-28T00:14 | 15798 | 116 | -75.1 | |||
| 2013-05-28T00:15 | 16007 | 112 | -75.3 | |||
| 2013-05-28T00:15 | 16049 | 111 | 69 | 8 | ||
| 2013-05-28T00:16 | 16508 | 102 | 12 | 12 | ||
| 2013-05-28T00:16 | 16610 | 101 | -78.0 | |||
| 2013-05-28T00:17 | 16895 | 96 | 29 | 16 | ||
| 2013-05-28T00:17 | 17089 | 92 | -78.8 | |||
| 2013-05-28T00:18 | 17354 | 88 | 49 | 18 | ||
| 2013-05-28T00:19 | 17806 | 82 | -76.8 | |||
| 2013-05-28T00:19 | 17841 | 81 | 69 | 17 | ||
| 2013-05-28T00:20 | 18307 | 75 | 60 | 15 | ||
| 2013-05-28T00:20 | 18377 | 74 | -76.5 | |||
| 2013-05-28T00:21 | 18741 | 69 | 66 | 14 | ||
| 2013-05-28T00:21 | 18860 | 68 | -74.1 | |||
| 2013-05-28T00:22 | 18991 | 66 | -72.4 | |||
| 2013-05-28T00:22 | 19116 | 65 | 54 | 10 | ||
| 2013-05-28T00:23 | 19225 | 64 | -72.4 | |||
| 2013-05-28T00:23 | 19244 | 64 | -71.7 | |||
| 2013-05-28T11:31 | 8 | 1010 | 28.5 | 26.5 | 190 | 5 |
| 2013-05-28T11:31 | 19 | 1009 | 28.0 | 27.7 | ||
| 2013-05-28T11:32 | 186 | 990 | 26.9 | 25.1 | ||
| 2013-05-28T11:32 | 262 | 982 | 26.7 | 23.6 | ||
| 2013-05-28T11:32 | 335 | 974 | 196 | 9 | ||
| 2013-05-28T11:32 | 448 | 961 | 25.3 | 22.4 | ||
| 2013-05-28T11:33 | 681 | 936 | 23.2 | 22.4 | 203 | 10 |
| 2013-05-28T11:33 | 754 | 928 | 23.5 | 20.3 | ||
| 2013-05-28T11:34 | 855 | 918 | 22.9 | 19.7 | ||
| 2013-05-28T11:34 | 929 | 910 | 22.3 | 21.1 | ||
| 2013-05-28T11:34 | 1020 | 900 | 208 | 9 | ||
| 2013-05-28T11:35 | 1233 | 879 | 21.1 | 18.3 | ||
| 2013-05-28T11:35 | 1267 | 875 | 21.2 | 17.6 | ||
| 2013-05-28T11:35 | 1289 | 873 | 21.4 | 17.2 | ||
| 2013-05-28T11:35 | 1356 | 866 | 210 | 7 | ||
| 2013-05-28T11:36 | 1532 | 849 | 19.5 | 15.4 | ||
| 2013-05-28T11:36 | 1654 | 837 | 19.0 | 14.9 | ||
| 2013-05-28T11:36 | 1683 | 834 | 19.0 | 14.7 | ||
| 2013-05-28T11:36 | 1701 | 832 | 271 | 2 | ||
| 2013-05-28T11:36 | 1782 | 825 | 19.4 | 13.3 | ||
| 2013-05-28T11:37 | 1956 | 808 | 18.2 | 12.4 | ||
| 2013-05-28T11:37 | 2048 | 800 | 252 | 2 | ||
| 2013-05-28T11:38 | 2229 | 783 | 16.8 | 10.9 | ||
| 2013-05-28T11:38 | 2384 | 769 | 236 | 4 | ||
| 2013-05-28T11:38 | 2437 | 764 | 16.3 | 9.7 | ||
| 2013-05-28T11:39 | 2680 | 742 | 15.2 | 8.4 | ||
| 2013-05-28T11:39 | 2738 | 737 | 209 | 4 | ||
| 2013-05-28T11:40 | 3013 | 714 | 12.8 | 7.3 | ||
| 2013-05-28T11:40 | 3067 | 709 | 12.5 | 7.2 | ||
| 2013-05-28T11:40 | 3097 | 707 | 214 | 5 | ||
| 2013-05-28T11:41 | 3457 | 677 | 207 | 8 | ||
| 2013-05-28T11:41 | 3540 | 670 | 9.3 | 5.1 | ||
| 2013-05-28T11:42 | 3836 | 647 | 222 | 7 | ||
| 2013-05-28T11:42 | 3853 | 645 | 7.4 | 4.0 | ||
| 2013-05-28T11:43 | 4190 | 619 | 242 | 6 | ||
| 2013-05-28T11:43 | 4254 | 615 | 5.0 | 1.3 | ||
| 2013-05-28T11:44 | 4545 | 593 | 2.8 | 0.5 | ||
| 2013-05-28T11:44 | 4559 | 592 | 224 | 5 | ||
| 2013-05-28T11:45 | 4823 | 573 | 1.4 | -1.0 | ||
| 2013-05-28T11:45 | 4942 | 565 | 209 | 6 | ||
| 2013-05-28T11:45 | 4973 | 562 | 1.2 | -2.9 | ||
| 2013-05-28T11:45 | 5038 | 558 | 1.1 | -5.4 | ||
| 2013-05-28T11:45 | 5063 | 556 | 1.2 | -6.6 | ||
| 2013-05-28T11:45 | 5102 | 553 | 1.5 | -8.1 | ||
| 2013-05-28T11:46 | 5134 | 551 | 1.3 | -4.2 | ||
| 2013-05-28T11:46 | 5153 | 550 | 1.3 | -4.8 | ||
| 2013-05-28T11:46 | 5172 | 549 | 1.7 | -10.5 | ||
| 2013-05-28T11:46 | 5249 | 543 | 1.2 | -11.9 | ||
| 2013-05-28T11:46 | 5329 | 538 | 200 | 4 | ||
| 2013-05-28T11:46 | 5405 | 533 | -0.2 | -11.0 | ||
| 2013-05-28T11:46 | 5449 | 530 | -0.6 | -11.6 | ||
| 2013-05-28T11:47 | 5613 | 519 | -2.0 | -12.9 | ||
| 2013-05-28T11:47 | 5705 | 513 | 225 | 5 | ||
| 2013-05-28T11:48 | 5896 | 501 | -4.2 | -14.9 | ||
| 2013-05-28T11:48 | 6071 | 490 | 195 | 5 | ||
| 2013-05-28T11:49 | 6394 | 470 | -7.6 | -19.2 | ||
| 2013-05-28T11:49 | 6424 | 468 | 195 | 5 | ||
| 2013-05-28T11:49 | 6506 | 463 | -8.6 | -17.6 | ||
| 2013-05-28T11:50 | 6613 | 457 | -9.5 | -17.1 | ||
| 2013-05-28T11:50 | 6777 | 447 | -10.7 | -19.6 | ||
| 2013-05-28T11:50 | 6784 | 447 | 211 | 4 | ||
| 2013-05-28T11:50 | 6839 | 444 | -10.8 | -20.7 | ||
| 2013-05-28T11:50 | 6905 | 440 | -11.1 | -21.0 | ||
| 2013-05-28T11:51 | 6986 | 435 | -11.3 | -28.8 | ||
| 2013-05-28T11:51 | 7090 | 430 | -12.0 | -27.2 | ||
| 2013-05-28T11:51 | 7140 | 427 | 199 | 2 | ||
| 2013-05-28T11:51 | 7201 | 423 | -12.6 | -22.9 | ||
| 2013-05-28T11:52 | 7341 | 416 | -13.5 | -27.4 | ||
| 2013-05-28T11:52 | 7494 | 407 | -14.6 | -23.2 | ||
| 2013-05-28T11:52 | 7518 | 406 | 250 | 5 | ||
| 2013-05-28T11:53 | 7743 | 394 | -16.4 | -23.8 | ||
| 2013-05-28T11:53 | 7860 | 388 | -17.2 | -25.6 | ||
| 2013-05-28T11:53 | 7906 | 386 | 233 | 5 | ||
| 2013-05-28T11:53 | 7926 | 385 | -17.7 | -25.8 | ||
| 2013-05-28T11:53 | 8034 | 379 | -18.2 | -26.1 | ||
| 2013-05-28T11:54 | 8207 | 370 | -19.0 | -32.3 | ||
| 2013-05-28T11:54 | 8306 | 366 | 236 | 7 | ||
| 2013-05-28T11:55 | 8552 | 354 | -22.1 | -29.5 | ||
| 2013-05-28T11:55 | 8691 | 347 | -23.0 | -32.1 | ||
| 2013-05-28T11:55 | 8697 | 347 | 236 | 8 | ||
| 2013-05-28T11:55 | 8878 | 338 | -24.7 | -31.5 | ||
| 2013-05-28T11:56 | 8963 | 334 | -24.9 | -32.5 | ||
| 2013-05-28T11:56 | 9048 | 330 | -25.5 | -34.9 | ||
| 2013-05-28T11:56 | 9079 | 329 | 222 | 12 | ||
| 2013-05-28T11:56 | 9167 | 325 | -26.5 | -31.8 | ||
| 2013-05-28T11:57 | 9426 | 313 | 213 | 13 | ||
| 2013-05-28T11:57 | 9433 | 313 | -28.6 | -36.0 | ||
| 2013-05-28T11:57 | 9572 | 307 | -29.2 | -46.1 | ||
| 2013-05-28T11:58 | 9800 | 297 | -30.8 | -56.8 | 208 | 14 |
| 2013-05-28T11:59 | 10187 | 282 | 196 | 13 | ||
| 2013-05-28T12:00 | 10571 | 266 | -36.9 | -57.5 | ||
| 2013-05-28T12:00 | 10592 | 266 | 191 | 12 | ||
| 2013-05-28T12:01 | 10931 | 253 | -40.0 | -60.8 | ||
| 2013-05-28T12:01 | 10991 | 251 | 199 | 10 | ||
| 2013-05-28T12:02 | 11382 | 237 | 189 | 8 | ||
| 2013-05-28T12:03 | 11786 | 223 | 190 | 6 | ||
| 2013-05-28T12:04 | 12188 | 209 | 206 | 7 | ||
| 2013-05-28T12:05 | 12408 | 202 | -52.4 | |||
| 2013-05-28T12:05 | 12569 | 197 | 196 | 6 | ||
| 2013-05-28T12:06 | 12898 | 188 | 214 | 5 | ||
| 2013-05-28T12:07 | 13269 | 177 | 283 | 4 | ||
| 2013-05-28T12:08 | 13629 | 167 | 292 | 4 | ||
| 2013-05-28T12:09 | 13905 | 160 | -63.5 | |||
| 2013-05-28T12:09 | 14006 | 157 | 248 | 1 | ||
| 2013-05-28T12:10 | 14336 | 149 | -66.0 | |||
| 2013-05-28T12:10 | 14418 | 147 | 136 | 2 | ||
| 2013-05-28T12:11 | 14874 | 136 | 11 | 7 | ||
| 2013-05-28T12:12 | 15198 | 129 | -70.6 | |||
| 2013-05-28T12:12 | 15333 | 126 | 23 | 10 | ||
| 2013-05-28T12:12 | 15547 | 121 | -72.6 | |||
| 2013-05-28T12:13 | 15824 | 116 | 44 | 12 | ||
| 2013-05-28T12:14 | 16086 | 111 | -74.4 | |||
| 2013-05-28T12:14 | 16316 | 106 | 34 | 17 | ||
| 2013-05-28T12:14 | 16544 | 102 | -75.8 | |||
| 2013-05-28T12:15 | 16797 | 98 | 41 | 20 | ||
| 2013-05-28T12:16 | 17235 | 91 | -77.9 | 49 | 23 | |
| 2013-05-28T12:17 | 17666 | 84 | 64 | 20 | ||
| 2013-05-28T12:18 | 18095 | 78 | 68 | 22 | ||
| 2013-05-28T12:18 | 18117 | 78 | -78.8 | |||
| 2013-05-28T12:19 | 18365 | 74 | -78.0 | |||
| 2013-05-28T12:19 | 18489 | 73 | 79 | 18 | ||
| 2013-05-28T12:20 | 18849 | 68 | 87 | 18 | ||
| 2013-05-28T12:20 | 18943 | 67 | -74.3 | |||
| 2013-05-28T12:21 | 19173 | 65 | -73.4 | |||
| 2013-05-28T12:21 | 19209 | 64 | 91 | 15 | ||
| 2013-05-28T12:22 | 19578 | 60 | 85 | 14 | ||
| 2013-05-28T12:22 | 19637 | 60 | -69.8 | |||
| 2013-05-28T12:23 | 19935 | 57 | 88 | 15 | ||
| 2013-05-28T12:23 | 19957 | 57 | -66.8 | |||
| 2013-05-28T12:24 | 20242 | 54 | 66 | 8 | ||
| 2013-05-28T12:24 | 20276 | 54 | -63.9 | |||
| 2013-05-28T23:31 | 8 | 1011 | 28.7 | 26.5 | 180 | 4 |
| 2013-05-28T23:31 | 19 | 1010 | 27.2 | 26.5 | ||
| 2013-05-28T23:32 | 170 | 993 | 26.2 | 24.4 | ||
| 2013-05-28T23:32 | 293 | 979 | 198 | 9 | ||
| 2013-05-28T23:32 | 344 | 974 | 25.4 | 22.1 | ||
| 2013-05-28T23:32 | 400 | 967 | 25.4 | 21.1 | ||
| 2013-05-28T23:33 | 635 | 942 | 206 | 10 | ||
| 2013-05-28T23:33 | 675 | 938 | 23.5 | 20.1 | ||
| 2013-05-28T23:33 | 760 | 929 | 23.3 | 19.5 | ||
| 2013-05-28T23:34 | 945 | 909 | 22.0 | 18.6 | ||
| 2013-05-28T23:34 | 973 | 906 | 209 | 9 | ||
| 2013-05-28T23:35 | 1163 | 887 | 21.5 | 17.1 | ||
| 2013-05-28T23:35 | 1192 | 884 | 21.5 | 16.7 | ||
| 2013-05-28T23:35 | 1227 | 880 | 21.2 | 16.6 | ||
| 2013-05-28T23:35 | 1261 | 877 | 21.3 | 14.9 | ||
| 2013-05-28T23:35 | 1319 | 871 | 20.8 | 14.5 | 208 | 8 |
| 2013-05-28T23:35 | 1371 | 866 | 20.5 | 16.3 | ||
| 2013-05-28T23:35 | 1382 | 865 | 20.4 | 16.0 | ||
| 2013-05-28T23:35 | 1461 | 857 | 20.5 | 14.6 | ||
| 2013-05-28T23:36 | 1540 | 849 | 20.2 | 13.4 | ||
| 2013-05-28T23:36 | 1661 | 837 | 204 | 6 | ||
| 2013-05-28T23:36 | 1772 | 826 | 18.8 | 11.6 | ||
| 2013-05-28T23:37 | 1927 | 812 | 17.5 | 12.0 | ||
| 2013-05-28T23:37 | 1998 | 805 | 190 | 4 | ||
| 2013-05-28T23:37 | 2152 | 790 | 16.5 | 11.4 | ||
| 2013-05-28T23:38 | 2348 | 772 | 201 | 5 | ||
| 2013-05-28T23:38 | 2414 | 767 | 14.9 | 9.9 | ||
| 2013-05-28T23:38 | 2419 | 766 | 14.9 | 9.7 | ||
| 2013-05-28T23:38 | 2453 | 763 | 14.7 | 8.6 | ||
| 2013-05-28T23:38 | 2507 | 758 | 15.0 | 8.5 | ||
| 2013-05-28T23:39 | 2593 | 750 | 14.9 | 7.5 | ||
| 2013-05-28T23:39 | 2699 | 741 | 209 | 2 | ||
| 2013-05-28T23:39 | 2711 | 740 | 14.5 | 6.8 | ||
| 2013-05-28T23:39 | 2722 | 739 | 14.5 | 6.8 | ||
| 2013-05-28T23:40 | 3035 | 712 | 249 | 3 | ||
| 2013-05-28T23:40 | 3116 | 705 | 12.7 | 4.9 | ||
| 2013-05-28T23:41 | 3362 | 685 | 250 | 4 | ||
| 2013-05-28T23:41 | 3468 | 676 | 10.6 | 2.4 | ||
| 2013-05-28T23:42 | 3697 | 658 | 253 | 4 | ||
| 2013-05-28T23:42 | 3737 | 655 | 9.2 | -1.8 | ||
| 2013-05-28T23:43 | 3882 | 643 | 8.0 | -1.8 | ||
| 2013-05-28T23:43 | 4045 | 631 | 244 | 4 | ||
| 2013-05-28T23:44 | 4250 | 615 | 5.0 | -4.0 | ||
| 2013-05-28T23:44 | 4398 | 604 | 246 | 5 | ||
| 2013-05-28T23:44 | 4529 | 595 | 3.0 | -4.0 | ||
| 2013-05-28T23:45 | 4705 | 582 | 1.9 | -5.3 | ||
| 2013-05-28T23:45 | 4738 | 579 | 255 | 4 | ||
| 2013-05-28T23:45 | 4819 | 574 | 1.2 | -4.9 | ||
| 2013-05-28T23:45 | 4832 | 573 | 1.2 | -4.2 | ||
| 2013-05-28T23:45 | 4837 | 572 | 1.1 | -4.1 | ||
| 2013-05-28T23:45 | 4861 | 571 | 1.1 | -5.0 | ||
| 2013-05-28T23:45 | 4873 | 570 | 1.1 | -5.6 | ||
| 2013-05-28T23:45 | 4890 | 569 | 1.1 | -5.0 | ||
| 2013-05-28T23:46 | 5086 | 555 | 249 | 4 | ||
| 2013-05-28T23:46 | 5113 | 553 | -0.2 | -7.7 | ||
| 2013-05-28T23:46 | 5161 | 550 | -0.6 | -11.1 | ||
| 2013-05-28T23:46 | 5208 | 546 | -0.9 | -9.8 | ||
| 2013-05-28T23:46 | 5231 | 545 | -1.1 | -7.9 | ||
| 2013-05-28T23:47 | 5290 | 541 | -1.2 | -12.2 | ||
| 2013-05-28T23:47 | 5362 | 536 | -1.8 | -8.3 | ||
| 2013-05-28T23:47 | 5444 | 530 | 258 | 3 | ||
| 2013-05-28T23:47 | 5450 | 530 | -2.3 | -10.6 | ||
| 2013-05-28T23:47 | 5482 | 528 | -2.4 | -11.9 | ||
| 2013-05-28T23:47 | 5526 | 525 | -2.7 | -12.7 | ||
| 2013-05-28T23:47 | 5577 | 522 | -3.0 | -14.1 | ||
| 2013-05-28T23:47 | 5614 | 519 | -3.3 | -15.0 | ||
| 2013-05-28T23:48 | 5646 | 517 | -3.6 | -12.8 | ||
| 2013-05-28T23:48 | 5695 | 514 | -4.0 | -9.0 | ||
| 2013-05-28T23:48 | 5709 | 513 | -4.1 | -9.7 | ||
| 2013-05-28T23:48 | 5770 | 509 | -4.7 | -10.1 | ||
| 2013-05-28T23:48 | 5818 | 506 | 263 | 4 | ||
| 2013-05-28T23:48 | 5942 | 498 | -5.4 | -11.5 | ||
| 2013-05-28T23:49 | 6188 | 483 | 241 | 6 | ||
| 2013-05-28T23:49 | 6212 | 481 | -7.1 | -13.6 | ||
| 2013-05-28T23:49 | 6290 | 476 | -7.5 | -14.3 | ||
| 2013-05-28T23:49 | 6363 | 472 | -7.9 | -13.5 | ||
| 2013-05-28T23:50 | 6464 | 466 | -8.3 | -17.6 | ||
| 2013-05-28T23:50 | 6549 | 461 | 212 | 8 | ||
| 2013-05-28T23:50 | 6625 | 456 | -8.9 | -19.5 | ||
| 2013-05-28T23:51 | 6786 | 447 | -10.1 | -22.0 | ||
| 2013-05-28T23:51 | 6904 | 440 | 202 | 8 | ||
| 2013-05-28T23:52 | 7246 | 421 | 213 | 8 | ||
| 2013-05-28T23:53 | 7450 | 410 | -16.1 | -22.1 | ||
| 2013-05-28T23:53 | 7550 | 404 | -16.5 | -23.0 | ||
| 2013-05-28T23:53 | 7612 | 401 | 212 | 6 | ||
| 2013-05-28T23:54 | 7926 | 384 | -19.4 | -28.3 | ||
| 2013-05-28T23:54 | 7998 | 381 | 184 | 7 | ||
| 2013-05-28T23:54 | 8123 | 374 | -20.1 | -31.9 | ||
| 2013-05-28T23:55 | 8195 | 371 | -20.2 | -31.7 | ||
| 2013-05-28T23:55 | 8397 | 361 | 158 | 3 | ||
| 2013-05-28T23:55 | 8411 | 360 | -21.5 | -34.8 | ||
| 2013-05-28T23:56 | 8604 | 351 | -23.0 | -37.6 | ||
| 2013-05-28T23:56 | 8815 | 341 | 173 | 4 | ||
| 2013-05-28T23:56 | 9018 | 331 | -26.1 | -44.5 | ||
| 2013-05-28T23:57 | 9228 | 322 | 224 | 5 | ||
| 2013-05-28T23:57 | 9270 | 320 | -27.8 | -50.1 | ||
| 2013-05-28T23:58 | 9637 | 304 | 213 | 11 | ||
| 2013-05-28T23:58 | 9835 | 295 | -32.2 | -50.8 | ||
| 2013-05-28T23:59 | 10048 | 287 | 187 | 8 | ||
| 2013-05-29T00:00 | 10483 | 269 | 186 | 7 | ||
| 2013-05-29T00:00 | 10633 | 263 | -38.9 | -55.8 | ||
| 2013-05-29T00:01 | 10780 | 258 | -40.0 | -55.7 | ||
| 2013-05-29T00:01 | 10929 | 252 | 187 | 7 | ||
| 2013-05-29T00:02 | 11368 | 236 | 217 | 4 | ||
| 2013-05-29T00:03 | 11661 | 226 | -47.6 | |||
| 2013-05-29T00:03 | 11802 | 221 | 236 | 2 | ||
| 2013-05-29T00:04 | 12248 | 207 | 303 | 3 | ||
| 2013-05-29T00:05 | 12678 | 193 | 325 | 4 | ||
| 2013-05-29T00:05 | 12758 | 191 | -55.8 | |||
| 2013-05-29T00:06 | 13115 | 180 | 309 | 4 | ||
| 2013-05-29T00:07 | 13551 | 168 | 14 | 2 | ||
| 2013-05-29T00:08 | 13789 | 162 | -64.6 | |||
| 2013-05-29T00:08 | 14000 | 156 | 161 | 5 | ||
| 2013-05-29T00:09 | 14437 | 145 | 211 | 1 | ||
| 2013-05-29T00:10 | 14827 | 136 | -69.6 | |||
| 2013-05-29T00:10 | 14866 | 135 | 110 | 2 | ||
| 2013-05-29T00:11 | 15136 | 129 | -70.9 | |||
| 2013-05-29T00:11 | 15336 | 125 | 27 | 7 | ||
| 2013-05-29T00:11 | 15456 | 123 | -71.3 | |||
| 2013-05-29T00:12 | 15808 | 115 | 34 | 15 | ||
| 2013-05-29T00:12 | 15956 | 113 | -73.3 | |||
| 2013-05-29T00:13 | 16109 | 110 | -73.0 | |||
| 2013-05-29T00:13 | 16217 | 108 | 31 | 22 | ||
| 2013-05-29T00:13 | 16310 | 106 | -73.0 | |||
| 2013-05-29T00:14 | 16626 | 100 | 39 | 24 | ||
| 2013-05-29T00:14 | 16638 | 100 | -75.4 | |||
| 2013-05-29T00:15 | 16856 | 96 | -75.8 | |||
| 2013-05-29T00:15 | 17063 | 93 | 52 | 23 | ||
| 2013-05-29T00:16 | 17505 | 86 | 57 | 20 | ||
| 2013-05-29T00:17 | 17868 | 81 | -78.9 | |||
| 2013-05-29T00:17 | 17903 | 80 | 56 | 21 | ||
| 2013-05-29T00:18 | 18254 | 76 | 55 | 21 | ||
| 2013-05-29T00:18 | 18383 | 74 | -78.8 | |||
| 2013-05-29T00:19 | 18571 | 71 | 68 | 25 | ||
| 2013-05-29T00:19 | 18628 | 71 | -78.1 | |||
| 2013-05-29T00:20 | 18851 | 68 | 68 | 19 | ||
| 2013-05-29T00:20 | 18860 | 68 | -76.0 | |||
| 2013-05-29T00:21 | 18946 | 67 | -73.9 | |||
| 2013-05-29T11:31 | 8 | 1012 | 28.6 | 26.6 | 190 | 4 |
| 2013-05-29T11:31 | 31 | 1009 | 27.9 | 27.0 | ||
| 2013-05-29T11:32 | 213 | 989 | 26.8 | 24.8 | ||
| 2013-05-29T11:32 | 330 | 976 | 216 | 5 | ||
| 2013-05-29T11:33 | 541 | 953 | 24.3 | 22.9 | ||
| 2013-05-29T11:33 | 706 | 935 | 235 | 7 | ||
| 2013-05-29T11:33 | 731 | 932 | 23.4 | 21.3 | ||
| 2013-05-29T11:33 | 891 | 915 | 22.2 | 20.3 | ||
| 2013-05-29T11:34 | 1085 | 895 | 234 | 6 | ||
| 2013-05-29T11:34 | 1111 | 893 | 20.8 | 19.6 | ||
| 2013-05-29T11:34 | 1153 | 888 | 20.9 | 18.3 | ||
| 2013-05-29T11:34 | 1184 | 885 | 20.6 | 19.4 | ||
| 2013-05-29T11:35 | 1396 | 864 | 19.5 | 18.8 | ||
| 2013-05-29T11:35 | 1451 | 858 | 228 | 7 | ||
| 2013-05-29T11:35 | 1596 | 844 | 18.7 | 16.3 | ||
| 2013-05-29T11:36 | 1694 | 834 | 18.3 | 15.6 | ||
| 2013-05-29T11:36 | 1784 | 826 | 17.8 | 14.7 | ||
| 2013-05-29T11:36 | 1815 | 823 | 221 | 6 | ||
| 2013-05-29T11:36 | 1821 | 822 | 17.5 | 15.0 | ||
| 2013-05-29T11:36 | 1840 | 820 | 17.4 | 16.3 | ||
| 2013-05-29T11:36 | 1859 | 819 | 17.2 | 16.2 | ||
| 2013-05-29T11:36 | 1909 | 814 | 16.9 | 14.9 | ||
| 2013-05-29T11:36 | 1940 | 811 | 17.1 | 14.6 | ||
| 2013-05-29T11:37 | 2002 | 805 | 16.9 | 14.5 | ||
| 2013-05-29T11:37 | 2164 | 790 | 17.0 | 13.9 | ||
| 2013-05-29T11:37 | 2181 | 788 | 223 | 6 | ||
| 2013-05-29T11:37 | 2297 | 778 | 16.2 | 12.9 | ||
| 2013-05-29T11:38 | 2454 | 763 | 15.5 | 11.9 | ||
| 2013-05-29T11:38 | 2529 | 757 | 236 | 5 | ||
| 2013-05-29T11:38 | 2629 | 748 | 14.6 | 9.4 | ||
| 2013-05-29T11:39 | 2814 | 732 | 13.6 | 7.8 | ||
| 2013-05-29T11:39 | 2884 | 726 | 13.1 | 8.8 | ||
| 2013-05-29T11:39 | 2891 | 725 | 243 | 5 | ||
| 2013-05-29T11:39 | 2904 | 724 | 12.9 | 8.6 | ||
| 2013-05-29T11:39 | 2943 | 721 | 12.4 | 7.5 | ||
| 2013-05-29T11:39 | 2974 | 718 | 12.2 | 6.9 | ||
| 2013-05-29T11:39 | 2987 | 717 | 12.4 | 7.1 | ||
| 2013-05-29T11:39 | 3063 | 710 | 11.9 | 6.8 | ||
| 2013-05-29T11:40 | 3266 | 693 | 233 | 6 | ||
| 2013-05-29T11:40 | 3364 | 685 | 9.9 | 5.7 | ||
| 2013-05-29T11:41 | 3554 | 670 | 9.0 | 4.0 | ||
| 2013-05-29T11:41 | 3604 | 666 | 243 | 7 | ||
| 2013-05-29T11:41 | 3756 | 654 | 7.5 | 3.2 | ||
| 2013-05-29T11:42 | 3954 | 638 | 235 | 5 | ||
| 2013-05-29T11:42 | 3987 | 636 | 6.0 | 1.1 | ||
| 2013-05-29T11:43 | 4199 | 619 | 4.8 | -1.0 | ||
| 2013-05-29T11:43 | 4251 | 615 | 4.5 | -1.1 | ||
| 2013-05-29T11:43 | 4267 | 614 | 4.5 | -0.1 | ||
| 2013-05-29T11:43 | 4295 | 612 | 250 | 5 | ||
| 2013-05-29T11:43 | 4332 | 609 | 4.1 | -1.5 | ||
| 2013-05-29T11:44 | 4629 | 587 | 217 | 5 | ||
| 2013-05-29T11:44 | 4751 | 579 | 1.2 | -2.0 | ||
| 2013-05-29T11:44 | 4789 | 576 | 0.9 | -2.0 | ||
| 2013-05-29T11:45 | 4839 | 572 | 0.6 | -1.6 | ||
| 2013-05-29T11:45 | 4852 | 571 | 0.5 | -1.6 | ||
| 2013-05-29T11:45 | 5006 | 560 | 0.2 | -4.8 | ||
| 2013-05-29T11:45 | 5013 | 560 | 219 | 6 | ||
| 2013-05-29T11:45 | 5047 | 558 | 0.2 | -3.4 | ||
| 2013-05-29T11:45 | 5088 | 555 | 0.1 | -4.5 | ||
| 2013-05-29T11:45 | 5129 | 552 | -0.1 | -4.5 | ||
| 2013-05-29T11:45 | 5136 | 551 | 0.0 | -3.2 | ||
| 2013-05-29T11:46 | 5245 | 544 | -0.2 | -7.2 | ||
| 2013-05-29T11:46 | 5360 | 536 | -1.0 | -8.4 | ||
| 2013-05-29T11:46 | 5411 | 533 | 216 | 5 | ||
| 2013-05-29T11:46 | 5417 | 532 | -1.4 | -6.5 | ||
| 2013-05-29T11:46 | 5465 | 529 | -1.3 | -8.5 | ||
| 2013-05-29T11:47 | 5617 | 519 | -2.4 | -9.3 | ||
| 2013-05-29T11:47 | 5773 | 509 | 214 | 5 | ||
| 2013-05-29T11:48 | 5953 | 498 | -4.6 | -14.0 | ||
| 2013-05-29T11:48 | 6124 | 487 | 220 | 6 | ||
| 2013-05-29T11:48 | 6172 | 484 | -5.3 | -24.8 | ||
| 2013-05-29T11:48 | 6221 | 481 | -5.6 | -26.2 | ||
| 2013-05-29T11:48 | 6300 | 476 | -5.9 | -27.7 | ||
| 2013-05-29T11:49 | 6326 | 475 | -6.0 | -23.3 | ||
| 2013-05-29T11:49 | 6384 | 471 | -6.0 | -32.8 | ||
| 2013-05-29T11:49 | 6501 | 464 | 230 | 5 | ||
| 2013-05-29T11:49 | 6562 | 460 | -6.8 | -33.4 | ||
| 2013-05-29T11:50 | 6910 | 440 | 208 | 8 | ||
| 2013-05-29T11:51 | 7149 | 427 | -11.8 | -33.3 | ||
| 2013-05-29T11:51 | 7263 | 420 | -12.7 | -33.4 | ||
| 2013-05-29T11:51 | 7294 | 419 | 198 | 6 | ||
| 2013-05-29T11:51 | 7355 | 415 | -13.6 | -27.1 | ||
| 2013-05-29T11:52 | 7572 | 404 | -15.5 | -27.8 | ||
| 2013-05-29T11:52 | 7634 | 400 | -15.5 | -34.5 | ||
| 2013-05-29T11:52 | 7664 | 399 | 207 | 7 | ||
| 2013-05-29T11:53 | 7959 | 383 | -16.5 | -42.1 | ||
| 2013-05-29T11:53 | 8026 | 380 | 218 | 6 | ||
| 2013-05-29T11:54 | 8398 | 362 | 233 | 4 | ||
| 2013-05-29T11:55 | 8678 | 348 | -22.6 | -45.9 | ||
| 2013-05-29T11:55 | 8792 | 343 | 211 | 4 | ||
| 2013-05-29T11:56 | 9178 | 325 | 222 | 5 | ||
| 2013-05-29T11:56 | 9220 | 323 | -27.2 | -46.7 | ||
| 2013-05-29T11:57 | 9406 | 315 | -28.6 | -47.8 | ||
| 2013-05-29T11:57 | 9563 | 308 | -29.3 | -50.5 | 205 | 5 |
| 2013-05-29T11:58 | 9769 | 299 | -30.8 | -47.9 | ||
| 2013-05-29T11:58 | 9946 | 292 | 182 | 3 | ||
| 2013-05-29T11:59 | 10164 | 283 | -33.8 | -51.0 | ||
| 2013-05-29T11:59 | 10309 | 277 | 57 | 1 | ||
| 2013-05-29T12:00 | 10546 | 268 | -36.6 | -56.5 | ||
| 2013-05-29T12:00 | 10702 | 262 | 2 | 4 | ||
| 2013-05-29T12:01 | 10918 | 254 | -40.0 | -53.2 | ||
| 2013-05-29T12:01 | 11086 | 247 | 11 | 6 | ||
| 2013-05-29T12:02 | 11481 | 233 | 6 | 4 | ||
| 2013-05-29T12:03 | 11808 | 222 | -48.1 | |||
| 2013-05-29T12:03 | 11859 | 220 | 26 | 2 | ||
| 2013-05-29T12:04 | 12221 | 209 | 37 | 1 | ||
| 2013-05-29T12:05 | 12410 | 203 | -52.7 | |||
| 2013-05-29T12:05 | 12603 | 197 | 347 | 1 | ||
| 2013-05-29T12:06 | 13018 | 184 | 339 | 1 | ||
| 2013-05-29T12:07 | 13448 | 172 | 323 | 6 | ||
| 2013-05-29T12:07 | 13561 | 169 | -61.8 | |||
| 2013-05-29T12:08 | 13849 | 161 | 331 | 7 | ||
| 2013-05-29T12:09 | 14167 | 153 | -65.6 | |||
| 2013-05-29T12:09 | 14251 | 151 | 24 | 12 | ||
| 2013-05-29T12:09 | 14382 | 148 | -64.9 | |||
| 2013-05-29T12:10 | 14703 | 140 | 39 | 19 | ||
| 2013-05-29T12:10 | 14904 | 135 | -67.8 | |||
| 2013-05-29T12:11 | 15157 | 130 | 46 | 23 | ||
| 2013-05-29T12:12 | 15659 | 119 | 48 | 24 | ||
| 2013-05-29T12:12 | 15860 | 115 | -71.9 | |||
| 2013-05-29T12:13 | 16100 | 111 | 49 | 24 | ||
| 2013-05-29T12:13 | 16122 | 110 | -71.6 | |||
| 2013-05-29T12:14 | 16535 | 103 | 57 | 30 | ||
| 2013-05-29T12:14 | 16631 | 101 | -75.1 | |||
| 2013-05-29T12:15 | 16996 | 95 | 59 | 26 | ||
| 2013-05-29T12:15 | 17180 | 92 | -78.3 | |||
| 2013-05-29T12:16 | 17485 | 87 | 67 | 22 | ||
| 2013-05-29T12:16 | 17537 | 86 | -79.8 | |||
| 2013-05-29T12:17 | 17974 | 80 | 76 | 22 | ||
| 2013-05-29T12:17 | 18031 | 79 | -78.7 | |||
| 2013-05-29T12:18 | 18215 | 77 | -77.7 | |||
| 2013-05-29T12:18 | 18467 | 73 | 93 | 20 | ||
| 2013-05-29T12:18 | 18648 | 71 | -78.3 | |||
| 2013-05-29T12:19 | 18913 | 68 | 94 | 16 | ||
| 2013-05-29T12:19 | 18999 | 67 | -74.9 | |||
| 2013-05-29T12:20 | 19114 | 66 | -72.2 | |||
| 2013-05-29T12:20 | 19269 | 64 | 78 | 15 | ||
| 2013-05-29T12:21 | 19534 | 61 | -70.3 | |||
| 2013-05-29T12:21 | 19603 | 60 | 90 | 17 | ||
| 2013-05-29T12:22 | 19846 | 58 | 107 | 17 | ||
| 2013-05-29T12:22 | 19867 | 58 | -67.3 | |||
| 2013-05-29T23:30 | 8 | 1012 | 29.1 | 26.9 | 180 | 4 |
| 2013-05-29T23:30 | 17 | 1011 | 27.7 | 27.0 | ||
| 2013-05-29T23:30 | 37 | 1009 | 27.7 | 27.2 | ||
| 2013-05-29T23:31 | 218 | 988 | 26.0 | 24.6 | ||
| 2013-05-29T23:31 | 302 | 979 | 25.2 | 24.0 | ||
| 2013-05-29T23:31 | 326 | 976 | 200 | 4 | ||
| 2013-05-29T23:31 | 332 | 976 | 25.0 | 23.6 | ||
| 2013-05-29T23:31 | 469 | 961 | 24.1 | 23.2 | ||
| 2013-05-29T23:32 | 597 | 947 | 23.0 | 22.0 | ||
| 2013-05-29T23:32 | 678 | 938 | 236 | 4 | ||
| 2013-05-29T23:32 | 706 | 935 | 23.0 | 21.3 | ||
| 2013-05-29T23:32 | 829 | 922 | 23.5 | 19.7 | ||
| 2013-05-29T23:33 | 1014 | 903 | 248 | 5 | ||
| 2013-05-29T23:33 | 1065 | 897 | 22.1 | 17.3 | ||
| 2013-05-29T23:34 | 1253 | 878 | 20.5 | 16.9 | ||
| 2013-05-29T23:34 | 1357 | 868 | 268 | 4 | ||
| 2013-05-29T23:34 | 1514 | 852 | 18.6 | 16.4 | ||
| 2013-05-29T23:35 | 1672 | 836 | 17.8 | 15.4 | ||
| 2013-05-29T23:35 | 1708 | 833 | 297 | 4 | ||
| 2013-05-29T23:36 | 1912 | 813 | 17.3 | 12.8 | ||
| 2013-05-29T23:36 | 2068 | 799 | 296 | 2 | ||
| 2013-05-29T23:36 | 2080 | 798 | 16.7 | 11.6 | ||
| 2013-05-29T23:37 | 2320 | 775 | 15.9 | 10.7 | ||
| 2013-05-29T23:37 | 2427 | 766 | 267 | 4 | ||
| 2013-05-29T23:38 | 2611 | 749 | 13.9 | 9.5 | ||
| 2013-05-29T23:38 | 2782 | 734 | 261 | 6 | ||
| 2013-05-29T23:38 | 2795 | 733 | 13.0 | 8.1 | ||
| 2013-05-29T23:38 | 2895 | 724 | 12.9 | 7.6 | ||
| 2013-05-29T23:39 | 3141 | 704 | 253 | 5 | ||
| 2013-05-29T23:39 | 3159 | 702 | 11.3 | 6.2 | ||
| 2013-05-29T23:40 | 3439 | 679 | 9.5 | 4.1 | ||
| 2013-05-29T23:40 | 3489 | 675 | 266 | 3 | ||
| 2013-05-29T23:40 | 3598 | 666 | 8.7 | 3.3 | ||
| 2013-05-29T23:41 | 3844 | 646 | 259 | 4 | ||
| 2013-05-29T23:41 | 3917 | 641 | 6.5 | 1.8 | ||
| 2013-05-29T23:42 | 4140 | 624 | 5.4 | 0.0 | ||
| 2013-05-29T23:42 | 4191 | 620 | 283 | 5 | ||
| 2013-05-29T23:43 | 4426 | 602 | 3.5 | -2.7 | ||
| 2013-05-29T23:43 | 4472 | 599 | 3.5 | -3.3 | ||
| 2013-05-29T23:43 | 4524 | 595 | 3.2 | -3.0 | ||
| 2013-05-29T23:43 | 4535 | 594 | 271 | 5 | ||
| 2013-05-29T23:43 | 4547 | 593 | 3.2 | -4.3 | ||
| 2013-05-29T23:43 | 4690 | 583 | 2.2 | -5.4 | ||
| 2013-05-29T23:44 | 4712 | 581 | 1.9 | -6.4 | ||
| 2013-05-29T23:44 | 4729 | 580 | 2.1 | -6.7 | ||
| 2013-05-29T23:44 | 4746 | 579 | 2.1 | -7.0 | ||
| 2013-05-29T23:44 | 4753 | 578 | 2.0 | -7.1 | ||
| 2013-05-29T23:44 | 4880 | 569 | 281 | 4 | ||
| 2013-05-29T23:44 | 4960 | 564 | 1.1 | -10.4 | ||
| 2013-05-29T23:45 | 5072 | 556 | 0.8 | -13.3 | ||
| 2013-05-29T23:45 | 5164 | 549 | 0.3 | -15.3 | ||
| 2013-05-29T23:45 | 5227 | 545 | 250 | 3 | ||
| 2013-05-29T23:45 | 5255 | 543 | -0.3 | -16.2 | ||
| 2013-05-29T23:45 | 5328 | 538 | -0.9 | -9.5 | ||
| 2013-05-29T23:45 | 5349 | 537 | -0.5 | -16.8 | ||
| 2013-05-29T23:46 | 5466 | 529 | -0.9 | -24.3 | ||
| 2013-05-29T23:46 | 5561 | 523 | 267 | 7 | ||
| 2013-05-29T23:47 | 5906 | 500 | 273 | 6 | ||
| 2013-05-29T23:47 | 5948 | 498 | -4.6 | -24.8 | ||
| 2013-05-29T23:47 | 6011 | 494 | -4.8 | -26.2 | ||
| 2013-05-29T23:48 | 6218 | 481 | -6.2 | -30.2 | ||
| 2013-05-29T23:48 | 6259 | 478 | 287 | 5 | ||
| 2013-05-29T23:48 | 6295 | 476 | -6.9 | -19.5 | ||
| 2013-05-29T23:49 | 6451 | 467 | -7.3 | -25.9 | ||
| 2013-05-29T23:49 | 6511 | 463 | -7.2 | -27.5 | ||
| 2013-05-29T23:49 | 6617 | 457 | 269 | 6 | ||
| 2013-05-29T23:50 | 6889 | 441 | -10.7 | -34.7 | ||
| 2013-05-29T23:50 | 6980 | 436 | 266 | 5 | ||
| 2013-05-29T23:50 | 7086 | 430 | -12.0 | -36.6 | ||
| 2013-05-29T23:51 | 7336 | 416 | 268 | 5 | ||
| 2013-05-29T23:51 | 7373 | 414 | -14.5 | -37.7 | ||
| 2013-05-29T23:51 | 7500 | 407 | -15.4 | -37.7 | ||
| 2013-05-29T23:52 | 7702 | 396 | 247 | 8 | ||
| 2013-05-29T23:52 | 7786 | 392 | -17.2 | -40.7 | ||
| 2013-05-29T23:53 | 8060 | 378 | 223 | 7 | ||
| 2013-05-29T23:53 | 8147 | 373 | -19.6 | -41.8 | ||
| 2013-05-29T23:54 | 8429 | 359 | 216 | 7 | ||
| 2013-05-29T23:54 | 8573 | 352 | -23.5 | -40.7 | ||
| 2013-05-29T23:55 | 8671 | 348 | -24.4 | -39.7 | ||
| 2013-05-29T23:55 | 8728 | 345 | -24.2 | -41.8 | ||
| 2013-05-29T23:55 | 8777 | 343 | -24.5 | -41.6 | ||
| 2013-05-29T23:55 | 8803 | 342 | 241 | 7 | ||
| 2013-05-29T23:55 | 8873 | 338 | -25.2 | -40.3 | ||
| 2013-05-29T23:56 | 8983 | 333 | -25.8 | -42.7 | ||
| 2013-05-29T23:56 | 9167 | 325 | 229 | 6 | ||
| 2013-05-29T23:56 | 9178 | 324 | -27.1 | -47.2 | ||
| 2013-05-29T23:56 | 9212 | 323 | -27.2 | -48.0 | ||
| 2013-05-29T23:56 | 9275 | 320 | -27.6 | -50.0 | ||
| 2013-05-29T23:57 | 9521 | 309 | -29.1 | -54.2 | ||
| 2013-05-29T23:57 | 9546 | 308 | 209 | 2 | ||
| 2013-05-29T23:57 | 9569 | 307 | -29.3 | -55.6 | ||
| 2013-05-29T23:58 | 9860 | 295 | -31.2 | -58.5 | ||
| 2013-05-29T23:58 | 9911 | 293 | 69 | 3 | ||
| 2013-05-29T23:59 | 10280 | 278 | 15 | 2 | ||
| 2013-05-30T00:00 | 10571 | 266 | -37.4 | -54.0 | ||
| 2013-05-30T00:00 | 10670 | 262 | 22 | 3 | ||
| 2013-05-30T00:01 | 11038 | 249 | 62 | 12 | ||
| 2013-05-30T00:01 | 11049 | 248 | -40.0 | -62.7 | ||
| 2013-05-30T00:02 | 11416 | 235 | 66 | 17 | ||
| 2013-05-30T00:03 | 11817 | 222 | 65 | 19 | ||
| 2013-05-30T00:04 | 12215 | 209 | 58 | 22 | ||
| 2013-05-30T00:05 | 12612 | 196 | 59 | 23 | ||
| 2013-05-30T00:06 | 13000 | 185 | 62 | 20 | ||
| 2013-05-30T00:06 | 13010 | 184 | -57.5 | |||
| 2013-05-30T00:07 | 13378 | 174 | 66 | 21 | ||
| 2013-05-30T00:08 | 13629 | 167 | -62.7 | |||
| 2013-05-30T00:08 | 13741 | 164 | 56 | 18 | ||
| 2013-05-30T00:09 | 14049 | 156 | -63.0 | |||
| 2013-05-30T00:09 | 14104 | 154 | 54 | 18 | ||
| 2013-05-30T00:10 | 14442 | 146 | 52 | 19 | ||
| 2013-05-30T00:10 | 14488 | 145 | -65.9 | |||
| 2013-05-30T00:11 | 14782 | 138 | 55 | 18 | ||
| 2013-05-30T00:12 | 15116 | 131 | 51 | 21 | ||
| 2013-05-30T00:13 | 15385 | 125 | -71.9 | |||
| 2013-05-30T00:13 | 15451 | 123 | 54 | 22 | ||
| 2013-05-30T00:13 | 15557 | 121 | -72.0 | |||
| 2013-05-30T00:14 | 15875 | 115 | 62 | 21 | ||
| 2013-05-30T00:14 | 15989 | 113 | -73.8 | |||
| 2013-05-30T00:15 | 16319 | 106 | 68 | 24 | ||
| 2013-05-30T00:15 | 16502 | 103 | -74.8 | |||
| 2013-05-30T00:16 | 16679 | 100 | 83 | 23 | ||
| 2013-05-30T00:16 | 16812 | 98 | -77.1 | |||
| 2013-05-30T00:17 | 17015 | 94 | 70 | 19 | ||
| 2013-05-30T00:18 | 17360 | 89 | 70 | 19 | ||
| 2013-05-30T00:18 | 17457 | 87 | -77.6 | |||
| 2013-05-30T00:19 | 17718 | 83 | 70 | 19 | ||
| 2013-05-30T00:20 | 17885 | 81 | -78.6 | |||
| 2013-05-30T00:20 | 18056 | 79 | 77 | 20 | ||
| 2013-05-30T00:21 | 18392 | 74 | 86 | 13 | ||
| 2013-05-30T00:22 | 18699 | 70 | -78.8 | |||
| 2013-05-30T00:22 | 18732 | 70 | 66 | 14 | ||
| 2013-05-30T00:23 | 19070 | 66 | 68 | 19 | ||
| 2013-05-30T00:24 | 19322 | 63 | -74.5 | |||
| 2013-05-30T00:24 | 19387 | 62 | 80 | 16 | ||
| 2013-05-30T00:24 | 19472 | 61 | -73.1 | |||
| 2013-05-30T00:25 | 19726 | 59 | 73 | 12 | ||
| 2013-05-30T00:26 | 20079 | 55 | 72 | 14 | ||
| 2013-05-30T00:26 | 20100 | 55 | -69.9 | |||
| 2013-05-30T00:27 | 20366 | 53 | -67.6 | |||
| 2013-05-30T00:27 | 20446 | 52 | 91 | 15 | ||
| 2013-05-30T00:28 | 20768 | 49 | -66.6 | |||
| 2013-05-30T00:28 | 20805 | 49 | 93 | 14 | ||
| 2013-05-30T00:29 | 21018 | 47 | -65.2 | |||
| 2013-05-30T00:29 | 21161 | 46 | 100 | 14 | ||
| 2013-05-30T00:30 | 21529 | 44 | 92 | 15 | ||
| 2013-05-30T00:31 | 21923 | 41 | 92 | 16 | ||
| 2013-05-30T00:32 | 22251 | 39 | -60.4 | |||
| 2013-05-30T00:32 | 22316 | 38 | 104 | 16 | ||
| 2013-05-30T00:33 | 22719 | 36 | 96 | 15 | ||
| 2013-05-30T00:33 | 22914 | 35 | -58.2 | |||
| 2013-05-30T00:34 | 23097 | 34 | 100 | 13 | ||
| 2013-05-30T00:35 | 23462 | 32 | 104 | 14 | ||
| 2013-05-30T00:36 | 23811 | 30 | 119 | 14 | ||
| 2013-05-30T00:37 | 24070 | 29 | -53.7 | |||
| 2013-05-30T00:37 | 24226 | 28 | 142 | 13 | ||
| 2013-05-30T00:38 | 24671 | 27 | 151 | 8 | ||
| 2013-05-30T00:39 | 25070 | 25 | 107 | 8 | ||
| 2013-05-30T00:40 | 25279 | 24 | -54.4 | |||
| 2013-05-30T00:40 | 25441 | 24 | 81 | 14 | ||
| 2013-05-30T00:40 | 25551 | 23 | -53.2 | |||
| 2013-05-30T00:41 | 25836 | 22 | 130 | 6 | ||
| 2013-05-30T00:42 | 26257 | 21 | 108 | 12 | ||
| 2013-05-30T00:43 | 26543 | 20 | -53.2 | |||
| 2013-05-30T00:43 | 26708 | 19 | 121 | 14 | ||
| 2013-05-30T00:44 | 27089 | 18 | -50.7 | |||
| 2013-05-30T00:44 | 27197 | 18 | 126 | 12 | ||
| 2013-05-30T00:45 | 27613 | 17 | 106 | 13 | ||
| 2013-05-30T00:46 | 27812 | 16 | -47.5 | |||
| 2013-05-30T00:46 | 28019 | 16 | 99 | 20 | ||
| 2013-05-30T00:46 | 28147 | 16 | -43.9 | |||
| 2013-05-30T00:47 | 28458 | 15 | 90 | 19 | ||
| 2013-05-30T00:48 | 28933 | 14 | 84 | 16 | ||
| 2013-05-30T00:48 | 29083 | 14 | -39.7 | |||
| 2013-05-30T00:49 | 29342 | 13 | -37.6 | |||
| 2013-05-30T00:49 | 29395 | 13 | 46 | 10 | ||
| 2013-05-30T00:50 | 29835 | 12 | 41 | 12 | ||
| 2013-05-30T00:51 | 30064 | 12 | -40.6 | |||
| 2013-05-30T11:31 | 8 | 1010 | 28.5 | 26.1 | 210 | 3 |
| 2013-05-30T11:31 | 21 | 1009 | 28.3 | 26.7 | ||
| 2013-05-30T11:32 | 172 | 992 | 27.0 | 23.9 | ||
| 2013-05-30T11:32 | 292 | 979 | 26.2 | 23.5 | ||
| 2013-05-30T11:32 | 334 | 974 | 208 | 8 | ||
| 2013-05-30T11:32 | 497 | 956 | 24.5 | 22.2 | ||
| 2013-05-30T11:33 | 701 | 934 | 227 | 6 | ||
| 2013-05-30T11:33 | 725 | 932 | 23.3 | 19.3 | ||
| 2013-05-30T11:33 | 774 | 926 | 23.0 | 19.2 | ||
| 2013-05-30T11:34 | 937 | 909 | 22.4 | 17.3 | ||
| 2013-05-30T11:34 | 1060 | 896 | 226 | 6 | ||
| 2013-05-30T11:35 | 1282 | 874 | 20.3 | 15.3 | ||
| 2013-05-30T11:35 | 1330 | 869 | 20.1 | 15.7 | ||
| 2013-05-30T11:35 | 1403 | 862 | 19.8 | 16.1 | ||
| 2013-05-30T11:35 | 1421 | 860 | 233 | 4 | ||
| 2013-05-30T11:36 | 1620 | 840 | 18.9 | 14.2 | ||
| 2013-05-30T11:36 | 1697 | 833 | 18.2 | 16.2 | ||
| 2013-05-30T11:36 | 1779 | 825 | 287 | 3 | ||
| 2013-05-30T11:36 | 1820 | 821 | 17.1 | 16.0 | ||
| 2013-05-30T11:36 | 1890 | 814 | 17.6 | 13.3 | ||
| 2013-05-30T11:37 | 1954 | 808 | 17.3 | 13.2 | ||
| 2013-05-30T11:37 | 2131 | 792 | 16.6 | 12.4 | 300 | 3 |
| 2013-05-30T11:37 | 2189 | 786 | 16.2 | 13.3 | ||
| 2013-05-30T11:37 | 2253 | 780 | 15.8 | 12.7 | ||
| 2013-05-30T11:38 | 2346 | 772 | 15.2 | 12.7 | ||
| 2013-05-30T11:38 | 2420 | 765 | 15.1 | 11.7 | ||
| 2013-05-30T11:38 | 2478 | 760 | 300 | 3 | ||
| 2013-05-30T11:39 | 2714 | 739 | 14.0 | 9.2 | ||
| 2013-05-30T11:39 | 2827 | 729 | 311 | 5 | ||
| 2013-05-30T11:39 | 2880 | 725 | 13.3 | 7.7 | ||
| 2013-05-30T11:39 | 3003 | 714 | 12.2 | 7.1 | ||
| 2013-05-30T11:40 | 3027 | 712 | 12.0 | 7.1 | ||
| 2013-05-30T11:40 | 3051 | 710 | 12.2 | 7.5 | ||
| 2013-05-30T11:40 | 3195 | 698 | 309 | 6 | ||
| 2013-05-30T11:40 | 3290 | 690 | 10.5 | 5.5 | ||
| 2013-05-30T11:41 | 3575 | 667 | 304 | 4 | ||
| 2013-05-30T11:41 | 3695 | 657 | 7.8 | 2.3 | ||
| 2013-05-30T11:42 | 3956 | 637 | 310 | 6 | ||
| 2013-05-30T11:42 | 4043 | 630 | 5.4 | 1.0 | ||
| 2013-05-30T11:43 | 4341 | 608 | 295 | 8 | ||
| 2013-05-30T11:43 | 4423 | 601 | 2.8 | -1.2 | ||
| 2013-05-30T11:44 | 4632 | 586 | 1.3 | -2.1 | ||
| 2013-05-30T11:44 | 4657 | 584 | 1.3 | -3.0 | ||
| 2013-05-30T11:44 | 4712 | 580 | 278 | 10 | ||
| 2013-05-30T11:44 | 4730 | 579 | 0.7 | -2.7 | ||
| 2013-05-30T11:44 | 4746 | 578 | 0.6 | -2.6 | ||
| 2013-05-30T11:44 | 4786 | 575 | 0.3 | -2.7 | ||
| 2013-05-30T11:44 | 4848 | 571 | 0.1 | -4.2 | ||
| 2013-05-30T11:45 | 5000 | 560 | -0.1 | -10.1 | ||
| 2013-05-30T11:45 | 5076 | 555 | 264 | 9 | ||
| 2013-05-30T11:45 | 5155 | 549 | -0.7 | -10.9 | ||
| 2013-05-30T11:45 | 5226 | 544 | -0.8 | -10.4 | ||
| 2013-05-30T11:46 | 5365 | 535 | -1.0 | -16.0 | ||
| 2013-05-30T11:46 | 5432 | 530 | -1.1 | -20.7 | 244 | 10 |
| 2013-05-30T11:46 | 5582 | 520 | -1.8 | -21.8 | ||
| 2013-05-30T11:47 | 5725 | 511 | -2.8 | -20.6 | ||
| 2013-05-30T11:47 | 5804 | 506 | 245 | 7 | ||
| 2013-05-30T11:47 | 5926 | 498 | -3.9 | -23.1 | ||
| 2013-05-30T11:48 | 6169 | 483 | 261 | 7 | ||
| 2013-05-30T11:48 | 6237 | 479 | -6.3 | -28.8 | ||
| 2013-05-30T11:48 | 6300 | 475 | -6.6 | -28.3 | ||
| 2013-05-30T11:49 | 6545 | 460 | 299 | 6 | ||
| 2013-05-30T11:49 | 6576 | 459 | -8.5 | -31.3 | ||
| 2013-05-30T11:49 | 6718 | 450 | -8.6 | -34.8 | ||
| 2013-05-30T11:50 | 6909 | 439 | 287 | 7 | ||
| 2013-05-30T11:50 | 6958 | 436 | -10.8 | -28.4 | ||
| 2013-05-30T11:51 | 7222 | 422 | -13.1 | -30.4 | ||
| 2013-05-30T11:51 | 7284 | 418 | 292 | 6 | ||
| 2013-05-30T11:51 | 7436 | 410 | -14.2 | -40.3 | ||
| 2013-05-30T11:52 | 7663 | 398 | 279 | 5 | ||
| 2013-05-30T11:53 | 7965 | 382 | -17.4 | -48.1 | ||
| 2013-05-30T11:53 | 8042 | 378 | 326 | 5 | ||
| 2013-05-30T11:53 | 8065 | 377 | -17.4 | -50.1 | ||
| 2013-05-30T11:54 | 8383 | 361 | -19.2 | -53.9 | ||
| 2013-05-30T11:54 | 8422 | 359 | 289 | 2 | ||
| 2013-05-30T11:55 | 8733 | 345 | -21.5 | -49.6 | ||
| 2013-05-30T11:55 | 8817 | 341 | 285 | 3 | ||
| 2013-05-30T11:56 | 9136 | 326 | -25.0 | -47.0 | ||
| 2013-05-30T11:56 | 9201 | 323 | 297 | 3 | ||
| 2013-05-30T11:57 | 9514 | 310 | -27.6 | -57.6 | ||
| 2013-05-30T11:57 | 9593 | 306 | 332 | 2 | ||
| 2013-05-30T11:57 | 9742 | 300 | -29.2 | -47.7 | ||
| 2013-05-30T11:58 | 9838 | 296 | -29.7 | -44.7 | ||
| 2013-05-30T11:58 | 10001 | 289 | 64 | 6 | ||
| 2013-05-30T11:58 | 10035 | 288 | -31.0 | -55.7 | ||
| 2013-05-30T11:59 | 10404 | 273 | 64 | 7 | ||
| 2013-05-30T12:00 | 10633 | 264 | -36.1 | -53.5 | ||
| 2013-05-30T12:00 | 10813 | 257 | 77 | 8 | ||
| 2013-05-30T12:00 | 10938 | 253 | -38.5 | -46.2 | ||
| 2013-05-30T12:01 | 11172 | 244 | -40.0 | -51.9 | ||
| 2013-05-30T12:01 | 11206 | 243 | 78 | 11 | ||
| 2013-05-30T12:02 | 11624 | 229 | 68 | 12 | ||
| 2013-05-30T12:03 | 12036 | 215 | 54 | 13 | ||
| 2013-05-30T12:04 | 12432 | 202 | 53 | 12 | ||
| 2013-05-30T12:05 | 12833 | 190 | 51 | 15 | ||
| 2013-05-30T12:06 | 13217 | 179 | -58.5 | |||
| 2013-05-30T12:06 | 13252 | 178 | 49 | 14 | ||
| 2013-05-30T12:07 | 13650 | 167 | 40 | 13 | ||
| 2013-05-30T12:07 | 13778 | 163 | -62.5 | |||
| 2013-05-30T12:08 | 14004 | 158 | 44 | 17 | ||
| 2013-05-30T12:09 | 14377 | 148 | -65.0 | |||
| 2013-05-30T12:09 | 14389 | 148 | 43 | 20 | ||
| 2013-05-30T12:10 | 14806 | 138 | -65.6 | |||
| 2013-05-30T12:10 | 14828 | 138 | 62 | 19 | ||
| 2013-05-30T12:11 | 15287 | 128 | 72 | 14 | ||
| 2013-05-30T12:12 | 15781 | 117 | 47 | 13 | ||
| 2013-05-30T12:12 | 15882 | 115 | -73.1 | |||
| 2013-05-30T12:13 | 16254 | 108 | -74.1 | |||
| 2013-05-30T12:13 | 16281 | 108 | 54 | 17 | ||
| 2013-05-30T12:14 | 16687 | 100 | -76.0 | |||
| 2013-05-30T12:14 | 16780 | 99 | 55 | 21 | ||
| 2013-05-30T12:15 | 17132 | 93 | -78.7 | |||
| 2013-05-30T12:15 | 17262 | 91 | 72 | 18 | ||
| 2013-05-30T12:16 | 17711 | 84 | 90 | 15 | ||
| 2013-05-30T12:17 | 18052 | 79 | -80.1 | |||
| 2013-05-30T12:17 | 18139 | 78 | 86 | 15 | ||
| 2013-05-30T12:18 | 18546 | 72 | 71 | 16 | ||
| 2013-05-30T12:18 | 18697 | 71 | -78.7 | |||
| 2013-05-30T12:19 | 18929 | 68 | 87 | 17 | ||
| 2013-05-30T12:20 | 19165 | 65 | -73.9 | |||
| 2013-05-30T12:20 | 19292 | 64 | 78 | 17 | ||
| 2013-05-30T12:21 | 19627 | 60 | 86 | 14 | ||
| 2013-05-30T12:22 | 19881 | 58 | 89 | 14 | ||
| 2013-05-30T12:23 | 19933 | 57 | -67.3 | |||
| 2013-05-30T23:30 | 8 | 1010 | 29.3 | 26.5 | 220 | 3 |
| 2013-05-30T23:30 | 17 | 1009 | 28.3 | 28.3 | ||
| 2013-05-30T23:31 | 301 | 978 | 262 | 5 | ||
| 2013-05-30T23:32 | 471 | 959 | 24.0 | 22.3 | ||
| 2013-05-30T23:32 | 488 | 957 | 24.0 | 22.1 | ||
| 2013-05-30T23:32 | 634 | 941 | 23.1 | 21.6 | 272 | 6 |
| 2013-05-30T23:32 | 733 | 931 | 22.6 | 19.8 | ||
| 2013-05-30T23:33 | 958 | 907 | 21.3 | 18.9 | ||
| 2013-05-30T23:33 | 980 | 905 | 283 | 4 | ||
| 2013-05-30T23:33 | 1025 | 900 | 21.0 | 18.2 | ||
| 2013-05-30T23:33 | 1047 | 898 | 21.1 | 17.5 | ||
| 2013-05-30T23:33 | 1053 | 897 | 21.3 | 17.1 | ||
| 2013-05-30T23:34 | 1151 | 887 | 20.7 | 15.5 | ||
| 2013-05-30T23:34 | 1279 | 874 | 20.0 | 16.6 | ||
| 2013-05-30T23:34 | 1300 | 872 | 279 | 5 | ||
| 2013-05-30T23:34 | 1369 | 865 | 19.8 | 14.8 | ||
| 2013-05-30T23:35 | 1509 | 851 | 19.5 | 13.9 | ||
| 2013-05-30T23:35 | 1597 | 842 | 18.8 | 14.9 | ||
| 2013-05-30T23:35 | 1637 | 839 | 279 | 4 | ||
| 2013-05-30T23:36 | 1925 | 811 | 16.6 | 13.1 | ||
| 2013-05-30T23:36 | 1970 | 807 | 260 | 3 | ||
| 2013-05-30T23:36 | 1996 | 804 | 16.6 | 12.8 | ||
| 2013-05-30T23:37 | 2297 | 776 | 256 | 3 | ||
| 2013-05-30T23:37 | 2463 | 761 | 14.5 | 9.7 | ||
| 2013-05-30T23:38 | 2629 | 746 | 13.7 | 7.0 | ||
| 2013-05-30T23:38 | 2646 | 745 | 279 | 4 | ||
| 2013-05-30T23:39 | 2890 | 724 | 12.2 | 6.0 | ||
| 2013-05-30T23:39 | 2988 | 715 | 291 | 4 | ||
| 2013-05-30T23:40 | 3309 | 688 | 9.5 | 3.9 | ||
| 2013-05-30T23:40 | 3326 | 687 | 293 | 3 | ||
| 2013-05-30T23:40 | 3392 | 681 | 9.1 | 3.7 | ||
| 2013-05-30T23:41 | 3652 | 660 | 280 | 6 | ||
| 2013-05-30T23:41 | 3693 | 657 | 7.0 | 3.8 | ||
| 2013-05-30T23:42 | 3813 | 647 | 6.5 | 1.6 | ||
| 2013-05-30T23:42 | 3964 | 636 | 287 | 6 | ||
| 2013-05-30T23:42 | 4113 | 624 | 4.0 | 2.4 | ||
| 2013-05-30T23:43 | 4291 | 611 | 272 | 6 | ||
| 2013-05-30T23:43 | 4441 | 599 | 2.5 | -0.3 | ||
| 2013-05-30T23:44 | 4463 | 598 | 2.5 | -1.7 | ||
| 2013-05-30T23:44 | 4501 | 595 | 2.2 | -0.6 | ||
| 2013-05-30T23:44 | 4517 | 594 | 2.1 | -0.8 | ||
| 2013-05-30T23:44 | 4588 | 589 | 1.8 | -1.5 | ||
| 2013-05-30T23:44 | 4621 | 586 | 276 | 6 | ||
| 2013-05-30T23:44 | 4625 | 586 | 1.6 | -2.4 | ||
| 2013-05-30T23:44 | 4664 | 583 | 1.5 | -1.7 | ||
| 2013-05-30T23:44 | 4757 | 576 | 1.8 | -2.7 | ||
| 2013-05-30T23:45 | 4850 | 570 | 1.0 | -3.3 | ||
| 2013-05-30T23:45 | 4952 | 563 | 276 | 5 | ||
| 2013-05-30T23:45 | 4962 | 562 | 0.8 | -4.6 | ||
| 2013-05-30T23:45 | 5046 | 556 | 0.2 | -6.2 | ||
| 2013-05-30T23:45 | 5091 | 553 | -0.1 | -6.5 | ||
| 2013-05-30T23:46 | 5231 | 543 | -0.8 | -7.6 | ||
| 2013-05-30T23:46 | 5287 | 540 | 273 | 6 | ||
| 2013-05-30T23:46 | 5305 | 538 | -0.5 | -9.7 | ||
| 2013-05-30T23:46 | 5366 | 534 | -0.7 | -15.4 | ||
| 2013-05-30T23:46 | 5417 | 531 | -0.8 | -21.0 | ||
| 2013-05-30T23:47 | 5524 | 524 | -1.6 | -24.2 | ||
| 2013-05-30T23:47 | 5562 | 521 | -1.8 | -23.7 | ||
| 2013-05-30T23:47 | 5579 | 520 | -1.9 | -23.8 | ||
| 2013-05-30T23:47 | 5616 | 518 | 255 | 9 | ||
| 2013-05-30T23:47 | 5706 | 512 | -2.9 | -24.6 | ||
| 2013-05-30T23:47 | 5745 | 509 | -3.3 | -16.3 | ||
| 2013-05-30T23:47 | 5773 | 508 | -3.5 | -17.8 | ||
| 2013-05-30T23:48 | 5828 | 504 | -3.8 | -24.7 | ||
| 2013-05-30T23:48 | 5936 | 497 | -4.5 | -24.1 | ||
| 2013-05-30T23:48 | 5947 | 497 | 258 | 8 | ||
| 2013-05-30T23:49 | 6139 | 485 | -6.0 | -24.3 | ||
| 2013-05-30T23:49 | 6160 | 483 | -6.2 | -21.8 | ||
| 2013-05-30T23:49 | 6178 | 482 | -6.0 | -19.0 | ||
| 2013-05-30T23:49 | 6234 | 479 | -6.1 | -21.7 | ||
| 2013-05-30T23:49 | 6261 | 477 | -5.9 | -27.7 | ||
| 2013-05-30T23:49 | 6282 | 476 | 266 | 6 | ||
| 2013-05-30T23:50 | 6452 | 466 | -7.1 | -33.6 | ||
| 2013-05-30T23:50 | 6616 | 456 | 255 | 7 | ||
| 2013-05-30T23:51 | 6953 | 436 | 264 | 7 | ||
| 2013-05-30T23:52 | 7234 | 421 | -13.8 | -32.0 | ||
| 2013-05-30T23:52 | 7297 | 417 | 289 | 6 | ||
| 2013-05-30T23:52 | 7457 | 408 | -15.1 | -31.2 | ||
| 2013-05-30T23:53 | 7572 | 402 | -15.8 | -29.4 | ||
| 2013-05-30T23:53 | 7643 | 398 | 300 | 6 | ||
| 2013-05-30T23:53 | 7655 | 398 | -16.5 | -28.1 | ||
| 2013-05-30T23:53 | 7731 | 394 | -17.0 | -24.3 | ||
| 2013-05-30T23:53 | 7785 | 391 | -17.4 | -25.6 | ||
| 2013-05-30T23:54 | 7858 | 387 | -17.2 | -31.8 | ||
| 2013-05-30T23:54 | 7979 | 381 | 293 | 6 | ||
| 2013-05-30T23:54 | 8109 | 374 | -19.2 | -37.1 | ||
| 2013-05-30T23:55 | 8207 | 369 | -19.6 | -39.7 | ||
| 2013-05-30T23:55 | 8345 | 363 | 331 | 4 | ||
| 2013-05-30T23:55 | 8420 | 359 | -20.6 | -38.8 | ||
| 2013-05-30T23:56 | 8612 | 350 | -21.0 | -45.6 | ||
| 2013-05-30T23:56 | 8693 | 346 | 62 | 5 | ||
| 2013-05-30T23:56 | 8699 | 346 | -21.2 | -38.3 | ||
| 2013-05-30T23:57 | 8906 | 336 | -22.9 | -36.4 | ||
| 2013-05-30T23:57 | 9023 | 331 | -23.4 | -33.3 | ||
| 2013-05-30T23:57 | 9061 | 329 | 61 | 8 | ||
| 2013-05-30T23:58 | 9319 | 318 | -25.7 | -38.5 | ||
| 2013-05-30T23:58 | 9427 | 313 | 52 | 7 | ||
| 2013-05-30T23:58 | 9506 | 309 | -27.1 | -47.9 | ||
| 2013-05-30T23:59 | 9775 | 298 | 34 | 6 | ||
| 2013-05-30T23:59 | 9792 | 297 | -29.2 | -52.1 | ||
| 2013-05-31T00:00 | 10124 | 284 | -32.3 | -46.5 | ||
| 2013-05-31T00:00 | 10136 | 283 | 51 | 5 | ||
| 2013-05-31T00:00 | 10313 | 276 | -34.1 | -44.3 | ||
| 2013-05-31T00:01 | 10500 | 269 | 33 | 5 | ||
| 2013-05-31T00:02 | 10836 | 256 | 29 | 7 | ||
| 2013-05-31T00:02 | 10960 | 252 | -40.0 | -45.4 | ||
| 2013-05-31T00:03 | 11169 | 244 | 34 | 5 | ||
| 2013-05-31T00:04 | 11505 | 232 | 46 | 5 | ||
| 2013-05-31T00:05 | 11843 | 221 | 50 | 7 | ||
| 2013-05-31T00:06 | 12176 | 210 | 59 | 8 | ||
| 2013-05-31T00:07 | 12509 | 199 | 56 | 11 | ||
| 2013-05-31T00:07 | 12613 | 196 | -54.2 | |||
| 2013-05-31T00:08 | 12822 | 190 | 48 | 12 | ||
| 2013-05-31T00:08 | 12947 | 186 | -56.6 | |||
| 2013-05-31T00:09 | 13147 | 180 | 43 | 13 | ||
| 2013-05-31T00:10 | 13381 | 174 | -60.1 | |||
| 2013-05-31T00:10 | 13461 | 171 | 37 | 12 | ||
| 2013-05-31T00:11 | 13627 | 167 | -60.7 | |||
| 2013-05-31T00:11 | 13774 | 163 | 40 | 13 | ||
| 2013-05-31T00:12 | 14096 | 155 | 31 | 15 | ||
| 2013-05-31T00:13 | 14436 | 146 | 37 | 15 | ||
| 2013-05-31T00:14 | 14736 | 139 | -68.1 | |||
| 2013-05-31T00:14 | 14784 | 138 | 44 | 14 | ||
| 2013-05-31T00:15 | 15082 | 131 | -69.1 | |||
| 2013-05-31T00:15 | 15151 | 130 | 76 | 11 | ||
| 2013-05-31T00:16 | 15403 | 124 | -70.5 | |||
| 2013-05-31T00:16 | 15489 | 123 | 59 | 9 | ||
| 2013-05-31T00:16 | 15636 | 120 | -71.7 | |||
| 2013-05-31T00:17 | 15831 | 116 | 58 | 8 | ||
| 2013-05-31T00:18 | 16151 | 110 | 47 | 10 | ||
| 2013-05-31T00:18 | 16209 | 108 | -76.2 | |||
| 2013-05-31T00:19 | 16360 | 106 | -76.2 | |||
| 2013-05-31T00:19 | 16481 | 103 | 43 | 16 | ||
| 2013-05-31T00:20 | 16797 | 98 | -75.4 | |||
| 2013-05-31T00:20 | 16827 | 97 | 57 | 17 | ||
| 2013-05-31T00:21 | 17287 | 90 | 69 | 13 | ||
| 2013-05-31T00:21 | 17363 | 89 | -79.0 | |||
| 2013-05-31T00:22 | 17753 | 83 | 70 | 15 | ||
| 2013-05-31T00:23 | 18004 | 79 | -81.1 | |||
| 2013-05-31T00:23 | 18259 | 76 | 77 | 16 | ||
| 2013-05-31T00:24 | 18734 | 70 | 92 | 13 | ||
| 2013-05-31T00:24 | 18792 | 69 | -78.8 | |||
| 2013-05-31T00:25 | 19066 | 66 | -73.0 | |||
| 2013-05-31T00:25 | 19156 | 65 | 118 | 10 | ||
| 2013-05-31T00:26 | 19503 | 61 | 117 | 10 | ||
| 2013-05-31T00:26 | 19601 | 60 | -71.0 | |||
| 2013-05-31T00:27 | 19873 | 57 | -70.6 | 44 | 8 | |
| 2013-05-31T00:28 | 20064 | 56 | -68.1 | |||
| 2013-05-31T00:28 | 20229 | 54 | -67.1 | |||
| 2013-05-31T00:28 | 20263 | 54 | 45 | 15 | ||
| 2013-05-31T00:28 | 20421 | 52 | -67.8 | |||
| 2013-05-31T00:29 | 20620 | 51 | 63 | 15 | ||
| 2013-05-31T00:29 | 20668 | 50 | -66.9 | |||
| 2013-05-31T00:30 | 20977 | 48 | 75 | 17 | ||
| 2013-05-31T00:31 | 21183 | 46 | -66.6 | |||
| 2013-05-31T00:31 | 21343 | 45 | 86 | 15 | ||
| 2013-05-31T00:32 | 21707 | 42 | 90 | 13 | ||
| 2013-05-31T00:33 | 22066 | 40 | 94 | 16 | ||
| 2013-05-31T00:34 | 22435 | 38 | 94 | 19 | ||
| 2013-05-31T00:34 | 22552 | 37 | -59.4 | |||
| 2013-05-31T00:35 | 22794 | 36 | 94 | 18 | ||
| 2013-05-31T00:36 | 23158 | 34 | 93 | 18 | ||
| 2013-05-31T00:37 | 23524 | 32 | 109 | 17 | ||
| 2013-05-31T00:38 | 23893 | 30 | 116 | 17 | ||
| 2013-05-31T00:39 | 24196 | 28 | -57.8 | |||
| 2013-05-31T00:39 | 24308 | 28 | 120 | 19 | ||
| 2013-05-31T00:40 | 24586 | 27 | -56.8 | |||
| 2013-05-31T00:40 | 24731 | 26 | 132 | 16 | ||
| 2013-05-31T00:41 | 25086 | 25 | -50.8 | |||
| 2013-05-31T00:41 | 25112 | 25 | 120 | 12 | ||
| 2013-05-31T00:42 | 25466 | 23 | -50.5 | 111 | 10 | |
| 2013-05-31T00:43 | 25666 | 23 | -48.1 | |||
| 2013-05-31T00:43 | 25873 | 22 | 71 | 9 | ||
| 2013-05-31T00:44 | 26274 | 21 | 63 | 8 | ||
| 2013-05-31T00:45 | 26700 | 19 | 44 | 17 | ||
| 2013-05-31T00:46 | 26941 | 19 | -51.0 | |||
| 2013-05-31T00:46 | 27083 | 18 | 66 | 18 | ||
| 2013-05-31T00:47 | 27453 | 17 | -48.7 | |||
| 2013-05-31T00:47 | 27491 | 17 | 84 | 15 | ||
| 2013-05-31T00:48 | 27888 | 16 | 101 | 17 | ||
| 2013-05-31T00:48 | 28011 | 16 | -47.8 | |||
| 2013-05-31T00:49 | 28355 | 15 | 90 | 9 | ||
| 2013-05-31T00:50 | 28767 | 14 | 56 | 18 | ||
| 2013-05-31T00:51 | 29109 | 13 | -43.3 | |||
| 2013-05-31T00:51 | 29210 | 13 | 67 | 17 | ||
| 2013-05-31T00:52 | 29635 | 12 | -39.4 | 94 | 10 | |
| 2013-05-31T00:53 | 30089 | 12 | 81 | 15 | ||
| 2013-05-31T00:53 | 30148 | 12 | -41.7 | |||
| 2013-05-31T11:31 | 8 | 1009 | 28.5 | 25.7 | 220 | 4 |
| 2013-05-31T11:31 | 18 | 1008 | 28.7 | 27.3 | ||
| 2013-05-31T11:32 | 199 | 988 | 27.0 | 23.5 | ||
| 2013-05-31T11:32 | 310 | 975 | 230 | 5 | ||
| 2013-05-31T11:33 | 516 | 953 | 23.9 | 21.2 | ||
| 2013-05-31T11:33 | 570 | 947 | 23.7 | 20.4 | ||
| 2013-05-31T11:33 | 634 | 940 | 227 | 5 | ||
| 2013-05-31T11:33 | 687 | 934 | 23.7 | 17.0 | ||
| 2013-05-31T11:33 | 788 | 924 | 23.3 | 15.6 | ||
| 2013-05-31T11:34 | 873 | 915 | 22.7 | 16.0 | ||
| 2013-05-31T11:34 | 915 | 910 | 22.7 | 14.3 | ||
| 2013-05-31T11:34 | 951 | 906 | 222 | 4 | ||
| 2013-05-31T11:34 | 957 | 906 | 22.4 | 14.5 | ||
| 2013-05-31T11:34 | 1033 | 898 | 21.7 | 17.5 | ||
| 2013-05-31T11:34 | 1093 | 892 | 21.2 | 17.8 | ||
| 2013-05-31T11:35 | 1174 | 884 | 20.6 | 17.8 | ||
| 2013-05-31T11:35 | 1256 | 875 | 208 | 3 | ||
| 2013-05-31T11:35 | 1299 | 871 | 20.1 | 16.9 | ||
| 2013-05-31T11:35 | 1333 | 868 | 20.0 | 16.4 | ||
| 2013-05-31T11:35 | 1349 | 866 | 20.0 | 14.6 | ||
| 2013-05-31T11:35 | 1366 | 864 | 20.0 | 17.2 | ||
| 2013-05-31T11:35 | 1383 | 863 | 20.0 | 16.6 | ||
| 2013-05-31T11:36 | 1502 | 851 | 19.3 | 15.8 | ||
| 2013-05-31T11:36 | 1590 | 842 | 19.2 | 14.2 | ||
| 2013-05-31T11:36 | 1596 | 841 | 249 | 1 | ||
| 2013-05-31T11:36 | 1620 | 839 | 19.7 | 11.5 | ||
| 2013-05-31T11:37 | 1888 | 813 | 17.6 | 10.2 | ||
| 2013-05-31T11:37 | 1945 | 808 | 313 | 4 | ||
| 2013-05-31T11:37 | 2088 | 795 | 17.3 | 9.5 | ||
| 2013-05-31T11:38 | 2239 | 781 | 16.8 | 7.7 | ||
| 2013-05-31T11:38 | 2292 | 776 | 308 | 4 | ||
| 2013-05-31T11:39 | 2639 | 745 | 290 | 5 | ||
| 2013-05-31T11:39 | 2707 | 739 | 14.0 | 5.4 | ||
| 2013-05-31T11:40 | 2979 | 715 | 299 | 6 | ||
| 2013-05-31T11:41 | 3322 | 687 | 297 | 8 | ||
| 2013-05-31T11:41 | 3406 | 680 | 9.7 | 3.2 | ||
| 2013-05-31T11:42 | 3609 | 663 | 8.4 | 2.4 | ||
| 2013-05-31T11:42 | 3689 | 657 | 299 | 9 | ||
| 2013-05-31T11:43 | 3941 | 637 | 6.4 | -2.0 | ||
| 2013-05-31T11:43 | 4036 | 630 | 289 | 9 | ||
| 2013-05-31T11:43 | 4097 | 625 | 5.7 | -1.5 | ||
| 2013-05-31T11:43 | 4190 | 618 | 5.3 | -1.8 | ||
| 2013-05-31T11:44 | 4298 | 610 | 4.8 | -3.2 | ||
| 2013-05-31T11:44 | 4366 | 605 | 282 | 7 | ||
| 2013-05-31T11:44 | 4445 | 599 | 3.8 | -3.7 | ||
| 2013-05-31T11:45 | 4637 | 585 | 2.4 | -6.5 | ||
| 2013-05-31T11:45 | 4681 | 582 | 2.1 | -2.6 | ||
| 2013-05-31T11:45 | 4708 | 580 | 1.9 | -2.2 | ||
| 2013-05-31T11:45 | 4711 | 580 | 293 | 7 | ||
| 2013-05-31T11:45 | 4872 | 568 | 0.4 | -1.2 | ||
| 2013-05-31T11:46 | 4963 | 562 | 0.1 | -3.5 | ||
| 2013-05-31T11:46 | 5052 | 556 | 322 | 8 | ||
| 2013-05-31T11:46 | 5068 | 554 | -0.3 | -4.0 | ||
| 2013-05-31T11:46 | 5089 | 553 | -0.2 | -5.8 | ||
| 2013-05-31T11:47 | 5253 | 542 | -1.7 | -3.9 | ||
| 2013-05-31T11:47 | 5288 | 539 | -1.5 | -7.0 | ||
| 2013-05-31T11:47 | 5365 | 534 | 310 | 9 | ||
| 2013-05-31T11:47 | 5469 | 527 | -3.1 | -7.6 | ||
| 2013-05-31T11:48 | 5519 | 524 | -2.8 | -12.3 | ||
| 2013-05-31T11:48 | 5552 | 522 | -2.5 | -14.9 | ||
| 2013-05-31T11:48 | 5573 | 520 | -2.4 | -20.7 | ||
| 2013-05-31T11:48 | 5680 | 513 | 296 | 12 | ||
| 2013-05-31T11:49 | 5970 | 495 | -4.9 | -26.2 | ||
| 2013-05-31T11:49 | 6016 | 492 | 288 | 11 | ||
| 2013-05-31T11:49 | 6111 | 486 | -6.1 | -24.9 | ||
| 2013-05-31T11:49 | 6167 | 483 | -6.4 | -31.2 | ||
| 2013-05-31T11:50 | 6302 | 474 | -7.3 | -28.9 | ||
| 2013-05-31T11:50 | 6319 | 473 | -7.4 | -25.5 | ||
| 2013-05-31T11:50 | 6352 | 471 | 285 | 8 | ||
| 2013-05-31T11:50 | 6387 | 469 | -7.2 | -33.7 | ||
| 2013-05-31T11:50 | 6467 | 464 | -7.4 | -32.9 | ||
| 2013-05-31T11:51 | 6699 | 451 | 277 | 8 | ||
| 2013-05-31T11:51 | 6841 | 442 | -10.2 | -34.3 | ||
| 2013-05-31T11:52 | 7061 | 430 | 297 | 8 | ||
| 2013-05-31T11:52 | 7242 | 420 | -12.6 | -36.2 | ||
| 2013-05-31T11:53 | 7438 | 409 | 296 | 8 | ||
| 2013-05-31T11:53 | 7564 | 402 | -14.9 | -33.4 | ||
| 2013-05-31T11:54 | 7693 | 396 | -15.1 | -34.2 | ||
| 2013-05-31T11:54 | 7779 | 391 | 277 | 4 | ||
| 2013-05-31T11:54 | 7837 | 388 | -15.9 | -33.8 | ||
| 2013-05-31T11:54 | 7898 | 385 | -16.3 | -26.0 | ||
| 2013-05-31T11:54 | 7925 | 384 | -16.4 | -26.6 | ||
| 2013-05-31T11:55 | 7970 | 381 | -16.4 | -32.7 | ||
| 2013-05-31T11:55 | 8042 | 378 | -16.4 | -35.2 | ||
| 2013-05-31T11:55 | 8110 | 374 | 0 | 0 | ||
| 2013-05-31T11:55 | 8198 | 370 | -17.6 | -37.4 | ||
| 2013-05-31T11:55 | 8253 | 367 | -17.9 | -35.0 | ||
| 2013-05-31T11:56 | 8328 | 364 | -18.3 | -30.6 | ||
| 2013-05-31T11:56 | 8401 | 360 | -18.8 | -31.1 | ||
| 2013-05-31T11:56 | 8442 | 358 | 134 | 1 | ||
| 2013-05-31T11:56 | 8475 | 356 | -19.0 | -32.3 | ||
| 2013-05-31T11:56 | 8540 | 353 | -19.3 | -30.3 | ||
| 2013-05-31T11:57 | 8674 | 347 | -20.6 | -31.5 | ||
| 2013-05-31T11:57 | 8792 | 342 | 297 | 1 | ||
| 2013-05-31T11:57 | 8962 | 334 | -22.8 | -31.5 | ||
| 2013-05-31T11:58 | 9146 | 325 | 359 | 1 | ||
| 2013-05-31T11:58 | 9238 | 321 | -24.7 | -35.8 | ||
| 2013-05-31T11:59 | 9516 | 309 | 26 | 2 | ||
| 2013-05-31T11:59 | 9535 | 308 | -27.1 | -38.5 | ||
| 2013-05-31T12:00 | 9863 | 295 | -29.4 | -40.0 | ||
| 2013-05-31T12:00 | 9902 | 293 | 13 | 4 | ||
| 2013-05-31T12:01 | 10289 | 277 | -33.3 | -44.7 | 52 | 3 |
| 2013-05-31T12:02 | 10671 | 263 | 93 | 3 | ||
| 2013-05-31T12:03 | 10972 | 251 | -39.0 | -52.0 | ||
| 2013-05-31T12:03 | 11046 | 249 | 72 | 3 | ||
| 2013-05-31T12:03 | 11079 | 248 | -40.0 | -51.6 | ||
| 2013-05-31T12:03 | 11092 | 247 | -40.1 | |||
| 2013-05-31T12:04 | 11435 | 235 | 45 | 6 | ||
| 2013-05-31T12:05 | 11790 | 223 | 32 | 8 | ||
| 2013-05-31T12:06 | 12152 | 211 | 42 | 9 | ||
| 2013-05-31T12:07 | 12521 | 199 | 43 | 10 | ||
| 2013-05-31T12:08 | 12788 | 191 | -54.6 | |||
| 2013-05-31T12:08 | 12879 | 188 | 45 | 8 | ||
| 2013-05-31T12:09 | 13271 | 177 | 44 | 8 | ||
| 2013-05-31T12:10 | 13649 | 167 | 39 | 10 | ||
| 2013-05-31T12:10 | 13657 | 167 | -61.0 | |||
| 2013-05-31T12:11 | 14044 | 156 | -63.3 | |||
| 2013-05-31T12:11 | 14068 | 156 | 37 | 15 | ||
| 2013-05-31T12:12 | 14540 | 144 | 58 | 10 | ||
| 2013-05-31T12:12 | 14565 | 144 | -65.9 | |||
| 2013-05-31T12:13 | 14893 | 136 | -68.2 | |||
| 2013-05-31T12:13 | 14964 | 134 | 52 | 8 | ||
| 2013-05-31T12:13 | 15172 | 130 | -68.9 | |||
| 2013-05-31T12:14 | 15425 | 124 | 25 | 11 | ||
| 2013-05-31T12:14 | 15492 | 123 | -71.2 | |||
| 2013-05-31T12:15 | 15751 | 118 | 43 | 12 | ||
| 2013-05-31T12:15 | 15756 | 118 | -73.0 | |||
| 2013-05-31T23:31 | 8 | 1008 | 29.7 | 25.0 | 230 | 4 |
| 2013-05-31T23:31 | 25 | 1007 | 27.8 | 25.2 | ||
| 2013-05-31T23:32 | 183 | 989 | 26.4 | 22.3 | ||
| 2013-05-31T23:32 | 325 | 973 | 237 | 6 | ||
| 2013-05-31T23:33 | 588 | 944 | 23.0 | 20.0 | ||
| 2013-05-31T23:33 | 641 | 939 | 24.1 | 16.1 | ||
| 2013-05-31T23:33 | 677 | 935 | 238 | 7 | ||
| 2013-05-31T23:33 | 723 | 930 | 23.9 | 13.8 | ||
| 2013-05-31T23:33 | 824 | 919 | 23.6 | 13.8 | ||
| 2013-05-31T23:34 | 1020 | 899 | 22.5 | 12.2 | ||
| 2013-05-31T23:34 | 1026 | 898 | 227 | 8 | ||
| 2013-05-31T23:34 | 1171 | 883 | 21.6 | 12.2 | ||
| 2013-05-31T23:35 | 1248 | 875 | 21.1 | 13.0 | ||
| 2013-05-31T23:35 | 1349 | 865 | 21.0 | 11.6 | ||
| 2013-05-31T23:35 | 1360 | 864 | 220 | 6 | ||
| 2013-05-31T23:35 | 1417 | 859 | 20.7 | 10.8 | ||
| 2013-05-31T23:35 | 1459 | 854 | 20.4 | 13.6 | ||
| 2013-05-31T23:35 | 1505 | 850 | 20.6 | 12.6 | ||
| 2013-05-31T23:36 | 1558 | 845 | 20.6 | 11.0 | ||
| 2013-05-31T23:36 | 1680 | 833 | 19.8 | 11.3 | ||
| 2013-05-31T23:36 | 1709 | 830 | 189 | 2 | ||
| 2013-05-31T23:37 | 1905 | 811 | 18.3 | 10.2 | ||
| 2013-05-31T23:37 | 2043 | 798 | 17.2 | 10.6 | ||
| 2013-05-31T23:37 | 2055 | 797 | 301 | 1 | ||
| 2013-05-31T23:37 | 2095 | 794 | 16.9 | 10.1 | ||
| 2013-05-31T23:37 | 2164 | 787 | 16.8 | 6.9 | ||
| 2013-05-31T23:38 | 2353 | 770 | 15.2 | 7.5 | ||
| 2013-05-31T23:38 | 2398 | 766 | 264 | 3 | ||
| 2013-05-31T23:38 | 2565 | 751 | 13.9 | 5.8 | ||
| 2013-05-31T23:39 | 2747 | 735 | 12.9 | 6.5 | 227 | 4 |
| 2013-05-31T23:40 | 2999 | 713 | 11.4 | 6.1 | ||
| 2013-05-31T23:40 | 3087 | 706 | 10.9 | 8.1 | 254 | 7 |
| 2013-05-31T23:40 | 3128 | 702 | 10.7 | 7.8 | ||
| 2013-05-31T23:40 | 3189 | 697 | 10.5 | 7.0 | ||
| 2013-05-31T23:41 | 3413 | 679 | 9.0 | 4.8 | ||
| 2013-05-31T23:41 | 3442 | 676 | 257 | 6 | ||
| 2013-05-31T23:42 | 3660 | 659 | 7.5 | 1.8 | ||
| 2013-05-31T23:42 | 3732 | 653 | 7.4 | -0.6 | ||
| 2013-05-31T23:42 | 3805 | 647 | 266 | 7 | ||
| 2013-05-31T23:42 | 3900 | 640 | 6.4 | -2.2 | ||
| 2013-05-31T23:43 | 4076 | 626 | 5.4 | -3.9 | ||
| 2013-05-31T23:43 | 4160 | 620 | 277 | 7 | ||
| 2013-05-31T23:43 | 4203 | 616 | 4.7 | -4.1 | ||
| 2013-05-31T23:43 | 4264 | 612 | 4.3 | -4.2 | ||
| 2013-05-31T23:44 | 4493 | 595 | 3.1 | -5.8 | ||
| 2013-05-31T23:44 | 4530 | 592 | 275 | 7 | ||
| 2013-05-31T23:44 | 4647 | 584 | 2.2 | -5.9 | ||
| 2013-05-31T23:44 | 4671 | 582 | 2.0 | -3.9 | ||
| 2013-05-31T23:44 | 4689 | 581 | 1.9 | -5.5 | ||
| 2013-05-31T23:45 | 4713 | 579 | 1.9 | -6.9 | ||
| 2013-05-31T23:45 | 4787 | 574 | 1.4 | -6.2 | ||
| 2013-05-31T23:45 | 4873 | 567 | 0.9 | -4.7 | ||
| 2013-05-31T23:45 | 4897 | 566 | 269 | 8 | ||
| 2013-05-31T23:45 | 4960 | 561 | 0.4 | -5.4 | ||
| 2013-05-31T23:45 | 4990 | 559 | 0.3 | -5.5 | ||
| 2013-05-31T23:45 | 5021 | 557 | 0.3 | -8.7 | ||
| 2013-05-31T23:45 | 5060 | 554 | 0.0 | -8.9 | ||
| 2013-05-31T23:46 | 5142 | 549 | -0.5 | -7.8 | ||
| 2013-05-31T23:46 | 5275 | 540 | -1.3 | -8.1 | 283 | 6 |
| 2013-05-31T23:46 | 5289 | 539 | -1.4 | -8.4 | ||
| 2013-05-31T23:46 | 5308 | 537 | -1.4 | -9.0 | ||
| 2013-05-31T23:46 | 5370 | 533 | -1.9 | -8.6 | ||
| 2013-05-31T23:46 | 5427 | 529 | -2.2 | -8.7 | ||
| 2013-05-31T23:47 | 5509 | 524 | -2.6 | -6.9 | ||
| 2013-05-31T23:47 | 5651 | 515 | 289 | 6 | ||
| 2013-05-31T23:48 | 6008 | 492 | -5.9 | -8.5 | ||
| 2013-05-31T23:48 | 6021 | 491 | 293 | 5 | ||
| 2013-05-31T23:48 | 6196 | 480 | -6.8 | -9.4 | ||
| 2013-05-31T23:49 | 6395 | 468 | 318 | 7 | ||
| 2013-05-31T23:50 | 6661 | 452 | -9.7 | -11.9 | ||
| 2013-05-31T23:50 | 6776 | 446 | 345 | 7 | ||
| 2013-05-31T23:51 | 7078 | 429 | -10.7 | -17.4 | ||
| 2013-05-31T23:51 | 7154 | 424 | 352 | 5 | ||
| 2013-05-31T23:51 | 7225 | 420 | -11.5 | -20.3 | ||
| 2013-05-31T23:52 | 7474 | 407 | -13.7 | -21.0 | ||
| 2013-05-31T23:52 | 7540 | 403 | 331 | 2 | ||
| 2013-05-31T23:52 | 7545 | 403 | -14.2 | -21.1 | ||
| 2013-05-31T23:53 | 7927 | 383 | -17.4 | -21.7 | 332 | 5 |
| 2013-05-31T23:54 | 8273 | 366 | -20.2 | -23.6 | ||
| 2013-05-31T23:54 | 8303 | 364 | 338 | 7 | ||
| 2013-05-31T23:54 | 8466 | 356 | -21.2 | -26.0 | ||
| 2013-05-31T23:55 | 8534 | 353 | -20.8 | -30.1 | ||
| 2013-05-31T23:55 | 8606 | 350 | -21.1 | -36.0 | ||
| 2013-05-31T23:55 | 8667 | 347 | 316 | 6 | ||
| 2013-05-31T23:55 | 8839 | 339 | -22.6 | -36.1 | ||
| 2013-05-31T23:56 | 8893 | 336 | -23.0 | -36.5 | ||
| 2013-05-31T23:56 | 9036 | 330 | 301 | 6 | ||
| 2013-05-31T23:56 | 9201 | 322 | -25.5 | -37.7 | ||
| 2013-05-31T23:57 | 9339 | 316 | -26.7 | -36.0 | ||
| 2013-05-31T23:57 | 9412 | 313 | 317 | 8 | ||
| 2013-05-31T23:58 | 9685 | 301 | -29.8 | -36.5 | ||
| 2013-05-31T23:58 | 9797 | 297 | 310 | 5 | ||
| 2013-05-31T23:58 | 9934 | 291 | -31.8 | -39.2 | ||
| 2013-05-31T23:59 | 10205 | 280 | 322 | 5 | ||
| 2013-05-31T23:59 | 10273 | 277 | -34.3 | -42.5 |
